Wetterdaten: Freitag, 30.06.2017
Datum Zeit Temp. A. Temp. A. max Feuchte A. Luftdruck Regen Wind Richtung Richtung Sonnenschein ET UV Solar Taupunkt Windchill Windböen
30.06.2017 00:00 11,1 °C 11,1 °C 91 % 1004,9 hPa 0,0 mm 14,0 km/h (3 Bft) W-SW 244 ° 0 min 0,000 mm 0,0 UV-I 0 W/m² 9,7 °C 11,1 °C 17,7 km/h (3 Bft)
30.06.2017 00:01 11,1 °C 11,1 °C 91 % 1005,0 hPa 0,0 mm 12,3 km/h (3 Bft) W 259 ° 0 min 0,000 mm 0,0 UV-I 0 W/m² 9,7 °C 11,1 °C 20,9 km/h (4 Bft)
30.06.2017 00:02 11,1 °C 11,1 °C 91 % 1005,1 hPa 0,0 mm 8,5 km/h (2 Bft) SW 215 ° 0 min 0,000 mm 0,0 UV-I 0 W/m² 9,7 °C 11,1 °C 14,5 km/h (3 Bft)
30.06.2017 00:03 11,1 °C 11,1 °C 91 % 1005,1 hPa 0,0 mm 7,7 km/h (2 Bft) W-NW 294 ° 0 min 0,000 mm 0,0 UV-I 0 W/m² 9,7 °C 11,1 °C 12,9 km/h (3 Bft)
30.06.2017 00:04 11,1 °C 11,1 °C 91 % 1005,1 hPa 0,0 mm 9,2 km/h (2 Bft) W 265 ° 0 min 0,000 mm 0,0 UV-I 0 W/m² 9,7 °C 11,1 °C 14,5 km/h (3 Bft)
30.06.2017 00:05 11,2 °C 11,2 °C 91 % 1005,1 hPa 0,0 mm 11,8 km/h (2 Bft) W-SW 255 ° 0 min 0,000 mm 0,0 UV-I 0 W/m² 9,8 °C 11,2 °C 17,7 km/h (3 Bft)
30.06.2017 00:06 11,2 °C 11,2 °C 91 % 1005,1 hPa 0,0 mm 10,0 km/h (2 Bft) W 264 ° 0 min 0,000 mm 0,0 UV-I 0 W/m² 9,8 °C 11,2 °C 24,1 km/h (4 Bft)
30.06.2017 00:07 11,2 °C 11,2 °C 91 % 1005,1 hPa 0,0 mm 8,6 km/h (2 Bft) W 263 ° 0 min 0,000 mm 0,0 UV-I 0 W/m² 9,8 °C 11,2 °C 12,9 km/h (3 Bft)
30.06.2017 00:08 11,2 °C 11,2 °C 91 % 1005,2 hPa 0,0 mm 11,9 km/h (2 Bft) W 272 ° 0 min 0,000 mm 0,0 UV-I 0 W/m² 9,8 °C 11,2 °C 16,1 km/h (3 Bft)
30.06.2017 00:09 11,2 °C 11,2 °C 91 % 1005,2 hPa 0,0 mm 10,3 km/h (2 Bft) W-SW 248 ° 0 min 0,000 mm 0,0 UV-I 0 W/m² 9,8 °C 11,2 °C 14,5 km/h (3 Bft)
30.06.2017 00:10 11,2 °C 11,2 °C 91 % 1005,2 hPa 0,0 mm 6,8 km/h (2 Bft) W-SW 245 ° 0 min 0,000 mm 0,0 UV-I 0 W/m² 9,8 °C 11,2 °C 12,9 km/h (3 Bft)
30.06.2017 00:11 11,2 °C 11,2 °C 91 % 1005,2 hPa 0,0 mm 6,9 km/h (2 Bft) S-SW 197 ° 0 min 0,000 mm 0,0 UV-I 0 W/m² 9,8 °C 11,2 °C 14,5 km/h (3 Bft)
30.06.2017 00:12 11,2 °C 11,2 °C 91 % 1005,2 hPa 0,0 mm 6,2 km/h (2 Bft) W 274 ° 0 min 0,000 mm 0,0 UV-I 0 W/m² 9,8 °C 11,2 °C 12,9 km/h (3 Bft)
30.06.2017 00:13 11,2 °C 11,2 °C 91 % 1005,4 hPa 0,2 mm 15,2 km/h (3 Bft) SW 234 ° 0 min 0,000 mm 0,0 UV-I 0 W/m² 9,8 °C 11,2 °C 20,9 km/h (4 Bft)
30.06.2017 00:14 11,2 °C 11,2 °C 91 % 1005,3 hPa 0,0 mm 7,6 km/h (2 Bft) W-SW 239 ° 0 min 0,000 mm 0,0 UV-I 0 W/m² 9,8 °C 11,2 °C 17,7 km/h (3 Bft)
30.06.2017 00:15 11,2 °C 11,2 °C 91 % 1005,4 hPa 0,0 mm 6,6 km/h (2 Bft) W-SW 256 ° 0 min 0,000 mm 0,0 UV-I 0 W/m² 9,8 °C 11,2 °C 12,9 km/h (3 Bft)
30.06.2017 00:16 11,1 °C 11,2 °C 91 % 1005,3 hPa 0,0 mm 8,4 km/h (2 Bft) W-SW 254 ° 0 min 0,000 mm 0,0 UV-I 0 W/m² 9,7 °C 11,1 °C 14,5 km/h (3 Bft)
30.06.2017 00:17 11,1 °C 11,1 °C 92 % 1005,4 hPa 0,0 mm 6,0 km/h (2 Bft) W 267 ° 0 min 0,000 mm 0,0 UV-I 0 W/m² 9,8 °C 11,1 °C 12,9 km/h (3 Bft)
30.06.2017 00:18 11,1 °C 11,1 °C 91 % 1005,4 hPa 0,0 mm 6,9 km/h (2 Bft) W 260 ° 0 min 0,000 mm 0,0 UV-I 0 W/m² 9,7 °C 11,1 °C 11,3 km/h (2 Bft)
30.06.2017 00:19 11,1 °C 11,1 °C 92 % 1005,4 hPa 0,0 mm 7,3 km/h (2 Bft) S-SW 198 ° 0 min 0,000 mm 0,0 UV-I 0 W/m² 9,8 °C 11,1 °C 12,9 km/h (3 Bft)
30.06.2017 00:20 11,0 °C 11,1 °C 92 % 1005,4 hPa 0,2 mm 5,8 km/h (2 Bft) W-SW 251 ° 0 min 0,000 mm 0,0 UV-I 0 W/m² 9,8 °C 11,0 °C 14,5 km/h (3 Bft)
30.06.2017 00:21 11,0 °C 11,0 °C 92 % 1005,4 hPa 0,0 mm 7,3 km/h (2 Bft) W-SW 239 ° 0 min 0,000 mm 0,0 UV-I 0 W/m² 9,8 °C 11,0 °C 11,3 km/h (2 Bft)
30.06.2017 00:22 10,9 °C 11,0 °C 92 % 1005,4 hPa 0,0 mm 4,3 km/h (1 Bft) W-SW 243 ° 0 min 0,000 mm 0,0 UV-I 0 W/m² 9,7 °C 10,9 °C 8,0 km/h (2 Bft)
30.06.2017 00:23 10,9 °C 10,9 °C 92 % 1005,4 hPa 0,0 mm 9,0 km/h (2 Bft) W-SW 240 ° 0 min 0,000 mm 0,0 UV-I 0 W/m² 9,7 °C 10,9 °C 12,9 km/h (3 Bft)
30.06.2017 00:24 10,9 °C 10,9 °C 92 % 1005,4 hPa 0,0 mm 12,3 km/h (3 Bft) W-SW 258 ° 0 min 0,000 mm 0,0 UV-I 0 W/m² 9,7 °C 10,9 °C 16,1 km/h (3 Bft)
30.06.2017 00:25 10,9 °C 10,9 °C 92 % 1005,4 hPa 0,0 mm 4,9 km/h (1 Bft) W-SW 252 ° 0 min 0,000 mm 0,0 UV-I 0 W/m² 9,7 °C 10,9 °C 6,4 km/h (2 Bft)
30.06.2017 00:26 10,8 °C 10,9 °C 92 % 1005,4 hPa 0,0 mm 2,7 km/h (1 Bft) W 271 ° 0 min 0,000 mm 0,0 UV-I 0 W/m² 9,6 °C 10,8 °C 4,8 km/h (1 Bft)
30.06.2017 00:27 10,9 °C 10,9 °C 92 % 1005,4 hPa 0,2 mm 9,8 km/h (2 Bft) W-SW 242 ° 0 min 0,000 mm 0,0 UV-I 0 W/m² 9,7 °C 10,9 °C 14,5 km/h (3 Bft)
30.06.2017 00:28 10,9 °C 10,9 °C 92 % 1005,4 hPa 0,0 mm 8,8 km/h (2 Bft) W 269 ° 0 min 0,000 mm 0,0 UV-I 0 W/m² 9,7 °C 10,9 °C 14,5 km/h (3 Bft)
30.06.2017 00:29 10,9 °C 10,9 °C 92 % 1005,4 hPa 0,0 mm 4,4 km/h (1 Bft) W 267 ° 0 min 0,000 mm 0,0 UV-I 0 W/m² 9,7 °C 10,9 °C 6,4 km/h (2 Bft)
30.06.2017 00:30 10,8 °C 10,9 °C 93 % 1005,4 hPa 0,0 mm 7,8 km/h (2 Bft) SW 231 ° 0 min 0,000 mm 0,0 UV-I 0 W/m² 9,7 °C 10,8 °C 14,5 km/h (3 Bft)
30.06.2017 00:31 10,8 °C 10,8 °C 93 % 1005,3 hPa 0,0 mm 7,0 km/h (2 Bft) W 268 ° 0 min 0,000 mm 0,0 UV-I 0 W/m² 9,7 °C 10,8 °C 14,5 km/h (3 Bft)
30.06.2017 00:32 10,8 °C 10,8 °C 93 % 1005,3 hPa 0,0 mm 7,5 km/h (2 Bft) W 259 ° 0 min 0,000 mm 0,0 UV-I 0 W/m² 9,7 °C 10,8 °C 16,1 km/h (3 Bft)
30.06.2017 00:33 10,8 °C 10,8 °C 93 % 1005,4 hPa 0,2 mm 5,2 km/h (1 Bft) W 271 ° 0 min 0,000 mm 0,0 UV-I 0 W/m² 9,7 °C 10,8 °C 9,7 km/h (2 Bft)
30.06.2017 00:34 10,8 °C 10,8 °C 93 % 1005,4 hPa 0,0 mm 9,3 km/h (2 Bft) W-SW 242 ° 0 min 0,000 mm 0,0 UV-I 0 W/m² 9,7 °C 10,8 °C 14,5 km/h (3 Bft)
30.06.2017 00:35 10,8 °C 10,8 °C 93 % 1005,4 hPa 0,0 mm 4,9 km/h (1 Bft) W-SW 258 ° 0 min 0,000 mm 0,0 UV-I 0 W/m² 9,7 °C 10,8 °C 9,7 km/h (2 Bft)
30.06.2017 00:36 10,8 °C 10,8 °C 93 % 1005,4 hPa 0,0 mm 3,5 km/h (1 Bft) W-SW 245 ° 0 min 0,000 mm 0,0 UV-I 0 W/m² 9,7 °C 10,8 °C 6,4 km/h (2 Bft)
30.06.2017 00:37 10,8 °C 10,8 °C 93 % 1005,3 hPa 0,0 mm 4,2 km/h (1 Bft) W 263 ° 0 min 0,000 mm 0,0 UV-I 0 W/m² 9,7 °C 10,8 °C 11,3 km/h (2 Bft)
30.06.2017 00:38 10,8 °C 10,8 °C 93 % 1005,4 hPa 0,2 mm 5,9 km/h (2 Bft) W-SW 246 ° 0 min 0,000 mm 0,0 UV-I 0 W/m² 9,7 °C 10,8 °C 11,3 km/h (2 Bft)
30.06.2017 00:39 10,8 °C 10,8 °C 93 % 1005,3 hPa 0,0 mm 2,5 km/h (1 Bft) W-NW 292 ° 0 min 0,000 mm 0,0 UV-I 0 W/m² 9,7 °C 10,8 °C 6,4 km/h (2 Bft)
30.06.2017 00:40 10,8 °C 10,8 °C 93 % 1005,3 hPa 0,0 mm 3,2 km/h (1 Bft) W 279 ° 0 min 0,000 mm 0,0 UV-I 0 W/m² 9,7 °C 10,8 °C 4,8 km/h (1 Bft)
30.06.2017 00:41 10,8 °C 10,8 °C 93 % 1005,4 hPa 0,0 mm 3,2 km/h (1 Bft) W 269 ° 0 min 0,000 mm 0,0 UV-I 0 W/m² 9,7 °C 10,8 °C 4,8 km/h (1 Bft)
30.06.2017 00:42 10,8 °C 10,8 °C 93 % 1005,3 hPa 0,0 mm 1,6 km/h (1 Bft) W 279 ° 0 min 0,000 mm 0,0 UV-I 0 W/m² 9,7 °C 10,8 °C 4,8 km/h (1 Bft)
30.06.2017 00:43 10,8 °C 10,8 °C 93 % 1005,4 hPa 0,0 mm 5,8 km/h (2 Bft) W-SW 255 ° 0 min 0,000 mm 0,0 UV-I 0 W/m² 9,7 °C 10,8 °C 12,9 km/h (3 Bft)
30.06.2017 00:44 10,8 °C 10,8 °C 93 % 1005,4 hPa 0,2 mm 3,7 km/h (1 Bft) W-SW 257 ° 0 min 0,000 mm 0,0 UV-I 0 W/m² 9,7 °C 10,8 °C 4,8 km/h (1 Bft)
30.06.2017 00:45 10,8 °C 10,8 °C 93 % 1005,4 hPa 0,0 mm 0,2 km/h (0 Bft) W-SW 257 ° 0 min 0,000 mm 0,0 UV-I 0 W/m² 9,7 °C 10,8 °C 1,6 km/h (1 Bft)
30.06.2017 00:46 10,8 °C 10,8 °C 93 % 1005,4 hPa 0,0 mm 0,8 km/h (0 Bft) W-NW 288 ° 0 min 0,000 mm 0,0 UV-I 0 W/m² 9,7 °C 10,8 °C 3,2 km/h (1 Bft)
30.06.2017 00:47 10,8 °C 10,8 °C 93 % 1005,4 hPa 0,0 mm 1,3 km/h (1 Bft) W-NW 288 ° 0 min 0,000 mm 0,0 UV-I 0 W/m² 9,7 °C 10,8 °C 3,2 km/h (1 Bft)
30.06.2017 00:48 10,7 °C 10,8 °C 93 % 1005,4 hPa 0,0 mm 2,1 km/h (1 Bft) W 268 ° 0 min 0,000 mm 0,0 UV-I 0 W/m² 9,6 °C 10,7 °C 4,8 km/h (1 Bft)
30.06.2017 00:49 10,8 °C 10,8 °C 93 % 1005,4 hPa 0,0 mm 1,5 km/h (1 Bft) W 268 ° 0 min 0,000 mm 0,0 UV-I 0 W/m² 9,7 °C 10,8 °C 3,2 km/h (1 Bft)
30.06.2017 00:50 10,7 °C 10,8 °C 93 % 1005,4 hPa 0,0 mm 0,1 km/h (0 Bft) W 268 ° 0 min 0,000 mm 0,0 UV-I 0 W/m² 9,6 °C 10,7 °C 1,6 km/h (1 Bft)
30.06.2017 00:51 10,8 °C 10,8 °C 93 % 1005,4 hPa 0,0 mm 2,2 km/h (1 Bft) W 268 ° 0 min 0,000 mm 0,0 UV-I 0 W/m² 9,7 °C 10,8 °C 4,8 km/h (1 Bft)
30.06.2017 00:52 10,8 °C 10,8 °C 93 % 1005,4 hPa 0,0 mm 0,0 km/h (0 Bft) W 268 ° 0 min 0,000 mm 0,0 UV-I 0 W/m² 9,7 °C 10,8 °C 0,0 km/h (0 Bft)
30.06.2017 00:53 10,8 °C 10,8 °C 93 % 1005,4 hPa 0,2 mm 0,3 km/h (0 Bft) W 268 ° 0 min 0,000 mm 0,0 UV-I 0 W/m² 9,7 °C 10,8 °C 1,6 km/h (1 Bft)
30.06.2017 00:54 10,8 °C 10,8 °C 93 % 1005,4 hPa 0,0 mm 1,6 km/h (1 Bft) W 268 ° 0 min 0,000 mm 0,0 UV-I 0 W/m² 9,7 °C 10,8 °C 3,2 km/h (1 Bft)
30.06.2017 00:55 10,8 °C 10,8 °C 93 % 1005,4 hPa 0,0 mm 2,4 km/h (1 Bft) W 268 ° 0 min 0,000 mm 0,0 UV-I 0 W/m² 9,7 °C 10,8 °C 4,8 km/h (1 Bft)
30.06.2017 00:56 10,8 °C 10,8 °C 93 % 1005,4 hPa 0,0 mm 1,4 km/h (1 Bft) W 266 ° 0 min 0,000 mm 0,0 UV-I 0 W/m² 9,7 °C 10,8 °C 3,2 km/h (1 Bft)
30.06.2017 00:57 10,8 °C 10,8 °C 93 % 1005,4 hPa 0,0 mm 1,4 km/h (1 Bft) W 266 ° 0 min 0,000 mm 0,0 UV-I 0 W/m² 9,7 °C 10,8 °C 4,8 km/h (1 Bft)
30.06.2017 00:58 10,8 °C 10,8 °C 93 % 1005,4 hPa 0,0 mm 0,0 km/h (0 Bft) W 266 ° 0 min 0,000 mm 0,0 UV-I 0 W/m² 9,7 °C 10,8 °C 0,0 km/h (0 Bft)
30.06.2017 00:59 10,7 °C 10,8 °C 93 % 1005,3 hPa 0,0 mm 0,0 km/h (0 Bft) W 266 ° 0 min 0,000 mm 0,0 UV-I 0 W/m² 9,6 °C 10,7 °C 0,0 km/h (0 Bft)
30.06.2017 01:00 10,7 °C 10,7 °C 93 % 1005,3 hPa 0,0 mm 0,0 km/h (0 Bft) W 266 ° 0 min 0,000 mm 0,0 UV-I 0 W/m² 9,6 °C 10,7 °C 0,0 km/h (0 Bft)
30.06.2017 01:01 10,7 °C 10,7 °C 93 % 1005,3 hPa 0,0 mm 0,0 km/h (0 Bft) W 266 ° 0 min 0,000 mm 0,0 UV-I 0 W/m² 9,6 °C 10,7 °C 0,0 km/h (0 Bft)
30.06.2017 01:02 10,7 °C 10,7 °C 93 % 1005,3 hPa 0,0 mm 1,4 km/h (1 Bft) SW 219 ° 0 min 0,000 mm 0,0 UV-I 0 W/m² 9,6 °C 10,7 °C 3,2 km/h (1 Bft)
30.06.2017 01:03 10,7 °C 10,7 °C 93 % 1005,2 hPa 0,0 mm 0,0 km/h (0 Bft) SW 219 ° 0 min 0,000 mm 0,0 UV-I 0 W/m² 9,6 °C 10,7 °C 0,0 km/h (0 Bft)
30.06.2017 01:04 10,7 °C 10,7 °C 93 % 1005,2 hPa 0,0 mm 0,0 km/h (0 Bft) SW 219 ° 0 min 0,000 mm 0,0 UV-I 0 W/m² 9,6 °C 10,7 °C 0,0 km/h (0 Bft)
30.06.2017 01:05 10,7 °C 10,7 °C 93 % 1005,2 hPa 0,0 mm 0,0 km/h (0 Bft) SW 219 ° 0 min 0,000 mm 0,0 UV-I 0 W/m² 9,6 °C 10,7 °C 0,0 km/h (0 Bft)
30.06.2017 01:06 10,6 °C 10,7 °C 93 % 1005,2 hPa 0,0 mm 0,0 km/h (0 Bft) SW 219 ° 0 min 0,000 mm 0,0 UV-I 0 W/m² 9,5 °C 10,6 °C 0,0 km/h (0 Bft)
30.06.2017 01:07 10,6 °C 10,7 °C 93 % 1005,2 hPa 0,0 mm 0,0 km/h (0 Bft) SW 219 ° 0 min 0,000 mm 0,0 UV-I 0 W/m² 9,5 °C 10,6 °C 0,0 km/h (0 Bft)
30.06.2017 01:08 10,6 °C 10,6 °C 94 % 1005,2 hPa 0,0 mm 0,0 km/h (0 Bft) SW 219 ° 0 min 0,000 mm 0,0 UV-I 0 W/m² 9,7 °C 10,6 °C 0,0 km/h (0 Bft)
30.06.2017 01:09 10,5 °C 10,6 °C 94 % 1005,2 hPa 0,0 mm 0,0 km/h (0 Bft) SW 219 ° 0 min 0,000 mm 0,0 UV-I 0 W/m² 9,6 °C 10,5 °C 0,0 km/h (0 Bft)
30.06.2017 01:10 10,5 °C 10,6 °C 94 % 1005,2 hPa 0,0 mm 0,0 km/h (0 Bft) SW 219 ° 0 min 0,000 mm 0,0 UV-I 0 W/m² 9,6 °C 10,5 °C 0,0 km/h (0 Bft)
30.06.2017 01:11 10,5 °C 10,6 °C 94 % 1005,2 hPa 0,0 mm 0,0 km/h (0 Bft) SW 219 ° 0 min 0,000 mm 0,0 UV-I 0 W/m² 9,6 °C 10,5 °C 0,0 km/h (0 Bft)
30.06.2017 01:12 10,4 °C 10,5 °C 94 % 1005,2 hPa 0,0 mm 0,0 km/h (0 Bft) SW 219 ° 0 min 0,000 mm 0,0 UV-I 0 W/m² 9,5 °C 10,4 °C 0,0 km/h (0 Bft)
30.06.2017 01:13 10,4 °C 10,4 °C 94 % 1005,2 hPa 0,0 mm 0,0 km/h (0 Bft) SW 219 ° 0 min 0,000 mm 0,0 UV-I 0 W/m² 9,5 °C 10,4 °C 0,0 km/h (0 Bft)
30.06.2017 01:14 10,4 °C 10,4 °C 94 % 1005,2 hPa 0,0 mm 0,0 km/h (0 Bft) SW 219 ° 0 min 0,000 mm 0,0 UV-I 0 W/m² 9,5 °C 10,4 °C 0,0 km/h (0 Bft)
30.06.2017 01:15 10,4 °C 10,4 °C 94 % 1005,2 hPa 0,0 mm 0,5 km/h (0 Bft) S 182 ° 0 min 0,000 mm 0,0 UV-I 0 W/m² 9,5 °C 10,4 °C 3,2 km/h (1 Bft)
30.06.2017 01:16 10,4 °C 10,4 °C 94 % 1005,1 hPa 0,0 mm 0,5 km/h (0 Bft) S 182 ° 0 min 0,000 mm 0,0 UV-I 0 W/m² 9,5 °C 10,4 °C 1,6 km/h (1 Bft)
30.06.2017 01:17 10,4 °C 10,4 °C 94 % 1005,1 hPa 0,0 mm 0,1 km/h (0 Bft) S 182 ° 0 min 0,000 mm 0,0 UV-I 0 W/m² 9,5 °C 10,4 °C 1,6 km/h (1 Bft)
30.06.2017 01:18 10,4 °C 10,4 °C 94 % 1005,1 hPa 0,0 mm 0,6 km/h (0 Bft) S 182 ° 0 min 0,000 mm 0,0 UV-I 0 W/m² 9,5 °C 10,4 °C 1,6 km/h (1 Bft)
30.06.2017 01:19 10,4 °C 10,4 °C 94 % 1005,0 hPa 0,0 mm 0,6 km/h (0 Bft) S 182 ° 0 min 0,000 mm 0,0 UV-I 0 W/m² 9,5 °C 10,4 °C 1,6 km/h (1 Bft)
30.06.2017 01:20 10,3 °C 10,4 °C 94 % 1005,1 hPa 0,0 mm 0,0 km/h (0 Bft) S 182 ° 0 min 0,000 mm 0,0 UV-I 0 W/m² 9,4 °C 10,3 °C 0,0 km/h (0 Bft)
30.06.2017 01:21 10,3 °C 10,3 °C 94 % 1005,1 hPa 0,0 mm 0,0 km/h (0 Bft) S 182 ° 0 min 0,000 mm 0,0 UV-I 0 W/m² 9,4 °C 10,3 °C 0,0 km/h (0 Bft)
30.06.2017 01:22 10,3 °C 10,3 °C 94 % 1005,1 hPa 0,0 mm 0,0 km/h (0 Bft) S 182 ° 0 min 0,000 mm 0,0 UV-I 0 W/m² 9,4 °C 10,3 °C 0,0 km/h (0 Bft)
30.06.2017 01:23 10,3 °C 10,3 °C 94 % 1005,1 hPa 0,0 mm 0,0 km/h (0 Bft) S 182 ° 0 min 0,000 mm 0,0 UV-I 0 W/m² 9,4 °C 10,3 °C 0,0 km/h (0 Bft)
30.06.2017 01:24 10,3 °C 10,3 °C 94 % 1005,1 hPa 0,0 mm 0,9 km/h (0 Bft) S 182 ° 0 min 0,000 mm 0,0 UV-I 0 W/m² 9,4 °C 10,3 °C 1,6 km/h (1 Bft)
30.06.2017 01:25 10,3 °C 10,3 °C 94 % 1005,1 hPa 0,0 mm 0,9 km/h (0 Bft) S 182 ° 0 min 0,000 mm 0,0 UV-I 0 W/m² 9,4 °C 10,3 °C 1,6 km/h (1 Bft)
30.06.2017 01:26 10,3 °C 10,3 °C 94 % 1005,1 hPa 0,0 mm 0,9 km/h (0 Bft) S 182 ° 0 min 0,000 mm 0,0 UV-I 0 W/m² 9,4 °C 10,3 °C 1,6 km/h (1 Bft)
30.06.2017 01:27 10,3 °C 10,3 °C 94 % 1005,1 hPa 0,0 mm 1,6 km/h (1 Bft) S 182 ° 0 min 0,000 mm 0,0 UV-I 0 W/m² 9,4 °C 10,3 °C 3,2 km/h (1 Bft)
30.06.2017 01:28 10,3 °C 10,3 °C 94 % 1005,0 hPa 0,0 mm 1,1 km/h (1 Bft) S 182 ° 0 min 0,000 mm 0,0 UV-I 0 W/m² 9,4 °C 10,3 °C 3,2 km/h (1 Bft)
30.06.2017 01:29 10,3 °C 10,3 °C 94 % 1005,0 hPa 0,0 mm 0,7 km/h (0 Bft) S 182 ° 0 min 0,000 mm 0,0 UV-I 0 W/m² 9,4 °C 10,3 °C 1,6 km/h (1 Bft)
30.06.2017 01:30 10,3 °C 10,3 °C 94 % 1005,0 hPa 0,0 mm 0,0 km/h (0 Bft) S 182 ° 0 min 0,000 mm 0,0 UV-I 0 W/m² 9,4 °C 10,3 °C 0,0 km/h (0 Bft)
30.06.2017 01:31 10,3 °C 10,3 °C 94 % 1005,1 hPa 0,0 mm 0,0 km/h (0 Bft) S 182 ° 0 min 0,000 mm 0,0 UV-I 0 W/m² 9,4 °C 10,3 °C 0,0 km/h (0 Bft)
30.06.2017 01:32 10,3 °C 10,3 °C 95 % 1005,1 hPa 0,0 mm 0,0 km/h (0 Bft) S 182 ° 0 min 0,000 mm 0,0 UV-I 0 W/m² 9,5 °C 10,3 °C 0,0 km/h (0 Bft)
30.06.2017 01:33 10,3 °C 10,3 °C 95 % 1005,1 hPa 0,0 mm 0,9 km/h (0 Bft) W-SW 257 ° 0 min 0,000 mm 0,0 UV-I 0 W/m² 9,5 °C 10,3 °C 1,6 km/h (1 Bft)
30.06.2017 01:34 10,3 °C 10,3 °C 95 % 1005,1 hPa 0,0 mm 0,1 km/h (0 Bft) W-SW 257 ° 0 min 0,000 mm 0,0 UV-I 0 W/m² 9,5 °C 10,3 °C 1,6 km/h (1 Bft)
30.06.2017 01:35 10,3 °C 10,3 °C 95 % 1005,0 hPa 0,0 mm 0,1 km/h (0 Bft) W-SW 257 ° 0 min 0,000 mm 0,0 UV-I 0 W/m² 9,5 °C 10,3 °C 1,6 km/h (1 Bft)
30.06.2017 01:36 10,3 °C 10,3 °C 95 % 1005,0 hPa 0,0 mm 0,0 km/h (0 Bft) W-SW 257 ° 0 min 0,000 mm 0,0 UV-I 0 W/m² 9,5 °C 10,3 °C 0,0 km/h (0 Bft)
30.06.2017 01:37 10,3 °C 10,3 °C 95 % 1005,1 hPa 0,0 mm 0,0 km/h (0 Bft) W-SW 257 ° 0 min 0,000 mm 0,0 UV-I 0 W/m² 9,5 °C 10,3 °C 0,0 km/h (0 Bft)
30.06.2017 01:38 10,3 °C 10,3 °C 95 % 1005,0 hPa 0,0 mm 0,0 km/h (0 Bft) W-SW 257 ° 0 min 0,000 mm 0,0 UV-I 0 W/m² 9,5 °C 10,3 °C 0,0 km/h (0 Bft)
30.06.2017 01:39 10,2 °C 10,3 °C 95 % 1005,0 hPa 0,0 mm 1,4 km/h (1 Bft) W-SW 257 ° 0 min 0,000 mm 0,0 UV-I 0 W/m² 9,4 °C 10,2 °C 3,2 km/h (1 Bft)
30.06.2017 01:40 10,3 °C 10,3 °C 94 % 1005,0 hPa 0,0 mm 0,4 km/h (0 Bft) W-SW 257 ° 0 min 0,000 mm 0,0 UV-I 0 W/m² 9,4 °C 10,3 °C 1,6 km/h (1 Bft)
30.06.2017 01:41 10,2 °C 10,3 °C 95 % 1005,0 hPa 0,0 mm 0,7 km/h (0 Bft) W-SW 257 ° 0 min 0,000 mm 0,0 UV-I 0 W/m² 9,4 °C 10,2 °C 3,2 km/h (1 Bft)
30.06.2017 01:42 10,2 °C 10,3 °C 94 % 1005,0 hPa 0,0 mm 2,8 km/h (1 Bft) S-SO 157 ° 0 min 0,000 mm 0,0 UV-I 0 W/m² 9,3 °C 10,2 °C 4,8 km/h (1 Bft)
30.06.2017 01:43 10,2 °C 10,3 °C 94 % 1005,0 hPa 0,0 mm 0,5 km/h (0 Bft) S-SO 157 ° 0 min 0,000 mm 0,0 UV-I 0 W/m² 9,3 °C 10,2 °C 3,2 km/h (1 Bft)
30.06.2017 01:44 10,2 °C 10,2 °C 94 % 1005,0 hPa 0,0 mm 0,0 km/h (0 Bft) S-SO 157 ° 0 min 0,000 mm 0,0 UV-I 0 W/m² 9,3 °C 10,2 °C 0,0 km/h (0 Bft)
30.06.2017 01:45 10,2 °C 10,3 °C 95 % 1005,0 hPa 0,0 mm 0,0 km/h (0 Bft) S-SO 157 ° 0 min 0,000 mm 0,0 UV-I 0 W/m² 9,4 °C 10,2 °C 0,0 km/h (0 Bft)
30.06.2017 01:46 10,2 °C 10,3 °C 95 % 1005,0 hPa 0,0 mm 0,0 km/h (0 Bft) S-SO 157 ° 0 min 0,000 mm 0,0 UV-I 0 W/m² 9,4 °C 10,2 °C 0,0 km/h (0 Bft)
30.06.2017 01:47 10,3 °C 10,3 °C 95 % 1005,0 hPa 0,0 mm 0,0 km/h (0 Bft) S-SO 157 ° 0 min 0,000 mm 0,0 UV-I 0 W/m² 9,5 °C 10,3 °C 0,0 km/h (0 Bft)
30.06.2017 01:48 10,2 °C 10,3 °C 95 % 1005,1 hPa 0,0 mm 0,0 km/h (0 Bft) S-SO 157 ° 0 min 0,000 mm 0,0 UV-I 0 W/m² 9,4 °C 10,2 °C 0,0 km/h (0 Bft)
30.06.2017 01:49 10,3 °C 10,3 °C 95 % 1005,1 hPa 0,0 mm 0,0 km/h (0 Bft) S-SO 157 ° 0 min 0,000 mm 0,0 UV-I 0 W/m² 9,5 °C 10,3 °C 0,0 km/h (0 Bft)
30.06.2017 01:50 10,3 °C 10,3 °C 95 % 1005,2 hPa 0,0 mm 0,0 km/h (0 Bft) S-SO 157 ° 0 min 0,000 mm 0,0 UV-I 0 W/m² 9,5 °C 10,3 °C 0,0 km/h (0 Bft)
30.06.2017 01:51 10,3 °C 10,3 °C 95 % 1005,1 hPa 0,0 mm 0,0 km/h (0 Bft) S-SO 157 ° 0 min 0,000 mm 0,0 UV-I 0 W/m² 9,5 °C 10,3 °C 0,0 km/h (0 Bft)
30.06.2017 01:52 10,2 °C 10,3 °C 95 % 1005,2 hPa 0,0 mm 0,0 km/h (0 Bft) S-SO 157 ° 0 min 0,000 mm 0,0 UV-I 0 W/m² 9,4 °C 10,2 °C 0,0 km/h (0 Bft)
30.06.2017 01:53 10,3 °C 10,3 °C 95 % 1005,2 hPa 0,0 mm 0,1 km/h (0 Bft) S-SO 157 ° 0 min 0,000 mm 0,0 UV-I 0 W/m² 9,5 °C 10,3 °C 1,6 km/h (1 Bft)
30.06.2017 01:54 10,2 °C 10,3 °C 94 % 1005,2 hPa 0,0 mm 0,0 km/h (0 Bft) S-SO 157 ° 0 min 0,000 mm 0,0 UV-I 0 W/m² 9,3 °C 10,2 °C 0,0 km/h (0 Bft)
30.06.2017 01:55 10,2 °C 10,2 °C 95 % 1005,2 hPa 0,0 mm 0,0 km/h (0 Bft) S-SO 157 ° 0 min 0,000 mm 0,0 UV-I 0 W/m² 9,4 °C 10,2 °C 0,0 km/h (0 Bft)
30.06.2017 01:56 10,2 °C 10,2 °C 95 % 1005,2 hPa 0,0 mm 0,0 km/h (0 Bft) S-SO 157 ° 0 min 0,000 mm 0,0 UV-I 0 W/m² 9,4 °C 10,2 °C 0,0 km/h (0 Bft)
30.06.2017 01:57 10,2 °C 10,2 °C 95 % 1005,2 hPa 0,0 mm 0,0 km/h (0 Bft) S-SO 157 ° 0 min 0,000 mm 0,0 UV-I 0 W/m² 9,4 °C 10,2 °C 0,0 km/h (0 Bft)
30.06.2017 01:58 10,2 °C 10,2 °C 95 % 1005,2 hPa 0,0 mm 0,0 km/h (0 Bft) S-SO 157 ° 0 min 0,000 mm 0,0 UV-I 0 W/m² 9,4 °C 10,2 °C 0,0 km/h (0 Bft)
30.06.2017 01:59 10,2 °C 10,2 °C 95 % 1005,2 hPa 0,0 mm 0,0 km/h (0 Bft) S-SO 157 ° 0 min 0,000 mm 0,0 UV-I 0 W/m² 9,4 °C 10,2 °C 0,0 km/h (0 Bft)
30.06.2017 02:00 10,2 °C 10,2 °C 95 % 1005,2 hPa 0,0 mm 0,0 km/h (0 Bft) S-SO 157 ° 0 min 0,000 mm 0,0 UV-I 0 W/m² 9,4 °C 10,2 °C 0,0 km/h (0 Bft)
30.06.2017 02:01 10,2 °C 10,2 °C 95 % 1005,2 hPa 0,0 mm 0,0 km/h (0 Bft) S-SO 157 ° 0 min 0,000 mm 0,0 UV-I 0 W/m² 9,4 °C 10,2 °C 0,0 km/h (0 Bft)
30.06.2017 02:02 10,2 °C 10,2 °C 95 % 1005,2 hPa 0,0 mm 0,0 km/h (0 Bft) S-SO 157 ° 0 min 0,000 mm 0,0 UV-I 0 W/m² 9,4 °C 10,2 °C 0,0 km/h (0 Bft)
30.06.2017 02:03 10,2 °C 10,2 °C 95 % 1005,3 hPa 0,0 mm 0,0 km/h (0 Bft) S-SO 157 ° 0 min 0,000 mm 0,0 UV-I 0 W/m² 9,4 °C 10,2 °C 0,0 km/h (0 Bft)
30.06.2017 02:04 10,2 °C 10,2 °C 95 % 1005,2 hPa 0,0 mm 0,0 km/h (0 Bft) S-SO 157 ° 0 min 0,000 mm 0,0 UV-I 0 W/m² 9,4 °C 10,2 °C 0,0 km/h (0 Bft)
30.06.2017 02:05 10,2 °C 10,2 °C 95 % 1005,2 hPa 0,0 mm 0,0 km/h (0 Bft) S-SO 157 ° 0 min 0,000 mm 0,0 UV-I 0 W/m² 9,4 °C 10,2 °C 0,0 km/h (0 Bft)
30.06.2017 02:06 10,1 °C 10,2 °C 95 % 1005,2 hPa 0,0 mm 0,0 km/h (0 Bft) S-SO 157 ° 0 min 0,000 mm 0,0 UV-I 0 W/m² 9,3 °C 10,1 °C 0,0 km/h (0 Bft)
30.06.2017 02:07 10,1 °C 10,2 °C 95 % 1005,4 hPa 0,0 mm 0,6 km/h (0 Bft) S-SO 157 ° 0 min 0,000 mm 0,0 UV-I 0 W/m² 9,3 °C 10,1 °C 1,6 km/h (1 Bft)
30.06.2017 02:08 10,1 °C 10,2 °C 95 % 1005,4 hPa 0,0 mm 0,0 km/h (0 Bft) S-SO 157 ° 0 min 0,000 mm 0,0 UV-I 0 W/m² 9,3 °C 10,1 °C 0,0 km/h (0 Bft)
30.06.2017 02:09 10,1 °C 10,1 °C 95 % 1005,3 hPa 0,0 mm 0,9 km/h (0 Bft) S-SO 157 ° 0 min 0,000 mm 0,0 UV-I 0 W/m² 9,3 °C 10,1 °C 1,6 km/h (1 Bft)
30.06.2017 02:10 10,1 °C 10,1 °C 95 % 1005,3 hPa 0,0 mm 1,4 km/h (1 Bft) S-SO 157 ° 0 min 0,000 mm 0,0 UV-I 0 W/m² 9,3 °C 10,1 °C 1,6 km/h (1 Bft)
30.06.2017 02:11 10,1 °C 10,1 °C 95 % 1005,4 hPa 0,0 mm 0,6 km/h (0 Bft) S-SO 157 ° 0 min 0,000 mm 0,0 UV-I 0 W/m² 9,3 °C 10,1 °C 1,6 km/h (1 Bft)
30.06.2017 02:12 10,1 °C 10,1 °C 95 % 1005,3 hPa 0,0 mm 0,0 km/h (0 Bft) S-SO 157 ° 0 min 0,000 mm 0,0 UV-I 0 W/m² 9,3 °C 10,1 °C 0,0 km/h (0 Bft)
30.06.2017 02:13 10,1 °C 10,1 °C 95 % 1005,3 hPa 0,0 mm 1,4 km/h (1 Bft) S-SO 157 ° 0 min 0,000 mm 0,0 UV-I 0 W/m² 9,3 °C 10,1 °C 3,2 km/h (1 Bft)
30.06.2017 02:14 10,1 °C 10,1 °C 95 % 1005,3 hPa 0,0 mm 1,3 km/h (1 Bft) S-SO 157 ° 0 min 0,000 mm 0,0 UV-I 0 W/m² 9,3 °C 10,1 °C 3,2 km/h (1 Bft)
30.06.2017 02:15 10,1 °C 10,1 °C 95 % 1005,3 hPa 0,0 mm 1,3 km/h (1 Bft) S-SO 157 ° 0 min 0,000 mm 0,0 UV-I 0 W/m² 9,3 °C 10,1 °C 1,6 km/h (1 Bft)
30.06.2017 02:16 10,1 °C 10,1 °C 95 % 1005,2 hPa 0,0 mm 1,3 km/h (1 Bft) S-SO 157 ° 0 min 0,000 mm 0,0 UV-I 0 W/m² 9,3 °C 10,1 °C 3,2 km/h (1 Bft)
30.06.2017 02:17 10,1 °C 10,1 °C 95 % 1005,3 hPa 0,0 mm 0,3 km/h (0 Bft) S-SO 157 ° 0 min 0,000 mm 0,0 UV-I 0 W/m² 9,3 °C 10,1 °C 1,6 km/h (1 Bft)
30.06.2017 02:18 10,1 °C 10,1 °C 95 % 1005,3 hPa 0,0 mm 0,0 km/h (0 Bft) S-SO 157 ° 0 min 0,000 mm 0,0 UV-I 0 W/m² 9,3 °C 10,1 °C 0,0 km/h (0 Bft)
30.06.2017 02:19 10,2 °C 10,2 °C 95 % 1005,3 hPa 0,0 mm 0,0 km/h (0 Bft) S-SO 157 ° 0 min 0,000 mm 0,0 UV-I 0 W/m² 9,4 °C 10,2 °C 0,0 km/h (0 Bft)
30.06.2017 02:20 10,1 °C 10,2 °C 95 % 1005,3 hPa 0,0 mm 0,0 km/h (0 Bft) S-SO 157 ° 0 min 0,000 mm 0,0 UV-I 0 W/m² 9,3 °C 10,1 °C 0,0 km/h (0 Bft)
30.06.2017 02:21 10,2 °C 10,2 °C 95 % 1005,3 hPa 0,0 mm 0,0 km/h (0 Bft) S-SO 157 ° 0 min 0,000 mm 0,0 UV-I 0 W/m² 9,4 °C 10,2 °C 0,0 km/h (0 Bft)
30.06.2017 02:22 10,1 °C 10,2 °C 95 % 1005,4 hPa 0,0 mm 0,0 km/h (0 Bft) S-SO 157 ° 0 min 0,000 mm 0,0 UV-I 0 W/m² 9,3 °C 10,1 °C 0,0 km/h (0 Bft)
30.06.2017 02:23 10,1 °C 10,1 °C 95 % 1005,4 hPa 0,0 mm 0,0 km/h (0 Bft) S-SO 157 ° 0 min 0,000 mm 0,0 UV-I 0 W/m² 9,3 °C 10,1 °C 0,0 km/h (0 Bft)
30.06.2017 02:24 10,1 °C 10,1 °C 95 % 1005,4 hPa 0,0 mm 0,0 km/h (0 Bft) S-SO 157 ° 0 min 0,000 mm 0,0 UV-I 0 W/m² 9,3 °C 10,1 °C 0,0 km/h (0 Bft)
30.06.2017 02:25 10,1 °C 10,1 °C 95 % 1005,5 hPa 0,0 mm 0,0 km/h (0 Bft) S-SO 157 ° 0 min 0,000 mm 0,0 UV-I 0 W/m² 9,3 °C 10,1 °C 0,0 km/h (0 Bft)
30.06.2017 02:26 10,1 °C 10,1 °C 95 % 1005,4 hPa 0,0 mm 0,0 km/h (0 Bft) S-SO 157 ° 0 min 0,000 mm 0,0 UV-I 0 W/m² 9,3 °C 10,1 °C 0,0 km/h (0 Bft)
30.06.2017 02:27 10,1 °C 10,1 °C 95 % 1005,4 hPa 0,0 mm 0,0 km/h (0 Bft) S-SO 157 ° 0 min 0,000 mm 0,0 UV-I 0 W/m² 9,3 °C 10,1 °C 0,0 km/h (0 Bft)
30.06.2017 02:28 10,1 °C 10,1 °C 95 % 1005,4 hPa 0,0 mm 0,0 km/h (0 Bft) S-SO 157 ° 0 min 0,000 mm 0,0 UV-I 0 W/m² 9,3 °C 10,1 °C 0,0 km/h (0 Bft)
30.06.2017 02:29 10,1 °C 10,1 °C 95 % 1005,4 hPa 0,0 mm 0,0 km/h (0 Bft) S-SO 157 ° 0 min 0,000 mm 0,0 UV-I 0 W/m² 9,3 °C 10,1 °C 0,0 km/h (0 Bft)
30.06.2017 02:30 10,1 °C 10,1 °C 95 % 1005,5 hPa 0,0 mm 0,0 km/h (0 Bft) S-SO 157 ° 0 min 0,000 mm 0,0 UV-I 0 W/m² 9,3 °C 10,1 °C 0,0 km/h (0 Bft)
30.06.2017 02:31 10,1 °C 10,1 °C 95 % 1005,5 hPa 0,0 mm 0,0 km/h (0 Bft) S-SO 157 ° 0 min 0,000 mm 0,0 UV-I 0 W/m² 9,3 °C 10,1 °C 0,0 km/h (0 Bft)
30.06.2017 02:32 10,1 °C 10,1 °C 95 % 1005,5 hPa 0,0 mm 0,0 km/h (0 Bft) S-SO 157 ° 0 min 0,000 mm 0,0 UV-I 0 W/m² 9,3 °C 10,1 °C 0,0 km/h (0 Bft)
30.06.2017 02:33 10,1 °C 10,1 °C 95 % 1005,5 hPa 0,0 mm 0,0 km/h (0 Bft) S-SO 157 ° 0 min 0,000 mm 0,0 UV-I 0 W/m² 9,3 °C 10,1 °C 0,0 km/h (0 Bft)
30.06.2017 02:34 10,1 °C 10,1 °C 95 % 1005,5 hPa 0,0 mm 0,0 km/h (0 Bft) S-SO 157 ° 0 min 0,000 mm 0,0 UV-I 0 W/m² 9,3 °C 10,1 °C 0,0 km/h (0 Bft)
30.06.2017 02:35 10,0 °C 10,1 °C 95 % 1005,5 hPa 0,0 mm 1,4 km/h (1 Bft) S-SO 157 ° 0 min 0,000 mm 0,0 UV-I 0 W/m² 9,2 °C 10,0 °C 3,2 km/h (1 Bft)
30.06.2017 02:36 10,0 °C 10,0 °C 95 % 1005,6 hPa 0,0 mm 0,6 km/h (0 Bft) S-SO 157 ° 0 min 0,000 mm 0,0 UV-I 0 W/m² 9,2 °C 10,0 °C 1,6 km/h (1 Bft)
30.06.2017 02:37 10,0 °C 10,0 °C 95 % 1005,6 hPa 0,0 mm 0,0 km/h (0 Bft) S-SO 157 ° 0 min 0,000 mm 0,0 UV-I 0 W/m² 9,2 °C 10,0 °C 0,0 km/h (0 Bft)
30.06.2017 02:38 10,0 °C 10,0 °C 95 % 1005,6 hPa 0,0 mm 0,0 km/h (0 Bft) S-SO 157 ° 0 min 0,000 mm 0,0 UV-I 0 W/m² 9,2 °C 10,0 °C 0,0 km/h (0 Bft)
30.06.2017 02:39 10,0 °C 10,0 °C 95 % 1005,6 hPa 0,0 mm 0,0 km/h (0 Bft) S-SO 157 ° 0 min 0,000 mm 0,0 UV-I 0 W/m² 9,2 °C 10,0 °C 0,0 km/h (0 Bft)
30.06.2017 02:40 10,0 °C 10,0 °C 95 % 1005,6 hPa 0,0 mm 0,0 km/h (0 Bft) S-SO 157 ° 0 min 0,000 mm 0,0 UV-I 0 W/m² 9,2 °C 10,0 °C 0,0 km/h (0 Bft)
30.06.2017 02:41 10,0 °C 10,1 °C 95 % 1005,6 hPa 0,0 mm 0,0 km/h (0 Bft) S-SO 157 ° 0 min 0,000 mm 0,0 UV-I 0 W/m² 9,2 °C 10,0 °C 0,0 km/h (0 Bft)
30.06.2017 02:42 10,0 °C 10,1 °C 95 % 1005,7 hPa 0,0 mm 0,0 km/h (0 Bft) S-SO 157 ° 0 min 0,000 mm 0,0 UV-I 0 W/m² 9,2 °C 10,0 °C 0,0 km/h (0 Bft)
30.06.2017 02:43 10,1 °C 10,1 °C 95 % 1005,6 hPa 0,0 mm 0,0 km/h (0 Bft) S-SO 157 ° 0 min 0,000 mm 0,0 UV-I 0 W/m² 9,3 °C 10,1 °C 0,0 km/h (0 Bft)
30.06.2017 02:44 10,1 °C 10,1 °C 95 % 1005,6 hPa 0,0 mm 0,0 km/h (0 Bft) S-SO 157 ° 0 min 0,000 mm 0,0 UV-I 0 W/m² 9,3 °C 10,1 °C 0,0 km/h (0 Bft)
30.06.2017 02:45 10,1 °C 10,1 °C 95 % 1005,6 hPa 0,0 mm 0,0 km/h (0 Bft) S-SO 157 ° 0 min 0,000 mm 0,0 UV-I 0 W/m² 9,3 °C 10,1 °C 0,0 km/h (0 Bft)
30.06.2017 02:46 10,1 °C 10,1 °C 95 % 1005,6 hPa 0,0 mm 0,0 km/h (0 Bft) S-SO 157 ° 0 min 0,000 mm 0,0 UV-I 0 W/m² 9,3 °C 10,1 °C 0,0 km/h (0 Bft)
30.06.2017 02:47 10,1 °C 10,1 °C 95 % 1005,6 hPa 0,0 mm 0,0 km/h (0 Bft) S-SO 157 ° 0 min 0,000 mm 0,0 UV-I 0 W/m² 9,3 °C 10,1 °C 0,0 km/h (0 Bft)
30.06.2017 02:48 10,0 °C 10,1 °C 95 % 1005,6 hPa 0,0 mm 0,0 km/h (0 Bft) S-SO 157 ° 0 min 0,000 mm 0,0 UV-I 0 W/m² 9,2 °C 10,0 °C 0,0 km/h (0 Bft)
30.06.2017 02:49 10,1 °C 10,1 °C 95 % 1005,5 hPa 0,0 mm 0,0 km/h (0 Bft) S-SO 157 ° 0 min 0,000 mm 0,0 UV-I 0 W/m² 9,3 °C 10,1 °C 0,0 km/h (0 Bft)
30.06.2017 02:50 10,0 °C 10,1 °C 95 % 1005,5 hPa 0,0 mm 0,0 km/h (0 Bft) S-SO 157 ° 0 min 0,000 mm 0,0 UV-I 0 W/m² 9,2 °C 10,0 °C 0,0 km/h (0 Bft)
30.06.2017 02:51 10,0 °C 10,1 °C 95 % 1005,5 hPa 0,0 mm 0,0 km/h (0 Bft) S-SO 157 ° 0 min 0,000 mm 0,0 UV-I 0 W/m² 9,2 °C 10,0 °C 0,0 km/h (0 Bft)
30.06.2017 02:52 10,0 °C 10,1 °C 95 % 1005,5 hPa 0,0 mm 0,0 km/h (0 Bft) S-SO 157 ° 0 min 0,000 mm 0,0 UV-I 0 W/m² 9,2 °C 10,0 °C 0,0 km/h (0 Bft)
30.06.2017 02:53 10,1 °C 10,1 °C 95 % 1005,4 hPa 0,0 mm 1,5 km/h (1 Bft) S-SO 157 ° 0 min 0,000 mm 0,0 UV-I 0 W/m² 9,3 °C 10,1 °C 3,2 km/h (1 Bft)
30.06.2017 02:54 10,1 °C 10,1 °C 95 % 1005,4 hPa 0,0 mm 2,0 km/h (1 Bft) S-SO 157 ° 0 min 0,000 mm 0,0 UV-I 0 W/m² 9,3 °C 10,1 °C 3,2 km/h (1 Bft)
30.06.2017 02:55 10,1 °C 10,1 °C 95 % 1005,4 hPa 0,0 mm 0,9 km/h (0 Bft) S-SO 157 ° 0 min 0,000 mm 0,0 UV-I 0 W/m² 9,3 °C 10,1 °C 1,6 km/h (1 Bft)
30.06.2017 02:56 10,1 °C 10,1 °C 95 % 1005,4 hPa 0,0 mm 0,1 km/h (0 Bft) S-SO 157 ° 0 min 0,000 mm 0,0 UV-I 0 W/m² 9,3 °C 10,1 °C 1,6 km/h (1 Bft)
30.06.2017 02:57 10,1 °C 10,1 °C 95 % 1005,5 hPa 0,0 mm 0,0 km/h (0 Bft) S-SO 157 ° 0 min 0,000 mm 0,0 UV-I 0 W/m² 9,3 °C 10,1 °C 0,0 km/h (0 Bft)
30.06.2017 02:58 10,0 °C 10,1 °C 95 % 1005,5 hPa 0,0 mm 0,0 km/h (0 Bft) S-SO 157 ° 0 min 0,000 mm 0,0 UV-I 0 W/m² 9,2 °C 10,0 °C 0,0 km/h (0 Bft)
30.06.2017 02:59 10,1 °C 10,1 °C 95 % 1005,6 hPa 0,0 mm 0,0 km/h (0 Bft) S-SO 157 ° 0 min 0,000 mm 0,0 UV-I 0 W/m² 9,3 °C 10,1 °C 0,0 km/h (0 Bft)
30.06.2017 03:00 10,1 °C 10,1 °C 95 % 1005,6 hPa 0,0 mm 0,0 km/h (0 Bft) S-SO 157 ° 0 min 0,000 mm 0,0 UV-I 0 W/m² 9,3 °C 10,1 °C 0,0 km/h (0 Bft)
30.06.2017 03:01 10,1 °C 10,1 °C 95 % 1005,6 hPa 0,0 mm 0,0 km/h (0 Bft) S-SO 157 ° 0 min 0,000 mm 0,0 UV-I 0 W/m² 9,3 °C 10,1 °C 0,0 km/h (0 Bft)
30.06.2017 03:02 10,1 °C 10,1 °C 95 % 1005,7 hPa 0,0 mm 0,0 km/h (0 Bft) S-SO 157 ° 0 min 0,000 mm 0,0 UV-I 0 W/m² 9,3 °C 10,1 °C 0,0 km/h (0 Bft)
30.06.2017 03:03 10,0 °C 10,1 °C 95 % 1005,7 hPa 0,0 mm 0,0 km/h (0 Bft) S-SO 157 ° 0 min 0,000 mm 0,0 UV-I 0 W/m² 9,2 °C 10,0 °C 0,0 km/h (0 Bft)
30.06.2017 03:04 10,1 °C 10,1 °C 95 % 1005,7 hPa 0,0 mm 0,0 km/h (0 Bft) S-SO 157 ° 0 min 0,000 mm 0,0 UV-I 0 W/m² 9,3 °C 10,1 °C 0,0 km/h (0 Bft)
30.06.2017 03:05 10,1 °C 10,1 °C 95 % 1005,7 hPa 0,0 mm 0,0 km/h (0 Bft) S-SO 157 ° 0 min 0,000 mm 0,0 UV-I 0 W/m² 9,3 °C 10,1 °C 0,0 km/h (0 Bft)
30.06.2017 03:06 10,1 °C 10,1 °C 95 % 1005,7 hPa 0,0 mm 0,0 km/h (0 Bft) S-SO 157 ° 0 min 0,000 mm 0,0 UV-I 0 W/m² 9,3 °C 10,1 °C 0,0 km/h (0 Bft)
30.06.2017 03:07 10,1 °C 10,1 °C 95 % 1005,7 hPa 0,0 mm 0,0 km/h (0 Bft) S-SO 157 ° 0 min 0,000 mm 0,0 UV-I 0 W/m² 9,3 °C 10,1 °C 0,0 km/h (0 Bft)
30.06.2017 03:08 10,0 °C 10,1 °C 95 % 1005,7 hPa 0,0 mm 0,0 km/h (0 Bft) S-SO 157 ° 0 min 0,000 mm 0,0 UV-I 0 W/m² 9,2 °C 10,0 °C 0,0 km/h (0 Bft)
30.06.2017 03:09 10,0 °C 10,1 °C 95 % 1005,8 hPa 0,0 mm 0,0 km/h (0 Bft) S-SO 157 ° 0 min 0,000 mm 0,0 UV-I 0 W/m² 9,2 °C 10,0 °C 0,0 km/h (0 Bft)
30.06.2017 03:10 9,9 °C 10,0 °C 95 % 1005,7 hPa 0,0 mm 0,0 km/h (0 Bft) S-SO 157 ° 0 min 0,000 mm 0,0 UV-I 0 W/m² 9,1 °C 9,9 °C 0,0 km/h (0 Bft)
30.06.2017 03:11 9,9 °C 9,9 °C 95 % 1005,7 hPa 0,0 mm 0,0 km/h (0 Bft) S-SO 157 ° 0 min 0,000 mm 0,0 UV-I 0 W/m² 9,1 °C 9,9 °C 0,0 km/h (0 Bft)
30.06.2017 03:12 10,0 °C 10,0 °C 95 % 1005,7 hPa 0,0 mm 0,0 km/h (0 Bft) S-SO 157 ° 0 min 0,000 mm 0,0 UV-I 0 W/m² 9,2 °C 10,0 °C 0,0 km/h (0 Bft)
30.06.2017 03:13 10,0 °C 10,0 °C 95 % 1005,7 hPa 0,0 mm 0,0 km/h (0 Bft) S-SO 157 ° 0 min 0,000 mm 0,0 UV-I 0 W/m² 9,2 °C 10,0 °C 0,0 km/h (0 Bft)
30.06.2017 03:14 10,0 °C 10,0 °C 95 % 1005,8 hPa 0,0 mm 0,0 km/h (0 Bft) S-SO 157 ° 0 min 0,000 mm 0,0 UV-I 0 W/m² 9,2 °C 10,0 °C 0,0 km/h (0 Bft)
30.06.2017 03:15 10,0 °C 10,0 °C 95 % 1005,8 hPa 0,0 mm 0,0 km/h (0 Bft) S-SO 157 ° 0 min 0,000 mm 0,0 UV-I 0 W/m² 9,2 °C 10,0 °C 0,0 km/h (0 Bft)
30.06.2017 03:16 10,0 °C 10,0 °C 95 % 1005,7 hPa 0,0 mm 0,0 km/h (0 Bft) S-SO 157 ° 0 min 0,000 mm 0,0 UV-I 0 W/m² 9,2 °C 10,0 °C 0,0 km/h (0 Bft)
30.06.2017 03:17 10,0 °C 10,0 °C 95 % 1005,7 hPa 0,0 mm 0,1 km/h (0 Bft) S-SO 157 ° 0 min 0,000 mm 0,0 UV-I 0 W/m² 9,2 °C 10,0 °C 1,6 km/h (1 Bft)
30.06.2017 03:18 10,0 °C 10,0 °C 95 % 1005,7 hPa 0,0 mm 0,1 km/h (0 Bft) S-SO 157 ° 0 min 0,000 mm 0,0 UV-I 0 W/m² 9,2 °C 10,0 °C 1,6 km/h (1 Bft)
30.06.2017 03:19 10,0 °C 10,0 °C 95 % 1005,7 hPa 0,0 mm 0,0 km/h (0 Bft) S-SO 157 ° 0 min 0,000 mm 0,0 UV-I 0 W/m² 9,2 °C 10,0 °C 0,0 km/h (0 Bft)
30.06.2017 03:20 10,0 °C 10,0 °C 95 % 1005,7 hPa 0,0 mm 0,0 km/h (0 Bft) S-SO 157 ° 0 min 0,000 mm 0,0 UV-I 0 W/m² 9,2 °C 10,0 °C 0,0 km/h (0 Bft)
30.06.2017 03:21 9,9 °C 10,0 °C 95 % 1005,7 hPa 0,0 mm 0,1 km/h (0 Bft) S-SO 157 ° 0 min 0,000 mm 0,0 UV-I 0 W/m² 9,1 °C 9,9 °C 1,6 km/h (1 Bft)
30.06.2017 03:22 9,9 °C 10,0 °C 95 % 1005,7 hPa 0,0 mm 0,0 km/h (0 Bft) S-SO 157 ° 0 min 0,000 mm 0,0 UV-I 0 W/m² 9,1 °C 9,9 °C 0,0 km/h (0 Bft)
30.06.2017 03:23 9,9 °C 10,0 °C 95 % 1005,7 hPa 0,0 mm 0,0 km/h (0 Bft) S-SO 157 ° 0 min 0,000 mm 0,0 UV-I 0 W/m² 9,1 °C 9,9 °C 0,0 km/h (0 Bft)
30.06.2017 03:24 10,0 °C 10,0 °C 95 % 1005,6 hPa 0,0 mm 0,0 km/h (0 Bft) S-SO 157 ° 0 min 0,000 mm 0,0 UV-I 0 W/m² 9,2 °C 10,0 °C 0,0 km/h (0 Bft)
30.06.2017 03:25 10,0 °C 10,0 °C 95 % 1005,7 hPa 0,0 mm 0,0 km/h (0 Bft) S-SO 157 ° 0 min 0,000 mm 0,0 UV-I 0 W/m² 9,2 °C 10,0 °C 0,0 km/h (0 Bft)
30.06.2017 03:26 10,0 °C 10,0 °C 95 % 1005,7 hPa 0,0 mm 0,0 km/h (0 Bft) S-SO 157 ° 0 min 0,000 mm 0,0 UV-I 0 W/m² 9,2 °C 10,0 °C 0,0 km/h (0 Bft)
30.06.2017 03:27 9,9 °C 10,0 °C 95 % 1005,7 hPa 0,0 mm 0,0 km/h (0 Bft) S-SO 157 ° 0 min 0,000 mm 0,0 UV-I 0 W/m² 9,1 °C 9,9 °C 0,0 km/h (0 Bft)
30.06.2017 03:28 10,0 °C 10,0 °C 95 % 1005,7 hPa 0,0 mm 0,0 km/h (0 Bft) S-SO 157 ° 0 min 0,000 mm 0,0 UV-I 0 W/m² 9,2 °C 10,0 °C 0,0 km/h (0 Bft)
30.06.2017 03:29 10,0 °C 10,0 °C 95 % 1005,7 hPa 0,0 mm 0,0 km/h (0 Bft) S-SO 157 ° 0 min 0,000 mm 0,0 UV-I 0 W/m² 9,2 °C 10,0 °C 0,0 km/h (0 Bft)
30.06.2017 03:30 10,0 °C 10,0 °C 95 % 1005,7 hPa 0,0 mm 0,0 km/h (0 Bft) S-SO 157 ° 0 min 0,000 mm 0,0 UV-I 0 W/m² 9,2 °C 10,0 °C 0,0 km/h (0 Bft)
30.06.2017 03:31 10,0 °C 10,0 °C 95 % 1005,7 hPa 0,0 mm 0,0 km/h (0 Bft) S-SO 157 ° 0 min 0,000 mm 0,0 UV-I 0 W/m² 9,2 °C 10,0 °C 0,0 km/h (0 Bft)
30.06.2017 03:32 9,9 °C 10,0 °C 95 % 1005,6 hPa 0,0 mm 0,0 km/h (0 Bft) S-SO 157 ° 0 min 0,000 mm 0,0 UV-I 0 W/m² 9,1 °C 9,9 °C 0,0 km/h (0 Bft)
30.06.2017 03:33 9,9 °C 9,9 °C 95 % 1005,7 hPa 0,0 mm 0,0 km/h (0 Bft) S-SO 157 ° 0 min 0,000 mm 0,0 UV-I 0 W/m² 9,1 °C 9,9 °C 0,0 km/h (0 Bft)
30.06.2017 03:34 9,9 °C 9,9 °C 95 % 1005,6 hPa 0,0 mm 0,0 km/h (0 Bft) S-SO 157 ° 0 min 0,000 mm 0,0 UV-I 0 W/m² 9,1 °C 9,9 °C 0,0 km/h (0 Bft)
30.06.2017 03:35 9,9 °C 9,9 °C 95 % 1005,7 hPa 0,0 mm 0,0 km/h (0 Bft) S-SO 157 ° 0 min 0,000 mm 0,0 UV-I 0 W/m² 9,1 °C 9,9 °C 0,0 km/h (0 Bft)
30.06.2017 03:36 9,9 °C 9,9 °C 95 % 1005,6 hPa 0,0 mm 0,0 km/h (0 Bft) S-SO 157 ° 0 min 0,000 mm 0,0 UV-I 0 W/m² 9,1 °C 9,9 °C 0,0 km/h (0 Bft)
30.06.2017 03:37 9,9 °C 9,9 °C 95 % 1005,6 hPa 0,0 mm 0,0 km/h (0 Bft) S-SO 157 ° 0 min 0,000 mm 0,0 UV-I 0 W/m² 9,1 °C 9,9 °C 0,0 km/h (0 Bft)
30.06.2017 03:38 9,9 °C 9,9 °C 95 % 1005,6 hPa 0,0 mm 0,0 km/h (0 Bft) S-SO 157 ° 0 min 0,000 mm 0,0 UV-I 0 W/m² 9,1 °C 9,9 °C 0,0 km/h (0 Bft)
30.06.2017 03:39 9,9 °C 9,9 °C 95 % 1005,6 hPa 0,0 mm 0,0 km/h (0 Bft) S-SO 157 ° 0 min 0,000 mm 0,0 UV-I 0 W/m² 9,1 °C 9,9 °C 0,0 km/h (0 Bft)
30.06.2017 03:40 9,9 °C 9,9 °C 95 % 1005,6 hPa 0,0 mm 0,0 km/h (0 Bft) S-SO 157 ° 0 min 0,000 mm 0,0 UV-I 0 W/m² 9,1 °C 9,9 °C 0,0 km/h (0 Bft)
30.06.2017 03:41 9,9 °C 9,9 °C 95 % 1005,6 hPa 0,0 mm 0,0 km/h (0 Bft) S-SO 157 ° 0 min 0,000 mm 0,0 UV-I 0 W/m² 9,1 °C 9,9 °C 0,0 km/h (0 Bft)
30.06.2017 03:42 9,9 °C 9,9 °C 95 % 1005,6 hPa 0,0 mm 0,0 km/h (0 Bft) S-SO 157 ° 0 min 0,000 mm 0,0 UV-I 0 W/m² 9,1 °C 9,9 °C 0,0 km/h (0 Bft)
30.06.2017 03:43 9,9 °C 9,9 °C 95 % 1005,6 hPa 0,0 mm 0,1 km/h (0 Bft) S-SO 157 ° 0 min 0,000 mm 0,0 UV-I 0 W/m² 9,1 °C 9,9 °C 1,6 km/h (1 Bft)
30.06.2017 03:44 9,9 °C 9,9 °C 95 % 1005,6 hPa 0,0 mm 1,0 km/h (0 Bft) S-SO 155 ° 0 min 0,000 mm 0,0 UV-I 0 W/m² 9,1 °C 9,9 °C 3,2 km/h (1 Bft)
30.06.2017 03:45 9,9 °C 9,9 °C 95 % 1005,5 hPa 0,0 mm 0,3 km/h (0 Bft) S-SO 155 ° 0 min 0,000 mm 0,0 UV-I 0 W/m² 9,1 °C 9,9 °C 1,6 km/h (1 Bft)
30.06.2017 03:46 9,9 °C 9,9 °C 95 % 1005,5 hPa 0,0 mm 0,9 km/h (0 Bft) S-SO 155 ° 0 min 0,000 mm 0,0 UV-I 0 W/m² 9,1 °C 9,9 °C 3,2 km/h (1 Bft)
30.06.2017 03:47 9,9 °C 9,9 °C 95 % 1005,6 hPa 0,0 mm 0,9 km/h (0 Bft) S-SO 155 ° 0 min 0,000 mm 0,0 UV-I 0 W/m² 9,1 °C 9,9 °C 3,2 km/h (1 Bft)
30.06.2017 03:48 9,8 °C 9,9 °C 95 % 1005,6 hPa 0,0 mm 3,1 km/h (1 Bft) S-SO 155 ° 0 min 0,000 mm 0,0 UV-I 0 W/m² 9,0 °C 9,8 °C 4,8 km/h (1 Bft)
30.06.2017 03:49 9,9 °C 9,9 °C 95 % 1005,5 hPa 0,0 mm 2,5 km/h (1 Bft) S-SO 155 ° 0 min 0,000 mm 0,0 UV-I 0 W/m² 9,1 °C 9,9 °C 3,2 km/h (1 Bft)
30.06.2017 03:50 9,9 °C 9,9 °C 95 % 1005,5 hPa 0,0 mm 0,3 km/h (0 Bft) S-SO 155 ° 0 min 0,000 mm 0,0 UV-I 0 W/m² 9,1 °C 9,9 °C 1,6 km/h (1 Bft)
30.06.2017 03:51 9,9 °C 9,9 °C 95 % 1005,5 hPa 0,0 mm 0,0 km/h (0 Bft) S-SO 155 ° 0 min 0,000 mm 0,0 UV-I 0 W/m² 9,1 °C 9,9 °C 0,0 km/h (0 Bft)
30.06.2017 03:52 9,9 °C 9,9 °C 95 % 1005,6 hPa 0,0 mm 0,0 km/h (0 Bft) S-SO 155 ° 0 min 0,000 mm 0,0 UV-I 0 W/m² 9,1 °C 9,9 °C 0,0 km/h (0 Bft)
30.06.2017 03:53 9,9 °C 9,9 °C 95 % 1005,6 hPa 0,0 mm 0,0 km/h (0 Bft) S-SO 155 ° 0 min 0,000 mm 0,0 UV-I 0 W/m² 9,1 °C 9,9 °C 0,0 km/h (0 Bft)
30.06.2017 03:54 9,9 °C 9,9 °C 95 % 1005,6 hPa 0,0 mm 0,0 km/h (0 Bft) S-SO 155 ° 0 min 0,000 mm 0,0 UV-I 0 W/m² 9,1 °C 9,9 °C 0,0 km/h (0 Bft)
30.06.2017 03:55 9,8 °C 9,9 °C 95 % 1005,6 hPa 0,0 mm 0,0 km/h (0 Bft) S-SO 155 ° 0 min 0,000 mm 0,0 UV-I 0 W/m² 9,0 °C 9,8 °C 0,0 km/h (0 Bft)
30.06.2017 03:56 9,8 °C 9,8 °C 95 % 1005,6 hPa 0,0 mm 0,0 km/h (0 Bft) S-SO 155 ° 0 min 0,000 mm 0,0 UV-I 0 W/m² 9,0 °C 9,8 °C 0,0 km/h (0 Bft)
30.06.2017 03:57 9,8 °C 9,9 °C 95 % 1005,6 hPa 0,0 mm 0,0 km/h (0 Bft) S-SO 155 ° 0 min 0,000 mm 0,0 UV-I 0 W/m² 9,0 °C 9,8 °C 0,0 km/h (0 Bft)
30.06.2017 03:58 9,8 °C 9,8 °C 95 % 1005,6 hPa 0,0 mm 0,0 km/h (0 Bft) S-SO 155 ° 0 min 0,000 mm 0,0 UV-I 0 W/m² 9,0 °C 9,8 °C 0,0 km/h (0 Bft)
30.06.2017 03:59 9,9 °C 9,9 °C 95 % 1005,6 hPa 0,0 mm 0,1 km/h (0 Bft) S-SO 155 ° 0 min 0,000 mm 0,0 UV-I 0 W/m² 9,1 °C 9,9 °C 3,2 km/h (1 Bft)
30.06.2017 04:00 9,8 °C 9,9 °C 95 % 1005,5 hPa 0,0 mm 2,5 km/h (1 Bft) S-SO 155 ° 0 min 0,000 mm 0,0 UV-I 0 W/m² 9,0 °C 9,8 °C 3,2 km/h (1 Bft)
30.06.2017 04:01 9,9 °C 9,9 °C 95 % 1005,5 hPa 0,0 mm 1,8 km/h (1 Bft) S-SO 155 ° 0 min 0,000 mm 0,0 UV-I 0 W/m² 9,1 °C 9,9 °C 4,8 km/h (1 Bft)
30.06.2017 04:02 9,8 °C 9,9 °C 95 % 1005,5 hPa 0,0 mm 0,0 km/h (0 Bft) S-SO 155 ° 0 min 0,000 mm 0,0 UV-I 0 W/m² 9,0 °C 9,8 °C 0,0 km/h (0 Bft)
30.06.2017 04:03 9,9 °C 9,9 °C 95 % 1005,5 hPa 0,0 mm 0,0 km/h (0 Bft) S-SO 155 ° 0 min 0,000 mm 0,0 UV-I 0 W/m² 9,1 °C 9,9 °C 0,0 km/h (0 Bft)
30.06.2017 04:04 9,9 °C 9,9 °C 95 % 1005,5 hPa 0,0 mm 0,5 km/h (0 Bft) S-SO 155 ° 0 min 0,000 mm 0,0 UV-I 0 W/m² 9,1 °C 9,9 °C 3,2 km/h (1 Bft)
30.06.2017 04:05 9,9 °C 9,9 °C 95 % 1005,5 hPa 0,0 mm 1,4 km/h (1 Bft) S-SO 155 ° 0 min 0,000 mm 0,0 UV-I 0 W/m² 9,1 °C 9,9 °C 1,6 km/h (1 Bft)
30.06.2017 04:06 9,9 °C 9,9 °C 95 % 1005,5 hPa 0,0 mm 0,3 km/h (0 Bft) S-SO 155 ° 0 min 0,000 mm 0,0 UV-I 0 W/m² 9,1 °C 9,9 °C 1,6 km/h (1 Bft)
30.06.2017 04:07 9,9 °C 9,9 °C 95 % 1005,5 hPa 0,0 mm 0,6 km/h (0 Bft) S-SO 155 ° 0 min 0,000 mm 0,0 UV-I 0 W/m² 9,1 °C 9,9 °C 3,2 km/h (1 Bft)
30.06.2017 04:08 9,9 °C 9,9 °C 95 % 1005,5 hPa 0,0 mm 0,3 km/h (0 Bft) S-SO 155 ° 0 min 0,000 mm 0,0 UV-I 0 W/m² 9,1 °C 9,9 °C 1,6 km/h (1 Bft)
30.06.2017 04:09 9,9 °C 9,9 °C 95 % 1005,6 hPa 0,0 mm 0,9 km/h (0 Bft) S 186 ° 0 min 0,000 mm 0,0 UV-I 0 W/m² 9,1 °C 9,9 °C 3,2 km/h (1 Bft)
30.06.2017 04:10 9,9 °C 9,9 °C 95 % 1005,6 hPa 0,0 mm 1,0 km/h (0 Bft) S 186 ° 0 min 0,000 mm 0,0 UV-I 0 W/m² 9,1 °C 9,9 °C 1,6 km/h (1 Bft)
30.06.2017 04:11 9,9 °C 9,9 °C 95 % 1005,6 hPa 0,0 mm 0,0 km/h (0 Bft) S 186 ° 0 min 0,000 mm 0,0 UV-I 0 W/m² 9,1 °C 9,9 °C 0,0 km/h (0 Bft)
30.06.2017 04:12 9,9 °C 9,9 °C 95 % 1005,6 hPa 0,0 mm 0,5 km/h (0 Bft) S 188 ° 0 min 0,000 mm 0,0 UV-I 0 W/m² 9,1 °C 9,9 °C 3,2 km/h (1 Bft)
30.06.2017 04:13 10,0 °C 10,0 °C 95 % 1005,6 hPa 0,0 mm 3,0 km/h (1 Bft) S-SW 205 ° 0 min 0,000 mm 0,0 UV-I 0 W/m² 9,2 °C 10,0 °C 4,8 km/h (1 Bft)
30.06.2017 04:14 10,0 °C 10,0 °C 95 % 1005,6 hPa 0,0 mm 0,1 km/h (0 Bft) S-SW 204 ° 0 min 0,000 mm 0,0 UV-I 0 W/m² 9,2 °C 10,0 °C 1,6 km/h (1 Bft)
30.06.2017 04:15 10,1 °C 10,1 °C 95 % 1005,6 hPa 0,0 mm 0,2 km/h (0 Bft) S-SW 204 ° 0 min 0,000 mm 0,0 UV-I 0 W/m² 9,3 °C 10,1 °C 3,2 km/h (1 Bft)
30.06.2017 04:16 10,1 °C 10,1 °C 95 % 1005,6 hPa 0,0 mm 0,7 km/h (0 Bft) S-SW 204 ° 0 min 0,000 mm 0,0 UV-I 0 W/m² 9,3 °C 10,1 °C 3,2 km/h (1 Bft)
30.06.2017 04:17 10,1 °C 10,1 °C 95 % 1005,5 hPa 0,0 mm 3,1 km/h (1 Bft) S 180 ° 0 min 0,000 mm 0,0 UV-I 0 W/m² 9,3 °C 10,1 °C 4,8 km/h (1 Bft)
30.06.2017 04:18 10,1 °C 10,1 °C 95 % 1005,5 hPa 0,2 mm 2,4 km/h (1 Bft) S 180 ° 0 min 0,000 mm 0,0 UV-I 0 W/m² 9,3 °C 10,1 °C 3,2 km/h (1 Bft)
30.06.2017 04:19 10,1 °C 10,1 °C 95 % 1005,5 hPa 0,0 mm 0,6 km/h (0 Bft) S 180 ° 0 min 0,000 mm 0,0 UV-I 0 W/m² 9,3 °C 10,1 °C 1,6 km/h (1 Bft)
30.06.2017 04:20 10,0 °C 10,1 °C 94 % 1005,5 hPa 0,0 mm 0,0 km/h (0 Bft) S 180 ° 0 min 0,000 mm 0,0 UV-I 0 W/m² 9,1 °C 10,0 °C 0,0 km/h (0 Bft)
30.06.2017 04:21 10,0 °C 10,0 °C 95 % 1005,5 hPa 0,0 mm 0,8 km/h (0 Bft) S 180 ° 0 min 0,000 mm 0,0 UV-I 0 W/m² 9,2 °C 10,0 °C 3,2 km/h (1 Bft)
30.06.2017 04:22 10,0 °C 10,1 °C 95 % 1005,6 hPa 0,0 mm 0,1 km/h (0 Bft) S 180 ° 0 min 0,000 mm 0,0 UV-I 0 W/m² 9,2 °C 10,0 °C 1,6 km/h (1 Bft)
30.06.2017 04:23 10,0 °C 10,1 °C 95 % 1005,6 hPa 0,0 mm 0,9 km/h (0 Bft) S 180 ° 0 min 0,000 mm 0,0 UV-I 0 W/m² 9,2 °C 10,0 °C 3,2 km/h (1 Bft)
30.06.2017 04:24 10,0 °C 10,0 °C 95 % 1005,5 hPa 0,0 mm 2,9 km/h (1 Bft) S 180 ° 0 min 0,000 mm 0,0 UV-I 0 W/m² 9,2 °C 10,0 °C 4,8 km/h (1 Bft)
30.06.2017 04:25 10,0 °C 10,0 °C 95 % 1005,5 hPa 0,0 mm 1,7 km/h (1 Bft) S 180 ° 0 min 0,000 mm 0,0 UV-I 0 W/m² 9,2 °C 10,0 °C 3,2 km/h (1 Bft)
30.06.2017 04:26 9,9 °C 10,0 °C 95 % 1005,5 hPa 0,0 mm 0,0 km/h (0 Bft) S 180 ° 0 min 0,000 mm 0,0 UV-I 0 W/m² 9,1 °C 9,9 °C 0,0 km/h (0 Bft)
30.06.2017 04:27 10,0 °C 10,0 °C 95 % 1005,6 hPa 0,0 mm 0,0 km/h (0 Bft) S 180 ° 0 min 0,000 mm 0,0 UV-I 0 W/m² 9,2 °C 10,0 °C 0,0 km/h (0 Bft)
30.06.2017 04:28 10,0 °C 10,0 °C 95 % 1005,6 hPa 0,0 mm 0,0 km/h (0 Bft) S 180 ° 0 min 0,000 mm 0,0 UV-I 0 W/m² 9,2 °C 10,0 °C 0,0 km/h (0 Bft)
30.06.2017 04:29 9,9 °C 10,0 °C 95 % 1005,6 hPa 0,0 mm 1,0 km/h (0 Bft) S 183 ° 0 min 0,000 mm 0,0 UV-I 0 W/m² 9,1 °C 9,9 °C 3,2 km/h (1 Bft)
30.06.2017 04:30 9,9 °C 10,0 °C 94 % 1005,7 hPa 0,0 mm 3,0 km/h (1 Bft) S-SW 196 ° 0 min 0,000 mm 0,0 UV-I 0 W/m² 9,0 °C 9,9 °C 4,8 km/h (1 Bft)
30.06.2017 04:31 10,0 °C 10,0 °C 94 % 1005,7 hPa 0,0 mm 0,1 km/h (0 Bft) S-SW 196 ° 0 min 0,000 mm 0,0 UV-I 0 W/m² 9,1 °C 10,0 °C 1,6 km/h (1 Bft)
30.06.2017 04:32 9,9 °C 10,0 °C 94 % 1005,7 hPa 0,0 mm 0,0 km/h (0 Bft) S-SW 196 ° 0 min 0,000 mm 0,0 UV-I 0 W/m² 9,0 °C 9,9 °C 0,0 km/h (0 Bft)
30.06.2017 04:33 9,9 °C 9,9 °C 94 % 1005,7 hPa 0,0 mm 1,0 km/h (0 Bft) S-SW 196 ° 0 min 0,000 mm 0,0 UV-I 0 W/m² 9,0 °C 9,9 °C 3,2 km/h (1 Bft)
30.06.2017 04:34 10,0 °C 10,0 °C 94 % 1005,7 hPa 0,0 mm 1,9 km/h (1 Bft) S-SW 196 ° 0 min 0,000 mm 0,0 UV-I 0 W/m² 9,1 °C 10,0 °C 3,2 km/h (1 Bft)
30.06.2017 04:35 9,9 °C 10,0 °C 94 % 1005,8 hPa 0,0 mm 0,8 km/h (0 Bft) S-SW 196 ° 0 min 0,000 mm 0,0 UV-I 0 W/m² 9,0 °C 9,9 °C 1,6 km/h (1 Bft)
30.06.2017 04:36 9,9 °C 9,9 °C 94 % 1005,7 hPa 0,0 mm 0,1 km/h (0 Bft) S-SW 196 ° 0 min 0,000 mm 0,0 UV-I 0 W/m² 9,0 °C 9,9 °C 1,6 km/h (1 Bft)
30.06.2017 04:37 9,9 °C 9,9 °C 94 % 1005,7 hPa 0,0 mm 1,1 km/h (1 Bft) S-SW 196 ° 0 min 0,000 mm 0,0 UV-I 0 W/m² 9,0 °C 9,9 °C 1,6 km/h (1 Bft)
30.06.2017 04:38 9,8 °C 9,9 °C 94 % 1005,7 hPa 0,0 mm 0,0 km/h (0 Bft) S-SW 196 ° 0 min 0,000 mm 0,0 UV-I 0 W/m² 8,9 °C 9,8 °C 0,0 km/h (0 Bft)
30.06.2017 04:39 9,8 °C 9,8 °C 94 % 1005,7 hPa 0,0 mm 0,0 km/h (0 Bft) S-SW 196 ° 0 min 0,000 mm 0,0 UV-I 0 W/m² 8,9 °C 9,8 °C 0,0 km/h (0 Bft)
30.06.2017 04:40 9,8 °C 9,8 °C 94 % 1005,7 hPa 0,0 mm 0,0 km/h (0 Bft) S-SW 196 ° 0 min 0,000 mm 0,0 UV-I 0 W/m² 8,9 °C 9,8 °C 0,0 km/h (0 Bft)
30.06.2017 04:41 9,8 °C 9,8 °C 94 % 1005,7 hPa 0,0 mm 0,0 km/h (0 Bft) S-SW 196 ° 0 min 0,000 mm 0,0 UV-I 0 W/m² 8,9 °C 9,8 °C 0,0 km/h (0 Bft)
30.06.2017 04:42 9,7 °C 9,8 °C 94 % 1005,7 hPa 0,0 mm 0,0 km/h (0 Bft) S-SW 196 ° 0 min 0,000 mm 0,0 UV-I 0 W/m² 8,8 °C 9,7 °C 0,0 km/h (0 Bft)
30.06.2017 04:43 9,7 °C 9,7 °C 94 % 1005,6 hPa 0,0 mm 0,0 km/h (0 Bft) S-SW 196 ° 0 min 0,000 mm 0,0 UV-I 0 W/m² 8,8 °C 9,7 °C 0,0 km/h (0 Bft)
30.06.2017 04:44 9,7 °C 9,7 °C 94 % 1005,6 hPa 0,0 mm 0,0 km/h (0 Bft) S-SW 196 ° 0 min 0,000 mm 0,0 UV-I 0 W/m² 8,8 °C 9,7 °C 0,0 km/h (0 Bft)
30.06.2017 04:45 9,7 °C 9,7 °C 94 % 1005,7 hPa 0,0 mm 0,0 km/h (0 Bft) S-SW 196 ° 0 min 0,000 mm 0,0 UV-I 0 W/m² 8,8 °C 9,7 °C 0,0 km/h (0 Bft)
30.06.2017 04:46 9,6 °C 9,7 °C 94 % 1005,7 hPa 0,0 mm 0,0 km/h (0 Bft) S-SW 196 ° 0 min 0,000 mm 0,0 UV-I 0 W/m² 8,7 °C 9,6 °C 0,0 km/h (0 Bft)
30.06.2017 04:47 9,6 °C 9,6 °C 94 % 1005,8 hPa 0,0 mm 0,0 km/h (0 Bft) S-SW 196 ° 0 min 0,000 mm 0,0 UV-I 0 W/m² 8,7 °C 9,6 °C 0,0 km/h (0 Bft)
30.06.2017 04:48 9,6 °C 9,6 °C 94 % 1005,7 hPa 0,0 mm 0,1 km/h (0 Bft) S-SW 196 ° 0 min 0,000 mm 0,0 UV-I 0 W/m² 8,7 °C 9,6 °C 1,6 km/h (1 Bft)
30.06.2017 04:49 9,6 °C 9,6 °C 94 % 1005,8 hPa 0,0 mm 0,0 km/h (0 Bft) S-SW 196 ° 0 min 0,000 mm 0,0 UV-I 0 W/m² 8,7 °C 9,6 °C 0,0 km/h (0 Bft)
30.06.2017 04:50 9,4 °C 9,6 °C 94 % 1005,8 hPa 0,0 mm 0,0 km/h (0 Bft) S-SW 196 ° 0 min 0,000 mm 0,0 UV-I 0 W/m² 8,5 °C 9,4 °C 0,0 km/h (0 Bft)
30.06.2017 04:51 9,4 °C 9,4 °C 94 % 1005,9 hPa 0,0 mm 0,0 km/h (0 Bft) S-SW 196 ° 0 min 0,000 mm 0,0 UV-I 0 W/m² 8,5 °C 9,4 °C 0,0 km/h (0 Bft)
30.06.2017 04:52 9,4 °C 9,4 °C 94 % 1006,0 hPa 0,0 mm 0,0 km/h (0 Bft) S-SW 196 ° 0 min 0,000 mm 0,0 UV-I 0 W/m² 8,5 °C 9,4 °C 0,0 km/h (0 Bft)
30.06.2017 04:53 9,4 °C 9,4 °C 94 % 1006,0 hPa 0,0 mm 0,0 km/h (0 Bft) S-SW 196 ° 0 min 0,000 mm 0,0 UV-I 0 W/m² 8,5 °C 9,4 °C 0,0 km/h (0 Bft)
30.06.2017 04:54 9,4 °C 9,4 °C 94 % 1005,9 hPa 0,0 mm 0,0 km/h (0 Bft) S-SW 196 ° 0 min 0,000 mm 0,0 UV-I 0 W/m² 8,5 °C 9,4 °C 0,0 km/h (0 Bft)
30.06.2017 04:55 9,4 °C 9,4 °C 94 % 1005,9 hPa 0,0 mm 0,0 km/h (0 Bft) S-SW 196 ° 0 min 0,000 mm 0,0 UV-I 0 W/m² 8,5 °C 9,4 °C 0,0 km/h (0 Bft)
30.06.2017 04:56 9,3 °C 9,4 °C 94 % 1005,9 hPa 0,0 mm 0,0 km/h (0 Bft) S-SW 196 ° 0 min 0,000 mm 0,0 UV-I 0 W/m² 8,4 °C 9,3 °C 0,0 km/h (0 Bft)
30.06.2017 04:57 9,3 °C 9,3 °C 94 % 1005,9 hPa 0,0 mm 0,0 km/h (0 Bft) S-SW 196 ° 0 min 0,000 mm 0,0 UV-I 0 W/m² 8,4 °C 9,3 °C 0,0 km/h (0 Bft)
30.06.2017 04:58 9,3 °C 9,3 °C 94 % 1005,9 hPa 0,0 mm 0,0 km/h (0 Bft) S-SW 196 ° 0 min 0,000 mm 0,0 UV-I 0 W/m² 8,4 °C 9,3 °C 0,0 km/h (0 Bft)
30.06.2017 04:59 9,2 °C 9,3 °C 94 % 1005,9 hPa 0,0 mm 0,0 km/h (0 Bft) S-SW 196 ° 0 min 0,000 mm 0,0 UV-I 0 W/m² 8,3 °C 9,2 °C 0,0 km/h (0 Bft)
30.06.2017 05:00 9,2 °C 9,2 °C 94 % 1005,9 hPa 0,0 mm 0,1 km/h (0 Bft) S-SW 196 ° 0 min 0,000 mm 0,0 UV-I 0 W/m² 8,3 °C 9,2 °C 1,6 km/h (1 Bft)
30.06.2017 05:01 9,2 °C 9,2 °C 94 % 1005,9 hPa 0,0 mm 0,0 km/h (0 Bft) S-SW 196 ° 0 min 0,000 mm 0,0 UV-I 0 W/m² 8,3 °C 9,2 °C 0,0 km/h (0 Bft)
30.06.2017 05:02 9,1 °C 9,2 °C 94 % 1005,9 hPa 0,0 mm 0,0 km/h (0 Bft) S-SW 196 ° 0 min 0,000 mm 0,0 UV-I 0 W/m² 8,2 °C 9,1 °C 0,0 km/h (0 Bft)
30.06.2017 05:03 9,1 °C 9,1 °C 94 % 1006,0 hPa 0,0 mm 1,7 km/h (1 Bft) S 190 ° 0 min 0,000 mm 0,0 UV-I 0 W/m² 8,2 °C 9,1 °C 4,8 km/h (1 Bft)
30.06.2017 05:04 9,2 °C 9,2 °C 94 % 1005,9 hPa 0,0 mm 2,1 km/h (1 Bft) S 179 ° 0 min 0,000 mm 0,0 UV-I 0 W/m² 8,3 °C 9,2 °C 4,8 km/h (1 Bft)
30.06.2017 05:05 9,2 °C 9,2 °C 94 % 1005,9 hPa 0,0 mm 1,6 km/h (1 Bft) SO 129 ° 0 min 0,000 mm 0,0 UV-I 0 W/m² 8,3 °C 9,2 °C 3,2 km/h (1 Bft)
30.06.2017 05:06 9,1 °C 9,2 °C 94 % 1005,9 hPa 0,0 mm 1,3 km/h (1 Bft) SO 129 ° 0 min 0,000 mm 0,0 UV-I 0 W/m² 8,2 °C 9,1 °C 3,2 km/h (1 Bft)
30.06.2017 05:07 9,0 °C 9,1 °C 94 % 1006,0 hPa 0,0 mm 1,2 km/h (1 Bft) SO 129 ° 0 min 0,000 mm 0,0 UV-I 0 W/m² 8,1 °C 9,0 °C 1,6 km/h (1 Bft)
30.06.2017 05:08 9,0 °C 9,0 °C 94 % 1006,0 hPa 0,0 mm 0,1 km/h (0 Bft) SO 129 ° 0 min 0,000 mm 0,0 UV-I 0 W/m² 8,1 °C 9,0 °C 1,6 km/h (1 Bft)
30.06.2017 05:09 9,0 °C 9,0 °C 94 % 1006,0 hPa 0,0 mm 0,0 km/h (0 Bft) SO 129 ° 0 min 0,000 mm 0,0 UV-I 0 W/m² 8,1 °C 9,0 °C 0,0 km/h (0 Bft)
30.06.2017 05:10 8,9 °C 9,0 °C 95 % 1006,0 hPa 0,0 mm 0,0 km/h (0 Bft) SO 129 ° 0 min 0,000 mm 0,0 UV-I 0 W/m² 8,1 °C 8,9 °C 0,0 km/h (0 Bft)
30.06.2017 05:11 8,9 °C 9,0 °C 95 % 1006,0 hPa 0,0 mm 0,0 km/h (0 Bft) SO 129 ° 0 min 0,000 mm 0,0 UV-I 0 W/m² 8,1 °C 8,9 °C 0,0 km/h (0 Bft)
30.06.2017 05:12 8,9 °C 8,9 °C 95 % 1006,0 hPa 0,0 mm 0,0 km/h (0 Bft) SO 129 ° 0 min 0,000 mm 0,0 UV-I 0 W/m² 8,1 °C 8,9 °C 0,0 km/h (0 Bft)
30.06.2017 05:13 8,9 °C 8,9 °C 95 % 1006,0 hPa 0,0 mm 0,0 km/h (0 Bft) SO 129 ° 0 min 0,000 mm 0,0 UV-I 0 W/m² 8,1 °C 8,9 °C 0,0 km/h (0 Bft)
30.06.2017 05:14 8,9 °C 8,9 °C 95 % 1006,0 hPa 0,0 mm 0,0 km/h (0 Bft) SO 129 ° 0 min 0,000 mm 0,0 UV-I 0 W/m² 8,1 °C 8,9 °C 0,0 km/h (0 Bft)
30.06.2017 05:15 8,9 °C 8,9 °C 95 % 1006,0 hPa 0,0 mm 0,0 km/h (0 Bft) SO 129 ° 0 min 0,000 mm 0,0 UV-I 0 W/m² 8,1 °C 8,9 °C 0,0 km/h (0 Bft)
30.06.2017 05:16 8,9 °C 8,9 °C 95 % 1006,0 hPa 0,0 mm 0,0 km/h (0 Bft) SO 129 ° 0 min 0,000 mm 0,0 UV-I 0 W/m² 8,1 °C 8,9 °C 0,0 km/h (0 Bft)
30.06.2017 05:17 8,9 °C 9,0 °C 95 % 1006,0 hPa 0,0 mm 0,0 km/h (0 Bft) SO 129 ° 0 min 0,000 mm 0,0 UV-I 0 W/m² 8,1 °C 8,9 °C 0,0 km/h (0 Bft)
30.06.2017 05:18 8,9 °C 8,9 °C 95 % 1006,0 hPa 0,0 mm 0,0 km/h (0 Bft) SO 129 ° 0 min 0,000 mm 0,0 UV-I 0 W/m² 8,1 °C 8,9 °C 0,0 km/h (0 Bft)
30.06.2017 05:19 8,9 °C 8,9 °C 94 % 1006,0 hPa 0,0 mm 0,0 km/h (0 Bft) SO 129 ° 0 min 0,000 mm 0,0 UV-I 0 W/m² 8,0 °C 8,9 °C 0,0 km/h (0 Bft)
30.06.2017 05:20 8,9 °C 8,9 °C 95 % 1006,0 hPa 0,0 mm 0,0 km/h (0 Bft) SO 129 ° 0 min 0,000 mm 0,0 UV-I 0 W/m² 8,1 °C 8,9 °C 0,0 km/h (0 Bft)
30.06.2017 05:21 8,9 °C 8,9 °C 95 % 1006,0 hPa 0,0 mm 0,0 km/h (0 Bft) SO 129 ° 0 min 0,000 mm 0,0 UV-I 0 W/m² 8,1 °C 8,9 °C 0,0 km/h (0 Bft)
30.06.2017 05:22 8,9 °C 8,9 °C 95 % 1006,0 hPa 0,0 mm 0,0 km/h (0 Bft) SO 129 ° 0 min 0,000 mm 0,0 UV-I 0 W/m² 8,1 °C 8,9 °C 0,0 km/h (0 Bft)
30.06.2017 05:23 9,0 °C 9,0 °C 95 % 1006,1 hPa 0,0 mm 0,0 km/h (0 Bft) SO 129 ° 0 min 0,000 mm 0,0 UV-I 0 W/m² 8,2 °C 9,0 °C 0,0 km/h (0 Bft)
30.06.2017 05:24 8,9 °C 9,0 °C 95 % 1006,0 hPa 0,0 mm 0,0 km/h (0 Bft) SO 129 ° 0 min 0,000 mm 0,0 UV-I 0 W/m² 8,1 °C 8,9 °C 0,0 km/h (0 Bft)
30.06.2017 05:25 8,9 °C 9,0 °C 95 % 1006,1 hPa 0,0 mm 0,0 km/h (0 Bft) SO 129 ° 0 min 0,000 mm 0,0 UV-I 0 W/m² 8,1 °C 8,9 °C 0,0 km/h (0 Bft)
30.06.2017 05:26 8,9 °C 8,9 °C 95 % 1006,0 hPa 0,0 mm 0,0 km/h (0 Bft) SO 129 ° 0 min 0,000 mm 0,0 UV-I 0 W/m² 8,1 °C 8,9 °C 0,0 km/h (0 Bft)
30.06.2017 05:27 8,9 °C 8,9 °C 95 % 1006,0 hPa 0,0 mm 0,0 km/h (0 Bft) SO 129 ° 0 min 0,000 mm 0,0 UV-I 0 W/m² 8,1 °C 8,9 °C 0,0 km/h (0 Bft)
30.06.2017 05:28 8,9 °C 8,9 °C 95 % 1006,1 hPa 0,0 mm 0,0 km/h (0 Bft) SO 129 ° 0 min 0,000 mm 0,0 UV-I 0 W/m² 8,1 °C 8,9 °C 0,0 km/h (0 Bft)
30.06.2017 05:29 8,9 °C 9,0 °C 95 % 1006,1 hPa 0,0 mm 0,6 km/h (0 Bft) SO 129 ° 0 min 0,000 mm 0,0 UV-I 0 W/m² 8,1 °C 8,9 °C 1,6 km/h (1 Bft)
30.06.2017 05:30 8,9 °C 8,9 °C 95 % 1006,1 hPa 0,0 mm 0,2 km/h (0 Bft) SO 129 ° 0 min 0,000 mm 0,0 UV-I 0 W/m² 8,1 °C 8,9 °C 1,6 km/h (1 Bft)
30.06.2017 05:31 8,9 °C 8,9 °C 95 % 1006,1 hPa 0,0 mm 0,0 km/h (0 Bft) SO 129 ° 0 min 0,000 mm 0,0 UV-I 0 W/m² 8,1 °C 8,9 °C 0,0 km/h (0 Bft)
30.06.2017 05:32 8,9 °C 9,0 °C 95 % 1006,0 hPa 0,0 mm 0,0 km/h (0 Bft) SO 129 ° 0 min 0,000 mm 0,0 UV-I 0 W/m² 8,1 °C 8,9 °C 0,0 km/h (0 Bft)
30.06.2017 05:33 9,0 °C 9,0 °C 95 % 1006,1 hPa 0,0 mm 0,0 km/h (0 Bft) SO 129 ° 0 min 0,000 mm 0,0 UV-I 5 W/m² 8,2 °C 9,0 °C 0,0 km/h (0 Bft)
30.06.2017 05:34 8,9 °C 9,0 °C 95 % 1006,1 hPa 0,0 mm 0,0 km/h (0 Bft) SO 129 ° 0 min 0,000 mm 0,0 UV-I 5 W/m² 8,1 °C 8,9 °C 0,0 km/h (0 Bft)
30.06.2017 05:35 8,9 °C 8,9 °C 95 % 1006,1 hPa 0,0 mm 0,0 km/h (0 Bft) SO 129 ° 0 min 0,000 mm 0,0 UV-I 5 W/m² 8,1 °C 8,9 °C 0,0 km/h (0 Bft)
30.06.2017 05:36 9,0 °C 9,0 °C 95 % 1006,1 hPa 0,0 mm 0,0 km/h (0 Bft) SO 129 ° 0 min 0,000 mm 0,0 UV-I 5 W/m² 8,2 °C 9,0 °C 0,0 km/h (0 Bft)
30.06.2017 05:37 9,0 °C 9,0 °C 95 % 1006,1 hPa 0,0 mm 0,0 km/h (0 Bft) SO 129 ° 0 min 0,000 mm 0,0 UV-I 5 W/m² 8,2 °C 9,0 °C 0,0 km/h (0 Bft)
30.06.2017 05:38 9,0 °C 9,0 °C 95 % 1006,1 hPa 0,0 mm 0,9 km/h (0 Bft) SO 129 ° 0 min 0,000 mm 0,0 UV-I 5 W/m² 8,2 °C 9,0 °C 1,6 km/h (1 Bft)
30.06.2017 05:39 9,1 °C 9,1 °C 95 % 1006,1 hPa 0,0 mm 2,0 km/h (1 Bft) SO 129 ° 0 min 0,000 mm 0,0 UV-I 5 W/m² 8,3 °C 9,1 °C 3,2 km/h (1 Bft)
30.06.2017 05:40 9,1 °C 9,1 °C 95 % 1006,1 hPa 0,0 mm 0,0 km/h (0 Bft) SO 129 ° 0 min 0,000 mm 0,0 UV-I 5 W/m² 8,3 °C 9,1 °C 0,0 km/h (0 Bft)
30.06.2017 05:41 9,1 °C 9,1 °C 95 % 1006,1 hPa 0,0 mm 0,0 km/h (0 Bft) SO 129 ° 0 min 0,000 mm 0,0 UV-I 5 W/m² 8,3 °C 9,1 °C 0,0 km/h (0 Bft)
30.06.2017 05:42 9,1 °C 9,1 °C 95 % 1006,1 hPa 0,0 mm 0,0 km/h (0 Bft) SO 129 ° 0 min 0,000 mm 0,0 UV-I 7 W/m² 8,3 °C 9,1 °C 0,0 km/h (0 Bft)
30.06.2017 05:43 9,1 °C 9,1 °C 95 % 1006,1 hPa 0,0 mm 0,0 km/h (0 Bft) SO 129 ° 0 min 0,000 mm 0,0 UV-I 7 W/m² 8,3 °C 9,1 °C 0,0 km/h (0 Bft)
30.06.2017 05:44 9,1 °C 9,1 °C 95 % 1006,1 hPa 0,0 mm 0,0 km/h (0 Bft) SO 129 ° 0 min 0,000 mm 0,0 UV-I 7 W/m² 8,3 °C 9,1 °C 0,0 km/h (0 Bft)
30.06.2017 05:45 9,1 °C 9,1 °C 95 % 1006,1 hPa 0,0 mm 0,0 km/h (0 Bft) SO 129 ° 0 min 0,000 mm 0,0 UV-I 7 W/m² 8,3 °C 9,1 °C 0,0 km/h (0 Bft)
30.06.2017 05:46 9,1 °C 9,1 °C 95 % 1006,1 hPa 0,0 mm 0,5 km/h (0 Bft) SO 129 ° 0 min 0,000 mm 0,0 UV-I 7 W/m² 8,3 °C 9,1 °C 1,6 km/h (1 Bft)
30.06.2017 05:47 9,0 °C 9,1 °C 95 % 1006,1 hPa 0,0 mm 0,1 km/h (0 Bft) SO 129 ° 0 min 0,000 mm 0,0 UV-I 7 W/m² 8,2 °C 9,0 °C 1,6 km/h (1 Bft)
30.06.2017 05:48 9,0 °C 9,1 °C 95 % 1006,1 hPa 0,0 mm 0,0 km/h (0 Bft) SO 129 ° 0 min 0,000 mm 0,0 UV-I 7 W/m² 8,2 °C 9,0 °C 0,0 km/h (0 Bft)
30.06.2017 05:49 9,0 °C 9,0 °C 95 % 1006,1 hPa 0,0 mm 0,8 km/h (0 Bft) S 182 ° 0 min 0,000 mm 0,0 UV-I 7 W/m² 8,2 °C 9,0 °C 3,2 km/h (1 Bft)
30.06.2017 05:50 9,0 °C 9,1 °C 95 % 1006,1 hPa 0,0 mm 0,5 km/h (0 Bft) S 182 ° 0 min 0,000 mm 0,0 UV-I 9 W/m² 8,2 °C 9,0 °C 1,6 km/h (1 Bft)
30.06.2017 05:51 9,1 °C 9,1 °C 95 % 1006,1 hPa 0,0 mm 1,3 km/h (1 Bft) S 182 ° 0 min 0,000 mm 0,0 UV-I 9 W/m² 8,3 °C 9,1 °C 4,8 km/h (1 Bft)
30.06.2017 05:52 9,1 °C 9,1 °C 95 % 1006,1 hPa 0,0 mm 1,2 km/h (1 Bft) S 182 ° 0 min 0,000 mm 0,0 UV-I 9 W/m² 8,3 °C 9,1 °C 4,8 km/h (1 Bft)
30.06.2017 05:53 9,2 °C 9,2 °C 95 % 1006,1 hPa 0,0 mm 0,9 km/h (0 Bft) S 182 ° 0 min 0,000 mm 0,0 UV-I 9 W/m² 8,4 °C 9,2 °C 3,2 km/h (1 Bft)
30.06.2017 05:54 9,2 °C 9,2 °C 95 % 1006,1 hPa 0,0 mm 1,3 km/h (1 Bft) S 181 ° 0 min 0,000 mm 0,0 UV-I 9 W/m² 8,4 °C 9,2 °C 3,2 km/h (1 Bft)
30.06.2017 05:55 9,2 °C 9,2 °C 95 % 1006,1 hPa 0,0 mm 0,0 km/h (0 Bft) S 181 ° 0 min 0,000 mm 0,0 UV-I 9 W/m² 8,4 °C 9,2 °C 0,0 km/h (0 Bft)
30.06.2017 05:56 9,2 °C 9,2 °C 95 % 1006,1 hPa 0,0 mm 0,8 km/h (0 Bft) S 181 ° 0 min 0,000 mm 0,0 UV-I 9 W/m² 8,4 °C 9,2 °C 3,2 km/h (1 Bft)
30.06.2017 05:57 9,1 °C 9,2 °C 95 % 1006,1 hPa 0,0 mm 0,0 km/h (0 Bft) S 181 ° 0 min 0,000 mm 0,0 UV-I 9 W/m² 8,3 °C 9,1 °C 0,0 km/h (0 Bft)
30.06.2017 05:58 9,1 °C 9,1 °C 95 % 1006,1 hPa 0,0 mm 0,1 km/h (0 Bft) S 181 ° 0 min 0,000 mm 0,0 UV-I 7 W/m² 8,3 °C 9,1 °C 1,6 km/h (1 Bft)
30.06.2017 05:59 9,1 °C 9,1 °C 94 % 1006,1 hPa 0,0 mm 0,5 km/h (0 Bft) S 181 ° 0 min 0,000 mm 0,0 UV-I 9 W/m² 8,2 °C 9,1 °C 1,6 km/h (1 Bft)
30.06.2017 06:00 9,1 °C 9,1 °C 94 % 1006,1 hPa 0,0 mm 0,0 km/h (0 Bft) S 181 ° 0 min 0,000 mm 0,0 UV-I 9 W/m² 8,2 °C 9,1 °C 0,0 km/h (0 Bft)
30.06.2017 06:01 9,1 °C 9,1 °C 94 % 1006,1 hPa 0,0 mm 0,0 km/h (0 Bft) S 181 ° 0 min 0,000 mm 0,0 UV-I 9 W/m² 8,2 °C 9,1 °C 0,0 km/h (0 Bft)
30.06.2017 06:02 9,1 °C 9,1 °C 95 % 1006,1 hPa 0,0 mm 0,1 km/h (0 Bft) S 181 ° 0 min 0,000 mm 0,0 UV-I 9 W/m² 8,3 °C 9,1 °C 1,6 km/h (1 Bft)
30.06.2017 06:03 9,1 °C 9,1 °C 94 % 1006,2 hPa 0,0 mm 0,3 km/h (0 Bft) S 181 ° 0 min 0,000 mm 0,0 UV-I 9 W/m² 8,2 °C 9,1 °C 1,6 km/h (1 Bft)
30.06.2017 06:04 9,1 °C 9,1 °C 95 % 1006,1 hPa 0,0 mm 1,7 km/h (1 Bft) S 181 ° 0 min 0,000 mm 0,0 UV-I 9 W/m² 8,3 °C 9,1 °C 3,2 km/h (1 Bft)
30.06.2017 06:05 9,1 °C 9,1 °C 95 % 1006,2 hPa 0,0 mm 0,9 km/h (0 Bft) S 181 ° 0 min 0,000 mm 0,0 UV-I 9 W/m² 8,3 °C 9,1 °C 1,6 km/h (1 Bft)
30.06.2017 06:06 9,1 °C 9,1 °C 94 % 1006,2 hPa 0,0 mm 0,0 km/h (0 Bft) S 181 ° 0 min 0,000 mm 0,0 UV-I 9 W/m² 8,2 °C 9,1 °C 0,0 km/h (0 Bft)
30.06.2017 06:07 9,1 °C 9,1 °C 94 % 1006,2 hPa 0,0 mm 0,1 km/h (0 Bft) S 181 ° 0 min 0,000 mm 0,0 UV-I 9 W/m² 8,2 °C 9,1 °C 1,6 km/h (1 Bft)
30.06.2017 06:08 9,1 °C 9,1 °C 94 % 1006,1 hPa 0,0 mm 0,4 km/h (0 Bft) S 181 ° 0 min 0,000 mm 0,0 UV-I 9 W/m² 8,2 °C 9,1 °C 1,6 km/h (1 Bft)
30.06.2017 06:09 9,1 °C 9,1 °C 94 % 1006,1 hPa 0,0 mm 0,0 km/h (0 Bft) S 181 ° 0 min 0,000 mm 0,0 UV-I 9 W/m² 8,2 °C 9,1 °C 0,0 km/h (0 Bft)
30.06.2017 06:10 9,0 °C 9,1 °C 94 % 1006,2 hPa 0,0 mm 0,0 km/h (0 Bft) S 181 ° 0 min 0,000 mm 0,0 UV-I 9 W/m² 8,1 °C 9,0 °C 0,0 km/h (0 Bft)
30.06.2017 06:11 9,0 °C 9,0 °C 95 % 1006,2 hPa 0,0 mm 0,0 km/h (0 Bft) S 181 ° 0 min 0,000 mm 0,0 UV-I 11 W/m² 8,2 °C 9,0 °C 0,0 km/h (0 Bft)
30.06.2017 06:12 9,0 °C 9,0 °C 95 % 1006,2 hPa 0,0 mm 0,2 km/h (0 Bft) S-SW 196 ° 0 min 0,000 mm 0,0 UV-I 11 W/m² 8,2 °C 9,0 °C 1,6 km/h (1 Bft)
30.06.2017 06:13 8,9 °C 9,0 °C 95 % 1006,3 hPa 0,0 mm 1,0 km/h (0 Bft) S 191 ° 0 min 0,000 mm 0,0 UV-I 11 W/m² 8,1 °C 8,9 °C 1,6 km/h (1 Bft)
30.06.2017 06:14 9,0 °C 9,0 °C 95 % 1006,2 hPa 0,0 mm 0,0 km/h (0 Bft) S 191 ° 0 min 0,000 mm 0,0 UV-I 12 W/m² 8,2 °C 9,0 °C 0,0 km/h (0 Bft)
30.06.2017 06:15 9,0 °C 9,0 °C 95 % 1006,2 hPa 0,0 mm 0,0 km/h (0 Bft) S 191 ° 0 min 0,000 mm 0,0 UV-I 14 W/m² 8,2 °C 9,0 °C 0,0 km/h (0 Bft)
30.06.2017 06:16 9,1 °C 9,1 °C 95 % 1006,3 hPa 0,0 mm 0,0 km/h (0 Bft) S 191 ° 0 min 0,000 mm 0,0 UV-I 16 W/m² 8,3 °C 9,1 °C 0,0 km/h (0 Bft)
30.06.2017 06:17 9,1 °C 9,1 °C 95 % 1006,3 hPa 0,0 mm 0,0 km/h (0 Bft) S 191 ° 0 min 0,000 mm 0,0 UV-I 18 W/m² 8,3 °C 9,1 °C 0,0 km/h (0 Bft)
30.06.2017 06:18 9,1 °C 9,1 °C 95 % 1006,3 hPa 0,0 mm 0,3 km/h (0 Bft) S 191 ° 0 min 0,000 mm 0,0 UV-I 19 W/m² 8,3 °C 9,1 °C 1,6 km/h (1 Bft)
30.06.2017 06:19 9,1 °C 9,1 °C 95 % 1006,4 hPa 0,0 mm 0,6 km/h (0 Bft) S 191 ° 0 min 0,000 mm 0,0 UV-I 21 W/m² 8,3 °C 9,1 °C 1,6 km/h (1 Bft)
30.06.2017 06:20 9,1 °C 9,1 °C 95 % 1006,4 hPa 0,0 mm 0,0 km/h (0 Bft) S 191 ° 0 min 0,000 mm 0,0 UV-I 28 W/m² 8,3 °C 9,1 °C 0,0 km/h (0 Bft)
30.06.2017 06:21 9,1 °C 9,1 °C 95 % 1006,4 hPa 0,0 mm 0,0 km/h (0 Bft) S 191 ° 0 min 0,000 mm 0,0 UV-I 30 W/m² 8,3 °C 9,1 °C 0,0 km/h (0 Bft)
30.06.2017 06:22 9,1 °C 9,1 °C 95 % 1006,4 hPa 0,0 mm 0,0 km/h (0 Bft) S 191 ° 0 min 0,000 mm 0,0 UV-I 30 W/m² 8,3 °C 9,1 °C 0,0 km/h (0 Bft)
30.06.2017 06:23 9,1 °C 9,1 °C 95 % 1006,4 hPa 0,0 mm 0,0 km/h (0 Bft) S 191 ° 0 min 0,000 mm 0,0 UV-I 35 W/m² 8,3 °C 9,1 °C 0,0 km/h (0 Bft)
30.06.2017 06:24 9,1 °C 9,1 °C 95 % 1006,4 hPa 0,0 mm 0,0 km/h (0 Bft) S 191 ° 0 min 0,000 mm 0,0 UV-I 35 W/m² 8,3 °C 9,1 °C 0,0 km/h (0 Bft)
30.06.2017 06:25 9,1 °C 9,1 °C 95 % 1006,4 hPa 0,0 mm 1,0 km/h (0 Bft) S 191 ° 0 min 0,000 mm 0,0 UV-I 37 W/m² 8,3 °C 9,1 °C 3,2 km/h (1 Bft)
30.06.2017 06:26 9,1 °C 9,1 °C 95 % 1006,4 hPa 0,0 mm 1,1 km/h (1 Bft) S 191 ° 0 min 0,000 mm 0,0 UV-I 40 W/m² 8,3 °C 9,1 °C 3,2 km/h (1 Bft)
30.06.2017 06:27 9,1 °C 9,1 °C 95 % 1006,4 hPa 0,0 mm 0,0 km/h (0 Bft) S 191 ° 0 min 0,000 mm 0,0 UV-I 42 W/m² 8,3 °C 9,1 °C 0,0 km/h (0 Bft)
30.06.2017 06:28 9,1 °C 9,1 °C 95 % 1006,4 hPa 0,0 mm 1,9 km/h (1 Bft) S 191 ° 0 min 0,000 mm 0,0 UV-I 44 W/m² 8,3 °C 9,1 °C 3,2 km/h (1 Bft)
30.06.2017 06:29 9,2 °C 9,2 °C 95 % 1006,4 hPa 0,0 mm 2,0 km/h (1 Bft) S 191 ° 0 min 0,000 mm 0,0 UV-I 46 W/m² 8,4 °C 9,2 °C 3,2 km/h (1 Bft)
30.06.2017 06:30 9,2 °C 9,2 °C 95 % 1006,4 hPa 0,0 mm 0,3 km/h (0 Bft) S 191 ° 0 min 0,000 mm 0,0 UV-I 49 W/m² 8,4 °C 9,2 °C 1,6 km/h (1 Bft)
30.06.2017 06:31 9,1 °C 9,2 °C 95 % 1006,4 hPa 0,0 mm 0,0 km/h (0 Bft) S 191 ° 0 min 0,000 mm 0,0 UV-I 51 W/m² 8,3 °C 9,1 °C 0,0 km/h (0 Bft)
30.06.2017 06:32 9,2 °C 9,2 °C 95 % 1006,4 hPa 0,0 mm 0,0 km/h (0 Bft) S 191 ° 0 min 0,000 mm 0,0 UV-I 53 W/m² 8,4 °C 9,2 °C 0,0 km/h (0 Bft)
30.06.2017 06:33 9,2 °C 9,2 °C 95 % 1006,4 hPa 0,0 mm 0,1 km/h (0 Bft) S 191 ° 0 min 0,000 mm 0,0 UV-I 54 W/m² 8,4 °C 9,2 °C 1,6 km/h (1 Bft)
30.06.2017 06:34 9,3 °C 9,3 °C 95 % 1006,4 hPa 0,0 mm 0,2 km/h (0 Bft) S 191 ° 0 min 0,000 mm 0,0 UV-I 54 W/m² 8,5 °C 9,3 °C 1,6 km/h (1 Bft)
30.06.2017 06:35 9,3 °C 9,3 °C 95 % 1006,5 hPa 0,0 mm 0,5 km/h (0 Bft) S 191 ° 0 min 0,000 mm 0,0 UV-I 54 W/m² 8,5 °C 9,3 °C 1,6 km/h (1 Bft)
30.06.2017 06:36 9,4 °C 9,4 °C 95 % 1006,5 hPa 0,0 mm 0,3 km/h (0 Bft) S 190 ° 0 min 0,000 mm 0,0 UV-I 56 W/m² 8,6 °C 9,4 °C 1,6 km/h (1 Bft)
30.06.2017 06:37 9,4 °C 9,4 °C 95 % 1006,5 hPa 0,0 mm 0,5 km/h (0 Bft) S 190 ° 0 min 0,000 mm 0,0 UV-I 93 W/m² 8,6 °C 9,4 °C 1,6 km/h (1 Bft)
30.06.2017 06:38 9,6 °C 9,6 °C 95 % 1006,5 hPa 0,0 mm 2,1 km/h (1 Bft) W-SW 244 ° 0 min 0,000 mm 0,0 UV-I 148 W/m² 8,8 °C 9,6 °C 4,8 km/h (1 Bft)
30.06.2017 06:39 9,7 °C 9,7 °C 95 % 1006,6 hPa 0,0 mm 1,5 km/h (1 Bft) W-SW 244 ° 0 min 0,000 mm 0,0 UV-I 151 W/m² 8,9 °C 9,7 °C 3,2 km/h (1 Bft)
30.06.2017 06:40 9,8 °C 9,8 °C 95 % 1006,5 hPa 0,0 mm 0,0 km/h (0 Bft) W-SW 244 ° 0 min 0,000 mm 0,0 UV-I 146 W/m² 9,0 °C 9,8 °C 0,0 km/h (0 Bft)
30.06.2017 06:41 9,8 °C 9,8 °C 95 % 1006,5 hPa 0,0 mm 0,0 km/h (0 Bft) W-SW 244 ° 0 min 0,000 mm 0,0 UV-I 141 W/m² 9,0 °C 9,8 °C 0,0 km/h (0 Bft)
30.06.2017 06:42 9,9 °C 9,9 °C 95 % 1006,6 hPa 0,0 mm 0,9 km/h (0 Bft) W-SW 246 ° 0 min 0,000 mm 0,0 UV-I 153 W/m² 9,1 °C 9,9 °C 3,2 km/h (1 Bft)
30.06.2017 06:43 10,0 °C 10,0 °C 95 % 1006,6 hPa 0,0 mm 3,6 km/h (1 Bft) SW 224 ° 0 min 0,000 mm 0,0 UV-I 134 W/m² 9,2 °C 10,0 °C 6,4 km/h (2 Bft)
30.06.2017 06:44 10,2 °C 10,2 °C 95 % 1006,6 hPa 0,0 mm 0,3 km/h (0 Bft) SW 224 ° 0 min 0,000 mm 0,0 UV-I 156 W/m² 9,4 °C 10,2 °C 1,6 km/h (1 Bft)
30.06.2017 06:45 10,2 °C 10,2 °C 94 % 1006,6 hPa 0,0 mm 1,4 km/h (1 Bft) SW 227 ° 0 min 0,000 mm 0,0 UV-I 123 W/m² 9,3 °C 10,2 °C 3,2 km/h (1 Bft)
30.06.2017 06:46 10,3 °C 10,3 °C 95 % 1006,7 hPa 0,0 mm 2,8 km/h (1 Bft) W-NW 288 ° 0 min 0,000 mm 0,0 UV-I 72 W/m² 9,5 °C 10,3 °C 4,8 km/h (1 Bft)
30.06.2017 06:47 10,4 °C 10,4 °C 95 % 1006,6 hPa 0,0 mm 0,0 km/h (0 Bft) W-NW 288 ° 0 min 0,000 mm 0,0 UV-I 141 W/m² 9,6 °C 10,4 °C 0,0 km/h (0 Bft)
30.06.2017 06:48 10,4 °C 10,4 °C 94 % 1006,7 hPa 0,0 mm 0,0 km/h (0 Bft) W-NW 288 ° 0 min 0,000 mm 0,0 UV-I 121 W/m² 9,5 °C 10,4 °C 0,0 km/h (0 Bft)
30.06.2017 06:49 10,6 °C 10,6 °C 94 % 1006,7 hPa 0,0 mm 0,7 km/h (0 Bft) W-NW 288 ° 0 min 0,000 mm 0,0 UV-I 132 W/m² 9,7 °C 10,6 °C 3,2 km/h (1 Bft)
30.06.2017 06:50 10,6 °C 10,6 °C 94 % 1006,8 hPa 0,0 mm 2,2 km/h (1 Bft) W-NW 288 ° 0 min 0,000 mm 0,0 UV-I 162 W/m² 9,7 °C 10,6 °C 4,8 km/h (1 Bft)
30.06.2017 06:51 10,7 °C 10,7 °C 94 % 1006,8 hPa 0,0 mm 0,1 km/h (0 Bft) W-NW 288 ° 0 min 0,000 mm 0,0 UV-I 104 W/m² 9,8 °C 10,7 °C 1,6 km/h (1 Bft)
30.06.2017 06:52 10,7 °C 10,7 °C 94 % 1006,7 hPa 0,0 mm 0,0 km/h (0 Bft) W-NW 288 ° 0 min 0,000 mm 0,0 UV-I 69 W/m² 9,8 °C 10,7 °C 0,0 km/h (0 Bft)
30.06.2017 06:53 10,7 °C 10,7 °C 94 % 1006,8 hPa 0,0 mm 0,0 km/h (0 Bft) W-NW 288 ° 0 min 0,000 mm 0,0 UV-I 69 W/m² 9,8 °C 10,7 °C 0,0 km/h (0 Bft)
30.06.2017 06:54 10,7 °C 10,7 °C 93 % 1006,8 hPa 0,0 mm 0,0 km/h (0 Bft) W-NW 288 ° 0 min 0,000 mm 0,0 UV-I 69 W/m² 9,6 °C 10,7 °C 0,0 km/h (0 Bft)
30.06.2017 06:55 10,7 °C 10,7 °C 93 % 1006,8 hPa 0,0 mm 0,0 km/h (0 Bft) W-NW 288 ° 0 min 0,000 mm 0,0 UV-I 91 W/m² 9,6 °C 10,7 °C 0,0 km/h (0 Bft)
30.06.2017 06:56 10,6 °C 10,7 °C 93 % 1006,8 hPa 0,0 mm 0,6 km/h (0 Bft) W-NW 287 ° 0 min 0,000 mm 0,0 UV-I 88 W/m² 9,5 °C 10,6 °C 1,6 km/h (1 Bft)
30.06.2017 06:57 10,6 °C 10,6 °C 93 % 1006,8 hPa 0,0 mm 0,0 km/h (0 Bft) W-NW 287 ° 0 min 0,000 mm 0,0 UV-I 60 W/m² 9,5 °C 10,6 °C 0,0 km/h (0 Bft)
30.06.2017 06:58 10,5 °C 10,6 °C 93 % 1006,8 hPa 0,0 mm 0,0 km/h (0 Bft) W-NW 287 ° 0 min 0,000 mm 0,0 UV-I 60 W/m² 9,4 °C 10,5 °C 0,0 km/h (0 Bft)
30.06.2017 06:59 10,5 °C 10,6 °C 93 % 1006,9 hPa 0,0 mm 0,0 km/h (0 Bft) W-NW 287 ° 0 min 0,000 mm 0,0 UV-I 65 W/m² 9,4 °C 10,5 °C 0,0 km/h (0 Bft)
30.06.2017 07:00 10,4 °C 10,5 °C 93 % 1006,8 hPa 0,0 mm 0,0 km/h (0 Bft) W-NW 287 ° 0 min 0,025 mm 0,0 UV-I 53 W/m² 9,3 °C 10,4 °C 0,0 km/h (0 Bft)
30.06.2017 07:01 10,4 °C 10,4 °C 93 % 1006,9 hPa 0,0 mm 0,1 km/h (0 Bft) N-NW 328 ° 0 min 0,000 mm 0,0 UV-I 51 W/m² 9,3 °C 10,4 °C 1,6 km/h (1 Bft)
30.06.2017 07:02 10,4 °C 10,4 °C 93 % 1006,9 hPa 0,0 mm 0,8 km/h (0 Bft) N-NW 328 ° 0 min 0,000 mm 0,0 UV-I 91 W/m² 9,3 °C 10,4 °C 1,6 km/h (1 Bft)
30.06.2017 07:03 10,3 °C 10,4 °C 93 % 1006,9 hPa 0,0 mm 0,5 km/h (0 Bft) N-NW 328 ° 0 min 0,000 mm 0,0 UV-I 49 W/m² 9,2 °C 10,3 °C 3,2 km/h (1 Bft)
30.06.2017 07:04 10,4 °C 10,4 °C 93 % 1006,9 hPa 0,0 mm 1,3 km/h (1 Bft) N-NW 328 ° 0 min 0,000 mm 0,0 UV-I 53 W/m² 9,3 °C 10,4 °C 3,2 km/h (1 Bft)
30.06.2017 07:05 10,4 °C 10,4 °C 93 % 1006,9 hPa 0,0 mm 0,9 km/h (0 Bft) N-NW 328 ° 0 min 0,000 mm 0,0 UV-I 49 W/m² 9,3 °C 10,4 °C 3,2 km/h (1 Bft)
30.06.2017 07:06 10,4 °C 10,4 °C 93 % 1006,9 hPa 0,0 mm 0,1 km/h (0 Bft) N-NW 328 ° 0 min 0,000 mm 0,0 UV-I 49 W/m² 9,3 °C 10,4 °C 1,6 km/h (1 Bft)
30.06.2017 07:07 10,4 °C 10,4 °C 93 % 1007,0 hPa 0,0 mm 0,0 km/h (0 Bft) N-NW 328 ° 0 min 0,000 mm 0,0 UV-I 53 W/m² 9,3 °C 10,4 °C 0,0 km/h (0 Bft)
30.06.2017 07:08 10,4 °C 10,4 °C 93 % 1007,0 hPa 0,0 mm 0,0 km/h (0 Bft) N-NW 328 ° 0 min 0,000 mm 0,0 UV-I 54 W/m² 9,3 °C 10,4 °C 0,0 km/h (0 Bft)
30.06.2017 07:09 10,4 °C 10,4 °C 93 % 1007,0 hPa 0,0 mm 0,3 km/h (0 Bft) N-NW 330 ° 0 min 0,000 mm 0,0 UV-I 54 W/m² 9,3 °C 10,4 °C 3,2 km/h (1 Bft)
30.06.2017 07:10 10,3 °C 10,4 °C 93 % 1007,0 hPa 0,0 mm 0,0 km/h (0 Bft) N-NW 330 ° 0 min 0,000 mm 0,5 UV-I 56 W/m² 9,2 °C 10,3 °C 0,0 km/h (0 Bft)
30.06.2017 07:11 10,3 °C 10,3 °C 93 % 1007,0 hPa 0,0 mm 0,1 km/h (0 Bft) N-NW 330 ° 0 min 0,000 mm 0,5 UV-I 58 W/m² 9,2 °C 10,3 °C 1,6 km/h (1 Bft)
30.06.2017 07:12 10,3 °C 10,3 °C 93 % 1007,0 hPa 0,0 mm 0,0 km/h (0 Bft) N-NW 330 ° 0 min 0,000 mm 0,5 UV-I 58 W/m² 9,2 °C 10,3 °C 0,0 km/h (0 Bft)
30.06.2017 07:13 10,3 °C 10,3 °C 93 % 1007,0 hPa 0,0 mm 0,0 km/h (0 Bft) N-NW 330 ° 0 min 0,000 mm 0,5 UV-I 62 W/m² 9,2 °C 10,3 °C 0,0 km/h (0 Bft)
30.06.2017 07:14 10,2 °C 10,3 °C 93 % 1007,0 hPa 0,0 mm 0,0 km/h (0 Bft) N-NW 330 ° 0 min 0,000 mm 0,6 UV-I 63 W/m² 9,1 °C 10,2 °C 0,0 km/h (0 Bft)
30.06.2017 07:15 10,3 °C 10,3 °C 93 % 1007,0 hPa 0,0 mm 0,0 km/h (0 Bft) N-NW 330 ° 0 min 0,000 mm 0,6 UV-I 67 W/m² 9,2 °C 10,3 °C 0,0 km/h (0 Bft)
30.06.2017 07:16 10,2 °C 10,3 °C 94 % 1007,0 hPa 0,0 mm 0,0 km/h (0 Bft) N-NW 330 ° 0 min 0,000 mm 0,6 UV-I 70 W/m² 9,3 °C 10,2 °C 0,0 km/h (0 Bft)
30.06.2017 07:17 10,2 °C 10,2 °C 94 % 1007,0 hPa 0,0 mm 0,0 km/h (0 Bft) N-NW 330 ° 0 min 0,000 mm 0,6 UV-I 74 W/m² 9,3 °C 10,2 °C 0,0 km/h (0 Bft)
30.06.2017 07:18 10,2 °C 10,2 °C 94 % 1007,1 hPa 0,0 mm 0,0 km/h (0 Bft) N-NW 330 ° 0 min 0,000 mm 0,6 UV-I 76 W/m² 9,3 °C 10,2 °C 0,0 km/h (0 Bft)
30.06.2017 07:19 10,3 °C 10,3 °C 94 % 1007,1 hPa 0,0 mm 0,0 km/h (0 Bft) N-NW 330 ° 0 min 0,000 mm 0,6 UV-I 84 W/m² 9,4 °C 10,3 °C 0,0 km/h (0 Bft)
30.06.2017 07:20 10,3 °C 10,3 °C 94 % 1007,1 hPa 0,0 mm 0,0 km/h (0 Bft) N-NW 330 ° 0 min 0,000 mm 0,6 UV-I 90 W/m² 9,4 °C 10,3 °C 0,0 km/h (0 Bft)
30.06.2017 07:21 10,3 °C 10,3 °C 94 % 1007,1 hPa 0,0 mm 0,0 km/h (0 Bft) N-NW 330 ° 0 min 0,000 mm 0,7 UV-I 97 W/m² 9,4 °C 10,3 °C 0,0 km/h (0 Bft)
30.06.2017 07:22 10,3 °C 10,3 °C 94 % 1007,1 hPa 0,0 mm 0,0 km/h (0 Bft) N-NW 330 ° 0 min 0,000 mm 0,7 UV-I 114 W/m² 9,4 °C 10,3 °C 0,0 km/h (0 Bft)
30.06.2017 07:23 10,3 °C 10,3 °C 94 % 1007,1 hPa 0,0 mm 0,2 km/h (0 Bft) N-NW 331 ° 0 min 0,000 mm 0,7 UV-I 104 W/m² 9,4 °C 10,3 °C 1,6 km/h (1 Bft)
30.06.2017 07:24 10,3 °C 10,3 °C 94 % 1007,1 hPa 0,0 mm 1,2 km/h (1 Bft) N-NW 330 ° 0 min 0,000 mm 0,7 UV-I 100 W/m² 9,4 °C 10,3 °C 3,2 km/h (1 Bft)
30.06.2017 07:25 10,3 °C 10,3 °C 94 % 1007,1 hPa 0,0 mm 1,8 km/h (1 Bft) N-NW 335 ° 0 min 0,000 mm 0,7 UV-I 185 W/m² 9,4 °C 10,3 °C 3,2 km/h (1 Bft)
30.06.2017 07:26 10,3 °C 10,3 °C 94 % 1007,0 hPa 0,0 mm 1,3 km/h (1 Bft) N-NW 335 ° 0 min 0,000 mm 0,7 UV-I 104 W/m² 9,4 °C 10,3 °C 3,2 km/h (1 Bft)
30.06.2017 07:27 10,4 °C 10,4 °C 94 % 1007,0 hPa 0,0 mm 1,3 km/h (1 Bft) N-NW 335 ° 0 min 0,000 mm 0,7 UV-I 100 W/m² 9,5 °C 10,4 °C 3,2 km/h (1 Bft)
30.06.2017 07:28 10,4 °C 10,4 °C 94 % 1007,0 hPa 0,0 mm 0,8 km/h (0 Bft) N-NW 335 ° 0 min 0,000 mm 0,7 UV-I 104 W/m² 9,5 °C 10,4 °C 3,2 km/h (1 Bft)
30.06.2017 07:29 10,4 °C 10,5 °C 94 % 1007,0 hPa 0,0 mm 1,3 km/h (1 Bft) N-NW 335 ° 0 min 0,000 mm 0,7 UV-I 109 W/m² 9,5 °C 10,4 °C 3,2 km/h (1 Bft)
30.06.2017 07:30 10,4 °C 10,5 °C 94 % 1007,1 hPa 0,0 mm 0,3 km/h (0 Bft) N-NW 335 ° 0 min 0,000 mm 0,7 UV-I 109 W/m² 9,5 °C 10,4 °C 1,6 km/h (1 Bft)
30.06.2017 07:31 10,4 °C 10,4 °C 94 % 1007,0 hPa 0,0 mm 0,0 km/h (0 Bft) N-NW 335 ° 0 min 0,000 mm 0,7 UV-I 114 W/m² 9,5 °C 10,4 °C 0,0 km/h (0 Bft)
30.06.2017 07:32 10,4 °C 10,5 °C 94 % 1007,0 hPa 0,0 mm 0,0 km/h (0 Bft) N-NW 335 ° 0 min 0,000 mm 0,8 UV-I 120 W/m² 9,5 °C 10,4 °C 0,0 km/h (0 Bft)
30.06.2017 07:33 10,6 °C 10,6 °C 94 % 1007,1 hPa 0,0 mm 0,0 km/h (0 Bft) N-NW 335 ° 0 min 0,000 mm 0,8 UV-I 127 W/m² 9,7 °C 10,6 °C 0,0 km/h (0 Bft)
30.06.2017 07:34 10,6 °C 10,6 °C 94 % 1007,0 hPa 0,0 mm 0,0 km/h (0 Bft) N-NW 335 ° 0 min 0,000 mm 0,8 UV-I 132 W/m² 9,7 °C 10,6 °C 0,0 km/h (0 Bft)
30.06.2017 07:35 10,6 °C 10,6 °C 94 % 1007,1 hPa 0,0 mm 0,0 km/h (0 Bft) N-NW 335 ° 0 min 0,000 mm 0,8 UV-I 130 W/m² 9,7 °C 10,6 °C 0,0 km/h (0 Bft)
30.06.2017 07:36 10,7 °C 10,7 °C 94 % 1007,1 hPa 0,0 mm 0,0 km/h (0 Bft) N-NW 335 ° 0 min 0,000 mm 0,8 UV-I 132 W/m² 9,8 °C 10,7 °C 0,0 km/h (0 Bft)
30.06.2017 07:37 10,7 °C 10,7 °C 94 % 1007,1 hPa 0,0 mm 0,0 km/h (0 Bft) N-NW 335 ° 0 min 0,000 mm 0,8 UV-I 139 W/m² 9,8 °C 10,7 °C 0,0 km/h (0 Bft)
30.06.2017 07:38 10,7 °C 10,7 °C 94 % 1007,1 hPa 0,0 mm 0,0 km/h (0 Bft) N-NW 335 ° 0 min 0,000 mm 0,8 UV-I 132 W/m² 9,8 °C 10,7 °C 0,0 km/h (0 Bft)
30.06.2017 07:39 10,7 °C 10,7 °C 94 % 1007,1 hPa 0,0 mm 0,0 km/h (0 Bft) N-NW 335 ° 0 min 0,000 mm 0,8 UV-I 125 W/m² 9,8 °C 10,7 °C 0,0 km/h (0 Bft)
30.06.2017 07:40 10,7 °C 10,7 °C 94 % 1007,1 hPa 0,0 mm 0,0 km/h (0 Bft) N-NW 335 ° 0 min 0,000 mm 0,8 UV-I 120 W/m² 9,8 °C 10,7 °C 0,0 km/h (0 Bft)
30.06.2017 07:41 10,7 °C 10,7 °C 94 % 1007,1 hPa 0,0 mm 0,0 km/h (0 Bft) N-NW 335 ° 0 min 0,000 mm 0,8 UV-I 116 W/m² 9,8 °C 10,7 °C 0,0 km/h (0 Bft)
30.06.2017 07:42 10,7 °C 10,7 °C 94 % 1007,1 hPa 0,0 mm 0,0 km/h (0 Bft) N-NW 335 ° 0 min 0,000 mm 0,8 UV-I 116 W/m² 9,8 °C 10,7 °C 0,0 km/h (0 Bft)
30.06.2017 07:43 10,8 °C 10,8 °C 94 % 1007,1 hPa 0,0 mm 0,0 km/h (0 Bft) N-NW 335 ° 0 min 0,000 mm 0,8 UV-I 118 W/m² 9,9 °C 10,8 °C 0,0 km/h (0 Bft)
30.06.2017 07:44 10,8 °C 10,8 °C 94 % 1007,1 hPa 0,0 mm 0,0 km/h (0 Bft) N-NW 335 ° 0 min 0,000 mm 0,9 UV-I 120 W/m² 9,9 °C 10,8 °C 0,0 km/h (0 Bft)
30.06.2017 07:45 10,9 °C 10,9 °C 94 % 1007,1 hPa 0,0 mm 0,0 km/h (0 Bft) N-NW 335 ° 0 min 0,000 mm 0,9 UV-I 120 W/m² 10,0 °C 10,9 °C 0,0 km/h (0 Bft)
30.06.2017 07:46 10,9 °C 10,9 °C 94 % 1007,1 hPa 0,0 mm 0,0 km/h (0 Bft) N-NW 335 ° 0 min 0,000 mm 0,9 UV-I 120 W/m² 10,0 °C 10,9 °C 0,0 km/h (0 Bft)
30.06.2017 07:47 10,9 °C 10,9 °C 94 % 1007,1 hPa 0,0 mm 0,0 km/h (0 Bft) N-NW 335 ° 0 min 0,000 mm 0,9 UV-I 118 W/m² 10,0 °C 10,9 °C 0,0 km/h (0 Bft)
30.06.2017 07:48 10,9 °C 10,9 °C 94 % 1007,2 hPa 0,0 mm 0,0 km/h (0 Bft) N-NW 335 ° 0 min 0,000 mm 0,9 UV-I 116 W/m² 10,0 °C 10,9 °C 0,0 km/h (0 Bft)
30.06.2017 07:49 11,0 °C 11,0 °C 94 % 1007,1 hPa 0,0 mm 0,0 km/h (0 Bft) N-NW 335 ° 0 min 0,000 mm 0,9 UV-I 116 W/m² 10,1 °C 11,0 °C 0,0 km/h (0 Bft)
30.06.2017 07:50 11,1 °C 11,1 °C 94 % 1007,1 hPa 0,0 mm 0,0 km/h (0 Bft) N-NW 335 ° 0 min 0,000 mm 0,9 UV-I 120 W/m² 10,2 °C 11,1 °C 0,0 km/h (0 Bft)
30.06.2017 07:51 11,2 °C 11,2 °C 94 % 1007,1 hPa 0,0 mm 0,0 km/h (0 Bft) N-NW 335 ° 0 min 0,000 mm 0,9 UV-I 123 W/m² 10,3 °C 11,2 °C 0,0 km/h (0 Bft)
30.06.2017 07:52 11,2 °C 11,2 °C 94 % 1007,1 hPa 0,0 mm 0,0 km/h (0 Bft) N-NW 335 ° 0 min 0,000 mm 0,9 UV-I 125 W/m² 10,3 °C 11,2 °C 0,0 km/h (0 Bft)
30.06.2017 07:53 11,2 °C 11,2 °C 94 % 1007,1 hPa 0,0 mm 0,0 km/h (0 Bft) N-NW 335 ° 0 min 0,000 mm 1,0 UV-I 128 W/m² 10,3 °C 11,2 °C 0,0 km/h (0 Bft)
30.06.2017 07:54 11,3 °C 11,3 °C 94 % 1007,1 hPa 0,0 mm 0,0 km/h (0 Bft) N-NW 335 ° 0 min 0,000 mm 1,0 UV-I 134 W/m² 10,4 °C 11,3 °C 0,0 km/h (0 Bft)
30.06.2017 07:55 11,3 °C 11,3 °C 94 % 1007,1 hPa 0,0 mm 0,0 km/h (0 Bft) N-NW 335 ° 0 min 0,000 mm 1,0 UV-I 130 W/m² 10,4 °C 11,3 °C 0,0 km/h (0 Bft)
30.06.2017 07:56 11,3 °C 11,3 °C 94 % 1007,1 hPa 0,0 mm 0,0 km/h (0 Bft) N-NW 335 ° 0 min 0,000 mm 1,0 UV-I 128 W/m² 10,4 °C 11,3 °C 0,0 km/h (0 Bft)
30.06.2017 07:57 11,4 °C 11,4 °C 94 % 1007,2 hPa 0,0 mm 0,0 km/h (0 Bft) N-NW 335 ° 0 min 0,000 mm 1,0 UV-I 128 W/m² 10,5 °C 11,4 °C 0,0 km/h (0 Bft)
30.06.2017 07:58 11,4 °C 11,4 °C 94 % 1007,2 hPa 0,0 mm 0,0 km/h (0 Bft) N-NW 335 ° 0 min 0,000 mm 1,0 UV-I 137 W/m² 10,5 °C 11,4 °C 0,0 km/h (0 Bft)
30.06.2017 07:59 11,5 °C 11,5 °C 93 % 1007,2 hPa 0,0 mm 0,0 km/h (0 Bft) N-NW 335 ° 0 min 0,000 mm 1,2 UV-I 158 W/m² 10,4 °C 11,5 °C 0,0 km/h (0 Bft)
30.06.2017 08:00 11,6 °C 11,6 °C 93 % 1007,2 hPa 0,0 mm 0,0 km/h (0 Bft) N-NW 335 ° 0 min 0,051 mm 1,0 UV-I 116 W/m² 10,5 °C 11,6 °C 0,0 km/h (0 Bft)
30.06.2017 08:01 11,7 °C 11,7 °C 93 % 1007,2 hPa 0,0 mm 0,0 km/h (0 Bft) N-NW 335 ° 0 min 0,000 mm 1,0 UV-I 114 W/m² 10,6 °C 11,7 °C 0,0 km/h (0 Bft)
30.06.2017 08:02 11,7 °C 11,7 °C 93 % 1007,2 hPa 0,0 mm 0,0 km/h (0 Bft) N-NW 335 ° 0 min 0,000 mm 1,0 UV-I 100 W/m² 10,6 °C 11,7 °C 0,0 km/h (0 Bft)
30.06.2017 08:03 11,7 °C 11,7 °C 93 % 1007,2 hPa 0,0 mm 0,0 km/h (0 Bft) N-NW 335 ° 0 min 0,000 mm 1,0 UV-I 95 W/m² 10,6 °C 11,7 °C 0,0 km/h (0 Bft)
30.06.2017 08:04 11,7 °C 11,7 °C 91 % 1007,2 hPa 0,0 mm 1,7 km/h (1 Bft) S-SW 207 ° 0 min 0,000 mm 1,1 UV-I 98 W/m² 10,3 °C 11,7 °C 4,8 km/h (1 Bft)
30.06.2017 08:05 11,8 °C 11,8 °C 92 % 1007,2 hPa 0,0 mm 1,1 km/h (1 Bft) S-SW 207 ° 0 min 0,000 mm 1,0 UV-I 90 W/m² 10,5 °C 11,8 °C 3,2 km/h (1 Bft)
30.06.2017 08:06 11,8 °C 11,8 °C 93 % 1007,2 hPa 0,0 mm 0,0 km/h (0 Bft) S-SW 207 ° 0 min 0,000 mm 1,1 UV-I 114 W/m² 10,7 °C 11,8 °C 0,0 km/h (0 Bft)
30.06.2017 08:07 11,7 °C 11,8 °C 92 % 1007,3 hPa 0,0 mm 0,0 km/h (0 Bft) S-SW 207 ° 0 min 0,000 mm 1,3 UV-I 105 W/m² 10,4 °C 11,7 °C 0,0 km/h (0 Bft)
30.06.2017 08:08 11,7 °C 11,7 °C 92 % 1007,3 hPa 0,0 mm 0,0 km/h (0 Bft) S-SW 207 ° 0 min 0,000 mm 1,6 UV-I 195 W/m² 10,4 °C 11,7 °C 0,0 km/h (0 Bft)
30.06.2017 08:09 11,7 °C 11,7 °C 93 % 1007,3 hPa 0,0 mm 0,0 km/h (0 Bft) S-SW 207 ° 0 min 0,000 mm 1,4 UV-I 234 W/m² 10,6 °C 11,7 °C 0,0 km/h (0 Bft)
30.06.2017 08:10 11,9 °C 11,9 °C 93 % 1007,3 hPa 0,0 mm 3,2 km/h (1 Bft) W 261 ° 0 min 0,000 mm 1,5 UV-I 148 W/m² 10,8 °C 11,9 °C 6,4 km/h (2 Bft)
30.06.2017 08:11 12,1 °C 12,1 °C 92 % 1007,3 hPa 0,0 mm 3,4 km/h (1 Bft) NW 309 ° 0 min 0,000 mm 1,4 UV-I 207 W/m² 10,8 °C 12,1 °C 4,8 km/h (1 Bft)
30.06.2017 08:12 12,1 °C 12,1 °C 91 % 1007,3 hPa 0,0 mm 1,7 km/h (1 Bft) NW 309 ° 0 min 0,000 mm 1,7 UV-I 178 W/m² 10,7 °C 12,1 °C 3,2 km/h (1 Bft)
30.06.2017 08:13 12,2 °C 12,2 °C 91 % 1007,3 hPa 0,0 mm 0,1 km/h (0 Bft) NW 309 ° 0 min 0,000 mm 1,7 UV-I 269 W/m² 10,8 °C 12,2 °C 1,6 km/h (1 Bft)
30.06.2017 08:14 12,3 °C 12,3 °C 92 % 1007,3 hPa 0,0 mm 0,1 km/h (0 Bft) NW 309 ° 0 min 0,000 mm 1,7 UV-I 269 W/m² 11,0 °C 12,3 °C 1,6 km/h (1 Bft)
30.06.2017 08:15 12,4 °C 12,4 °C 92 % 1007,3 hPa 0,0 mm 0,0 km/h (0 Bft) NW 309 ° 0 min 0,000 mm 1,8 UV-I 276 W/m² 11,1 °C 12,4 °C 0,0 km/h (0 Bft)
30.06.2017 08:16 12,4 °C 12,4 °C 91 % 1007,4 hPa 0,0 mm 1,2 km/h (1 Bft) NW 309 ° 0 min 0,000 mm 1,8 UV-I 285 W/m² 11,0 °C 12,4 °C 1,6 km/h (1 Bft)
30.06.2017 08:17 12,3 °C 12,4 °C 91 % 1007,4 hPa 0,0 mm 0,1 km/h (0 Bft) NW 309 ° 1 min 0,000 mm 1,8 UV-I 292 W/m² 10,9 °C 12,3 °C 1,6 km/h (1 Bft)
30.06.2017 08:18 12,4 °C 12,4 °C 92 % 1007,4 hPa 0,0 mm 0,3 km/h (0 Bft) NW 309 ° 1 min 0,000 mm 1,8 UV-I 308 W/m² 11,1 °C 12,4 °C 3,2 km/h (1 Bft)
30.06.2017 08:19 12,3 °C 12,4 °C 91 % 1007,3 hPa 0,0 mm 1,5 km/h (1 Bft) NW 309 ° 1 min 0,000 mm 1,8 UV-I 309 W/m² 10,9 °C 12,3 °C 3,2 km/h (1 Bft)
30.06.2017 08:20 12,3 °C 12,3 °C 90 % 1007,3 hPa 0,0 mm 1,0 km/h (0 Bft) NW 309 ° 1 min 0,000 mm 1,9 UV-I 323 W/m² 10,7 °C 12,3 °C 1,6 km/h (1 Bft)
30.06.2017 08:21 12,5 °C 12,5 °C 90 % 1007,3 hPa 0,0 mm 0,6 km/h (0 Bft) NW 309 ° 1 min 0,000 mm 1,9 UV-I 332 W/m² 10,9 °C 12,5 °C 1,6 km/h (1 Bft)
30.06.2017 08:22 12,6 °C 12,6 °C 91 % 1007,3 hPa 0,0 mm 1,9 km/h (1 Bft) N 360 ° 1 min 0,000 mm 1,9 UV-I 338 W/m² 11,2 °C 12,6 °C 3,2 km/h (1 Bft)
30.06.2017 08:23 12,7 °C 12,7 °C 85 % 1007,3 hPa 0,0 mm 1,1 km/h (1 Bft) N 360 ° 1 min 0,000 mm 1,9 UV-I 345 W/m² 10,2 °C 12,7 °C 3,2 km/h (1 Bft)
30.06.2017 08:24 13,0 °C 13,0 °C 88 % 1007,3 hPa 0,0 mm 1,1 km/h (1 Bft) N 360 ° 1 min 0,000 mm 1,9 UV-I 357 W/m² 11,1 °C 13,0 °C 3,2 km/h (1 Bft)
30.06.2017 08:25 13,1 °C 13,1 °C 87 % 1007,4 hPa 0,0 mm 0,0 km/h (0 Bft) N 360 ° 1 min 0,000 mm 1,5 UV-I 308 W/m² 11,0 °C 13,1 °C 0,0 km/h (0 Bft)
30.06.2017 08:26 13,2 °C 13,2 °C 88 % 1007,3 hPa 0,0 mm 0,9 km/h (0 Bft) N 360 ° 1 min 0,000 mm 2,0 UV-I 348 W/m² 11,3 °C 13,2 °C 1,6 km/h (1 Bft)
30.06.2017 08:27 13,3 °C 13,3 °C 85 % 1007,3 hPa 0,0 mm 0,0 km/h (0 Bft) N 360 ° 1 min 0,000 mm 2,0 UV-I 369 W/m² 10,8 °C 13,3 °C 0,0 km/h (0 Bft)
30.06.2017 08:28 13,4 °C 13,4 °C 83 % 1007,4 hPa 0,0 mm 0,0 km/h (0 Bft) N 360 ° 1 min 0,000 mm 2,0 UV-I 367 W/m² 10,6 °C 13,4 °C 0,0 km/h (0 Bft)
30.06.2017 08:29 13,4 °C 13,4 °C 82 % 1007,4 hPa 0,0 mm 2,4 km/h (1 Bft) S-SO 155 ° 1 min 0,000 mm 2,0 UV-I 373 W/m² 10,4 °C 13,4 °C 4,8 km/h (1 Bft)
30.06.2017 08:30 13,4 °C 13,4 °C 81 % 1007,3 hPa 0,0 mm 1,7 km/h (1 Bft) S-SO 155 ° 1 min 0,000 mm 2,0 UV-I 387 W/m² 10,2 °C 13,4 °C 3,2 km/h (1 Bft)
30.06.2017 08:31 13,4 °C 13,4 °C 81 % 1007,4 hPa 0,0 mm 1,1 km/h (1 Bft) W-NW 298 ° 1 min 0,000 mm 2,1 UV-I 394 W/m² 10,2 °C 13,4 °C 3,2 km/h (1 Bft)
30.06.2017 08:32 13,6 °C 13,6 °C 85 % 1007,3 hPa 0,0 mm 3,2 km/h (1 Bft) NW 308 ° 1 min 0,000 mm 2,1 UV-I 401 W/m² 11,1 °C 13,6 °C 4,8 km/h (1 Bft)
30.06.2017 08:33 13,7 °C 13,7 °C 81 % 1007,3 hPa 0,0 mm 2,5 km/h (1 Bft) NW 307 ° 1 min 0,000 mm 2,1 UV-I 406 W/m² 10,5 °C 13,7 °C 6,4 km/h (2 Bft)
30.06.2017 08:34 13,7 °C 13,7 °C 80 % 1007,4 hPa 0,0 mm 1,7 km/h (1 Bft) NW 307 ° 1 min 0,000 mm 2,1 UV-I 410 W/m² 10,3 °C 13,7 °C 4,8 km/h (1 Bft)
30.06.2017 08:35 13,7 °C 13,8 °C 85 % 1007,3 hPa 0,0 mm 2,8 km/h (1 Bft) W 281 ° 1 min 0,000 mm 2,2 UV-I 420 W/m² 11,2 °C 13,7 °C 6,4 km/h (2 Bft)
30.06.2017 08:36 13,5 °C 13,7 °C 86 % 1007,3 hPa 0,0 mm 0,3 km/h (0 Bft) W 281 ° 1 min 0,000 mm 2,2 UV-I 427 W/m² 11,2 °C 13,5 °C 1,6 km/h (1 Bft)
30.06.2017 08:37 13,4 °C 13,5 °C 84 % 1007,4 hPa 0,0 mm 0,3 km/h (0 Bft) W 281 ° 1 min 0,000 mm 2,2 UV-I 429 W/m² 10,8 °C 13,4 °C 4,8 km/h (1 Bft)
30.06.2017 08:38 13,5 °C 13,5 °C 85 % 1007,3 hPa 0,0 mm 3,7 km/h (1 Bft) W-NW 288 ° 1 min 0,000 mm 2,2 UV-I 438 W/m² 11,0 °C 13,5 °C 4,8 km/h (1 Bft)
30.06.2017 08:39 13,8 °C 13,8 °C 86 % 1007,3 hPa 0,0 mm 4,2 km/h (1 Bft) W 274 ° 1 min 0,000 mm 2,3 UV-I 448 W/m² 11,5 °C 13,8 °C 6,4 km/h (2 Bft)
30.06.2017 08:40 14,0 °C 14,0 °C 84 % 1007,3 hPa 0,0 mm 3,5 km/h (1 Bft) S-SW 198 ° 1 min 0,000 mm 2,3 UV-I 466 W/m² 11,3 °C 14,0 °C 4,8 km/h (1 Bft)
30.06.2017 08:41 14,1 °C 14,1 °C 84 % 1007,4 hPa 0,0 mm 2,7 km/h (1 Bft) W 273 ° 1 min 0,000 mm 2,4 UV-I 519 W/m² 11,4 °C 14,1 °C 6,4 km/h (2 Bft)
30.06.2017 08:42 14,2 °C 14,2 °C 85 % 1007,4 hPa 0,0 mm 4,2 km/h (1 Bft) W 274 ° 1 min 0,000 mm 2,1 UV-I 519 W/m² 11,7 °C 14,2 °C 4,8 km/h (1 Bft)
30.06.2017 08:43 14,3 °C 14,3 °C 83 % 1007,5 hPa 0,0 mm 2,9 km/h (1 Bft) W 274 ° 0 min 0,000 mm 1,6 UV-I 211 W/m² 11,5 °C 14,3 °C 4,8 km/h (1 Bft)
30.06.2017 08:44 14,3 °C 14,3 °C 78 % 1007,4 hPa 0,0 mm 4,0 km/h (1 Bft) W-NW 297 ° 0 min 0,000 mm 1,6 UV-I 190 W/m² 10,5 °C 14,3 °C 6,4 km/h (2 Bft)
30.06.2017 08:45 14,2 °C 14,3 °C 76 % 1007,3 hPa 0,0 mm 5,0 km/h (1 Bft) W-NW 296 ° 0 min 0,000 mm 1,6 UV-I 227 W/m² 10,0 °C 14,2 °C 6,4 km/h (2 Bft)
30.06.2017 08:46 14,1 °C 14,2 °C 80 % 1007,3 hPa 0,0 mm 0,9 km/h (0 Bft) W-NW 296 ° 0 min 0,000 mm 1,7 UV-I 276 W/m² 10,7 °C 14,1 °C 1,6 km/h (1 Bft)
30.06.2017 08:47 14,1 °C 14,1 °C 78 % 1007,3 hPa 0,0 mm 0,7 km/h (0 Bft) W-NW 296 ° 0 min 0,000 mm 2,3 UV-I 253 W/m² 10,3 °C 14,1 °C 3,2 km/h (1 Bft)
30.06.2017 08:48 14,1 °C 14,2 °C 83 % 1007,3 hPa 0,0 mm 3,3 km/h (1 Bft) W 270 ° 1 min 0,000 mm 2,5 UV-I 492 W/m² 11,3 °C 14,1 °C 4,8 km/h (1 Bft)
30.06.2017 08:49 14,2 °C 14,2 °C 83 % 1007,4 hPa 0,0 mm 1,9 km/h (1 Bft) W 270 ° 1 min 0,000 mm 2,5 UV-I 490 W/m² 11,4 °C 14,2 °C 3,2 km/h (1 Bft)
30.06.2017 08:50 14,1 °C 14,2 °C 85 % 1007,3 hPa 0,0 mm 1,7 km/h (1 Bft) W 273 ° 1 min 0,000 mm 2,5 UV-I 492 W/m² 11,6 °C 14,1 °C 3,2 km/h (1 Bft)
30.06.2017 08:51 14,1 °C 14,1 °C 84 % 1007,3 hPa 0,0 mm 1,1 km/h (1 Bft) W-SW 248 ° 1 min 0,000 mm 2,5 UV-I 494 W/m² 11,4 °C 14,1 °C 4,8 km/h (1 Bft)
30.06.2017 08:52 14,2 °C 14,2 °C 83 % 1007,3 hPa 0,0 mm 8,7 km/h (2 Bft) W 271 ° 1 min 0,000 mm 2,6 UV-I 497 W/m² 11,4 °C 14,2 °C 11,3 km/h (2 Bft)
30.06.2017 08:53 14,3 °C 14,3 °C 79 % 1007,4 hPa 0,0 mm 8,3 km/h (2 Bft) W 264 ° 1 min 0,000 mm 2,6 UV-I 510 W/m² 10,7 °C 14,3 °C 11,3 km/h (2 Bft)
30.06.2017 08:54 14,4 °C 14,4 °C 78 % 1007,4 hPa 0,0 mm 5,1 km/h (1 Bft) W 275 ° 1 min 0,000 mm 2,7 UV-I 515 W/m² 10,6 °C 14,4 °C 11,3 km/h (2 Bft)
30.06.2017 08:55 14,4 °C 14,4 °C 80 % 1007,4 hPa 0,0 mm 2,2 km/h (1 Bft) W 275 ° 1 min 0,000 mm 2,7 UV-I 519 W/m² 11,0 °C 14,4 °C 3,2 km/h (1 Bft)
30.06.2017 08:56 14,6 °C 14,6 °C 78 % 1007,4 hPa 0,0 mm 4,2 km/h (1 Bft) W 270 ° 1 min 0,000 mm 2,8 UV-I 533 W/m² 10,8 °C 14,6 °C 9,7 km/h (2 Bft)
30.06.2017 08:57 14,7 °C 14,7 °C 80 % 1007,4 hPa 0,0 mm 5,8 km/h (2 Bft) W-SW 238 ° 1 min 0,000 mm 2,8 UV-I 541 W/m² 11,3 °C 14,7 °C 8,0 km/h (2 Bft)
30.06.2017 08:58 14,7 °C 14,7 °C 79 % 1007,4 hPa 0,0 mm 3,0 km/h (1 Bft) NW 317 ° 1 min 0,000 mm 2,8 UV-I 543 W/m² 11,1 °C 14,7 °C 4,8 km/h (1 Bft)
30.06.2017 08:59 14,8 °C 14,8 °C 79 % 1007,4 hPa 0,0 mm 2,4 km/h (1 Bft) NW 312 ° 1 min 0,000 mm 2,8 UV-I 561 W/m² 11,2 °C 14,8 °C 3,2 km/h (1 Bft)
30.06.2017 09:00 14,9 °C 14,9 °C 79 % 1007,4 hPa 0,0 mm 4,5 km/h (1 Bft) W 279 ° 1 min 0,000 mm 2,9 UV-I 564 W/m² 11,3 °C 14,9 °C 8,0 km/h (2 Bft)
30.06.2017 09:01 15,1 °C 15,1 °C 80 % 1007,4 hPa 0,0 mm 5,7 km/h (1 Bft) W-NW 293 ° 1 min 0,178 mm 2,9 UV-I 554 W/m² 11,7 °C 15,1 °C 6,4 km/h (2 Bft)
30.06.2017 09:02 15,1 °C 15,2 °C 75 % 1007,4 hPa 0,0 mm 6,4 km/h (2 Bft) W-NW 300 ° 1 min 0,000 mm 3,0 UV-I 577 W/m² 10,7 °C 15,1 °C 11,3 km/h (2 Bft)
30.06.2017 09:03 15,1 °C 15,1 °C 76 % 1007,5 hPa 0,0 mm 2,0 km/h (1 Bft) NW 315 ° 1 min 0,000 mm 3,0 UV-I 577 W/m² 10,9 °C 15,1 °C 3,2 km/h (1 Bft)
30.06.2017 09:04 15,1 °C 15,1 °C 79 % 1007,5 hPa 0,0 mm 3,1 km/h (1 Bft) NW 309 ° 1 min 0,000 mm 3,0 UV-I 568 W/m² 11,5 °C 15,1 °C 6,4 km/h (2 Bft)
30.06.2017 09:05 15,1 °C 15,1 °C 78 % 1007,5 hPa 0,0 mm 5,4 km/h (1 Bft) N-NW 335 ° 1 min 0,000 mm 2,4 UV-I 568 W/m² 11,3 °C 15,1 °C 11,3 km/h (2 Bft)
30.06.2017 09:06 15,0 °C 15,1 °C 75 % 1007,5 hPa 0,0 mm 9,0 km/h (2 Bft) W-NW 293 ° 1 min 0,000 mm 2,9 UV-I 568 W/m² 10,6 °C 15,0 °C 14,5 km/h (3 Bft)
30.06.2017 09:07 14,9 °C 15,0 °C 75 % 1007,5 hPa 0,0 mm 6,3 km/h (2 Bft) N-NW 338 ° 1 min 0,000 mm 3,1 UV-I 568 W/m² 10,5 °C 14,9 °C 11,3 km/h (2 Bft)
30.06.2017 09:08 14,8 °C 14,9 °C 75 % 1007,5 hPa 0,0 mm 5,5 km/h (1 Bft) W-NW 290 ° 1 min 0,000 mm 3,1 UV-I 561 W/m² 10,4 °C 14,8 °C 8,0 km/h (2 Bft)
30.06.2017 09:09 14,8 °C 14,8 °C 76 % 1007,6 hPa 0,0 mm 3,7 km/h (1 Bft) NW 316 ° 1 min 0,000 mm 3,1 UV-I 573 W/m² 10,6 °C 14,8 °C 6,4 km/h (2 Bft)
30.06.2017 09:10 14,8 °C 14,8 °C 77 % 1007,5 hPa 0,0 mm 4,3 km/h (1 Bft) W-NW 296 ° 1 min 0,000 mm 3,2 UV-I 591 W/m² 10,8 °C 14,8 °C 11,3 km/h (2 Bft)
30.06.2017 09:11 14,9 °C 14,9 °C 78 % 1007,6 hPa 0,0 mm 2,7 km/h (1 Bft) W 280 ° 1 min 0,000 mm 2,9 UV-I 466 W/m² 11,1 °C 14,9 °C 6,4 km/h (2 Bft)
30.06.2017 09:12 14,8 °C 14,9 °C 75 % 1007,6 hPa 0,0 mm 5,5 km/h (1 Bft) W-NW 282 ° 1 min 0,000 mm 3,1 UV-I 466 W/m² 10,4 °C 14,8 °C 11,3 km/h (2 Bft)
30.06.2017 09:13 14,9 °C 14,9 °C 77 % 1007,5 hPa 0,0 mm 4,8 km/h (1 Bft) N-NW 338 ° 1 min 0,000 mm 2,9 UV-I 527 W/m² 10,9 °C 14,9 °C 9,7 km/h (2 Bft)
30.06.2017 09:14 14,9 °C 14,9 °C 76 % 1007,5 hPa 0,0 mm 8,4 km/h (2 Bft) W-NW 300 ° 1 min 0,000 mm 3,1 UV-I 584 W/m² 10,7 °C 14,9 °C 12,9 km/h (3 Bft)
30.06.2017 09:15 14,9 °C 14,9 °C 74 % 1007,5 hPa 0,0 mm 5,2 km/h (1 Bft) W-NW 296 ° 1 min 0,000 mm 3,0 UV-I 485 W/m² 10,3 °C 14,9 °C 8,0 km/h (2 Bft)
30.06.2017 09:16 14,9 °C 14,9 °C 74 % 1007,5 hPa 0,0 mm 4,4 km/h (1 Bft) W-NW 293 ° 1 min 0,000 mm 3,1 UV-I 485 W/m² 10,3 °C 14,9 °C 6,4 km/h (2 Bft)
30.06.2017 09:17 15,0 °C 15,0 °C 79 % 1007,5 hPa 0,0 mm 2,4 km/h (1 Bft) W-NW 293 ° 1 min 0,000 mm 3,4 UV-I 485 W/m² 11,4 °C 15,0 °C 4,8 km/h (1 Bft)
30.06.2017 09:18 15,1 °C 15,1 °C 79 % 1007,5 hPa 0,0 mm 5,4 km/h (1 Bft) N 5 ° 1 min 0,000 mm 3,5 UV-I 485 W/m² 11,5 °C 15,1 °C 8,0 km/h (2 Bft)
30.06.2017 09:19 15,2 °C 15,2 °C 77 % 1007,5 hPa 0,0 mm 4,9 km/h (1 Bft) W-NW 294 ° 1 min 0,000 mm 3,3 UV-I 631 W/m² 11,2 °C 15,2 °C 8,0 km/h (2 Bft)
30.06.2017 09:20 15,1 °C 15,2 °C 72 % 1007,5 hPa 0,0 mm 5,1 km/h (1 Bft) W-NW 284 ° 1 min 0,000 mm 3,2 UV-I 631 W/m² 10,1 °C 15,1 °C 8,0 km/h (2 Bft)
30.06.2017 09:21 15,0 °C 15,1 °C 75 % 1007,4 hPa 0,0 mm 2,9 km/h (1 Bft) W 261 ° 1 min 0,000 mm 2,7 UV-I 631 W/m² 10,6 °C 15,0 °C 4,8 km/h (1 Bft)
30.06.2017 09:22 15,1 °C 15,1 °C 78 % 1007,4 hPa 0,0 mm 3,4 km/h (1 Bft) W-NW 286 ° 1 min 0,000 mm 3,2 UV-I 631 W/m² 11,3 °C 15,1 °C 4,8 km/h (1 Bft)
30.06.2017 09:23 15,1 °C 15,1 °C 76 % 1007,4 hPa 0,0 mm 3,9 km/h (1 Bft) W-SW 255 ° 1 min 0,000 mm 3,7 UV-I 628 W/m² 10,9 °C 15,1 °C 4,8 km/h (1 Bft)
30.06.2017 09:24 15,1 °C 15,1 °C 73 % 1007,3 hPa 0,0 mm 7,0 km/h (2 Bft) W-NW 291 ° 1 min 0,000 mm 3,7 UV-I 633 W/m² 10,3 °C 15,1 °C 11,3 km/h (2 Bft)
30.06.2017 09:25 15,2 °C 15,2 °C 75 % 1007,3 hPa 0,0 mm 5,6 km/h (1 Bft) W 265 ° 1 min 0,000 mm 3,7 UV-I 635 W/m² 10,8 °C 15,2 °C 11,3 km/h (2 Bft)
30.06.2017 09:26 15,3 °C 15,3 °C 74 % 1007,4 hPa 0,0 mm 4,4 km/h (1 Bft) W 277 ° 1 min 0,000 mm 3,8 UV-I 638 W/m² 10,7 °C 15,3 °C 9,7 km/h (2 Bft)
30.06.2017 09:27 15,3 °C 15,3 °C 74 % 1007,3 hPa 0,0 mm 5,1 km/h (1 Bft) NW 306 ° 1 min 0,000 mm 3,8 UV-I 640 W/m² 10,7 °C 15,3 °C 9,7 km/h (2 Bft)
30.06.2017 09:28 15,3 °C 15,3 °C 74 % 1007,3 hPa 0,0 mm 5,0 km/h (1 Bft) N-NW 332 ° 1 min 0,000 mm 3,8 UV-I 640 W/m² 10,7 °C 15,3 °C 9,7 km/h (2 Bft)
30.06.2017 09:29 15,3 °C 15,3 °C 73 % 1007,3 hPa 0,0 mm 5,2 km/h (1 Bft) W-NW 297 ° 1 min 0,000 mm 3,8 UV-I 638 W/m² 10,5 °C 15,3 °C 8,0 km/h (2 Bft)
30.06.2017 09:30 15,3 °C 15,3 °C 75 % 1007,3 hPa 0,0 mm 4,5 km/h (1 Bft) W-NW 284 ° 1 min 0,000 mm 3,8 UV-I 635 W/m² 10,9 °C 15,3 °C 6,4 km/h (2 Bft)
30.06.2017 09:31 15,2 °C 15,3 °C 72 % 1007,2 hPa 0,0 mm 3,7 km/h (1 Bft) W 274 ° 1 min 0,000 mm 3,8 UV-I 631 W/m² 10,2 °C 15,2 °C 9,7 km/h (2 Bft)
30.06.2017 09:32 15,2 °C 15,2 °C 72 % 1007,2 hPa 0,0 mm 7,2 km/h (2 Bft) NW 313 ° 1 min 0,000 mm 3,8 UV-I 626 W/m² 10,2 °C 15,2 °C 11,3 km/h (2 Bft)
30.06.2017 09:33 15,4 °C 15,4 °C 76 % 1007,2 hPa 0,0 mm 5,6 km/h (1 Bft) W 264 ° 1 min 0,000 mm 3,9 UV-I 622 W/m² 11,2 °C 15,4 °C 8,0 km/h (2 Bft)
30.06.2017 09:34 15,5 °C 15,5 °C 78 % 1007,2 hPa 0,0 mm 3,8 km/h (1 Bft) W-NW 284 ° 1 min 0,000 mm 3,9 UV-I 621 W/m² 11,7 °C 15,5 °C 9,7 km/h (2 Bft)
30.06.2017 09:35 15,6 °C 15,6 °C 76 % 1007,2 hPa 0,0 mm 4,9 km/h (1 Bft) N-NW 334 ° 1 min 0,000 mm 3,9 UV-I 621 W/m² 11,4 °C 15,6 °C 8,0 km/h (2 Bft)
30.06.2017 09:36 15,7 °C 15,7 °C 74 % 1007,2 hPa 0,0 mm 7,1 km/h (2 Bft) NW 323 ° 1 min 0,000 mm 3,9 UV-I 619 W/m² 11,1 °C 15,7 °C 12,9 km/h (3 Bft)
30.06.2017 09:37 15,7 °C 15,7 °C 73 % 1007,2 hPa 0,0 mm 5,9 km/h (2 Bft) N 351 ° 1 min 0,000 mm 3,9 UV-I 621 W/m² 10,9 °C 15,7 °C 12,9 km/h (3 Bft)
30.06.2017 09:38 15,7 °C 15,7 °C 72 % 1007,1 hPa 0,0 mm 3,5 km/h (1 Bft) NW 325 ° 1 min 0,000 mm 4,0 UV-I 621 W/m² 10,7 °C 15,7 °C 4,8 km/h (1 Bft)
30.06.2017 09:39 15,7 °C 15,7 °C 74 % 1007,1 hPa 0,0 mm 1,3 km/h (1 Bft) NW 325 ° 1 min 0,000 mm 4,0 UV-I 621 W/m² 11,1 °C 15,7 °C 3,2 km/h (1 Bft)
30.06.2017 09:40 15,8 °C 15,8 °C 72 % 1007,2 hPa 0,0 mm 6,6 km/h (2 Bft) W 279 ° 1 min 0,000 mm 4,0 UV-I 619 W/m² 10,8 °C 15,8 °C 12,9 km/h (3 Bft)
30.06.2017 09:41 15,8 °C 15,8 °C 73 % 1007,2 hPa 0,0 mm 9,0 km/h (2 Bft) N-NW 333 ° 1 min 0,000 mm 4,0 UV-I 619 W/m² 11,0 °C 15,8 °C 12,9 km/h (3 Bft)
30.06.2017 09:42 15,8 °C 15,8 °C 76 % 1007,2 hPa 0,0 mm 7,2 km/h (2 Bft) W-NW 298 ° 1 min 0,000 mm 4,0 UV-I 621 W/m² 11,6 °C 15,8 °C 11,3 km/h (2 Bft)
30.06.2017 09:43 15,8 °C 15,8 °C 73 % 1007,2 hPa 0,0 mm 5,4 km/h (1 Bft) N 355 ° 1 min 0,000 mm 4,0 UV-I 622 W/m² 11,0 °C 15,8 °C 9,7 km/h (2 Bft)
30.06.2017 09:44 15,8 °C 15,8 °C 73 % 1007,2 hPa 0,0 mm 4,6 km/h (1 Bft) N-NW 327 ° 1 min 0,000 mm 4,0 UV-I 626 W/m² 11,0 °C 15,8 °C 6,4 km/h (2 Bft)
30.06.2017 09:45 15,8 °C 15,8 °C 74 % 1007,2 hPa 0,0 mm 10,6 km/h (2 Bft) NW 319 ° 1 min 0,000 mm 4,1 UV-I 629 W/m² 11,2 °C 15,8 °C 16,1 km/h (3 Bft)
30.06.2017 09:46 15,9 °C 15,9 °C 73 % 1007,2 hPa 0,0 mm 6,4 km/h (2 Bft) NW 314 ° 1 min 0,000 mm 4,1 UV-I 645 W/m² 11,1 °C 15,9 °C 14,5 km/h (3 Bft)
30.06.2017 09:47 15,9 °C 15,9 °C 72 % 1007,2 hPa 0,0 mm 8,1 km/h (2 Bft) NW 325 ° 1 min 0,000 mm 4,2 UV-I 656 W/m² 10,9 °C 15,9 °C 14,5 km/h (3 Bft)
30.06.2017 09:48 15,9 °C 15,9 °C 75 % 1007,1 hPa 0,0 mm 9,3 km/h (2 Bft) NW 321 ° 1 min 0,000 mm 2,7 UV-I 663 W/m² 11,5 °C 15,9 °C 14,5 km/h (3 Bft)
30.06.2017 09:49 15,8 °C 15,9 °C 72 % 1007,2 hPa 0,0 mm 11,9 km/h (2 Bft) N-NW 329 ° 1 min 0,000 mm 2,2 UV-I 663 W/m² 10,8 °C 15,8 °C 14,5 km/h (3 Bft)
30.06.2017 09:50 15,7 °C 15,8 °C 70 % 1007,2 hPa 0,0 mm 7,6 km/h (2 Bft) N-NO 13 ° 1 min 0,000 mm 4,2 UV-I 663 W/m² 10,2 °C 15,7 °C 12,9 km/h (3 Bft)
30.06.2017 09:51 15,6 °C 15,7 °C 70 % 1007,2 hPa 0,0 mm 7,8 km/h (2 Bft) W-NW 298 ° 1 min 0,000 mm 4,2 UV-I 649 W/m² 10,1 °C 15,6 °C 12,9 km/h (3 Bft)
30.06.2017 09:52 15,7 °C 15,7 °C 73 % 1007,2 hPa 0,0 mm 9,1 km/h (2 Bft) W 279 ° 1 min 0,000 mm 4,2 UV-I 649 W/m² 10,9 °C 15,7 °C 14,5 km/h (3 Bft)
30.06.2017 09:53 15,6 °C 15,7 °C 71 % 1007,2 hPa 0,0 mm 7,4 km/h (2 Bft) W 279 ° 1 min 0,000 mm 4,3 UV-I 649 W/m² 10,4 °C 15,6 °C 14,5 km/h (3 Bft)
30.06.2017 09:54 15,6 °C 15,6 °C 72 % 1007,1 hPa 0,0 mm 9,7 km/h (2 Bft) NW 321 ° 1 min 0,000 mm 4,3 UV-I 652 W/m² 10,6 °C 15,6 °C 14,5 km/h (3 Bft)
30.06.2017 09:55 15,6 °C 15,6 °C 71 % 1007,2 hPa 0,0 mm 9,3 km/h (2 Bft) N-NW 327 ° 1 min 0,000 mm 4,3 UV-I 654 W/m² 10,4 °C 15,6 °C 14,5 km/h (3 Bft)
30.06.2017 09:56 15,6 °C 15,6 °C 71 % 1007,1 hPa 0,0 mm 5,9 km/h (2 Bft) N 351 ° 1 min 0,000 mm 4,3 UV-I 656 W/m² 10,4 °C 15,6 °C 14,5 km/h (3 Bft)
30.06.2017 09:57 15,6 °C 15,6 °C 72 % 1007,2 hPa 0,0 mm 6,8 km/h (2 Bft) NW 312 ° 1 min 0,000 mm 4,3 UV-I 659 W/m² 10,6 °C 15,6 °C 9,7 km/h (2 Bft)
30.06.2017 09:58 15,8 °C 15,8 °C 76 % 1007,2 hPa 0,0 mm 6,0 km/h (2 Bft) NW 323 ° 1 min 0,000 mm 4,4 UV-I 659 W/m² 11,6 °C 15,8 °C 8,0 km/h (2 Bft)
30.06.2017 09:59 15,8 °C 15,8 °C 73 % 1007,1 hPa 0,0 mm 5,4 km/h (1 Bft) NW 311 ° 1 min 0,000 mm 4,4 UV-I 663 W/m² 11,0 °C 15,8 °C 8,0 km/h (2 Bft)
30.06.2017 10:00 15,9 °C 15,9 °C 75 % 1007,1 hPa 0,0 mm 6,0 km/h (2 Bft) NW 314 ° 1 min 0,000 mm 4,4 UV-I 664 W/m² 11,5 °C 15,9 °C 12,9 km/h (3 Bft)
30.06.2017 10:01 15,9 °C 15,9 °C 71 % 1007,2 hPa 0,0 mm 8,6 km/h (2 Bft) W 262 ° 1 min 0,330 mm 4,4 UV-I 666 W/m² 10,6 °C 15,9 °C 12,9 km/h (3 Bft)
30.06.2017 10:02 15,9 °C 15,9 °C 73 % 1007,2 hPa 0,0 mm 6,1 km/h (2 Bft) W 265 ° 1 min 0,000 mm 4,5 UV-I 668 W/m² 11,1 °C 15,9 °C 12,9 km/h (3 Bft)
30.06.2017 10:03 15,9 °C 15,9 °C 71 % 1007,2 hPa 0,0 mm 5,7 km/h (1 Bft) W 267 ° 1 min 0,000 mm 4,5 UV-I 675 W/m² 10,6 °C 15,9 °C 9,7 km/h (2 Bft)
30.06.2017 10:04 15,8 °C 15,9 °C 69 % 1007,1 hPa 0,0 mm 6,8 km/h (2 Bft) W 273 ° 1 min 0,000 mm 4,6 UV-I 679 W/m² 10,1 °C 15,8 °C 14,5 km/h (3 Bft)
30.06.2017 10:05 15,8 °C 15,8 °C 71 % 1007,1 hPa 0,0 mm 7,5 km/h (2 Bft) NW 309 ° 1 min 0,000 mm 4,6 UV-I 682 W/m² 10,6 °C 15,8 °C 12,9 km/h (3 Bft)
30.06.2017 10:06 15,8 °C 15,8 °C 72 % 1007,1 hPa 0,0 mm 6,7 km/h (2 Bft) W-NW 288 ° 1 min 0,000 mm 4,6 UV-I 687 W/m² 10,8 °C 15,8 °C 12,9 km/h (3 Bft)
30.06.2017 10:07 15,8 °C 15,8 °C 72 % 1007,1 hPa 0,0 mm 2,7 km/h (1 Bft) W-NW 288 ° 1 min 0,000 mm 4,6 UV-I 691 W/m² 10,8 °C 15,8 °C 4,8 km/h (1 Bft)
30.06.2017 10:08 15,8 °C 15,8 °C 73 % 1007,1 hPa 0,0 mm 3,2 km/h (1 Bft) NW 310 ° 1 min 0,000 mm 4,7 UV-I 696 W/m² 11,0 °C 15,8 °C 4,8 km/h (1 Bft)
30.06.2017 10:09 16,0 °C 16,0 °C 73 % 1007,1 hPa 0,0 mm 5,4 km/h (1 Bft) W-NW 295 ° 1 min 0,000 mm 4,7 UV-I 700 W/m² 11,2 °C 16,0 °C 8,0 km/h (2 Bft)
30.06.2017 10:10 16,1 °C 16,1 °C 76 % 1007,1 hPa 0,0 mm 6,7 km/h (2 Bft) W 261 ° 1 min 0,000 mm 4,7 UV-I 707 W/m² 11,9 °C 16,1 °C 11,3 km/h (2 Bft)
30.06.2017 10:11 16,1 °C 16,1 °C 69 % 1007,1 hPa 0,0 mm 3,5 km/h (1 Bft) W-SW 252 ° 1 min 0,000 mm 4,8 UV-I 714 W/m² 10,4 °C 16,1 °C 4,8 km/h (1 Bft)
30.06.2017 10:12 16,1 °C 16,1 °C 71 % 1007,1 hPa 0,0 mm 4,2 km/h (1 Bft) W 276 ° 1 min 0,000 mm 4,9 UV-I 722 W/m² 10,8 °C 16,1 °C 6,4 km/h (2 Bft)
30.06.2017 10:13 16,1 °C 16,1 °C 68 % 1007,0 hPa 0,0 mm 3,5 km/h (1 Bft) W 266 ° 1 min 0,000 mm 4,9 UV-I 742 W/m² 10,2 °C 16,1 °C 6,4 km/h (2 Bft)
30.06.2017 10:14 16,0 °C 16,1 °C 72 % 1007,0 hPa 0,0 mm 3,2 km/h (1 Bft) NW 306 ° 1 min 0,000 mm 5,0 UV-I 740 W/m² 11,0 °C 16,0 °C 6,4 km/h (2 Bft)
30.06.2017 10:15 16,2 °C 16,2 °C 74 % 1007,1 hPa 0,0 mm 4,2 km/h (1 Bft) W 279 ° 1 min 0,000 mm 5,1 UV-I 773 W/m² 11,6 °C 16,2 °C 9,7 km/h (2 Bft)
30.06.2017 10:16 16,1 °C 16,2 °C 68 % 1007,0 hPa 0,0 mm 6,6 km/h (2 Bft) N-NW 339 ° 1 min 0,000 mm 5,2 UV-I 788 W/m² 10,2 °C 16,1 °C 9,7 km/h (2 Bft)
30.06.2017 10:17 16,1 °C 16,1 °C 70 % 1007,1 hPa 0,0 mm 6,6 km/h (2 Bft) N-NW 327 ° 1 min 0,000 mm 5,3 UV-I 800 W/m² 10,6 °C 16,1 °C 9,7 km/h (2 Bft)
30.06.2017 10:18 16,1 °C 16,1 °C 69 % 1007,1 hPa 0,0 mm 3,0 km/h (1 Bft) NW 305 ° 1 min 0,000 mm 5,3 UV-I 810 W/m² 10,4 °C 16,1 °C 9,7 km/h (2 Bft)
30.06.2017 10:19 16,2 °C 16,2 °C 72 % 1007,1 hPa 0,0 mm 6,4 km/h (2 Bft) NW 314 ° 1 min 0,000 mm 5,5 UV-I 837 W/m² 11,1 °C 16,2 °C 9,7 km/h (2 Bft)
30.06.2017 10:20 16,3 °C 16,3 °C 71 % 1007,1 hPa 0,0 mm 7,3 km/h (2 Bft) W-NW 300 ° 1 min 0,000 mm 4,6 UV-I 837 W/m² 11,0 °C 16,3 °C 12,9 km/h (3 Bft)
30.06.2017 10:21 16,4 °C 16,4 °C 69 % 1007,1 hPa 0,0 mm 8,2 km/h (2 Bft) N 360 ° 1 min 0,000 mm 5,6 UV-I 856 W/m² 10,7 °C 16,4 °C 12,9 km/h (3 Bft)
30.06.2017 10:22 16,4 °C 16,4 °C 69 % 1007,1 hPa 0,0 mm 10,2 km/h (2 Bft) NW 309 ° 1 min 0,000 mm 4,4 UV-I 856 W/m² 10,7 °C 16,4 °C 14,5 km/h (3 Bft)
30.06.2017 10:23 16,3 °C 16,4 °C 67 % 1007,1 hPa 0,0 mm 9,5 km/h (2 Bft) NW 325 ° 1 min 0,000 mm 3,5 UV-I 856 W/m² 10,2 °C 16,3 °C 14,5 km/h (3 Bft)
30.06.2017 10:24 16,2 °C 16,3 °C 67 % 1007,2 hPa 0,0 mm 3,9 km/h (1 Bft) NW 323 ° 0 min 0,000 mm 3,0 UV-I 234 W/m² 10,1 °C 16,2 °C 6,4 km/h (2 Bft)
30.06.2017 10:25 16,1 °C 16,2 °C 70 % 1007,2 hPa 0,0 mm 5,4 km/h (1 Bft) W 265 ° 0 min 0,000 mm 4,8 UV-I 234 W/m² 10,6 °C 16,1 °C 11,3 km/h (2 Bft)
30.06.2017 10:26 16,1 °C 16,1 °C 70 % 1007,2 hPa 0,0 mm 6,3 km/h (2 Bft) N-NW 328 ° 0 min 0,000 mm 4,8 UV-I 234 W/m² 10,6 °C 16,1 °C 9,7 km/h (2 Bft)
30.06.2017 10:27 16,2 °C 16,2 °C 69 % 1007,2 hPa 0,0 mm 6,2 km/h (2 Bft) W-NW 288 ° 0 min 0,000 mm 5,8 UV-I 234 W/m² 10,5 °C 16,2 °C 9,7 km/h (2 Bft)
30.06.2017 10:28 16,2 °C 16,2 °C 69 % 1007,1 hPa 0,0 mm 6,5 km/h (2 Bft) NW 304 ° 1 min 0,000 mm 5,9 UV-I 940 W/m² 10,5 °C 16,2 °C 9,7 km/h (2 Bft)
30.06.2017 10:29 16,4 °C 16,4 °C 73 % 1007,2 hPa 0,0 mm 4,6 km/h (1 Bft) W 278 ° 1 min 0,000 mm 6,0 UV-I 911 W/m² 11,5 °C 16,4 °C 9,7 km/h (2 Bft)
30.06.2017 10:30 16,4 °C 16,4 °C 70 % 1007,2 hPa 0,0 mm 5,3 km/h (1 Bft) W 263 ° 1 min 0,000 mm 4,2 UV-I 911 W/m² 10,9 °C 16,4 °C 9,7 km/h (2 Bft)
30.06.2017 10:31 16,3 °C 16,4 °C 68 % 1007,2 hPa 0,0 mm 5,9 km/h (2 Bft) W-NW 302 ° 1 min 0,000 mm 5,4 UV-I 911 W/m² 10,4 °C 16,3 °C 9,7 km/h (2 Bft)
30.06.2017 10:32 16,3 °C 16,3 °C 69 % 1007,2 hPa 0,0 mm 4,3 km/h (1 Bft) W 262 ° 1 min 0,000 mm 5,9 UV-I 911 W/m² 10,6 °C 16,3 °C 6,4 km/h (2 Bft)
30.06.2017 10:33 16,3 °C 16,3 °C 72 % 1007,2 hPa 0,0 mm 2,9 km/h (1 Bft) W-SW 257 ° 1 min 0,000 mm 6,1 UV-I 958 W/m² 11,2 °C 16,3 °C 4,8 km/h (1 Bft)
30.06.2017 10:34 16,4 °C 16,4 °C 70 % 1007,2 hPa 0,0 mm 4,8 km/h (1 Bft) W-SW 243 ° 1 min 0,000 mm 6,1 UV-I 963 W/m² 10,9 °C 16,4 °C 11,3 km/h (2 Bft)
30.06.2017 10:35 16,7 °C 16,7 °C 76 % 1007,2 hPa 0,0 mm 6,1 km/h (2 Bft) W-NW 286 ° 1 min 0,000 mm 6,2 UV-I 970 W/m² 12,4 °C 16,7 °C 11,3 km/h (2 Bft)
30.06.2017 10:36 16,7 °C 16,7 °C 71 % 1007,2 hPa 0,0 mm 3,3 km/h (1 Bft) NW 308 ° 1 min 0,000 mm 6,3 UV-I 991 W/m² 11,4 °C 16,7 °C 6,4 km/h (2 Bft)
30.06.2017 10:37 16,7 °C 16,7 °C 68 % 1007,2 hPa 0,0 mm 7,1 km/h (2 Bft) NW 315 ° 1 min 0,000 mm 6,3 UV-I 1021 W/m² 10,8 °C 16,7 °C 11,3 km/h (2 Bft)
30.06.2017 10:38 16,7 °C 16,7 °C 69 % 1007,2 hPa 0,0 mm 4,1 km/h (1 Bft) W-NW 285 ° 1 min 0,000 mm 5,8 UV-I 1021 W/m² 11,0 °C 16,7 °C 9,7 km/h (2 Bft)
30.06.2017 10:39 16,8 °C 16,8 °C 72 % 1007,3 hPa 0,0 mm 8,0 km/h (2 Bft) W-SW 248 ° 1 min 0,000 mm 4,0 UV-I 1021 W/m² 11,7 °C 16,8 °C 11,3 km/h (2 Bft)
30.06.2017 10:40 16,9 °C 16,9 °C 68 % 1007,3 hPa 0,0 mm 9,7 km/h (2 Bft) W 259 ° 1 min 0,000 mm 3,8 UV-I 640 W/m² 11,0 °C 16,9 °C 12,9 km/h (3 Bft)
30.06.2017 10:41 16,7 °C 16,9 °C 66 % 1007,3 hPa 0,0 mm 6,6 km/h (2 Bft) W-SW 258 ° 1 min 0,000 mm 3,0 UV-I 640 W/m² 10,3 °C 16,7 °C 11,3 km/h (2 Bft)
30.06.2017 10:42 16,5 °C 16,7 °C 64 % 1007,2 hPa 0,0 mm 6,4 km/h (2 Bft) W-NW 302 ° 0 min 0,000 mm 2,9 UV-I 272 W/m² 9,7 °C 16,5 °C 11,3 km/h (2 Bft)
30.06.2017 10:43 16,2 °C 16,5 °C 66 % 1007,2 hPa 0,0 mm 4,0 km/h (1 Bft) W-NW 291 ° 0 min 0,000 mm 2,8 UV-I 265 W/m² 9,8 °C 16,2 °C 8,0 km/h (2 Bft)
30.06.2017 10:44 16,1 °C 16,2 °C 70 % 1007,3 hPa 0,0 mm 3,4 km/h (1 Bft) W-NW 302 ° 1 min 0,000 mm 2,9 UV-I 292 W/m² 10,6 °C 16,1 °C 8,0 km/h (2 Bft)
30.06.2017 10:45 16,0 °C 16,1 °C 68 % 1007,3 hPa 0,0 mm 3,3 km/h (1 Bft) W 267 ° 1 min 0,000 mm 4,6 UV-I 292 W/m² 10,1 °C 16,0 °C 6,4 km/h (2 Bft)
30.06.2017 10:46 16,1 °C 16,1 °C 72 % 1007,4 hPa 0,0 mm 2,9 km/h (1 Bft) SW 217 ° 1 min 0,000 mm 5,1 UV-I 956 W/m² 11,0 °C 16,1 °C 3,2 km/h (1 Bft)
30.06.2017 10:47 16,1 °C 16,1 °C 70 % 1007,4 hPa 0,0 mm 1,3 km/h (1 Bft) W 272 ° 1 min 0,000 mm 3,2 UV-I 956 W/m² 10,6 °C 16,1 °C 4,8 km/h (1 Bft)
30.06.2017 10:48 16,1 °C 16,1 °C 68 % 1007,4 hPa 0,0 mm 4,0 km/h (1 Bft) NW 308 ° 1 min 0,000 mm 3,3 UV-I 345 W/m² 10,2 °C 16,1 °C 6,4 km/h (2 Bft)
30.06.2017 10:49 16,2 °C 16,2 °C 68 % 1007,3 hPa 0,0 mm 6,0 km/h (2 Bft) W-NW 298 ° 1 min 0,000 mm 4,0 UV-I 345 W/m² 10,3 °C 16,2 °C 12,9 km/h (3 Bft)
30.06.2017 10:50 16,2 °C 16,2 °C 69 % 1007,3 hPa 0,0 mm 11,6 km/h (2 Bft) W 280 ° 1 min 0,000 mm 4,4 UV-I 345 W/m² 10,5 °C 16,2 °C 16,1 km/h (3 Bft)
30.06.2017 10:51 16,2 °C 16,2 °C 66 % 1007,4 hPa 0,0 mm 5,7 km/h (1 Bft) W-NW 292 ° 1 min 0,000 mm 3,5 UV-I 355 W/m² 9,8 °C 16,2 °C 11,3 km/h (2 Bft)
30.06.2017 10:52 16,2 °C 16,2 °C 67 % 1007,4 hPa 0,0 mm 5,2 km/h (1 Bft) W-NW 290 ° 1 min 0,000 mm 4,2 UV-I 355 W/m² 10,1 °C 16,2 °C 9,7 km/h (2 Bft)
30.06.2017 10:53 16,1 °C 16,2 °C 67 % 1007,3 hPa 0,0 mm 5,7 km/h (1 Bft) W 266 ° 1 min 0,000 mm 6,5 UV-I 355 W/m² 10,0 °C 16,1 °C 14,5 km/h (3 Bft)
30.06.2017 10:54 16,3 °C 16,3 °C 71 % 1007,4 hPa 0,0 mm 7,0 km/h (2 Bft) W-SW 243 ° 1 min 0,000 mm 6,5 UV-I 997 W/m² 11,0 °C 16,3 °C 11,3 km/h (2 Bft)
30.06.2017 10:55 16,5 °C 16,5 °C 70 % 1007,2 hPa 0,0 mm 9,8 km/h (2 Bft) W 278 ° 1 min 0,000 mm 6,5 UV-I 970 W/m² 11,0 °C 16,5 °C 14,5 km/h (3 Bft)
30.06.2017 10:56 16,7 °C 16,7 °C 71 % 1007,3 hPa 0,0 mm 8,2 km/h (2 Bft) N 11 ° 1 min 0,000 mm 6,4 UV-I 960 W/m² 11,4 °C 16,7 °C 11,3 km/h (2 Bft)
30.06.2017 10:57 16,8 °C 16,8 °C 67 % 1007,3 hPa 0,0 mm 3,4 km/h (1 Bft) W-NW 302 ° 1 min 0,000 mm 6,6 UV-I 960 W/m² 10,6 °C 16,8 °C 4,8 km/h (1 Bft)
30.06.2017 10:58 16,8 °C 16,8 °C 69 % 1007,3 hPa 0,0 mm 6,4 km/h (2 Bft) NW 321 ° 1 min 0,000 mm 5,7 UV-I 960 W/m² 11,1 °C 16,8 °C 16,1 km/h (3 Bft)
30.06.2017 10:59 16,9 °C 16,9 °C 66 % 1007,2 hPa 0,0 mm 5,7 km/h (1 Bft) N-NW 336 ° 1 min 0,000 mm 6,9 UV-I 960 W/m² 10,5 °C 16,9 °C 16,1 km/h (3 Bft)
30.06.2017 11:00 16,9 °C 16,9 °C 66 % 1007,3 hPa 0,0 mm 3,0 km/h (1 Bft) N 360 ° 1 min 0,000 mm 4,2 UV-I 1062 W/m² 10,5 °C 16,9 °C 4,8 km/h (1 Bft)
30.06.2017 11:01 16,9 °C 16,9 °C 67 % 1007,4 hPa 0,0 mm 2,3 km/h (1 Bft) NW 312 ° 1 min 0,407 mm 3,8 UV-I 1062 W/m² 10,7 °C 16,9 °C 4,8 km/h (1 Bft)
30.06.2017 11:02 16,9 °C 16,9 °C 66 % 1007,3 hPa 0,0 mm 5,8 km/h (2 Bft) W 281 ° 1 min 0,000 mm 6,9 UV-I 1062 W/m² 10,5 °C 16,9 °C 11,3 km/h (2 Bft)
30.06.2017 11:03 16,9 °C 16,9 °C 68 % 1007,3 hPa 0,0 mm 12,7 km/h (3 Bft) W-NW 291 ° 1 min 0,000 mm 6,3 UV-I 1100 W/m² 11,0 °C 16,9 °C 17,7 km/h (3 Bft)
30.06.2017 11:04 16,9 °C 16,9 °C 65 % 1007,3 hPa 0,0 mm 6,4 km/h (2 Bft) SW 235 ° 1 min 0,000 mm 4,0 UV-I 1100 W/m² 10,3 °C 16,9 °C 9,7 km/h (2 Bft)
30.06.2017 11:05 16,9 °C 16,9 °C 68 % 1007,3 hPa 0,0 mm 5,7 km/h (1 Bft) W-SW 254 ° 1 min 0,000 mm 4,8 UV-I 1100 W/m² 11,0 °C 16,9 °C 8,0 km/h (2 Bft)
30.06.2017 11:06 16,8 °C 16,9 °C 67 % 1007,3 hPa 0,0 mm 5,7 km/h (1 Bft) W-SW 255 ° 1 min 0,000 mm 7,4 UV-I 1100 W/m² 10,6 °C 16,8 °C 11,3 km/h (2 Bft)
30.06.2017 11:07 16,8 °C 16,8 °C 69 % 1007,3 hPa 0,0 mm 5,0 km/h (1 Bft) W-SW 254 ° 1 min 0,000 mm 3,6 UV-I 1100 W/m² 11,1 °C 16,8 °C 9,7 km/h (2 Bft)
30.06.2017 11:08 16,8 °C 16,8 °C 67 % 1007,3 hPa 0,0 mm 5,3 km/h (1 Bft) W-NW 298 ° 1 min 0,000 mm 3,2 UV-I 301 W/m² 10,6 °C 16,8 °C 8,0 km/h (2 Bft)
30.06.2017 11:09 16,6 °C 16,8 °C 67 % 1007,4 hPa 0,0 mm 4,2 km/h (1 Bft) W 263 ° 1 min 0,000 mm 3,0 UV-I 309 W/m² 10,4 °C 16,6 °C 6,4 km/h (2 Bft)
30.06.2017 11:10 16,6 °C 16,6 °C 69 % 1007,4 hPa 0,0 mm 6,7 km/h (2 Bft) NW 307 ° 1 min 0,000 mm 2,9 UV-I 306 W/m² 10,9 °C 16,6 °C 12,9 km/h (3 Bft)
30.06.2017 11:11 16,4 °C 16,6 °C 67 % 1007,4 hPa 0,0 mm 8,7 km/h (2 Bft) W 265 ° 1 min 0,000 mm 2,8 UV-I 301 W/m² 10,3 °C 16,4 °C 12,9 km/h (3 Bft)
30.06.2017 11:12 16,3 °C 16,4 °C 67 % 1007,4 hPa 0,0 mm 5,6 km/h (1 Bft) W-NW 291 ° 1 min 0,000 mm 2,8 UV-I 299 W/m² 10,2 °C 16,3 °C 11,3 km/h (2 Bft)
30.06.2017 11:13 16,2 °C 16,3 °C 66 % 1007,4 hPa 0,0 mm 3,8 km/h (1 Bft) W 273 ° 0 min 0,000 mm 2,7 UV-I 288 W/m² 9,8 °C 16,2 °C 6,4 km/h (2 Bft)
30.06.2017 11:14 16,1 °C 16,2 °C 65 % 1007,3 hPa 0,0 mm 3,5 km/h (1 Bft) SW 215 ° 0 min 0,000 mm 2,6 UV-I 288 W/m² 9,5 °C 16,1 °C 6,4 km/h (2 Bft)
30.06.2017 11:15 15,9 °C 16,1 °C 65 % 1007,4 hPa 0,0 mm 4,2 km/h (1 Bft) W-SW 240 ° 1 min 0,000 mm 2,7 UV-I 297 W/m² 9,3 °C 15,9 °C 6,4 km/h (2 Bft)
30.06.2017 11:16 15,9 °C 15,9 °C 69 % 1007,4 hPa 0,0 mm 4,2 km/h (1 Bft) W 261 ° 1 min 0,000 mm 2,6 UV-I 292 W/m² 10,2 °C 15,9 °C 4,8 km/h (1 Bft)
30.06.2017 11:17 15,9 °C 15,9 °C 66 % 1007,3 hPa 0,0 mm 1,3 km/h (1 Bft) W-SW 245 ° 1 min 0,000 mm 2,7 UV-I 295 W/m² 9,6 °C 15,9 °C 4,8 km/h (1 Bft)
30.06.2017 11:18 15,8 °C 15,9 °C 69 % 1007,3 hPa 0,0 mm 3,2 km/h (1 Bft) W 269 ° 1 min 0,000 mm 2,6 UV-I 304 W/m² 10,1 °C 15,8 °C 6,4 km/h (2 Bft)
30.06.2017 11:19 15,8 °C 15,8 °C 66 % 1007,4 hPa 0,0 mm 2,5 km/h (1 Bft) W 269 ° 0 min 0,000 mm 2,5 UV-I 264 W/m² 9,5 °C 15,8 °C 4,8 km/h (1 Bft)
30.06.2017 11:20 15,8 °C 15,8 °C 64 % 1007,4 hPa 0,0 mm 0,3 km/h (0 Bft) W 269 ° 0 min 0,000 mm 2,4 UV-I 269 W/m² 9,0 °C 15,8 °C 1,6 km/h (1 Bft)
30.06.2017 11:21 15,7 °C 15,8 °C 65 % 1007,5 hPa 0,0 mm 3,8 km/h (1 Bft) W-NW 283 ° 1 min 0,000 mm 2,6 UV-I 297 W/m² 9,1 °C 15,7 °C 8,0 km/h (2 Bft)
30.06.2017 11:22 15,8 °C 15,8 °C 68 % 1007,5 hPa 0,0 mm 7,0 km/h (2 Bft) W 265 ° 1 min 0,000 mm 2,6 UV-I 290 W/m² 9,9 °C 15,8 °C 11,3 km/h (2 Bft)
30.06.2017 11:23 15,8 °C 15,8 °C 69 % 1007,5 hPa 0,0 mm 6,9 km/h (2 Bft) W 269 ° 1 min 0,000 mm 2,6 UV-I 295 W/m² 10,1 °C 15,8 °C 9,7 km/h (2 Bft)
30.06.2017 11:24 15,7 °C 15,8 °C 65 % 1007,5 hPa 0,0 mm 3,1 km/h (1 Bft) SW 225 ° 0 min 0,000 mm 2,6 UV-I 285 W/m² 9,1 °C 15,7 °C 6,4 km/h (2 Bft)
30.06.2017 11:25 15,7 °C 15,7 °C 69 % 1007,5 hPa 0,0 mm 1,7 km/h (1 Bft) SW 222 ° 1 min 0,000 mm 2,6 UV-I 290 W/m² 10,0 °C 15,7 °C 4,8 km/h (1 Bft)
30.06.2017 11:26 15,7 °C 15,7 °C 68 % 1007,5 hPa 0,0 mm 0,5 km/h (0 Bft) SW 222 ° 0 min 0,000 mm 2,5 UV-I 279 W/m² 9,8 °C 15,7 °C 1,6 km/h (1 Bft)
30.06.2017 11:27 15,6 °C 15,7 °C 64 % 1007,5 hPa 0,0 mm 2,4 km/h (1 Bft) W-SW 254 ° 0 min 0,000 mm 2,5 UV-I 276 W/m² 8,8 °C 15,6 °C 6,4 km/h (2 Bft)
30.06.2017 11:28 15,7 °C 15,7 °C 67 % 1007,5 hPa 0,0 mm 6,1 km/h (2 Bft) W 275 ° 0 min 0,000 mm 2,7 UV-I 288 W/m² 9,6 °C 15,7 °C 9,7 km/h (2 Bft)
30.06.2017 11:29 15,7 °C 15,7 °C 71 % 1007,5 hPa 0,0 mm 6,4 km/h (2 Bft) W 267 ° 1 min 0,000 mm 2,8 UV-I 309 W/m² 10,5 °C 15,7 °C 9,7 km/h (2 Bft)
30.06.2017 11:30 15,8 °C 15,8 °C 68 % 1007,5 hPa 0,0 mm 3,4 km/h (1 Bft) W-SW 253 ° 1 min 0,000 mm 2,8 UV-I 299 W/m² 9,9 °C 15,8 °C 6,4 km/h (2 Bft)
30.06.2017 11:31 15,8 °C 15,8 °C 68 % 1007,5 hPa 0,0 mm 2,9 km/h (1 Bft) S-SW 200 ° 0 min 0,000 mm 2,6 UV-I 251 W/m² 9,9 °C 15,8 °C 8,0 km/h (2 Bft)
30.06.2017 11:32 15,8 °C 15,8 °C 66 % 1007,6 hPa 0,0 mm 3,2 km/h (1 Bft) S-SW 197 ° 0 min 0,000 mm 2,6 UV-I 262 W/m² 9,5 °C 15,8 °C 6,4 km/h (2 Bft)
30.06.2017 11:33 15,7 °C 15,8 °C 65 % 1007,5 hPa 0,0 mm 1,9 km/h (1 Bft) S-SW 201 ° 1 min 0,000 mm 2,9 UV-I 301 W/m² 9,1 °C 15,7 °C 3,2 km/h (1 Bft)
30.06.2017 11:34 15,7 °C 15,7 °C 67 % 1007,5 hPa 0,0 mm 1,2 km/h (1 Bft) S-SW 202 ° 1 min 0,000 mm 4,8 UV-I 301 W/m² 9,6 °C 15,7 °C 3,2 km/h (1 Bft)
30.06.2017 11:35 15,7 °C 15,7 °C 68 % 1007,6 hPa 0,0 mm 1,2 km/h (1 Bft) SW 221 ° 1 min 0,000 mm 3,4 UV-I 301 W/m² 9,8 °C 15,7 °C 3,2 km/h (1 Bft)
30.06.2017 11:36 15,8 °C 15,8 °C 67 % 1007,6 hPa 0,0 mm 2,3 km/h (1 Bft) SW 230 ° 1 min 0,000 mm 3,6 UV-I 425 W/m² 9,7 °C 15,8 °C 4,8 km/h (1 Bft)
30.06.2017 11:37 16,0 °C 16,0 °C 67 % 1007,5 hPa 0,0 mm 2,7 km/h (1 Bft) W 279 ° 1 min 0,000 mm 5,6 UV-I 810 W/m² 9,9 °C 16,0 °C 4,8 km/h (1 Bft)
30.06.2017 11:38 16,2 °C 16,2 °C 67 % 1007,5 hPa 0,0 mm 4,2 km/h (1 Bft) SW 236 ° 1 min 0,000 mm 4,0 UV-I 810 W/m² 10,1 °C 16,2 °C 6,4 km/h (2 Bft)
30.06.2017 11:39 16,3 °C 16,3 °C 70 % 1007,5 hPa 0,0 mm 1,7 km/h (1 Bft) W-SW 246 ° 1 min 0,000 mm 5,1 UV-I 503 W/m² 10,8 °C 16,3 °C 3,2 km/h (1 Bft)
30.06.2017 11:40 16,4 °C 16,4 °C 67 % 1007,6 hPa 0,0 mm 4,2 km/h (1 Bft) W-NW 283 ° 1 min 0,000 mm 8,0 UV-I 503 W/m² 10,3 °C 16,4 °C 9,7 km/h (2 Bft)
30.06.2017 11:41 16,7 °C 16,7 °C 65 % 1007,5 hPa 0,0 mm 6,3 km/h (2 Bft) NW 309 ° 1 min 0,000 mm 7,9 UV-I 1204 W/m² 10,1 °C 16,7 °C 11,3 km/h (2 Bft)
30.06.2017 11:42 16,8 °C 16,8 °C 64 % 1007,5 hPa 0,0 mm 4,1 km/h (1 Bft) NW 325 ° 1 min 0,000 mm 6,7 UV-I 1204 W/m² 10,0 °C 16,8 °C 6,4 km/h (2 Bft)
30.06.2017 11:43 16,9 °C 16,9 °C 66 % 1007,5 hPa 0,0 mm 6,8 km/h (2 Bft) W-NW 287 ° 1 min 0,000 mm 4,8 UV-I 951 W/m² 10,5 °C 16,9 °C 11,3 km/h (2 Bft)
30.06.2017 11:44 17,0 °C 17,0 °C 64 % 1007,5 hPa 0,0 mm 6,8 km/h (2 Bft) N-NW 327 ° 1 min 0,000 mm 7,4 UV-I 867 W/m² 10,1 °C 17,0 °C 9,7 km/h (2 Bft)
30.06.2017 11:45 17,1 °C 17,1 °C 69 % 1007,5 hPa 0,0 mm 5,4 km/h (1 Bft) W 273 ° 1 min 0,000 mm 7,2 UV-I 875 W/m² 11,4 °C 17,1 °C 9,7 km/h (2 Bft)
30.06.2017 11:46 17,2 °C 17,2 °C 65 % 1007,5 hPa 0,0 mm 9,0 km/h (2 Bft) N-NW 339 ° 1 min 0,000 mm 7,1 UV-I 875 W/m² 10,6 °C 17,2 °C 12,9 km/h (3 Bft)
30.06.2017 11:47 17,2 °C 17,2 °C 65 % 1007,5 hPa 0,0 mm 8,6 km/h (2 Bft) NW 305 ° 1 min 0,000 mm 7,5 UV-I 1076 W/m² 10,6 °C 17,2 °C 12,9 km/h (3 Bft)
30.06.2017 11:48 17,2 °C 17,3 °C 64 % 1007,5 hPa 0,0 mm 6,9 km/h (2 Bft) N-NW 335 ° 1 min 0,000 mm 7,4 UV-I 1106 W/m² 10,3 °C 17,2 °C 9,7 km/h (2 Bft)
30.06.2017 11:49 17,1 °C 17,2 °C 66 % 1007,5 hPa 0,0 mm 7,6 km/h (2 Bft) W 275 ° 1 min 0,000 mm 4,8 UV-I 1106 W/m² 10,7 °C 17,1 °C 9,7 km/h (2 Bft)
30.06.2017 11:50 16,9 °C 17,1 °C 62 % 1007,6 hPa 0,0 mm 3,8 km/h (1 Bft) NW 308 ° 1 min 0,000 mm 4,5 UV-I 450 W/m² 9,6 °C 16,9 °C 6,4 km/h (2 Bft)
30.06.2017 11:51 16,8 °C 16,9 °C 64 % 1007,6 hPa 0,0 mm 3,7 km/h (1 Bft) NW 312 ° 1 min 0,000 mm 5,4 UV-I 517 W/m² 10,0 °C 16,8 °C 4,8 km/h (1 Bft)
30.06.2017 11:52 16,8 °C 16,8 °C 64 % 1007,7 hPa 0,0 mm 5,4 km/h (1 Bft) N 355 ° 1 min 0,000 mm 4,0 UV-I 417 W/m² 10,0 °C 16,8 °C 9,7 km/h (2 Bft)
30.06.2017 11:53 16,8 °C 16,9 °C 57 % 1007,5 hPa 0,0 mm 3,0 km/h (1 Bft) N 355 ° 1 min 0,000 mm 4,5 UV-I 446 W/m² 8,2 °C 16,8 °C 3,2 km/h (1 Bft)
30.06.2017 11:54 16,7 °C 16,8 °C 63 % 1007,5 hPa 0,0 mm 4,2 km/h (1 Bft) W-NW 296 ° 1 min 0,000 mm 4,0 UV-I 355 W/m² 9,6 °C 16,7 °C 6,4 km/h (2 Bft)
30.06.2017 11:55 16,7 °C 16,7 °C 62 % 1007,6 hPa 0,0 mm 3,1 km/h (1 Bft) W 279 ° 1 min 0,000 mm 4,3 UV-I 355 W/m² 9,4 °C 16,7 °C 4,8 km/h (1 Bft)
30.06.2017 11:56 16,6 °C 16,7 °C 63 % 1007,5 hPa 0,0 mm 0,2 km/h (0 Bft) W 279 ° 1 min 0,000 mm 5,4 UV-I 355 W/m² 9,5 °C 16,6 °C 1,6 km/h (1 Bft)
30.06.2017 11:57 16,4 °C 16,6 °C 61 % 1007,5 hPa 0,0 mm 4,1 km/h (1 Bft) S-SO 165 ° 1 min 0,000 mm 5,9 UV-I 355 W/m² 8,9 °C 16,4 °C 6,4 km/h (2 Bft)
30.06.2017 11:58 16,3 °C 16,4 °C 61 % 1007,5 hPa 0,0 mm 5,0 km/h (1 Bft) SO 140 ° 1 min 0,000 mm 6,9 UV-I 355 W/m² 8,8 °C 16,3 °C 8,0 km/h (2 Bft)
30.06.2017 11:59 16,2 °C 16,3 °C 61 % 1007,4 hPa 0,0 mm 5,7 km/h (1 Bft) O-SO 107 ° 1 min 0,000 mm 3,6 UV-I 380 W/m² 8,7 °C 16,2 °C 6,4 km/h (2 Bft)
30.06.2017 12:00 16,1 °C 16,2 °C 61 % 1007,3 hPa 0,0 mm 6,2 km/h (2 Bft) O-SO 107 ° 1 min 0,000 mm 3,1 UV-I 380 W/m² 8,6 °C 16,1 °C 9,7 km/h (2 Bft)
30.06.2017 12:01 16,0 °C 16,1 °C 63 % 1007,3 hPa 0,0 mm 5,7 km/h (1 Bft) O 94 ° 1 min 0,304 mm 4,7 UV-I 380 W/m² 9,0 °C 16,0 °C 6,4 km/h (2 Bft)
30.06.2017 12:02 16,0 °C 16,1 °C 62 % 1007,3 hPa 0,0 mm 4,0 km/h (1 Bft) O 94 ° 1 min 0,000 mm 3,6 UV-I 728 W/m² 8,7 °C 16,0 °C 4,8 km/h (1 Bft)
30.06.2017 12:03 16,1 °C 16,1 °C 63 % 1007,4 hPa 0,0 mm 1,3 km/h (1 Bft) O 94 ° 1 min 0,000 mm 4,9 UV-I 728 W/m² 9,1 °C 16,1 °C 3,2 km/h (1 Bft)
30.06.2017 12:04 16,1 °C 16,1 °C 61 % 1007,3 hPa 0,0 mm 0,2 km/h (0 Bft) O 94 ° 0 min 0,000 mm 2,6 UV-I 192 W/m² 8,6 °C 16,1 °C 1,6 km/h (1 Bft)
30.06.2017 12:05 16,1 °C 16,1 °C 62 % 1007,3 hPa 0,0 mm 1,1 km/h (1 Bft) N-NW 347 ° 0 min 0,000 mm 2,4 UV-I 158 W/m² 8,8 °C 16,1 °C 3,2 km/h (1 Bft)
30.06.2017 12:06 16,1 °C 16,1 °C 61 % 1007,3 hPa 0,0 mm 1,5 km/h (1 Bft) N 360 ° 0 min 0,000 mm 2,3 UV-I 163 W/m² 8,6 °C 16,1 °C 4,8 km/h (1 Bft)
30.06.2017 12:07 16,1 °C 16,1 °C 64 % 1007,4 hPa 0,0 mm 1,9 km/h (1 Bft) N 360 ° 0 min 0,000 mm 2,3 UV-I 171 W/m² 9,3 °C 16,1 °C 3,2 km/h (1 Bft)
30.06.2017 12:08 15,9 °C 16,1 °C 63 % 1007,4 hPa 0,0 mm 1,4 km/h (1 Bft) N 360 ° 0 min 0,000 mm 2,4 UV-I 188 W/m² 8,9 °C 15,9 °C 3,2 km/h (1 Bft)
30.06.2017 12:09 16,0 °C 16,0 °C 67 % 1007,4 hPa 0,0 mm 2,7 km/h (1 Bft) N-NW 340 ° 0 min 0,000 mm 2,6 UV-I 216 W/m² 9,9 °C 16,0 °C 3,2 km/h (1 Bft)
30.06.2017 12:10 16,0 °C 16,0 °C 67 % 1007,5 hPa 0,0 mm 4,4 km/h (1 Bft) W 262 ° 0 min 0,000 mm 3,2 UV-I 257 W/m² 9,9 °C 16,0 °C 6,4 km/h (2 Bft)
30.06.2017 12:11 16,0 °C 16,0 °C 68 % 1007,5 hPa 0,0 mm 6,1 km/h (2 Bft) W-SW 258 ° 1 min 0,000 mm 3,4 UV-I 311 W/m² 10,1 °C 16,0 °C 9,7 km/h (2 Bft)
30.06.2017 12:12 15,9 °C 16,0 °C 69 % 1007,4 hPa 0,0 mm 5,3 km/h (1 Bft) W 279 ° 1 min 0,000 mm 3,9 UV-I 381 W/m² 10,2 °C 15,9 °C 6,4 km/h (2 Bft)
30.06.2017 12:13 16,1 °C 16,1 °C 67 % 1007,4 hPa 0,0 mm 4,0 km/h (1 Bft) W-NW 295 ° 1 min 0,000 mm 7,4 UV-I 381 W/m² 10,0 °C 16,1 °C 6,4 km/h (2 Bft)
30.06.2017 12:14 16,2 °C 16,2 °C 64 % 1007,4 hPa 0,0 mm 3,2 km/h (1 Bft) W 267 ° 1 min 0,000 mm 7,2 UV-I 986 W/m² 9,4 °C 16,2 °C 4,8 km/h (1 Bft)
30.06.2017 12:15 16,4 °C 16,4 °C 62 % 1007,4 hPa 0,0 mm 1,2 km/h (1 Bft) W 268 ° 1 min 0,000 mm 7,1 UV-I 944 W/m² 9,1 °C 16,4 °C 3,2 km/h (1 Bft)
30.06.2017 12:16 16,6 °C 16,6 °C 61 % 1007,4 hPa 0,0 mm 1,1 km/h (1 Bft) W 268 ° 1 min 0,000 mm 7,1 UV-I 923 W/m² 9,0 °C 16,6 °C 3,2 km/h (1 Bft)
30.06.2017 12:17 16,6 °C 16,6 °C 56 % 1007,3 hPa 0,0 mm 3,6 km/h (1 Bft) N-NO 24 ° 1 min 0,000 mm 7,0 UV-I 912 W/m² 7,8 °C 16,6 °C 6,4 km/h (2 Bft)
30.06.2017 12:18 16,7 °C 16,7 °C 59 % 1007,3 hPa 0,0 mm 4,8 km/h (1 Bft) N-NW 332 ° 1 min 0,000 mm 7,1 UV-I 909 W/m² 8,6 °C 16,7 °C 8,0 km/h (2 Bft)
30.06.2017 12:19 16,7 °C 16,7 °C 56 % 1007,3 hPa 0,0 mm 3,8 km/h (1 Bft) W-NW 296 ° 1 min 0,000 mm 7,1 UV-I 911 W/m² 7,9 °C 16,7 °C 4,8 km/h (1 Bft)
30.06.2017 12:20 16,8 °C 16,8 °C 60 % 1007,3 hPa 0,0 mm 5,7 km/h (1 Bft) NW 316 ° 1 min 0,000 mm 7,1 UV-I 911 W/m² 9,0 °C 16,8 °C 8,0 km/h (2 Bft)
30.06.2017 12:21 16,9 °C 16,9 °C 57 % 1007,3 hPa 0,0 mm 3,3 km/h (1 Bft) NW 316 ° 1 min 0,000 mm 7,1 UV-I 914 W/m² 8,3 °C 16,9 °C 6,4 km/h (2 Bft)
30.06.2017 12:22 16,9 °C 16,9 °C 61 % 1007,2 hPa 0,0 mm 4,2 km/h (1 Bft) NW 323 ° 1 min 0,000 mm 7,1 UV-I 912 W/m² 9,3 °C 16,9 °C 6,4 km/h (2 Bft)
30.06.2017 12:23 17,0 °C 17,0 °C 58 % 1007,3 hPa 0,0 mm 3,0 km/h (1 Bft) NW 306 ° 1 min 0,000 mm 7,1 UV-I 918 W/m² 8,7 °C 17,0 °C 4,8 km/h (1 Bft)
30.06.2017 12:24 17,1 °C 17,1 °C 62 % 1007,3 hPa 0,0 mm 1,2 km/h (1 Bft) N-NW 328 ° 1 min 0,000 mm 7,1 UV-I 882 W/m² 9,8 °C 17,1 °C 4,8 km/h (1 Bft)
30.06.2017 12:25 17,2 °C 17,2 °C 67 % 1007,2 hPa 0,0 mm 5,0 km/h (1 Bft) N 349 ° 1 min 0,000 mm 7,2 UV-I 882 W/m² 11,0 °C 17,2 °C 6,4 km/h (2 Bft)
30.06.2017 12:26 17,2 °C 17,3 °C 60 % 1007,2 hPa 0,0 mm 3,9 km/h (1 Bft) N 349 ° 1 min 0,000 mm 7,2 UV-I 882 W/m² 9,4 °C 17,2 °C 6,4 km/h (2 Bft)
30.06.2017 12:27 17,1 °C 17,2 °C 58 % 1007,2 hPa 0,0 mm 5,7 km/h (1 Bft) N-NW 346 ° 1 min 0,000 mm 7,2 UV-I 918 W/m² 8,8 °C 17,1 °C 8,0 km/h (2 Bft)
30.06.2017 12:28 17,2 °C 17,2 °C 59 % 1007,2 hPa 0,0 mm 3,2 km/h (1 Bft) N-NW 346 ° 1 min 0,000 mm 7,2 UV-I 921 W/m² 9,1 °C 17,2 °C 6,4 km/h (2 Bft)
30.06.2017 12:29 17,3 °C 17,3 °C 66 % 1007,2 hPa 0,0 mm 3,2 km/h (1 Bft) N-NW 346 ° 1 min 0,000 mm 7,2 UV-I 928 W/m² 10,9 °C 17,3 °C 4,8 km/h (1 Bft)
30.06.2017 12:30 17,3 °C 17,3 °C 59 % 1007,2 hPa 0,0 mm 1,3 km/h (1 Bft) N-NO 24 ° 1 min 0,000 mm 7,3 UV-I 940 W/m² 9,2 °C 17,3 °C 4,8 km/h (1 Bft)
30.06.2017 12:31 17,3 °C 17,3 °C 62 % 1007,2 hPa 0,0 mm 4,6 km/h (1 Bft) O-NO 59 ° 1 min 0,000 mm 7,3 UV-I 949 W/m² 9,9 °C 17,3 °C 6,4 km/h (2 Bft)
30.06.2017 12:32 17,1 °C 17,3 °C 59 % 1007,2 hPa 0,0 mm 3,2 km/h (1 Bft) O-NO 59 ° 1 min 0,000 mm 7,3 UV-I 949 W/m² 9,0 °C 17,1 °C 6,4 km/h (2 Bft)
30.06.2017 12:33 16,9 °C 17,1 °C 59 % 1007,2 hPa 0,0 mm 2,3 km/h (1 Bft) O 90 ° 1 min 0,000 mm 7,4 UV-I 963 W/m² 8,8 °C 16,9 °C 3,2 km/h (1 Bft)
30.06.2017 12:34 16,8 °C 16,9 °C 60 % 1007,2 hPa 0,0 mm 2,2 km/h (1 Bft) O-SO 102 ° 1 min 0,000 mm 6,7 UV-I 997 W/m² 9,0 °C 16,8 °C 4,8 km/h (1 Bft)
30.06.2017 12:35 16,7 °C 16,8 °C 61 % 1007,2 hPa 0,0 mm 1,7 km/h (1 Bft) O-SO 102 ° 1 min 0,000 mm 7,4 UV-I 997 W/m² 9,1 °C 16,7 °C 4,8 km/h (1 Bft)
30.06.2017 12:36 16,7 °C 16,7 °C 60 % 1007,2 hPa 0,0 mm 4,7 km/h (1 Bft) O 92 ° 1 min 0,000 mm 6,6 UV-I 997 W/m² 8,9 °C 16,7 °C 8,0 km/h (2 Bft)
30.06.2017 12:37 16,7 °C 16,7 °C 63 % 1007,1 hPa 0,0 mm 6,2 km/h (2 Bft) O-SO 105 ° 1 min 0,000 mm 7,4 UV-I 983 W/m² 9,6 °C 16,7 °C 9,7 km/h (2 Bft)
30.06.2017 12:38 16,8 °C 16,8 °C 60 % 1007,1 hPa 0,0 mm 5,4 km/h (1 Bft) O 94 ° 1 min 0,000 mm 7,4 UV-I 981 W/m² 9,0 °C 16,8 °C 9,7 km/h (2 Bft)
30.06.2017 12:39 16,7 °C 16,8 °C 61 % 1007,1 hPa 0,0 mm 3,1 km/h (1 Bft) O-SO 112 ° 1 min 0,000 mm 4,8 UV-I 981 W/m² 9,1 °C 16,7 °C 4,8 km/h (1 Bft)
30.06.2017 12:40 16,7 °C 16,7 °C 60 % 1007,1 hPa 0,0 mm 2,8 km/h (1 Bft) O-SO 111 ° 0 min 0,000 mm 4,3 UV-I 211 W/m² 8,9 °C 16,7 °C 4,8 km/h (1 Bft)
30.06.2017 12:41 16,6 °C 16,7 °C 62 % 1007,1 hPa 0,0 mm 3,4 km/h (1 Bft) O-SO 111 ° 0 min 0,000 mm 3,6 UV-I 262 W/m² 9,3 °C 16,6 °C 4,8 km/h (1 Bft)
30.06.2017 12:42 16,5 °C 16,6 °C 63 % 1007,1 hPa 0,0 mm 0,2 km/h (0 Bft) O-SO 111 ° 1 min 0,000 mm 7,7 UV-I 1069 W/m² 9,4 °C 16,5 °C 1,6 km/h (1 Bft)
30.06.2017 12:43 16,8 °C 16,8 °C 67 % 1007,2 hPa 0,0 mm 2,2 km/h (1 Bft) W-NW 284 ° 1 min 0,000 mm 7,7 UV-I 1069 W/m² 10,6 °C 16,8 °C 6,4 km/h (2 Bft)
30.06.2017 12:44 16,9 °C 16,9 °C 65 % 1007,2 hPa 0,0 mm 4,2 km/h (1 Bft) W 276 ° 1 min 0,000 mm 7,2 UV-I 1069 W/m² 10,3 °C 16,9 °C 9,7 km/h (2 Bft)
30.06.2017 12:45 17,2 °C 17,2 °C 62 % 1007,2 hPa 0,0 mm 2,9 km/h (1 Bft) W-NW 282 ° 1 min 0,000 mm 7,5 UV-I 1007 W/m² 9,9 °C 17,2 °C 4,8 km/h (1 Bft)
30.06.2017 12:46 17,3 °C 17,3 °C 62 % 1007,1 hPa 0,0 mm 1,5 km/h (1 Bft) W-NW 282 ° 1 min 0,000 mm 7,6 UV-I 995 W/m² 9,9 °C 17,3 °C 3,2 km/h (1 Bft)
30.06.2017 12:47 17,5 °C 17,5 °C 67 % 1007,1 hPa 0,0 mm 5,9 km/h (2 Bft) W-NW 286 ° 1 min 0,000 mm 7,6 UV-I 1013 W/m² 11,3 °C 17,5 °C 11,3 km/h (2 Bft)
30.06.2017 12:48 17,7 °C 17,7 °C 65 % 1007,1 hPa 0,0 mm 8,0 km/h (2 Bft) W-NW 296 ° 1 min 0,000 mm 3,8 UV-I 1013 W/m² 11,0 °C 17,7 °C 12,9 km/h (3 Bft)
30.06.2017 12:49 17,7 °C 17,7 °C 61 % 1007,1 hPa 0,0 mm 2,7 km/h (1 Bft) W-NW 302 ° 1 min 0,000 mm 7,5 UV-I 1013 W/m² 10,1 °C 17,7 °C 6,4 km/h (2 Bft)
30.06.2017 12:50 17,6 °C 17,7 °C 59 % 1007,0 hPa 0,0 mm 1,7 km/h (1 Bft) W-NW 302 ° 1 min 0,000 mm 7,5 UV-I 1013 W/m² 9,5 °C 17,6 °C 3,2 km/h (1 Bft)
30.06.2017 12:51 17,6 °C 17,6 °C 58 % 1007,1 hPa 0,0 mm 3,6 km/h (1 Bft) W 280 ° 1 min 0,000 mm 7,5 UV-I 972 W/m² 9,2 °C 17,6 °C 4,8 km/h (1 Bft)
30.06.2017 12:52 17,6 °C 17,6 °C 59 % 1007,1 hPa 0,0 mm 0,6 km/h (0 Bft) W-NW 285 ° 1 min 0,000 mm 7,5 UV-I 972 W/m² 9,5 °C 17,6 °C 3,2 km/h (1 Bft)
30.06.2017 12:53 17,4 °C 17,6 °C 62 % 1007,0 hPa 0,0 mm 3,5 km/h (1 Bft) NW 319 ° 1 min 0,000 mm 7,5 UV-I 962 W/m² 10,0 °C 17,4 °C 6,4 km/h (2 Bft)
30.06.2017 12:54 17,4 °C 17,4 °C 64 % 1007,0 hPa 0,0 mm 4,6 km/h (1 Bft) W-NW 290 ° 1 min 0,000 mm 7,4 UV-I 962 W/m² 10,5 °C 17,4 °C 9,7 km/h (2 Bft)
30.06.2017 12:55 17,3 °C 17,4 °C 59 % 1007,0 hPa 0,0 mm 1,7 km/h (1 Bft) W-NW 290 ° 1 min 0,000 mm 7,4 UV-I 944 W/m² 9,2 °C 17,3 °C 4,8 km/h (1 Bft)
30.06.2017 12:56 17,4 °C 17,4 °C 65 % 1006,9 hPa 0,0 mm 3,2 km/h (1 Bft) W-NW 290 ° 1 min 0,000 mm 7,4 UV-I 944 W/m² 10,8 °C 17,4 °C 4,8 km/h (1 Bft)
30.06.2017 12:57 17,7 °C 17,7 °C 61 % 1006,9 hPa 0,0 mm 3,3 km/h (1 Bft) N-NW 328 ° 1 min 0,000 mm 7,5 UV-I 942 W/m² 10,1 °C 17,7 °C 4,8 km/h (1 Bft)
30.06.2017 12:58 17,7 °C 17,7 °C 58 % 1006,9 hPa 0,0 mm 0,8 km/h (0 Bft) N-NW 330 ° 1 min 0,000 mm 7,5 UV-I 944 W/m² 9,3 °C 17,7 °C 3,2 km/h (1 Bft)
30.06.2017 12:59 17,7 °C 17,7 °C 63 % 1007,0 hPa 0,0 mm 3,2 km/h (1 Bft) N-NO 13 ° 1 min 0,000 mm 7,5 UV-I 942 W/m² 10,6 °C 17,7 °C 4,8 km/h (1 Bft)
30.06.2017 13:00 17,8 °C 17,8 °C 61 % 1007,0 hPa 0,0 mm 1,5 km/h (1 Bft) N-NO 13 ° 1 min 0,432 mm 7,5 UV-I 951 W/m² 10,2 °C 17,8 °C 4,8 km/h (1 Bft)
30.06.2017 13:01 17,7 °C 17,8 °C 58 % 1007,0 hPa 0,0 mm 4,8 km/h (1 Bft) NO 43 ° 1 min 0,000 mm 7,7 UV-I 979 W/m² 9,3 °C 17,7 °C 8,0 km/h (2 Bft)
30.06.2017 13:02 17,6 °C 17,7 °C 57 % 1007,0 hPa 0,0 mm 3,4 km/h (1 Bft) NO 43 ° 1 min 0,000 mm 7,7 UV-I 1018 W/m² 9,0 °C 17,6 °C 6,4 km/h (2 Bft)
30.06.2017 13:03 17,4 °C 17,6 °C 57 % 1007,0 hPa 0,0 mm 3,5 km/h (1 Bft) O 89 ° 1 min 0,000 mm 6,7 UV-I 1000 W/m² 8,8 °C 17,4 °C 4,8 km/h (1 Bft)
30.06.2017 13:04 17,3 °C 17,4 °C 58 % 1006,9 hPa 0,0 mm 5,1 km/h (1 Bft) O-SO 111 ° 1 min 0,000 mm 8,0 UV-I 1074 W/m² 9,0 °C 17,3 °C 6,4 km/h (2 Bft)
30.06.2017 13:05 17,2 °C 17,3 °C 61 % 1006,9 hPa 0,0 mm 5,2 km/h (1 Bft) SO 135 ° 1 min 0,000 mm 7,9 UV-I 1083 W/m² 9,6 °C 17,2 °C 9,7 km/h (2 Bft)
30.06.2017 13:06 17,3 °C 17,3 °C 64 % 1006,9 hPa 0,0 mm 1,9 km/h (1 Bft) SO 135 ° 1 min 0,000 mm 7,8 UV-I 1053 W/m² 10,4 °C 17,3 °C 4,8 km/h (1 Bft)
30.06.2017 13:07 17,3 °C 17,3 °C 60 % 1006,9 hPa 0,0 mm 0,1 km/h (0 Bft) SO 135 ° 1 min 0,000 mm 7,7 UV-I 1034 W/m² 9,5 °C 17,3 °C 1,6 km/h (1 Bft)
30.06.2017 13:08 17,3 °C 17,3 °C 61 % 1006,9 hPa 0,0 mm 1,1 km/h (1 Bft) W-SW 257 ° 1 min 0,000 mm 7,6 UV-I 1007 W/m² 9,7 °C 17,3 °C 3,2 km/h (1 Bft)
30.06.2017 13:09 17,3 °C 17,3 °C 57 % 1006,8 hPa 0,0 mm 2,2 km/h (1 Bft) W-SW 257 ° 1 min 0,000 mm 7,6 UV-I 991 W/m² 8,7 °C 17,3 °C 3,2 km/h (1 Bft)
30.06.2017 13:10 17,3 °C 17,3 °C 59 % 1006,8 hPa 0,0 mm 1,9 km/h (1 Bft) W-SW 257 ° 1 min 0,000 mm 7,5 UV-I 962 W/m² 9,2 °C 17,3 °C 3,2 km/h (1 Bft)
30.06.2017 13:11 17,4 °C 17,4 °C 60 % 1006,8 hPa 0,0 mm 0,7 km/h (0 Bft) W-SW 257 ° 1 min 0,000 mm 7,5 UV-I 970 W/m² 9,6 °C 17,4 °C 3,2 km/h (1 Bft)
30.06.2017 13:12 17,5 °C 17,5 °C 57 % 1006,8 hPa 0,0 mm 0,9 km/h (0 Bft) W-SW 257 ° 1 min 0,000 mm 5,1 UV-I 1021 W/m² 8,9 °C 17,5 °C 3,2 km/h (1 Bft)
30.06.2017 13:13 17,7 °C 17,7 °C 65 % 1006,8 hPa 0,0 mm 0,5 km/h (0 Bft) W-SW 258 ° 1 min 0,000 mm 6,6 UV-I 1021 W/m² 11,0 °C 17,7 °C 1,6 km/h (1 Bft)
30.06.2017 13:14 17,8 °C 17,8 °C 65 % 1006,8 hPa 0,0 mm 2,4 km/h (1 Bft) O 101 ° 1 min 0,000 mm 3,3 UV-I 1021 W/m² 11,1 °C 17,8 °C 4,8 km/h (1 Bft)
30.06.2017 13:15 17,7 °C 17,8 °C 58 % 1006,8 hPa 0,0 mm 5,2 km/h (1 Bft) O-SO 103 ° 0 min 0,000 mm 3,1 UV-I 165 W/m² 9,3 °C 17,7 °C 6,4 km/h (2 Bft)
30.06.2017 13:16 17,5 °C 17,7 °C 60 % 1006,8 hPa 0,0 mm 3,1 km/h (1 Bft) O-SO 109 ° 0 min 0,000 mm 4,2 UV-I 232 W/m² 9,6 °C 17,5 °C 6,4 km/h (2 Bft)
30.06.2017 13:17 17,3 °C 17,5 °C 61 % 1006,9 hPa 0,0 mm 2,1 km/h (1 Bft) O-SO 109 ° 0 min 0,000 mm 4,5 UV-I 232 W/m² 9,7 °C 17,3 °C 3,2 km/h (1 Bft)
30.06.2017 13:18 17,3 °C 17,3 °C 60 % 1006,9 hPa 0,0 mm 1,2 km/h (1 Bft) S-SO 152 ° 0 min 0,000 mm 4,6 UV-I 232 W/m² 9,5 °C 17,3 °C 4,8 km/h (1 Bft)
30.06.2017 13:19 17,3 °C 17,3 °C 60 % 1006,9 hPa 0,0 mm 2,3 km/h (1 Bft) W 279 ° 0 min 0,000 mm 4,3 UV-I 232 W/m² 9,5 °C 17,3 °C 4,8 km/h (1 Bft)
30.06.2017 13:20 17,2 °C 17,3 °C 61 % 1006,9 hPa 0,0 mm 3,0 km/h (1 Bft) W 279 ° 0 min 0,000 mm 3,1 UV-I 232 W/m² 9,6 °C 17,2 °C 4,8 km/h (1 Bft)
30.06.2017 13:21 17,1 °C 17,2 °C 60 % 1007,0 hPa 0,0 mm 4,0 km/h (1 Bft) W-NW 302 ° 0 min 0,000 mm 3,1 UV-I 176 W/m² 9,3 °C 17,1 °C 6,4 km/h (2 Bft)
30.06.2017 13:22 17,0 °C 17,1 °C 60 % 1007,0 hPa 0,0 mm 2,7 km/h (1 Bft) W-NW 302 ° 0 min 0,000 mm 3,3 UV-I 193 W/m² 9,2 °C 17,0 °C 4,8 km/h (1 Bft)
30.06.2017 13:23 17,0 °C 17,0 °C 63 % 1007,0 hPa 0,0 mm 1,8 km/h (1 Bft) W-NW 302 ° 0 min 0,000 mm 7,8 UV-I 193 W/m² 9,9 °C 17,0 °C 3,2 km/h (1 Bft)
30.06.2017 13:24 17,3 °C 17,3 °C 64 % 1006,9 hPa 0,0 mm 1,7 km/h (1 Bft) W-NW 302 ° 1 min 0,000 mm 7,7 UV-I 1030 W/m² 10,4 °C 17,3 °C 3,2 km/h (1 Bft)
30.06.2017 13:25 17,4 °C 17,4 °C 62 % 1006,9 hPa 0,0 mm 1,0 km/h (0 Bft) S-SW 205 ° 1 min 0,000 mm 7,6 UV-I 1004 W/m² 10,0 °C 17,4 °C 1,6 km/h (1 Bft)
30.06.2017 13:26 17,3 °C 17,4 °C 60 % 1007,0 hPa 0,0 mm 2,6 km/h (1 Bft) S-SW 192 ° 1 min 0,000 mm 7,6 UV-I 991 W/m² 9,5 °C 17,3 °C 4,8 km/h (1 Bft)
30.06.2017 13:27 17,4 °C 17,4 °C 66 % 1007,1 hPa 0,0 mm 1,9 km/h (1 Bft) SO 128 ° 1 min 0,000 mm 7,6 UV-I 988 W/m² 11,0 °C 17,4 °C 4,8 km/h (1 Bft)
30.06.2017 13:28 17,6 °C 17,6 °C 62 % 1007,3 hPa 0,0 mm 5,8 km/h (2 Bft) O-SO 107 ° 1 min 0,000 mm 7,6 UV-I 991 W/m² 10,2 °C 17,6 °C 9,7 km/h (2 Bft)
30.06.2017 13:29 17,5 °C 17,6 °C 61 % 1007,3 hPa 0,0 mm 3,5 km/h (1 Bft) O-SO 102 ° 1 min 0,000 mm 7,6 UV-I 988 W/m² 9,9 °C 17,5 °C 6,4 km/h (2 Bft)
30.06.2017 13:30 17,6 °C 17,6 °C 60 % 1007,0 hPa 0,0 mm 2,7 km/h (1 Bft) O 83 ° 1 min 0,000 mm 7,6 UV-I 986 W/m² 9,7 °C 17,6 °C 4,8 km/h (1 Bft)
30.06.2017 13:31 17,6 °C 17,6 °C 58 % 1006,7 hPa 0,0 mm 2,3 km/h (1 Bft) O 83 ° 1 min 0,000 mm 7,6 UV-I 981 W/m² 9,2 °C 17,6 °C 4,8 km/h (1 Bft)
30.06.2017 13:32 17,7 °C 17,7 °C 63 % 1006,5 hPa 0,0 mm 1,9 km/h (1 Bft) O-NO 68 ° 1 min 0,000 mm 7,5 UV-I 967 W/m² 10,6 °C 17,7 °C 3,2 km/h (1 Bft)
30.06.2017 13:33 17,9 °C 17,9 °C 63 % 1006,4 hPa 0,0 mm 4,4 km/h (1 Bft) O-NO 66 ° 1 min 0,000 mm 7,5 UV-I 956 W/m² 10,8 °C 17,9 °C 8,0 km/h (2 Bft)
30.06.2017 13:34 18,1 °C 18,1 °C 67 % 1006,5 hPa 0,0 mm 1,1 km/h (1 Bft) O-NO 66 ° 1 min 0,000 mm 7,5 UV-I 969 W/m² 11,9 °C 18,1 °C 3,2 km/h (1 Bft)
30.06.2017 13:35 18,2 °C 18,2 °C 59 % 1006,6 hPa 0,0 mm 1,8 km/h (1 Bft) S 188 ° 1 min 0,000 mm 7,6 UV-I 984 W/m² 10,1 °C 18,2 °C 4,8 km/h (1 Bft)
30.06.2017 13:36 18,3 °C 18,3 °C 62 % 1006,7 hPa 0,0 mm 1,5 km/h (1 Bft) S 188 ° 1 min 0,000 mm 7,7 UV-I 1004 W/m² 10,9 °C 18,3 °C 3,2 km/h (1 Bft)
30.06.2017 13:37 18,2 °C 18,3 °C 61 % 1006,7 hPa 0,0 mm 2,3 km/h (1 Bft) S 188 ° 1 min 0,000 mm 7,8 UV-I 1020 W/m² 10,6 °C 18,2 °C 3,2 km/h (1 Bft)
30.06.2017 13:38 18,3 °C 18,3 °C 63 % 1006,8 hPa 0,0 mm 2,0 km/h (1 Bft) S 188 ° 1 min 0,000 mm 7,8 UV-I 1035 W/m² 11,1 °C 18,3 °C 3,2 km/h (1 Bft)
30.06.2017 13:39 18,4 °C 18,4 °C 64 % 1007,0 hPa 0,0 mm 1,1 km/h (1 Bft) SW 215 ° 1 min 0,000 mm 7,9 UV-I 1032 W/m² 11,5 °C 18,4 °C 4,8 km/h (1 Bft)
30.06.2017 13:40 18,6 °C 18,6 °C 62 % 1007,0 hPa 0,0 mm 1,6 km/h (1 Bft) SW 215 ° 1 min 0,000 mm 7,9 UV-I 1042 W/m² 11,2 °C 18,6 °C 4,8 km/h (1 Bft)
30.06.2017 13:41 18,7 °C 18,7 °C 61 % 1007,1 hPa 0,0 mm 2,3 km/h (1 Bft) W 277 ° 1 min 0,000 mm 8,0 UV-I 1051 W/m² 11,0 °C 18,7 °C 3,2 km/h (1 Bft)
30.06.2017 13:42 18,7 °C 18,7 °C 63 % 1007,0 hPa 0,0 mm 0,3 km/h (0 Bft) W 277 ° 1 min 0,000 mm 8,0 UV-I 1056 W/m² 11,5 °C 18,7 °C 1,6 km/h (1 Bft)
30.06.2017 13:43 18,8 °C 18,8 °C 60 % 1007,0 hPa 0,0 mm 1,9 km/h (1 Bft) N 10 ° 1 min 0,000 mm 8,1 UV-I 1058 W/m² 10,9 °C 18,8 °C 6,4 km/h (2 Bft)
30.06.2017 13:44 18,8 °C 18,8 °C 62 % 1007,0 hPa 0,0 mm 3,6 km/h (1 Bft) NO 40 ° 1 min 0,000 mm 8,1 UV-I 1055 W/m² 11,4 °C 18,8 °C 6,4 km/h (2 Bft)
30.06.2017 13:45 18,9 °C 18,9 °C 62 % 1007,0 hPa 0,0 mm 5,7 km/h (1 Bft) O-NO 77 ° 1 min 0,000 mm 8,0 UV-I 1048 W/m² 11,5 °C 18,9 °C 11,3 km/h (2 Bft)
30.06.2017 13:46 18,8 °C 18,9 °C 57 % 1006,9 hPa 0,0 mm 6,2 km/h (2 Bft) N 355 ° 1 min 0,000 mm 8,0 UV-I 1048 W/m² 10,1 °C 18,8 °C 8,0 km/h (2 Bft)
30.06.2017 13:47 18,8 °C 18,8 °C 60 % 1006,9 hPa 0,0 mm 6,0 km/h (2 Bft) O-NO 73 ° 1 min 0,000 mm 8,0 UV-I 1044 W/m² 10,9 °C 18,8 °C 8,0 km/h (2 Bft)
30.06.2017 13:48 18,7 °C 18,8 °C 57 % 1006,8 hPa 0,0 mm 8,1 km/h (2 Bft) N-NO 19 ° 1 min 0,000 mm 8,0 UV-I 1055 W/m² 10,0 °C 18,7 °C 12,9 km/h (3 Bft)
30.06.2017 13:49 18,5 °C 18,7 °C 57 % 1006,8 hPa 0,0 mm 1,1 km/h (1 Bft) N-NO 19 ° 1 min 0,000 mm 8,1 UV-I 1072 W/m² 9,8 °C 18,5 °C 4,8 km/h (1 Bft)
30.06.2017 13:50 18,5 °C 18,5 °C 61 % 1006,7 hPa 0,0 mm 3,2 km/h (1 Bft) N 360 ° 1 min 0,000 mm 8,1 UV-I 1085 W/m² 10,8 °C 18,5 °C 9,7 km/h (2 Bft)
30.06.2017 13:51 18,5 °C 18,5 °C 58 % 1006,8 hPa 0,0 mm 9,5 km/h (2 Bft) N-NO 26 ° 1 min 0,000 mm 8,1 UV-I 1083 W/m² 10,1 °C 18,5 °C 12,9 km/h (3 Bft)
30.06.2017 13:52 18,8 °C 18,8 °C 64 % 1006,9 hPa 0,0 mm 8,0 km/h (2 Bft) N 355 ° 1 min 0,000 mm 8,1 UV-I 1088 W/m² 11,8 °C 18,8 °C 12,9 km/h (3 Bft)
30.06.2017 13:53 19,0 °C 19,0 °C 59 % 1006,8 hPa 0,0 mm 5,2 km/h (1 Bft) N-NW 331 ° 1 min 0,000 mm 8,2 UV-I 1100 W/m² 10,8 °C 19,0 °C 8,0 km/h (2 Bft)
30.06.2017 13:54 19,2 °C 19,2 °C 63 % 1006,9 hPa 0,0 mm 5,9 km/h (2 Bft) N 5 ° 1 min 0,000 mm 8,2 UV-I 1121 W/m² 12,0 °C 19,2 °C 12,9 km/h (3 Bft)
30.06.2017 13:55 19,2 °C 19,2 °C 59 % 1006,7 hPa 0,0 mm 6,8 km/h (2 Bft) N-NO 28 ° 1 min 0,000 mm 8,2 UV-I 1134 W/m² 11,0 °C 19,2 °C 9,7 km/h (2 Bft)
30.06.2017 13:56 19,2 °C 19,2 °C 59 % 1006,7 hPa 0,0 mm 4,5 km/h (1 Bft) N 360 ° 1 min 0,000 mm 8,2 UV-I 1150 W/m² 11,0 °C 19,2 °C 6,4 km/h (2 Bft)
30.06.2017 13:57 19,3 °C 19,3 °C 61 % 1006,6 hPa 0,0 mm 4,3 km/h (1 Bft) NO 39 ° 1 min 0,000 mm 8,3 UV-I 1095 W/m² 11,6 °C 19,3 °C 6,4 km/h (2 Bft)
30.06.2017 13:58 19,2 °C 19,3 °C 61 % 1006,6 hPa 0,0 mm 4,7 km/h (1 Bft) N 350 ° 1 min 0,000 mm 8,3 UV-I 323 W/m² 11,5 °C 19,2 °C 8,0 km/h (2 Bft)
30.06.2017 13:59 18,9 °C 19,2 °C 59 % 1006,6 hPa 0,0 mm 9,5 km/h (2 Bft) N 5 ° 1 min 0,000 mm 3,9 UV-I 323 W/m² 10,7 °C 18,9 °C 14,5 km/h (3 Bft)
30.06.2017 14:00 18,8 °C 18,9 °C 57 % 1006,6 hPa 0,0 mm 4,1 km/h (1 Bft) NO 43 ° 1 min 0,000 mm 4,5 UV-I 413 W/m² 10,1 °C 18,8 °C 6,4 km/h (2 Bft)
30.06.2017 14:01 18,6 °C 18,8 °C 56 % 1006,7 hPa 0,0 mm 2,3 km/h (1 Bft) NO 43 ° 1 min 0,508 mm 4,6 UV-I 457 W/m² 9,6 °C 18,6 °C 3,2 km/h (1 Bft)
30.06.2017 14:02 18,4 °C 18,6 °C 56 % 1006,8 hPa 0,0 mm 1,4 km/h (1 Bft) NO 44 ° 1 min 0,000 mm 4,8 UV-I 520 W/m² 9,5 °C 18,4 °C 3,2 km/h (1 Bft)
30.06.2017 14:03 18,2 °C 18,4 °C 56 % 1006,8 hPa 0,0 mm 3,0 km/h (1 Bft) N-NO 26 ° 1 min 0,000 mm 3,6 UV-I 320 W/m² 9,3 °C 18,2 °C 6,4 km/h (2 Bft)
30.06.2017 14:04 18,2 °C 18,2 °C 60 % 1006,7 hPa 0,0 mm 7,1 km/h (2 Bft) N-NW 333 ° 1 min 0,000 mm 3,6 UV-I 336 W/m² 10,3 °C 18,2 °C 12,9 km/h (3 Bft)
30.06.2017 14:05 18,1 °C 18,2 °C 59 % 1006,6 hPa 0,0 mm 7,6 km/h (2 Bft) N-NW 328 ° 1 min 0,000 mm 3,8 UV-I 350 W/m² 10,0 °C 18,1 °C 12,9 km/h (3 Bft)
30.06.2017 14:06 18,1 °C 18,1 °C 58 % 1006,4 hPa 0,0 mm 5,9 km/h (2 Bft) W-NW 285 ° 1 min 0,000 mm 4,3 UV-I 394 W/m² 9,7 °C 18,1 °C 9,7 km/h (2 Bft)
30.06.2017 14:07 18,1 °C 18,1 °C 58 % 1006,4 hPa 0,0 mm 6,4 km/h (2 Bft) N 360 ° 1 min 0,000 mm 4,3 UV-I 394 W/m² 9,7 °C 18,1 °C 8,0 km/h (2 Bft)
30.06.2017 14:08 18,3 °C 18,3 °C 63 % 1006,4 hPa 0,0 mm 3,8 km/h (1 Bft) N-NO 17 ° 1 min 0,000 mm 8,1 UV-I 394 W/m² 11,1 °C 18,3 °C 6,4 km/h (2 Bft)
30.06.2017 14:09 18,7 °C 18,7 °C 68 % 1006,5 hPa 0,0 mm 2,7 km/h (1 Bft) N-NO 15 ° 1 min 0,000 mm 7,8 UV-I 1090 W/m² 12,7 °C 18,7 °C 4,8 km/h (1 Bft)
30.06.2017 14:10 18,7 °C 18,7 °C 58 % 1006,7 hPa 0,0 mm 6,4 km/h (2 Bft) O-NO 57 ° 1 min 0,000 mm 4,9 UV-I 1090 W/m² 10,3 °C 18,7 °C 8,0 km/h (2 Bft)
30.06.2017 14:11 18,6 °C 18,7 °C 57 % 1006,7 hPa 0,0 mm 5,4 km/h (1 Bft) NO 51 ° 1 min 0,000 mm 4,6 UV-I 1090 W/m² 9,9 °C 18,6 °C 8,0 km/h (2 Bft)
30.06.2017 14:12 18,5 °C 18,6 °C 59 % 1006,7 hPa 0,0 mm 2,9 km/h (1 Bft) N-NW 347 ° 1 min 0,000 mm 4,2 UV-I 1090 W/m² 10,3 °C 18,5 °C 6,4 km/h (2 Bft)
30.06.2017 14:13 18,6 °C 18,6 °C 62 % 1006,7 hPa 0,0 mm 5,1 km/h (1 Bft) NW 323 ° 1 min 0,000 mm 3,5 UV-I 1090 W/m² 11,2 °C 18,6 °C 9,7 km/h (2 Bft)
30.06.2017 14:14 18,6 °C 18,6 °C 58 % 1006,6 hPa 0,0 mm 2,7 km/h (1 Bft) N-NW 331 ° 1 min 0,000 mm 3,1 UV-I 1090 W/m² 10,2 °C 18,6 °C 4,8 km/h (1 Bft)
30.06.2017 14:15 18,4 °C 18,6 °C 59 % 1006,5 hPa 0,0 mm 2,7 km/h (1 Bft) N-NW 331 ° 0 min 0,000 mm 2,7 UV-I 206 W/m² 10,2 °C 18,4 °C 3,2 km/h (1 Bft)
30.06.2017 14:16 18,3 °C 18,4 °C 59 % 1006,4 hPa 0,0 mm 1,6 km/h (1 Bft) N-NW 331 ° 0 min 0,000 mm 2,6 UV-I 206 W/m² 10,1 °C 18,3 °C 3,2 km/h (1 Bft)
30.06.2017 14:17 18,2 °C 18,3 °C 61 % 1006,5 hPa 0,0 mm 1,3 km/h (1 Bft) N-NW 331 ° 0 min 0,000 mm 2,7 UV-I 218 W/m² 10,6 °C 18,2 °C 3,2 km/h (1 Bft)
30.06.2017 14:18 18,1 °C 18,2 °C 58 % 1006,4 hPa 0,0 mm 2,3 km/h (1 Bft) N-NW 347 ° 0 min 0,000 mm 2,8 UV-I 239 W/m² 9,7 °C 18,1 °C 4,8 km/h (1 Bft)
30.06.2017 14:19 18,1 °C 18,1 °C 62 % 1006,3 hPa 0,0 mm 3,6 km/h (1 Bft) N-NO 24 ° 0 min 0,000 mm 2,7 UV-I 239 W/m² 10,7 °C 18,1 °C 4,8 km/h (1 Bft)
30.06.2017 14:20 17,9 °C 18,1 °C 57 % 1006,2 hPa 0,0 mm 0,6 km/h (0 Bft) N-NO 24 ° 0 min 0,000 mm 2,7 UV-I 239 W/m² 9,3 °C 17,9 °C 1,6 km/h (1 Bft)
30.06.2017 14:21 17,8 °C 17,9 °C 58 % 1006,3 hPa 0,0 mm 1,0 km/h (0 Bft) NO 50 ° 0 min 0,000 mm 2,8 UV-I 246 W/m² 9,4 °C 17,8 °C 3,2 km/h (1 Bft)
30.06.2017 14:22 17,6 °C 17,8 °C 58 % 1006,4 hPa 0,0 mm 2,9 km/h (1 Bft) O 91 ° 0 min 0,000 mm 2,8 UV-I 250 W/m² 9,2 °C 17,6 °C 4,8 km/h (1 Bft)
30.06.2017 14:23 17,6 °C 17,6 °C 65 % 1006,4 hPa 0,0 mm 1,5 km/h (1 Bft) O 91 ° 0 min 0,000 mm 2,7 UV-I 250 W/m² 10,9 °C 17,6 °C 3,2 km/h (1 Bft)
30.06.2017 14:24 17,4 °C 17,6 °C 67 % 1006,4 hPa 0,0 mm 0,0 km/h (0 Bft) O 91 ° 0 min 0,000 mm 2,7 UV-I 251 W/m² 11,2 °C 17,4 °C 0,0 km/h (0 Bft)
30.06.2017 14:25 17,4 °C 17,4 °C 65 % 1006,5 hPa 0,0 mm 0,0 km/h (0 Bft) O 91 ° 0 min 0,000 mm 2,7 UV-I 253 W/m² 10,8 °C 17,4 °C 0,0 km/h (0 Bft)
30.06.2017 14:26 17,3 °C 17,4 °C 63 % 1006,5 hPa 0,0 mm 0,0 km/h (0 Bft) O 91 ° 0 min 0,000 mm 2,7 UV-I 258 W/m² 10,2 °C 17,3 °C 0,0 km/h (0 Bft)
30.06.2017 14:27 17,3 °C 17,3 °C 68 % 1006,5 hPa 0,0 mm 0,1 km/h (0 Bft) O 91 ° 0 min 0,000 mm 2,7 UV-I 264 W/m² 11,3 °C 17,3 °C 1,6 km/h (1 Bft)
30.06.2017 14:28 17,3 °C 17,3 °C 71 % 1006,5 hPa 0,0 mm 0,7 km/h (0 Bft) SW 229 ° 0 min 0,000 mm 2,6 UV-I 244 W/m² 12,0 °C 17,3 °C 4,8 km/h (1 Bft)
30.06.2017 14:29 17,4 °C 17,4 °C 66 % 1006,7 hPa 0,0 mm 1,8 km/h (1 Bft) SW 234 ° 0 min 0,000 mm 2,5 UV-I 230 W/m² 11,0 °C 17,4 °C 3,2 km/h (1 Bft)
30.06.2017 14:30 17,5 °C 17,5 °C 64 % 1006,7 hPa 0,0 mm 4,2 km/h (1 Bft) SW 234 ° 0 min 0,000 mm 2,4 UV-I 223 W/m² 10,6 °C 17,5 °C 4,8 km/h (1 Bft)
30.06.2017 14:31 17,6 °C 17,6 °C 66 % 1006,8 hPa 0,0 mm 1,8 km/h (1 Bft) SW 234 ° 0 min 0,000 mm 2,3 UV-I 211 W/m² 11,2 °C 17,6 °C 3,2 km/h (1 Bft)
30.06.2017 14:32 17,6 °C 17,6 °C 60 % 1006,8 hPa 0,0 mm 0,0 km/h (0 Bft) SW 234 ° 0 min 0,000 mm 2,2 UV-I 178 W/m² 9,7 °C 17,6 °C 0,0 km/h (0 Bft)
30.06.2017 14:33 17,5 °C 17,6 °C 61 % 1006,8 hPa 0,0 mm 0,6 km/h (0 Bft) SW 234 ° 0 min 0,000 mm 2,1 UV-I 169 W/m² 9,9 °C 17,5 °C 1,6 km/h (1 Bft)
30.06.2017 14:34 17,4 °C 17,5 °C 61 % 1006,8 hPa 0,0 mm 2,1 km/h (1 Bft) SW 234 ° 0 min 0,000 mm 1,8 UV-I 160 W/m² 9,8 °C 17,4 °C 3,2 km/h (1 Bft)
30.06.2017 14:35 17,3 °C 17,4 °C 69 % 1006,7 hPa 0,0 mm 3,5 km/h (1 Bft) SW 217 ° 0 min 0,000 mm 1,7 UV-I 151 W/m² 11,6 °C 17,3 °C 4,8 km/h (1 Bft)
30.06.2017 14:36 17,1 °C 17,3 °C 71 % 1006,7 hPa 0,0 mm 3,8 km/h (1 Bft) S 183 ° 0 min 0,000 mm 1,6 UV-I 142 W/m² 11,8 °C 17,1 °C 4,8 km/h (1 Bft)
30.06.2017 14:37 16,9 °C 17,1 °C 71 % 1006,7 hPa 0,0 mm 3,6 km/h (1 Bft) S 186 ° 0 min 0,000 mm 1,5 UV-I 134 W/m² 11,6 °C 16,9 °C 6,4 km/h (2 Bft)
30.06.2017 14:38 16,8 °C 16,9 °C 63 % 1006,6 hPa 0,0 mm 6,1 km/h (2 Bft) S 180 ° 0 min 0,000 mm 1,4 UV-I 125 W/m² 9,7 °C 16,8 °C 11,3 km/h (2 Bft)
30.06.2017 14:39 16,9 °C 16,9 °C 64 % 1006,6 hPa 0,0 mm 5,6 km/h (1 Bft) O-NO 60 ° 0 min 0,000 mm 1,4 UV-I 128 W/m² 10,0 °C 16,9 °C 11,3 km/h (2 Bft)
30.06.2017 14:40 16,9 °C 16,9 °C 64 % 1006,7 hPa 0,0 mm 4,3 km/h (1 Bft) NO 53 ° 0 min 0,000 mm 1,4 UV-I 134 W/m² 10,0 °C 16,9 °C 6,4 km/h (2 Bft)
30.06.2017 14:41 17,0 °C 17,0 °C 64 % 1006,6 hPa 0,0 mm 1,4 km/h (1 Bft) NO 53 ° 0 min 0,000 mm 1,5 UV-I 142 W/m² 10,1 °C 17,0 °C 3,2 km/h (1 Bft)
30.06.2017 14:42 17,1 °C 17,1 °C 66 % 1006,7 hPa 0,0 mm 0,6 km/h (0 Bft) NO 53 ° 0 min 0,000 mm 1,6 UV-I 149 W/m² 10,7 °C 17,1 °C 3,2 km/h (1 Bft)
30.06.2017 14:43 17,0 °C 17,1 °C 68 % 1006,6 hPa 0,0 mm 1,5 km/h (1 Bft) NO 53 ° 0 min 0,000 mm 1,6 UV-I 156 W/m² 11,0 °C 17,0 °C 3,2 km/h (1 Bft)
30.06.2017 14:44 17,0 °C 17,0 °C 67 % 1006,8 hPa 0,0 mm 0,2 km/h (0 Bft) NO 53 ° 0 min 0,000 mm 1,7 UV-I 174 W/m² 10,8 °C 17,0 °C 1,6 km/h (1 Bft)
30.06.2017 14:45 16,9 °C 17,0 °C 66 % 1006,8 hPa 0,0 mm 0,0 km/h (0 Bft) NO 53 ° 0 min 0,000 mm 1,8 UV-I 185 W/m² 10,5 °C 16,9 °C 0,0 km/h (0 Bft)
30.06.2017 14:46 16,9 °C 17,0 °C 67 % 1006,8 hPa 0,0 mm 0,0 km/h (0 Bft) NO 53 ° 0 min 0,000 mm 1,9 UV-I 192 W/m² 10,7 °C 16,9 °C 0,0 km/h (0 Bft)
30.06.2017 14:47 16,9 °C 17,0 °C 69 % 1006,7 hPa 0,0 mm 0,0 km/h (0 Bft) NO 53 ° 0 min 0,000 mm 1,9 UV-I 195 W/m² 11,2 °C 16,9 °C 0,0 km/h (0 Bft)
30.06.2017 14:48 16,9 °C 16,9 °C 72 % 1006,6 hPa 0,0 mm 2,5 km/h (1 Bft) NO 53 ° 0 min 0,000 mm 1,9 UV-I 193 W/m² 11,8 °C 16,9 °C 4,8 km/h (1 Bft)
30.06.2017 14:49 16,9 °C 16,9 °C 66 % 1006,6 hPa 0,0 mm 2,4 km/h (1 Bft) NO 53 ° 0 min 0,000 mm 1,9 UV-I 192 W/m² 10,5 °C 16,9 °C 4,8 km/h (1 Bft)
30.06.2017 14:50 16,9 °C 16,9 °C 66 % 1006,5 hPa 0,0 mm 0,7 km/h (0 Bft) NO 53 ° 0 min 0,000 mm 1,9 UV-I 192 W/m² 10,5 °C 16,9 °C 1,6 km/h (1 Bft)
30.06.2017 14:51 17,0 °C 17,0 °C 71 % 1006,5 hPa 0,0 mm 1,2 km/h (1 Bft) NO 53 ° 0 min 0,000 mm 1,8 UV-I 188 W/m² 11,7 °C 17,0 °C 3,2 km/h (1 Bft)
30.06.2017 14:52 17,0 °C 17,1 °C 71 % 1006,5 hPa 0,0 mm 0,9 km/h (0 Bft) NO 53 ° 0 min 0,000 mm 1,8 UV-I 186 W/m² 11,7 °C 17,0 °C 1,6 km/h (1 Bft)
30.06.2017 14:53 16,9 °C 17,0 °C 69 % 1006,4 hPa 0,0 mm 0,8 km/h (0 Bft) NO 53 ° 0 min 0,000 mm 1,8 UV-I 192 W/m² 11,2 °C 16,9 °C 1,6 km/h (1 Bft)
30.06.2017 14:54 16,9 °C 16,9 °C 69 % 1006,4 hPa 0,0 mm 2,4 km/h (1 Bft) NO 54 ° 0 min 0,000 mm 2,0 UV-I 213 W/m² 11,2 °C 16,9 °C 3,2 km/h (1 Bft)
30.06.2017 14:55 16,9 °C 17,0 °C 73 % 1006,4 hPa 0,0 mm 4,8 km/h (1 Bft) O-NO 72 ° 0 min 0,000 mm 1,8 UV-I 197 W/m² 12,0 °C 16,9 °C 6,4 km/h (2 Bft)
30.06.2017 14:56 16,9 °C 16,9 °C 70 % 1006,4 hPa 0,0 mm 1,8 km/h (1 Bft) O-NO 72 ° 0 min 0,000 mm 1,9 UV-I 206 W/m² 11,4 °C 16,9 °C 3,2 km/h (1 Bft)
30.06.2017 14:57 17,0 °C 17,0 °C 71 % 1006,5 hPa 0,0 mm 3,8 km/h (1 Bft) O-NO 64 ° 0 min 0,000 mm 2,0 UV-I 213 W/m² 11,7 °C 17,0 °C 6,4 km/h (2 Bft)
30.06.2017 14:58 17,1 °C 17,1 °C 73 % 1006,5 hPa 0,0 mm 1,3 km/h (1 Bft) O-NO 64 ° 0 min 0,000 mm 2,1 UV-I 221 W/m² 12,2 °C 17,1 °C 4,8 km/h (1 Bft)
30.06.2017 14:59 17,2 °C 17,2 °C 71 % 1006,5 hPa 0,0 mm 2,7 km/h (1 Bft) O-NO 66 ° 0 min 0,000 mm 2,2 UV-I 225 W/m² 11,9 °C 17,2 °C 4,8 km/h (1 Bft)
30.06.2017 15:00 17,2 °C 17,2 °C 71 % 1006,5 hPa 0,0 mm 2,1 km/h (1 Bft) O-NO 66 ° 0 min 0,000 mm 2,2 UV-I 227 W/m² 11,9 °C 17,2 °C 3,2 km/h (1 Bft)
30.06.2017 15:01 17,3 °C 17,3 °C 64 % 1006,5 hPa 0,0 mm 0,2 km/h (0 Bft) O-NO 66 ° 0 min 0,178 mm 2,3 UV-I 230 W/m² 10,4 °C 17,3 °C 1,6 km/h (1 Bft)
30.06.2017 15:02 17,4 °C 17,4 °C 61 % 1006,5 hPa 0,0 mm 0,0 km/h (0 Bft) O-NO 66 ° 0 min 0,000 mm 2,4 UV-I 257 W/m² 9,8 °C 17,4 °C 0,0 km/h (0 Bft)
30.06.2017 15:03 17,6 °C 17,6 °C 67 % 1006,5 hPa 0,0 mm 2,5 km/h (1 Bft) NO 44 ° 0 min 0,000 mm 2,4 UV-I 258 W/m² 11,4 °C 17,6 °C 4,8 km/h (1 Bft)
30.06.2017 15:04 17,6 °C 17,6 °C 70 % 1006,5 hPa 0,0 mm 2,2 km/h (1 Bft) NO 44 ° 0 min 0,000 mm 2,4 UV-I 251 W/m² 12,1 °C 17,6 °C 3,2 km/h (1 Bft)
30.06.2017 15:05 17,5 °C 17,6 °C 63 % 1006,5 hPa 0,0 mm 0,5 km/h (0 Bft) NO 44 ° 0 min 0,000 mm 2,4 UV-I 250 W/m² 10,4 °C 17,5 °C 3,2 km/h (1 Bft)
30.06.2017 15:06 17,5 °C 17,5 °C 63 % 1006,7 hPa 0,0 mm 0,0 km/h (0 Bft) NO 44 ° 0 min 0,000 mm 2,4 UV-I 260 W/m² 10,4 °C 17,5 °C 0,0 km/h (0 Bft)
30.06.2017 15:07 17,5 °C 17,5 °C 68 % 1006,6 hPa 0,0 mm 0,8 km/h (0 Bft) NO 44 ° 0 min 0,000 mm 2,6 UV-I 260 W/m² 11,5 °C 17,5 °C 3,2 km/h (1 Bft)
30.06.2017 15:08 17,4 °C 17,5 °C 66 % 1006,6 hPa 0,0 mm 2,2 km/h (1 Bft) O-NO 68 ° 1 min 0,000 mm 2,8 UV-I 411 W/m² 11,0 °C 17,4 °C 4,8 km/h (1 Bft)
30.06.2017 15:09 17,3 °C 17,4 °C 69 % 1006,5 hPa 0,0 mm 3,4 km/h (1 Bft) O-NO 68 ° 1 min 0,000 mm 3,4 UV-I 424 W/m² 11,6 °C 17,3 °C 4,8 km/h (1 Bft)
30.06.2017 15:10 17,3 °C 17,4 °C 69 % 1006,5 hPa 0,0 mm 3,4 km/h (1 Bft) O-NO 68 ° 1 min 0,000 mm 3,6 UV-I 457 W/m² 11,6 °C 17,3 °C 4,8 km/h (1 Bft)
30.06.2017 15:11 17,3 °C 17,3 °C 66 % 1006,5 hPa 0,0 mm 1,0 km/h (0 Bft) O-NO 68 ° 1 min 0,000 mm 3,2 UV-I 457 W/m² 10,9 °C 17,3 °C 3,2 km/h (1 Bft)
30.06.2017 15:12 17,4 °C 17,4 °C 66 % 1006,5 hPa 0,0 mm 4,7 km/h (1 Bft) NO 49 ° 1 min 0,000 mm 3,8 UV-I 457 W/m² 11,0 °C 17,4 °C 6,4 km/h (2 Bft)
30.06.2017 15:13 17,4 °C 17,4 °C 67 % 1006,5 hPa 0,0 mm 1,1 km/h (1 Bft) O-NO 63 ° 1 min 0,000 mm 3,9 UV-I 473 W/m² 11,2 °C 17,4 °C 4,8 km/h (1 Bft)
30.06.2017 15:14 17,6 °C 17,6 °C 68 % 1006,5 hPa 0,0 mm 6,8 km/h (2 Bft) O-NO 59 ° 1 min 0,000 mm 3,7 UV-I 436 W/m² 11,6 °C 17,6 °C 8,0 km/h (2 Bft)
30.06.2017 15:15 17,7 °C 17,7 °C 64 % 1006,5 hPa 0,0 mm 6,0 km/h (2 Bft) NO 53 ° 1 min 0,000 mm 3,7 UV-I 448 W/m² 10,8 °C 17,7 °C 9,7 km/h (2 Bft)
30.06.2017 15:16 17,8 °C 17,8 °C 66 % 1006,5 hPa 0,0 mm 2,4 km/h (1 Bft) NO 54 ° 1 min 0,000 mm 3,7 UV-I 438 W/m² 11,4 °C 17,8 °C 6,4 km/h (2 Bft)
30.06.2017 15:17 17,9 °C 17,9 °C 66 % 1006,5 hPa 0,0 mm 4,7 km/h (1 Bft) O 84 ° 1 min 0,000 mm 3,8 UV-I 438 W/m² 11,5 °C 17,9 °C 6,4 km/h (2 Bft)
30.06.2017 15:18 17,9 °C 17,9 °C 65 % 1006,4 hPa 0,0 mm 4,6 km/h (1 Bft) NO 44 ° 1 min 0,000 mm 3,5 UV-I 422 W/m² 11,2 °C 17,9 °C 6,4 km/h (2 Bft)
30.06.2017 15:19 18,0 °C 18,0 °C 66 % 1006,4 hPa 0,0 mm 9,4 km/h (2 Bft) O-NO 71 ° 1 min 0,000 mm 3,4 UV-I 369 W/m² 11,6 °C 18,0 °C 14,5 km/h (3 Bft)
30.06.2017 15:20 17,9 °C 18,0 °C 65 % 1006,4 hPa 0,0 mm 3,9 km/h (1 Bft) NO 34 ° 1 min 0,000 mm 3,2 UV-I 408 W/m² 11,2 °C 17,9 °C 4,8 km/h (1 Bft)
30.06.2017 15:21 17,9 °C 17,9 °C 65 % 1006,4 hPa 0,0 mm 6,4 km/h (2 Bft) O 81 ° 1 min 0,000 mm 3,4 UV-I 424 W/m² 11,2 °C 17,9 °C 8,0 km/h (2 Bft)
30.06.2017 15:22 17,8 °C 17,9 °C 64 % 1006,4 hPa 0,0 mm 6,1 km/h (2 Bft) O 100 ° 1 min 0,000 mm 3,2 UV-I 396 W/m² 10,9 °C 17,8 °C 11,3 km/h (2 Bft)
30.06.2017 15:23 17,8 °C 17,9 °C 68 % 1006,3 hPa 0,0 mm 5,8 km/h (2 Bft) O-NO 66 ° 1 min 0,000 mm 3,1 UV-I 366 W/m² 11,8 °C 17,8 °C 9,7 km/h (2 Bft)
30.06.2017 15:24 17,8 °C 17,8 °C 63 % 1006,3 hPa 0,0 mm 4,5 km/h (1 Bft) O 101 ° 1 min 0,000 mm 3,0 UV-I 353 W/m² 10,7 °C 17,8 °C 6,4 km/h (2 Bft)
30.06.2017 15:25 17,7 °C 17,8 °C 63 % 1006,4 hPa 0,0 mm 3,3 km/h (1 Bft) O 101 ° 1 min 0,000 mm 2,9 UV-I 336 W/m² 10,6 °C 17,7 °C 4,8 km/h (1 Bft)
30.06.2017 15:26 17,6 °C 17,7 °C 63 % 1006,3 hPa 0,0 mm 0,8 km/h (0 Bft) O-SO 113 ° 1 min 0,000 mm 2,8 UV-I 330 W/m² 10,5 °C 17,6 °C 3,2 km/h (1 Bft)
30.06.2017 15:27 17,6 °C 17,6 °C 65 % 1006,4 hPa 0,0 mm 2,1 km/h (1 Bft) O 86 ° 1 min 0,000 mm 2,7 UV-I 313 W/m² 10,9 °C 17,6 °C 3,2 km/h (1 Bft)
30.06.2017 15:28 17,7 °C 17,7 °C 66 % 1006,3 hPa 0,0 mm 4,6 km/h (1 Bft) O-NO 70 ° 1 min 0,000 mm 2,6 UV-I 301 W/m² 11,3 °C 17,7 °C 6,4 km/h (2 Bft)
30.06.2017 15:29 17,7 °C 17,7 °C 63 % 1006,3 hPa 0,0 mm 3,7 km/h (1 Bft) O-NO 72 ° 1 min 0,000 mm 2,5 UV-I 290 W/m² 10,6 °C 17,7 °C 6,4 km/h (2 Bft)
30.06.2017 15:30 17,7 °C 17,7 °C 62 % 1006,3 hPa 0,0 mm 3,3 km/h (1 Bft) O 92 ° 0 min 0,000 mm 2,5 UV-I 283 W/m² 10,3 °C 17,7 °C 6,4 km/h (2 Bft)
30.06.2017 15:31 17,7 °C 17,7 °C 64 % 1006,4 hPa 0,0 mm 4,8 km/h (1 Bft) S-SO 149 ° 0 min 0,000 mm 2,4 UV-I 287 W/m² 10,8 °C 17,7 °C 6,4 km/h (2 Bft)
30.06.2017 15:32 17,7 °C 17,7 °C 65 % 1006,2 hPa 0,0 mm 1,8 km/h (1 Bft) O-NO 69 ° 1 min 0,000 mm 2,6 UV-I 318 W/m² 11,0 °C 17,7 °C 4,8 km/h (1 Bft)
30.06.2017 15:33 17,7 °C 17,7 °C 63 % 1006,2 hPa 0,0 mm 1,9 km/h (1 Bft) O-NO 69 ° 1 min 0,000 mm 2,7 UV-I 330 W/m² 10,6 °C 17,7 °C 3,2 km/h (1 Bft)
30.06.2017 15:34 17,6 °C 17,7 °C 66 % 1006,1 hPa 0,0 mm 0,5 km/h (0 Bft) O-NO 69 ° 1 min 0,000 mm 2,7 UV-I 343 W/m² 11,2 °C 17,6 °C 1,6 km/h (1 Bft)
30.06.2017 15:35 17,6 °C 17,6 °C 62 % 1006,0 hPa 0,0 mm 0,7 km/h (0 Bft) O-NO 69 ° 1 min 0,000 mm 2,8 UV-I 339 W/m² 10,2 °C 17,6 °C 3,2 km/h (1 Bft)
30.06.2017 15:36 17,6 °C 17,6 °C 65 % 1006,0 hPa 0,0 mm 1,1 km/h (1 Bft) O-NO 73 ° 1 min 0,000 mm 2,9 UV-I 346 W/m² 10,9 °C 17,6 °C 3,2 km/h (1 Bft)
30.06.2017 15:37 17,6 °C 17,7 °C 65 % 1006,0 hPa 0,0 mm 1,7 km/h (1 Bft) O-NO 73 ° 1 min 0,000 mm 2,9 UV-I 350 W/m² 10,9 °C 17,6 °C 3,2 km/h (1 Bft)
30.06.2017 15:38 17,6 °C 17,6 °C 61 % 1006,1 hPa 0,0 mm 0,5 km/h (0 Bft) O-NO 74 ° 1 min 0,000 mm 2,9 UV-I 341 W/m² 10,0 °C 17,6 °C 1,6 km/h (1 Bft)
30.06.2017 15:39 17,6 °C 17,6 °C 65 % 1005,9 hPa 0,0 mm 2,2 km/h (1 Bft) O-NO 74 ° 1 min 0,000 mm 3,0 UV-I 345 W/m² 10,9 °C 17,6 °C 4,8 km/h (1 Bft)
30.06.2017 15:40 17,6 °C 17,6 °C 64 % 1006,0 hPa 0,0 mm 2,5 km/h (1 Bft) O 88 ° 1 min 0,000 mm 3,0 UV-I 348 W/m² 10,7 °C 17,6 °C 4,8 km/h (1 Bft)
30.06.2017 15:41 17,6 °C 17,6 °C 65 % 1006,1 hPa 0,0 mm 1,6 km/h (1 Bft) O 88 ° 1 min 0,000 mm 3,1 UV-I 355 W/m² 10,9 °C 17,6 °C 3,2 km/h (1 Bft)
30.06.2017 15:42 17,6 °C 17,6 °C 64 % 1005,9 hPa 0,0 mm 4,2 km/h (1 Bft) SO 127 ° 1 min 0,000 mm 3,1 UV-I 367 W/m² 10,7 °C 17,6 °C 6,4 km/h (2 Bft)
30.06.2017 15:43 17,6 °C 17,6 °C 64 % 1005,8 hPa 0,0 mm 2,7 km/h (1 Bft) O-SO 122 ° 1 min 0,000 mm 3,1 UV-I 357 W/m² 10,7 °C 17,6 °C 4,8 km/h (1 Bft)
30.06.2017 15:44 17,6 °C 17,6 °C 66 % 1005,8 hPa 0,0 mm 3,2 km/h (1 Bft) O 96 ° 1 min 0,000 mm 3,2 UV-I 376 W/m² 11,2 °C 17,6 °C 4,8 km/h (1 Bft)
30.06.2017 15:45 17,6 °C 17,6 °C 66 % 1005,8 hPa 0,0 mm 1,9 km/h (1 Bft) O 100 ° 1 min 0,000 mm 3,2 UV-I 374 W/m² 11,2 °C 17,6 °C 4,8 km/h (1 Bft)
30.06.2017 15:46 17,7 °C 17,7 °C 64 % 1005,8 hPa 0,0 mm 1,1 km/h (1 Bft) O 100 ° 1 min 0,000 mm 3,4 UV-I 381 W/m² 10,8 °C 17,7 °C 3,2 km/h (1 Bft)
30.06.2017 15:47 17,7 °C 17,7 °C 68 % 1005,9 hPa 0,0 mm 4,1 km/h (1 Bft) O-NO 63 ° 1 min 0,000 mm 3,5 UV-I 418 W/m² 11,7 °C 17,7 °C 8,0 km/h (2 Bft)
30.06.2017 15:48 17,8 °C 17,8 °C 66 % 1005,9 hPa 0,0 mm 3,1 km/h (1 Bft) O-NO 60 ° 1 min 0,000 mm 3,5 UV-I 420 W/m² 11,4 °C 17,8 °C 6,4 km/h (2 Bft)
30.06.2017 15:49 17,8 °C 17,8 °C 65 % 1005,9 hPa 0,0 mm 2,9 km/h (1 Bft) NO 48 ° 1 min 0,000 mm 3,4 UV-I 376 W/m² 11,1 °C 17,8 °C 6,4 km/h (2 Bft)
30.06.2017 15:50 17,9 °C 17,9 °C 64 % 1006,0 hPa 0,0 mm 4,2 km/h (1 Bft) O 90 ° 1 min 0,000 mm 3,5 UV-I 424 W/m² 11,0 °C 17,9 °C 6,4 km/h (2 Bft)
30.06.2017 15:51 17,9 °C 17,9 °C 61 % 1006,0 hPa 0,0 mm 3,0 km/h (1 Bft) O-NO 59 ° 1 min 0,000 mm 4,0 UV-I 517 W/m² 10,3 °C 17,9 °C 4,8 km/h (1 Bft)
30.06.2017 15:52 17,9 °C 17,9 °C 62 % 1006,1 hPa 0,0 mm 3,2 km/h (1 Bft) S-SO 150 ° 1 min 0,000 mm 4,0 UV-I 543 W/m² 10,5 °C 17,9 °C 4,8 km/h (1 Bft)
30.06.2017 15:53 17,9 °C 17,9 °C 64 % 1006,1 hPa 0,0 mm 2,5 km/h (1 Bft) S-SO 161 ° 1 min 0,000 mm 3,7 UV-I 455 W/m² 11,0 °C 17,9 °C 6,4 km/h (2 Bft)
30.06.2017 15:54 17,9 °C 17,9 °C 62 % 1006,1 hPa 0,0 mm 0,4 km/h (0 Bft) S-SO 161 ° 1 min 0,000 mm 4,2 UV-I 533 W/m² 10,5 °C 17,9 °C 3,2 km/h (1 Bft)
30.06.2017 15:55 17,9 °C 17,9 °C 62 % 1006,3 hPa 0,0 mm 0,8 km/h (0 Bft) O 79 ° 1 min 0,000 mm 4,8 UV-I 677 W/m² 10,5 °C 17,9 °C 3,2 km/h (1 Bft)
30.06.2017 15:56 18,0 °C 18,0 °C 64 % 1006,3 hPa 0,0 mm 4,3 km/h (1 Bft) SO 133 ° 1 min 0,000 mm 5,2 UV-I 677 W/m² 11,1 °C 18,0 °C 8,0 km/h (2 Bft)
30.06.2017 15:57 18,1 °C 18,1 °C 65 % 1006,2 hPa 0,0 mm 6,9 km/h (2 Bft) O-SO 105 ° 1 min 0,000 mm 4,4 UV-I 677 W/m² 11,4 °C 18,1 °C 9,7 km/h (2 Bft)
30.06.2017 15:58 18,1 °C 18,1 °C 62 % 1005,9 hPa 0,0 mm 3,9 km/h (1 Bft) O-SO 105 ° 1 min 0,000 mm 4,5 UV-I 661 W/m² 10,7 °C 18,1 °C 4,8 km/h (1 Bft)
30.06.2017 15:59 18,1 °C 18,1 °C 62 % 1005,9 hPa 0,0 mm 1,1 km/h (1 Bft) O-SO 105 ° 1 min 0,000 mm 4,1 UV-I 587 W/m² 10,7 °C 18,1 °C 3,2 km/h (1 Bft)
30.06.2017 16:00 18,0 °C 18,1 °C 61 % 1005,9 hPa 0,0 mm 1,7 km/h (1 Bft) N 360 ° 1 min 0,000 mm 3,5 UV-I 461 W/m² 10,4 °C 18,0 °C 3,2 km/h (1 Bft)
30.06.2017 16:01 18,0 °C 18,0 °C 65 % 1005,9 hPa 0,0 mm 0,9 km/h (0 Bft) N 360 ° 1 min 0,229 mm 3,4 UV-I 376 W/m² 11,3 °C 18,0 °C 3,2 km/h (1 Bft)
30.06.2017 16:02 18,1 °C 18,1 °C 62 % 1005,8 hPa 0,0 mm 0,0 km/h (0 Bft) N 360 ° 1 min 0,000 mm 3,0 UV-I 366 W/m² 10,7 °C 18,1 °C 0,0 km/h (0 Bft)
30.06.2017 16:03 18,1 °C 18,1 °C 62 % 1005,8 hPa 0,0 mm 0,0 km/h (0 Bft) N 360 ° 1 min 0,000 mm 2,9 UV-I 338 W/m² 10,7 °C 18,1 °C 0,0 km/h (0 Bft)
30.06.2017 16:04 18,1 °C 18,1 °C 64 % 1005,7 hPa 0,0 mm 1,5 km/h (1 Bft) O-NO 70 ° 1 min 0,000 mm 2,8 UV-I 338 W/m² 11,2 °C 18,1 °C 3,2 km/h (1 Bft)
30.06.2017 16:05 18,1 °C 18,1 °C 61 % 1005,8 hPa 0,0 mm 0,6 km/h (0 Bft) O-NO 69 ° 1 min 0,000 mm 2,7 UV-I 309 W/m² 10,5 °C 18,1 °C 1,6 km/h (1 Bft)
30.06.2017 16:06 18,1 °C 18,1 °C 65 % 1005,8 hPa 0,0 mm 0,0 km/h (0 Bft) O-NO 69 ° 1 min 0,000 mm 2,6 UV-I 315 W/m² 11,4 °C 18,1 °C 0,0 km/h (0 Bft)
30.06.2017 16:07 18,1 °C 18,1 °C 68 % 1005,9 hPa 0,0 mm 0,1 km/h (0 Bft) O-NO 69 ° 1 min 0,000 mm 2,6 UV-I 294 W/m² 12,1 °C 18,1 °C 1,6 km/h (1 Bft)
30.06.2017 16:08 18,1 °C 18,1 °C 66 % 1006,0 hPa 0,0 mm 0,7 km/h (0 Bft) O-NO 78 ° 0 min 0,000 mm 2,4 UV-I 276 W/m² 11,6 °C 18,1 °C 3,2 km/h (1 Bft)
30.06.2017 16:09 18,1 °C 18,1 °C 64 % 1005,9 hPa 0,0 mm 0,9 km/h (0 Bft) O 79 ° 0 min 0,000 mm 2,4 UV-I 267 W/m² 11,2 °C 18,1 °C 3,2 km/h (1 Bft)
30.06.2017 16:10 17,9 °C 18,1 °C 62 % 1005,9 hPa 0,0 mm 1,7 km/h (1 Bft) O 79 ° 0 min 0,000 mm 2,4 UV-I 267 W/m² 10,5 °C 17,9 °C 3,2 km/h (1 Bft)
30.06.2017 16:11 17,9 °C 17,9 °C 64 % 1005,8 hPa 0,0 mm 1,5 km/h (1 Bft) O 80 ° 0 min 0,000 mm 2,4 UV-I 258 W/m² 11,0 °C 17,9 °C 3,2 km/h (1 Bft)
30.06.2017 16:12 17,8 °C 17,9 °C 65 % 1005,8 hPa 0,0 mm 1,9 km/h (1 Bft) O 80 ° 0 min 0,000 mm 2,4 UV-I 287 W/m² 11,1 °C 17,8 °C 3,2 km/h (1 Bft)
30.06.2017 16:13 17,8 °C 17,8 °C 62 % 1006,0 hPa 0,0 mm 3,4 km/h (1 Bft) S 186 ° 0 min 0,000 mm 2,5 UV-I 279 W/m² 10,4 °C 17,8 °C 6,4 km/h (2 Bft)
30.06.2017 16:14 17,8 °C 17,8 °C 62 % 1006,1 hPa 0,0 mm 5,4 km/h (1 Bft) S 175 ° 0 min 0,000 mm 2,4 UV-I 272 W/m² 10,4 °C 17,8 °C 6,4 km/h (2 Bft)
30.06.2017 16:15 17,8 °C 17,8 °C 61 % 1006,1 hPa 0,0 mm 2,3 km/h (1 Bft) S 175 ° 0 min 0,000 mm 2,4 UV-I 272 W/m² 10,2 °C 17,8 °C 3,2 km/h (1 Bft)
30.06.2017 16:16 17,8 °C 17,8 °C 62 % 1006,1 hPa 0,0 mm 1,9 km/h (1 Bft) S 175 ° 0 min 0,000 mm 2,3 UV-I 269 W/m² 10,4 °C 17,8 °C 3,2 km/h (1 Bft)
30.06.2017 16:17 17,8 °C 17,8 °C 62 % 1006,0 hPa 0,0 mm 1,1 km/h (1 Bft) S 175 ° 0 min 0,000 mm 2,3 UV-I 265 W/m² 10,4 °C 17,8 °C 3,2 km/h (1 Bft)
30.06.2017 16:18 17,8 °C 17,8 °C 65 % 1006,0 hPa 0,0 mm 3,1 km/h (1 Bft) S 169 ° 0 min 0,000 mm 2,3 UV-I 264 W/m² 11,1 °C 17,8 °C 4,8 km/h (1 Bft)
30.06.2017 16:19 17,8 °C 17,8 °C 60 % 1006,1 hPa 0,0 mm 1,5 km/h (1 Bft) S 169 ° 0 min 0,000 mm 2,2 UV-I 265 W/m² 9,9 °C 17,8 °C 3,2 km/h (1 Bft)
30.06.2017 16:20 17,8 °C 17,9 °C 61 % 1006,2 hPa 0,0 mm 0,9 km/h (0 Bft) S 169 ° 0 min 0,000 mm 2,2 UV-I 269 W/m² 10,2 °C 17,8 °C 3,2 km/h (1 Bft)
30.06.2017 16:21 17,8 °C 17,8 °C 64 % 1006,2 hPa 0,0 mm 0,9 km/h (0 Bft) S 169 ° 0 min 0,000 mm 2,2 UV-I 271 W/m² 10,9 °C 17,8 °C 1,6 km/h (1 Bft)
30.06.2017 16:22 17,8 °C 17,8 °C 59 % 1006,1 hPa 0,0 mm 1,9 km/h (1 Bft) S 169 ° 0 min 0,000 mm 2,2 UV-I 271 W/m² 9,7 °C 17,8 °C 3,2 km/h (1 Bft)
30.06.2017 16:23 17,9 °C 17,9 °C 60 % 1006,1 hPa 0,0 mm 1,3 km/h (1 Bft) S 173 ° 0 min 0,000 mm 2,2 UV-I 265 W/m² 10,0 °C 17,9 °C 3,2 km/h (1 Bft)
30.06.2017 16:24 17,9 °C 17,9 °C 62 % 1006,2 hPa 0,0 mm 0,6 km/h (0 Bft) S 172 ° 0 min 0,000 mm 2,1 UV-I 257 W/m² 10,5 °C 17,9 °C 1,6 km/h (1 Bft)
30.06.2017 16:25 17,9 °C 17,9 °C 60 % 1006,3 hPa 0,0 mm 1,4 km/h (1 Bft) S 172 ° 0 min 0,000 mm 2,0 UV-I 250 W/m² 10,0 °C 17,9 °C 3,2 km/h (1 Bft)
30.06.2017 16:26 17,9 °C 17,9 °C 60 % 1006,2 hPa 0,0 mm 2,9 km/h (1 Bft) S-SO 159 ° 0 min 0,000 mm 1,9 UV-I 237 W/m² 10,0 °C 17,9 °C 4,8 km/h (1 Bft)
30.06.2017 16:27 18,1 °C 18,1 °C 59 % 1006,2 hPa 0,0 mm 1,5 km/h (1 Bft) O-NO 60 ° 0 min 0,000 mm 1,9 UV-I 232 W/m² 10,0 °C 18,1 °C 3,2 km/h (1 Bft)
30.06.2017 16:28 18,1 °C 18,1 °C 59 % 1006,3 hPa 0,0 mm 0,2 km/h (0 Bft) O-NO 60 ° 0 min 0,000 mm 1,9 UV-I 232 W/m² 10,0 °C 18,1 °C 1,6 km/h (1 Bft)
30.06.2017 16:29 18,1 °C 18,1 °C 61 % 1006,2 hPa 0,0 mm 0,0 km/h (0 Bft) O-NO 60 ° 0 min 0,000 mm 1,8 UV-I 229 W/m² 10,5 °C 18,1 °C 0,0 km/h (0 Bft)
30.06.2017 16:30 18,1 °C 18,1 °C 64 % 1006,2 hPa 0,0 mm 0,0 km/h (0 Bft) O-NO 60 ° 0 min 0,000 mm 1,8 UV-I 214 W/m² 11,2 °C 18,1 °C 0,0 km/h (0 Bft)
30.06.2017 16:31 18,0 °C 18,1 °C 65 % 1006,3 hPa 0,0 mm 0,1 km/h (0 Bft) O-NO 60 ° 0 min 0,000 mm 1,7 UV-I 214 W/m² 11,3 °C 18,0 °C 1,6 km/h (1 Bft)
30.06.2017 16:32 17,9 °C 18,0 °C 68 % 1006,4 hPa 0,0 mm 0,0 km/h (0 Bft) O-NO 60 ° 0 min 0,000 mm 1,7 UV-I 211 W/m² 11,9 °C 17,9 °C 0,0 km/h (0 Bft)
30.06.2017 16:33 17,8 °C 17,9 °C 70 % 1006,4 hPa 0,0 mm 0,0 km/h (0 Bft) O-NO 60 ° 0 min 0,000 mm 1,6 UV-I 202 W/m² 12,3 °C 17,8 °C 0,0 km/h (0 Bft)
30.06.2017 16:34 17,8 °C 17,9 °C 68 % 1006,5 hPa 0,0 mm 0,5 km/h (0 Bft) O-NO 60 ° 0 min 0,000 mm 1,6 UV-I 192 W/m² 11,8 °C 17,8 °C 1,6 km/h (1 Bft)
30.06.2017 16:35 17,7 °C 17,8 °C 66 % 1006,6 hPa 0,0 mm 0,0 km/h (0 Bft) O-NO 60 ° 0 min 0,000 mm 1,5 UV-I 179 W/m² 11,3 °C 17,7 °C 0,0 km/h (0 Bft)
30.06.2017 16:36 17,7 °C 17,7 °C 70 % 1006,7 hPa 0,0 mm 0,1 km/h (0 Bft) O-NO 60 ° 0 min 0,000 mm 1,5 UV-I 174 W/m² 12,2 °C 17,7 °C 1,6 km/h (1 Bft)
30.06.2017 16:37 17,6 °C 17,7 °C 67 % 1006,6 hPa 0,0 mm 0,3 km/h (0 Bft) O-NO 60 ° 0 min 0,000 mm 1,4 UV-I 169 W/m² 11,4 °C 17,6 °C 1,6 km/h (1 Bft)
30.06.2017 16:38 17,5 °C 17,6 °C 71 % 1006,6 hPa 0,0 mm 0,0 km/h (0 Bft) O-NO 60 ° 0 min 0,000 mm 1,3 UV-I 163 W/m² 12,2 °C 17,5 °C 0,0 km/h (0 Bft)
30.06.2017 16:39 17,3 °C 17,5 °C 70 % 1006,6 hPa 0,0 mm 0,4 km/h (0 Bft) O-NO 60 ° 0 min 0,000 mm 1,3 UV-I 160 W/m² 11,8 °C 17,3 °C 1,6 km/h (1 Bft)
30.06.2017 16:40 17,2 °C 17,3 °C 73 % 1006,6 hPa 0,0 mm 0,0 km/h (0 Bft) O-NO 60 ° 0 min 0,000 mm 1,3 UV-I 155 W/m² 12,3 °C 17,2 °C 0,0 km/h (0 Bft)
30.06.2017 16:41 17,1 °C 17,2 °C 73 % 1006,6 hPa 0,0 mm 0,0 km/h (0 Bft) O-NO 60 ° 0 min 0,000 mm 1,3 UV-I 151 W/m² 12,2 °C 17,1 °C 0,0 km/h (0 Bft)
30.06.2017 16:42 17,1 °C 17,1 °C 73 % 1006,5 hPa 0,0 mm 0,6 km/h (0 Bft) O-NO 60 ° 0 min 0,000 mm 1,2 UV-I 149 W/m² 12,2 °C 17,1 °C 1,6 km/h (1 Bft)
30.06.2017 16:43 17,1 °C 17,1 °C 77 % 1006,5 hPa 0,0 mm 0,0 km/h (0 Bft) O-NO 60 ° 0 min 0,000 mm 1,2 UV-I 148 W/m² 13,0 °C 17,1 °C 0,0 km/h (0 Bft)
30.06.2017 16:44 17,1 °C 17,1 °C 74 % 1006,5 hPa 0,0 mm 0,0 km/h (0 Bft) O-NO 60 ° 0 min 0,000 mm 1,2 UV-I 146 W/m² 12,4 °C 17,1 °C 0,0 km/h (0 Bft)
30.06.2017 16:45 17,1 °C 17,1 °C 75 % 1006,6 hPa 0,0 mm 0,1 km/h (0 Bft) O-NO 60 ° 0 min 0,000 mm 1,2 UV-I 142 W/m² 12,6 °C 17,1 °C 1,6 km/h (1 Bft)
30.06.2017 16:46 17,1 °C 17,1 °C 77 % 1006,6 hPa 0,0 mm 0,3 km/h (0 Bft) O-NO 60 ° 0 min 0,000 mm 1,1 UV-I 137 W/m² 13,0 °C 17,1 °C 1,6 km/h (1 Bft)
30.06.2017 16:47 17,1 °C 17,1 °C 79 % 1006,6 hPa 0,0 mm 0,6 km/h (0 Bft) O-NO 60 ° 0 min 0,000 mm 1,1 UV-I 134 W/m² 13,4 °C 17,1 °C 1,6 km/h (1 Bft)
30.06.2017 16:48 17,1 °C 17,1 °C 79 % 1006,7 hPa 0,0 mm 0,0 km/h (0 Bft) O-NO 60 ° 0 min 0,000 mm 1,0 UV-I 128 W/m² 13,4 °C 17,1 °C 0,0 km/h (0 Bft)
30.06.2017 16:49 16,9 °C 17,1 °C 76 % 1006,7 hPa 0,0 mm 0,0 km/h (0 Bft) O-NO 60 ° 0 min 0,000 mm 1,0 UV-I 123 W/m² 12,6 °C 16,9 °C 0,0 km/h (0 Bft)
30.06.2017 16:50 16,9 °C 16,9 °C 76 % 1006,7 hPa 0,0 mm 0,3 km/h (0 Bft) O-NO 60 ° 0 min 0,000 mm 1,0 UV-I 120 W/m² 12,6 °C 16,9 °C 1,6 km/h (1 Bft)
30.06.2017 16:51 16,8 °C 16,9 °C 77 % 1006,7 hPa 0,0 mm 1,8 km/h (1 Bft) O-NO 60 ° 0 min 0,000 mm 1,0 UV-I 118 W/m² 12,7 °C 16,8 °C 3,2 km/h (1 Bft)
30.06.2017 16:52 16,8 °C 16,8 °C 76 % 1006,7 hPa 0,0 mm 1,5 km/h (1 Bft) O-NO 60 ° 0 min 0,000 mm 0,9 UV-I 118 W/m² 12,5 °C 16,8 °C 3,2 km/h (1 Bft)
30.06.2017 16:53 16,8 °C 16,8 °C 77 % 1006,7 hPa 0,0 mm 0,0 km/h (0 Bft) O-NO 60 ° 0 min 0,000 mm 0,9 UV-I 113 W/m² 12,7 °C 16,8 °C 0,0 km/h (0 Bft)
30.06.2017 16:54 16,7 °C 16,8 °C 79 % 1006,7 hPa 0,0 mm 0,1 km/h (0 Bft) O-NO 60 ° 0 min 0,000 mm 0,9 UV-I 111 W/m² 13,0 °C 16,7 °C 1,6 km/h (1 Bft)
30.06.2017 16:55 16,7 °C 16,7 °C 77 % 1006,7 hPa 0,0 mm 0,1 km/h (0 Bft) O-NO 60 ° 0 min 0,000 mm 0,8 UV-I 105 W/m² 12,6 °C 16,7 °C 1,6 km/h (1 Bft)
30.06.2017 16:56 16,7 °C 16,7 °C 77 % 1006,7 hPa 0,0 mm 0,0 km/h (0 Bft) O-NO 60 ° 0 min 0,000 mm 0,8 UV-I 102 W/m² 12,6 °C 16,7 °C 0,0 km/h (0 Bft)
30.06.2017 16:57 16,6 °C 16,7 °C 78 % 1006,7 hPa 0,0 mm 0,0 km/h (0 Bft) O-NO 60 ° 0 min 0,000 mm 0,8 UV-I 98 W/m² 12,7 °C 16,6 °C 0,0 km/h (0 Bft)
30.06.2017 16:58 16,5 °C 16,6 °C 79 % 1006,8 hPa 0,0 mm 0,1 km/h (0 Bft) O-NO 60 ° 0 min 0,000 mm 0,8 UV-I 95 W/m² 12,8 °C 16,5 °C 1,6 km/h (1 Bft)
30.06.2017 16:59 16,4 °C 16,5 °C 79 % 1006,9 hPa 0,0 mm 0,0 km/h (0 Bft) O-NO 60 ° 0 min 0,000 mm 0,7 UV-I 91 W/m² 12,7 °C 16,4 °C 0,0 km/h (0 Bft)
30.06.2017 17:00 16,4 °C 16,4 °C 78 % 1006,9 hPa 0,0 mm 0,3 km/h (0 Bft) O-NO 60 ° 0 min 0,000 mm 0,7 UV-I 91 W/m² 12,6 °C 16,4 °C 3,2 km/h (1 Bft)
30.06.2017 17:01 16,3 °C 16,4 °C 80 % 1006,9 hPa 0,0 mm 2,8 km/h (1 Bft) O-NO 67 ° 0 min 0,127 mm 0,7 UV-I 93 W/m² 12,8 °C 16,3 °C 4,8 km/h (1 Bft)
30.06.2017 17:02 16,3 °C 16,3 °C 80 % 1006,9 hPa 0,0 mm 3,9 km/h (1 Bft) O-SO 113 ° 0 min 0,000 mm 0,8 UV-I 95 W/m² 12,8 °C 16,3 °C 4,8 km/h (1 Bft)
30.06.2017 17:03 16,3 °C 16,3 °C 78 % 1007,0 hPa 0,0 mm 2,3 km/h (1 Bft) O-SO 102 ° 0 min 0,000 mm 0,8 UV-I 97 W/m² 12,5 °C 16,3 °C 4,8 km/h (1 Bft)
30.06.2017 17:04 16,3 °C 16,3 °C 79 % 1007,0 hPa 0,0 mm 1,1 km/h (1 Bft) O-SO 102 ° 0 min 0,000 mm 0,8 UV-I 97 W/m² 12,6 °C 16,3 °C 3,2 km/h (1 Bft)
30.06.2017 17:05 16,3 °C 16,3 °C 76 % 1007,0 hPa 0,0 mm 0,5 km/h (0 Bft) O-SO 102 ° 0 min 0,000 mm 0,8 UV-I 91 W/m² 12,1 °C 16,3 °C 1,6 km/h (1 Bft)
30.06.2017 17:06 16,3 °C 16,3 °C 80 % 1007,0 hPa 0,0 mm 0,5 km/h (0 Bft) O 92 ° 0 min 0,000 mm 0,7 UV-I 90 W/m² 12,8 °C 16,3 °C 3,2 km/h (1 Bft)
30.06.2017 17:07 16,3 °C 16,3 °C 81 % 1006,9 hPa 0,0 mm 1,8 km/h (1 Bft) O-NO 67 ° 0 min 0,000 mm 0,7 UV-I 86 W/m² 13,0 °C 16,3 °C 3,2 km/h (1 Bft)
30.06.2017 17:08 16,2 °C 16,3 °C 80 % 1006,9 hPa 0,0 mm 1,4 km/h (1 Bft) NO 38 ° 0 min 0,000 mm 0,7 UV-I 83 W/m² 12,7 °C 16,2 °C 4,8 km/h (1 Bft)
30.06.2017 17:09 16,1 °C 16,2 °C 77 % 1006,8 hPa 0,0 mm 6,3 km/h (2 Bft) O-NO 57 ° 0 min 0,000 mm 0,6 UV-I 74 W/m² 12,1 °C 16,1 °C 9,7 km/h (2 Bft)
30.06.2017 17:10 16,1 °C 16,1 °C 79 % 1006,8 hPa 0,0 mm 1,1 km/h (1 Bft) NO 37 ° 0 min 0,000 mm 0,5 UV-I 63 W/m² 12,5 °C 16,1 °C 3,2 km/h (1 Bft)
30.06.2017 17:11 16,1 °C 16,1 °C 75 % 1006,9 hPa 0,0 mm 2,5 km/h (1 Bft) N 355 ° 0 min 0,000 mm 0,0 UV-I 47 W/m² 11,7 °C 16,1 °C 4,8 km/h (1 Bft)
30.06.2017 17:12 16,1 °C 16,1 °C 77 % 1006,9 hPa 0,0 mm 3,9 km/h (1 Bft) O 91 ° 0 min 0,000 mm 0,0 UV-I 42 W/m² 12,1 °C 16,1 °C 6,4 km/h (2 Bft)
30.06.2017 17:13 16,1 °C 16,1 °C 75 % 1007,0 hPa 0,0 mm 1,4 km/h (1 Bft) SO 144 ° 0 min 0,000 mm 0,0 UV-I 39 W/m² 11,7 °C 16,1 °C 3,2 km/h (1 Bft)
30.06.2017 17:14 15,9 °C 16,1 °C 77 % 1007,0 hPa 0,0 mm 2,6 km/h (1 Bft) O 91 ° 0 min 0,000 mm 0,0 UV-I 37 W/m² 11,9 °C 15,9 °C 4,8 km/h (1 Bft)
30.06.2017 17:15 15,8 °C 15,9 °C 75 % 1007,0 hPa 0,0 mm 0,0 km/h (0 Bft) O 91 ° 0 min 0,000 mm 0,0 UV-I 39 W/m² 11,4 °C 15,8 °C 0,0 km/h (0 Bft)
30.06.2017 17:16 15,7 °C 15,8 °C 76 % 1007,1 hPa 0,0 mm 7,7 km/h (2 Bft) O-NO 78 ° 0 min 0,000 mm 0,0 UV-I 39 W/m² 11,5 °C 15,7 °C 17,7 km/h (3 Bft)
30.06.2017 17:17 15,6 °C 15,7 °C 69 % 1007,0 hPa 0,0 mm 6,6 km/h (2 Bft) N-NW 346 ° 0 min 0,000 mm 0,0 UV-I 42 W/m² 9,9 °C 15,6 °C 14,5 km/h (3 Bft)
30.06.2017 17:18 15,6 °C 15,6 °C 70 % 1007,1 hPa 0,0 mm 13,7 km/h (3 Bft) S-SW 198 ° 0 min 0,000 mm 0,0 UV-I 46 W/m² 10,1 °C 15,6 °C 22,5 km/h (4 Bft)
30.06.2017 17:19 15,6 °C 15,6 °C 70 % 1007,1 hPa 0,0 mm 15,1 km/h (3 Bft) W-SW 254 ° 0 min 0,000 mm 0,0 UV-I 47 W/m² 10,1 °C 15,6 °C 27,4 km/h (4 Bft)
30.06.2017 17:20 15,6 °C 15,6 °C 61 % 1007,1 hPa 0,0 mm 11,2 km/h (2 Bft) W-NW 289 ° 0 min 0,000 mm 0,0 UV-I 51 W/m² 8,1 °C 15,6 °C 22,5 km/h (4 Bft)
30.06.2017 17:21 15,6 °C 15,6 °C 59 % 1007,1 hPa 0,0 mm 8,9 km/h (2 Bft) W-SW 238 ° 0 min 0,000 mm 0,0 UV-I 53 W/m² 7,6 °C 15,6 °C 14,5 km/h (3 Bft)
30.06.2017 17:22 15,5 °C 15,6 °C 56 % 1007,0 hPa 0,0 mm 14,5 km/h (3 Bft) W-SW 243 ° 0 min 0,000 mm 0,0 UV-I 54 W/m² 6,8 °C 15,5 °C 25,7 km/h (4 Bft)
30.06.2017 17:23 15,4 °C 15,5 °C 57 % 1007,1 hPa 0,0 mm 8,8 km/h (2 Bft) W-SW 248 ° 0 min 0,000 mm 0,0 UV-I 58 W/m² 6,9 °C 15,4 °C 19,3 km/h (3 Bft)
30.06.2017 17:24 15,3 °C 15,4 °C 58 % 1007,1 hPa 0,2 mm 9,7 km/h (2 Bft) S 191 ° 0 min 0,000 mm 0,0 UV-I 58 W/m² 7,1 °C 15,3 °C 14,5 km/h (3 Bft)
30.06.2017 17:25 15,1 °C 15,3 °C 57 % 1007,1 hPa 0,0 mm 9,0 km/h (2 Bft) S-SW 193 ° 0 min 0,000 mm 0,0 UV-I 60 W/m² 6,6 °C 15,1 °C 16,1 km/h (3 Bft)
30.06.2017 17:26 14,9 °C 15,1 °C 59 % 1007,0 hPa 0,0 mm 11,2 km/h (2 Bft) S 180 ° 0 min 0,000 mm 0,0 UV-I 62 W/m² 7,0 °C 14,9 °C 19,3 km/h (3 Bft)
30.06.2017 17:27 14,6 °C 14,9 °C 65 % 1007,0 hPa 0,2 mm 10,1 km/h (2 Bft) S-SO 167 ° 0 min 0,000 mm 0,0 UV-I 67 W/m² 8,1 °C 14,6 °C 19,3 km/h (3 Bft)
30.06.2017 17:28 14,1 °C 14,6 °C 70 % 1007,0 hPa 0,0 mm 5,6 km/h (1 Bft) S-SO 155 ° 0 min 0,000 mm 0,5 UV-I 86 W/m² 8,7 °C 14,1 °C 9,7 km/h (2 Bft)
30.06.2017 17:29 13,7 °C 14,1 °C 70 % 1007,0 hPa 0,0 mm 1,8 km/h (1 Bft) S-SW 197 ° 0 min 0,000 mm 0,6 UV-I 100 W/m² 8,3 °C 13,7 °C 4,8 km/h (1 Bft)
30.06.2017 17:30 13,4 °C 13,7 °C 69 % 1006,9 hPa 0,0 mm 1,7 km/h (1 Bft) S-SW 192 ° 0 min 0,000 mm 0,8 UV-I 116 W/m² 7,8 °C 13,4 °C 3,2 km/h (1 Bft)
30.06.2017 17:31 12,9 °C 13,4 °C 76 % 1007,0 hPa 0,0 mm 1,7 km/h (1 Bft) S 191 ° 0 min 0,000 mm 0,9 UV-I 135 W/m² 8,8 °C 12,9 °C 4,8 km/h (1 Bft)
30.06.2017 17:32 12,6 °C 12,9 °C 79 % 1007,0 hPa 0,0 mm 2,8 km/h (1 Bft) S 191 ° 0 min 0,000 mm 1,0 UV-I 151 W/m² 9,1 °C 12,6 °C 4,8 km/h (1 Bft)
30.06.2017 17:33 12,3 °C 12,6 °C 81 % 1006,9 hPa 0,2 mm 4,8 km/h (1 Bft) S-SO 152 ° 0 min 0,000 mm 1,1 UV-I 171 W/m² 9,1 °C 12,3 °C 8,0 km/h (2 Bft)
30.06.2017 17:34 12,1 °C 12,3 °C 83 % 1006,8 hPa 0,0 mm 4,4 km/h (1 Bft) S-SO 153 ° 0 min 0,000 mm 1,2 UV-I 195 W/m² 9,3 °C 12,1 °C 6,4 km/h (2 Bft)
30.06.2017 17:35 12,1 °C 12,1 °C 84 % 1006,8 hPa 0,0 mm 4,8 km/h (1 Bft) S 189 ° 0 min 0,000 mm 1,3 UV-I 202 W/m² 9,5 °C 12,1 °C 9,7 km/h (2 Bft)
30.06.2017 17:36 12,2 °C 12,2 °C 82 % 1006,8 hPa 0,0 mm 6,8 km/h (2 Bft) S 182 ° 0 min 0,000 mm 1,4 UV-I 206 W/m² 9,2 °C 12,2 °C 9,7 km/h (2 Bft)
30.06.2017 17:37 12,3 °C 12,3 °C 82 % 1006,9 hPa 0,0 mm 4,6 km/h (1 Bft) S-SW 196 ° 0 min 0,000 mm 1,4 UV-I 206 W/m² 9,3 °C 12,3 °C 6,4 km/h (2 Bft)
30.06.2017 17:38 12,6 °C 12,6 °C 79 % 1007,0 hPa 0,0 mm 4,8 km/h (1 Bft) W 271 ° 0 min 0,000 mm 1,4 UV-I 207 W/m² 9,1 °C 12,6 °C 6,4 km/h (2 Bft)
30.06.2017 17:39 12,7 °C 12,7 °C 80 % 1007,0 hPa 0,0 mm 4,9 km/h (1 Bft) W 270 ° 0 min 0,000 mm 1,4 UV-I 207 W/m² 9,3 °C 12,7 °C 11,3 km/h (2 Bft)
30.06.2017 17:40 12,9 °C 12,9 °C 77 % 1007,0 hPa 0,0 mm 4,4 km/h (1 Bft) W-SW 237 ° 0 min 0,000 mm 1,4 UV-I 197 W/m² 9,0 °C 12,9 °C 6,4 km/h (2 Bft)
30.06.2017 17:41 13,1 °C 13,1 °C 81 % 1007,1 hPa 0,0 mm 4,4 km/h (1 Bft) W-SW 240 ° 0 min 0,000 mm 1,3 UV-I 188 W/m² 9,9 °C 13,1 °C 9,7 km/h (2 Bft)
30.06.2017 17:42 13,2 °C 13,2 °C 80 % 1007,1 hPa 0,0 mm 4,1 km/h (1 Bft) SW 236 ° 0 min 0,000 mm 1,3 UV-I 174 W/m² 9,8 °C 13,2 °C 6,4 km/h (2 Bft)
30.06.2017 17:43 13,3 °C 13,3 °C 76 % 1007,0 hPa 0,0 mm 3,1 km/h (1 Bft) S 180 ° 0 min 0,000 mm 1,2 UV-I 160 W/m² 9,2 °C 13,3 °C 6,4 km/h (2 Bft)
30.06.2017 17:44 13,4 °C 13,4 °C 79 % 1007,0 hPa 0,0 mm 2,8 km/h (1 Bft) S-SW 201 ° 0 min 0,000 mm 1,1 UV-I 144 W/m² 9,8 °C 13,4 °C 4,8 km/h (1 Bft)
30.06.2017 17:45 13,4 °C 13,4 °C 73 % 1007,0 hPa 0,0 mm 1,6 km/h (1 Bft) SW 222 ° 0 min 0,000 mm 1,0 UV-I 130 W/m² 8,7 °C 13,4 °C 3,2 km/h (1 Bft)
30.06.2017 17:46 13,4 °C 13,4 °C 78 % 1007,1 hPa 0,0 mm 5,2 km/h (1 Bft) W-SW 257 ° 0 min 0,000 mm 1,0 UV-I 113 W/m² 9,6 °C 13,4 °C 11,3 km/h (2 Bft)
30.06.2017 17:47 13,6 °C 13,6 °C 79 % 1007,0 hPa 0,0 mm 3,7 km/h (1 Bft) W-SW 247 ° 0 min 0,000 mm 0,9 UV-I 107 W/m² 10,0 °C 13,6 °C 6,4 km/h (2 Bft)
30.06.2017 17:48 13,6 °C 13,6 °C 79 % 1007,0 hPa 0,0 mm 0,5 km/h (0 Bft) W-SW 247 ° 0 min 0,000 mm 0,9 UV-I 105 W/m² 10,0 °C 13,6 °C 1,6 km/h (1 Bft)
30.06.2017 17:49 13,4 °C 13,6 °C 82 % 1006,9 hPa 0,0 mm 3,3 km/h (1 Bft) W 262 ° 0 min 0,000 mm 0,9 UV-I 105 W/m² 10,4 °C 13,4 °C 6,4 km/h (2 Bft)
30.06.2017 17:50 13,3 °C 13,4 °C 83 % 1006,9 hPa 0,0 mm 3,9 km/h (1 Bft) S-SW 208 ° 0 min 0,000 mm 1,0 UV-I 107 W/m² 10,5 °C 13,3 °C 9,7 km/h (2 Bft)
30.06.2017 17:51 13,2 °C 13,3 °C 85 % 1006,8 hPa 0,0 mm 1,7 km/h (1 Bft) S-SW 210 ° 0 min 0,000 mm 1,0 UV-I 107 W/m² 10,7 °C 13,2 °C 6,4 km/h (2 Bft)
30.06.2017 17:52 13,1 °C 13,2 °C 83 % 1006,7 hPa 0,0 mm 1,5 km/h (1 Bft) W-SW 247 ° 0 min 0,000 mm 1,0 UV-I 104 W/m² 10,3 °C 13,1 °C 3,2 km/h (1 Bft)
30.06.2017 17:53 13,1 °C 13,1 °C 82 % 1006,8 hPa 0,0 mm 2,5 km/h (1 Bft) W 267 ° 0 min 0,000 mm 1,0 UV-I 100 W/m² 10,1 °C 13,1 °C 4,8 km/h (1 Bft)
30.06.2017 17:54 13,1 °C 13,1 °C 78 % 1006,7 hPa 0,0 mm 2,5 km/h (1 Bft) S 188 ° 0 min 0,000 mm 1,0 UV-I 100 W/m² 9,4 °C 13,1 °C 4,8 km/h (1 Bft)
30.06.2017 17:55 13,1 °C 13,1 °C 81 % 1006,7 hPa 0,0 mm 1,2 km/h (1 Bft) S 188 ° 0 min 0,000 mm 1,1 UV-I 104 W/m² 9,9 °C 13,1 °C 3,2 km/h (1 Bft)
30.06.2017 17:56 13,1 °C 13,1 °C 80 % 1006,7 hPa 0,0 mm 0,4 km/h (0 Bft) S-SW 202 ° 0 min 0,000 mm 1,1 UV-I 111 W/m² 9,7 °C 13,1 °C 3,2 km/h (1 Bft)
30.06.2017 17:57 13,2 °C 13,2 °C 79 % 1006,7 hPa 0,0 mm 1,5 km/h (1 Bft) W-SW 240 ° 0 min 0,000 mm 1,1 UV-I 130 W/m² 9,6 °C 13,2 °C 6,4 km/h (2 Bft)
30.06.2017 17:58 13,4 °C 13,4 °C 74 % 1006,8 hPa 0,0 mm 5,8 km/h (2 Bft) W 263 ° 0 min 0,000 mm 1,2 UV-I 132 W/m² 8,9 °C 13,4 °C 8,0 km/h (2 Bft)
30.06.2017 17:59 13,7 °C 13,7 °C 73 % 1006,8 hPa 0,0 mm 4,1 km/h (1 Bft) SW 216 ° 0 min 0,000 mm 1,3 UV-I 137 W/m² 8,9 °C 13,7 °C 8,0 km/h (2 Bft)
30.06.2017 18:00 13,9 °C 13,9 °C 71 % 1006,7 hPa 0,0 mm 3,7 km/h (1 Bft) W 261 ° 0 min 0,000 mm 1,3 UV-I 132 W/m² 8,7 °C 13,9 °C 12,9 km/h (3 Bft)
30.06.2017 18:01 14,2 °C 14,2 °C 72 % 1006,8 hPa 0,0 mm 4,3 km/h (1 Bft) SW 232 ° 0 min 0,076 mm 1,3 UV-I 123 W/m² 9,2 °C 14,2 °C 8,0 km/h (2 Bft)
30.06.2017 18:02 14,4 °C 14,4 °C 70 % 1006,8 hPa 0,0 mm 5,9 km/h (2 Bft) S 173 ° 0 min 0,000 mm 1,2 UV-I 109 W/m² 9,0 °C 14,4 °C 11,3 km/h (2 Bft)
30.06.2017 18:03 14,7 °C 14,7 °C 69 % 1006,7 hPa 0,0 mm 5,5 km/h (1 Bft) S 182 ° 0 min 0,000 mm 1,2 UV-I 95 W/m² 9,1 °C 14,7 °C 6,4 km/h (2 Bft)
30.06.2017 18:04 14,8 °C 14,8 °C 66 % 1006,7 hPa 0,0 mm 6,2 km/h (2 Bft) S-SW 200 ° 0 min 0,000 mm 1,2 UV-I 91 W/m² 8,5 °C 14,8 °C 12,9 km/h (3 Bft)
30.06.2017 18:05 14,9 °C 14,9 °C 66 % 1006,6 hPa 0,0 mm 3,8 km/h (1 Bft) S 170 ° 0 min 0,000 mm 1,2 UV-I 90 W/m² 8,6 °C 14,9 °C 6,4 km/h (2 Bft)
30.06.2017 18:06 15,0 °C 15,0 °C 65 % 1006,6 hPa 0,0 mm 7,1 km/h (2 Bft) S 179 ° 0 min 0,000 mm 1,2 UV-I 86 W/m² 8,5 °C 15,0 °C 11,3 km/h (2 Bft)
30.06.2017 18:07 15,1 °C 15,1 °C 65 % 1006,5 hPa 0,0 mm 7,4 km/h (2 Bft) S-SO 159 ° 0 min 0,000 mm 1,1 UV-I 83 W/m² 8,6 °C 15,1 °C 9,7 km/h (2 Bft)
30.06.2017 18:08 15,2 °C 15,2 °C 68 % 1006,5 hPa 0,0 mm 6,6 km/h (2 Bft) S-SW 196 ° 0 min 0,000 mm 1,1 UV-I 83 W/m² 9,3 °C 15,2 °C 9,7 km/h (2 Bft)
30.06.2017 18:09 15,2 °C 15,2 °C 71 % 1006,6 hPa 0,0 mm 4,7 km/h (1 Bft) S-SO 164 ° 0 min 0,000 mm 1,1 UV-I 81 W/m² 10,0 °C 15,2 °C 6,4 km/h (2 Bft)
30.06.2017 18:10 15,0 °C 15,2 °C 72 % 1006,5 hPa 0,0 mm 2,7 km/h (1 Bft) S-SO 164 ° 0 min 0,000 mm 1,1 UV-I 81 W/m² 10,0 °C 15,0 °C 6,4 km/h (2 Bft)
30.06.2017 18:11 14,9 °C 15,0 °C 71 % 1006,4 hPa 0,0 mm 1,5 km/h (1 Bft) S-SO 164 ° 0 min 0,000 mm 1,1 UV-I 79 W/m² 9,7 °C 14,9 °C 3,2 km/h (1 Bft)
30.06.2017 18:12 14,9 °C 14,9 °C 68 % 1006,4 hPa 0,0 mm 4,4 km/h (1 Bft) S-SO 165 ° 0 min 0,000 mm 1,1 UV-I 77 W/m² 9,0 °C 14,9 °C 8,0 km/h (2 Bft)
30.06.2017 18:13 15,0 °C 15,0 °C 65 % 1006,4 hPa 0,0 mm 2,0 km/h (1 Bft) S-SO 165 ° 0 min 0,000 mm 1,0 UV-I 74 W/m² 8,5 °C 15,0 °C 3,2 km/h (1 Bft)
30.06.2017 18:14 15,0 °C 15,0 °C 68 % 1006,4 hPa 0,0 mm 2,4 km/h (1 Bft) S-SO 167 ° 0 min 0,000 mm 1,0 UV-I 74 W/m² 9,1 °C 15,0 °C 4,8 km/h (1 Bft)
30.06.2017 18:15 15,1 °C 15,1 °C 68 % 1006,4 hPa 0,0 mm 3,2 km/h (1 Bft) S 179 ° 0 min 0,000 mm 1,0 UV-I 72 W/m² 9,2 °C 15,1 °C 8,0 km/h (2 Bft)
30.06.2017 18:16 15,0 °C 15,1 °C 75 % 1006,4 hPa 0,0 mm 4,1 km/h (1 Bft) S 188 ° 0 min 0,000 mm 1,0 UV-I 70 W/m² 10,6 °C 15,0 °C 6,4 km/h (2 Bft)
30.06.2017 18:17 14,8 °C 15,0 °C 73 % 1006,4 hPa 0,0 mm 2,7 km/h (1 Bft) S 188 ° 0 min 0,000 mm 1,0 UV-I 69 W/m² 10,0 °C 14,8 °C 6,4 km/h (2 Bft)
30.06.2017 18:18 14,7 °C 14,8 °C 76 % 1006,3 hPa 0,0 mm 0,8 km/h (0 Bft) S 188 ° 0 min 0,000 mm 1,0 UV-I 67 W/m² 10,5 °C 14,7 °C 1,6 km/h (1 Bft)
30.06.2017 18:19 14,6 °C 14,7 °C 74 % 1006,4 hPa 0,0 mm 0,0 km/h (0 Bft) S 188 ° 0 min 0,000 mm 1,0 UV-I 67 W/m² 10,0 °C 14,6 °C 0,0 km/h (0 Bft)
30.06.2017 18:20 14,4 °C 14,6 °C 74 % 1006,4 hPa 0,0 mm 0,3 km/h (0 Bft) S 188 ° 0 min 0,000 mm 0,9 UV-I 65 W/m² 9,8 °C 14,4 °C 1,6 km/h (1 Bft)
30.06.2017 18:21 14,3 °C 14,4 °C 78 % 1006,4 hPa 0,0 mm 1,4 km/h (1 Bft) S 188 ° 0 min 0,000 mm 0,9 UV-I 62 W/m² 10,5 °C 14,3 °C 4,8 km/h (1 Bft)
30.06.2017 18:22 14,2 °C 14,3 °C 77 % 1006,4 hPa 0,0 mm 2,3 km/h (1 Bft) S 188 ° 0 min 0,000 mm 0,9 UV-I 60 W/m² 10,2 °C 14,2 °C 3,2 km/h (1 Bft)
30.06.2017 18:23 14,1 °C 14,2 °C 78 % 1006,4 hPa 0,0 mm 3,2 km/h (1 Bft) S 187 ° 0 min 0,000 mm 0,9 UV-I 60 W/m² 10,3 °C 14,1 °C 4,8 km/h (1 Bft)
30.06.2017 18:24 14,0 °C 14,1 °C 78 % 1006,4 hPa 0,0 mm 2,3 km/h (1 Bft) S 187 ° 0 min 0,000 mm 0,9 UV-I 58 W/m² 10,2 °C 14,0 °C 3,2 km/h (1 Bft)
30.06.2017 18:25 13,9 °C 14,0 °C 75 % 1006,4 hPa 0,0 mm 2,7 km/h (1 Bft) S 186 ° 0 min 0,000 mm 0,9 UV-I 56 W/m² 9,5 °C 13,9 °C 3,2 km/h (1 Bft)
30.06.2017 18:26 13,8 °C 13,9 °C 76 % 1006,4 hPa 0,0 mm 3,0 km/h (1 Bft) S-SO 147 ° 0 min 0,000 mm 0,9 UV-I 56 W/m² 9,6 °C 13,8 °C 4,8 km/h (1 Bft)
30.06.2017 18:27 13,8 °C 13,9 °C 78 % 1006,5 hPa 0,0 mm 0,7 km/h (0 Bft) S-SO 147 ° 0 min 0,000 mm 0,0 UV-I 54 W/m² 10,0 °C 13,8 °C 1,6 km/h (1 Bft)
30.06.2017 18:28 13,7 °C 13,8 °C 80 % 1006,5 hPa 0,0 mm 0,3 km/h (0 Bft) S-SO 147 ° 0 min 0,000 mm 0,0 UV-I 54 W/m² 10,3 °C 13,7 °C 1,6 km/h (1 Bft)
30.06.2017 18:29 13,6 °C 13,7 °C 79 % 1006,4 hPa 0,0 mm 0,4 km/h (0 Bft) S-SO 147 ° 0 min 0,000 mm 0,0 UV-I 54 W/m² 10,0 °C 13,6 °C 1,6 km/h (1 Bft)
30.06.2017 18:30 13,6 °C 13,6 °C 77 % 1006,4 hPa 0,0 mm 1,3 km/h (1 Bft) S-SO 147 ° 0 min 0,000 mm 0,8 UV-I 56 W/m² 9,6 °C 13,6 °C 3,2 km/h (1 Bft)
30.06.2017 18:31 13,4 °C 13,6 °C 77 % 1006,4 hPa 0,0 mm 0,8 km/h (0 Bft) S-SO 147 ° 0 min 0,000 mm 0,8 UV-I 56 W/m² 9,5 °C 13,4 °C 1,6 km/h (1 Bft)
30.06.2017 18:32 13,4 °C 13,5 °C 79 % 1006,4 hPa 0,0 mm 0,3 km/h (0 Bft) S-SO 147 ° 0 min 0,000 mm 0,8 UV-I 56 W/m² 9,8 °C 13,4 °C 1,6 km/h (1 Bft)
30.06.2017 18:33 13,4 °C 13,5 °C 80 % 1006,4 hPa 0,0 mm 0,4 km/h (0 Bft) S-SO 147 ° 0 min 0,000 mm 0,8 UV-I 56 W/m² 10,0 °C 13,4 °C 1,6 km/h (1 Bft)
30.06.2017 18:34 13,4 °C 13,4 °C 81 % 1006,4 hPa 0,0 mm 0,7 km/h (0 Bft) S-SO 147 ° 0 min 0,000 mm 0,8 UV-I 56 W/m² 10,2 °C 13,4 °C 1,6 km/h (1 Bft)
30.06.2017 18:35 13,3 °C 13,4 °C 82 % 1006,4 hPa 0,0 mm 0,6 km/h (0 Bft) S-SO 147 ° 0 min 0,000 mm 0,8 UV-I 58 W/m² 10,3 °C 13,3 °C 3,2 km/h (1 Bft)
30.06.2017 18:36 13,3 °C 13,4 °C 83 % 1006,4 hPa 0,0 mm 1,6 km/h (1 Bft) S-SO 147 ° 0 min 0,000 mm 0,8 UV-I 58 W/m² 10,5 °C 13,3 °C 3,2 km/h (1 Bft)
30.06.2017 18:37 13,3 °C 13,3 °C 81 % 1006,3 hPa 0,0 mm 1,4 km/h (1 Bft) S-SO 147 ° 0 min 0,000 mm 0,8 UV-I 58 W/m² 10,1 °C 13,3 °C 1,6 km/h (1 Bft)
30.06.2017 18:38 13,3 °C 13,3 °C 83 % 1006,3 hPa 0,0 mm 1,9 km/h (1 Bft) S-SO 147 ° 0 min 0,000 mm 0,7 UV-I 58 W/m² 10,5 °C 13,3 °C 3,2 km/h (1 Bft)
30.06.2017 18:39 13,3 °C 13,3 °C 85 % 1006,3 hPa 0,0 mm 0,4 km/h (0 Bft) S-SO 147 ° 0 min 0,000 mm 0,7 UV-I 60 W/m² 10,8 °C 13,3 °C 1,6 km/h (1 Bft)
30.06.2017 18:40 13,2 °C 13,3 °C 85 % 1006,3 hPa 0,0 mm 0,0 km/h (0 Bft) S-SO 147 ° 0 min 0,000 mm 0,7 UV-I 60 W/m² 10,7 °C 13,2 °C 0,0 km/h (0 Bft)
30.06.2017 18:41 13,2 °C 13,2 °C 85 % 1006,3 hPa 0,0 mm 0,0 km/h (0 Bft) S-SO 147 ° 0 min 0,000 mm 0,7 UV-I 60 W/m² 10,7 °C 13,2 °C 0,0 km/h (0 Bft)
30.06.2017 18:42 13,2 °C 13,2 °C 82 % 1006,4 hPa 0,0 mm 0,0 km/h (0 Bft) S-SO 147 ° 0 min 0,000 mm 0,7 UV-I 60 W/m² 10,2 °C 13,2 °C 0,0 km/h (0 Bft)
30.06.2017 18:43 13,2 °C 13,2 °C 80 % 1006,4 hPa 0,0 mm 0,0 km/h (0 Bft) S-SO 147 ° 0 min 0,000 mm 0,7 UV-I 60 W/m² 9,8 °C 13,2 °C 0,0 km/h (0 Bft)
30.06.2017 18:44 13,3 °C 13,3 °C 83 % 1006,4 hPa 0,0 mm 0,0 km/h (0 Bft) S-SO 147 ° 0 min 0,000 mm 0,7 UV-I 58 W/m² 10,5 °C 13,3 °C 0,0 km/h (0 Bft)
30.06.2017 18:45 13,3 °C 13,3 °C 82 % 1006,4 hPa 0,0 mm 1,9 km/h (1 Bft) S-SO 147 ° 0 min 0,000 mm 0,7 UV-I 56 W/m² 10,3 °C 13,3 °C 3,2 km/h (1 Bft)
30.06.2017 18:46 13,3 °C 13,3 °C 83 % 1006,4 hPa 0,0 mm 0,9 km/h (0 Bft) S-SO 147 ° 0 min 0,000 mm 0,7 UV-I 56 W/m² 10,5 °C 13,3 °C 1,6 km/h (1 Bft)
30.06.2017 18:47 13,3 °C 13,3 °C 84 % 1006,4 hPa 0,0 mm 0,3 km/h (0 Bft) S-SO 147 ° 0 min 0,000 mm 0,0 UV-I 54 W/m² 10,7 °C 13,3 °C 1,6 km/h (1 Bft)
30.06.2017 18:48 13,3 °C 13,3 °C 84 % 1006,4 hPa 0,0 mm 0,0 km/h (0 Bft) S-SO 147 ° 0 min 0,000 mm 0,0 UV-I 53 W/m² 10,7 °C 13,3 °C 0,0 km/h (0 Bft)
30.06.2017 18:49 13,3 °C 13,3 °C 86 % 1006,4 hPa 0,0 mm 0,0 km/h (0 Bft) S-SO 147 ° 0 min 0,000 mm 0,0 UV-I 53 W/m² 11,0 °C 13,3 °C 0,0 km/h (0 Bft)
30.06.2017 18:50 13,3 °C 13,3 °C 86 % 1006,4 hPa 0,0 mm 0,0 km/h (0 Bft) S-SO 147 ° 0 min 0,000 mm 0,0 UV-I 51 W/m² 11,0 °C 13,3 °C 0,0 km/h (0 Bft)
30.06.2017 18:51 13,2 °C 13,3 °C 85 % 1006,4 hPa 0,0 mm 0,0 km/h (0 Bft) S-SO 147 ° 0 min 0,000 mm 0,0 UV-I 51 W/m² 10,7 °C 13,2 °C 0,0 km/h (0 Bft)
30.06.2017 18:52 13,2 °C 13,2 °C 83 % 1006,4 hPa 0,0 mm 0,0 km/h (0 Bft) S-SO 147 ° 0 min 0,000 mm 0,0 UV-I 51 W/m² 10,4 °C 13,2 °C 0,0 km/h (0 Bft)
30.06.2017 18:53 13,2 °C 13,2 °C 83 % 1006,4 hPa 0,0 mm 0,0 km/h (0 Bft) S-SO 147 ° 0 min 0,000 mm 0,0 UV-I 53 W/m² 10,4 °C 13,2 °C 0,0 km/h (0 Bft)
30.06.2017 18:54 13,2 °C 13,2 °C 85 % 1006,4 hPa 0,0 mm 0,0 km/h (0 Bft) S-SO 147 ° 0 min 0,000 mm 0,0 UV-I 53 W/m² 10,7 °C 13,2 °C 0,0 km/h (0 Bft)
30.06.2017 18:55 13,2 °C 13,2 °C 83 % 1006,5 hPa 0,0 mm 1,7 km/h (1 Bft) SW 234 ° 0 min 0,000 mm 0,0 UV-I 54 W/m² 10,4 °C 13,2 °C 4,8 km/h (1 Bft)
30.06.2017 18:56 13,3 °C 13,3 °C 83 % 1006,4 hPa 0,0 mm 2,4 km/h (1 Bft) SW 236 ° 0 min 0,000 mm 0,0 UV-I 56 W/m² 10,5 °C 13,3 °C 4,8 km/h (1 Bft)
30.06.2017 18:57 13,4 °C 13,4 °C 82 % 1006,4 hPa 0,0 mm 2,5 km/h (1 Bft) SW 236 ° 0 min 0,000 mm 0,6 UV-I 56 W/m² 10,4 °C 13,4 °C 4,8 km/h (1 Bft)
30.06.2017 18:58 13,4 °C 13,5 °C 83 % 1006,5 hPa 0,0 mm 3,6 km/h (1 Bft) W-SW 249 ° 0 min 0,000 mm 0,6 UV-I 56 W/m² 10,6 °C 13,4 °C 6,4 km/h (2 Bft)
30.06.2017 18:59 13,5 °C 13,5 °C 82 % 1006,4 hPa 0,0 mm 3,9 km/h (1 Bft) W 273 ° 0 min 0,000 mm 0,6 UV-I 58 W/m² 10,5 °C 13,5 °C 6,4 km/h (2 Bft)
30.06.2017 19:00 13,5 °C 13,5 °C 80 % 1006,4 hPa 0,0 mm 5,0 km/h (1 Bft) W-SW 258 ° 0 min 0,000 mm 0,6 UV-I 58 W/m² 10,1 °C 13,5 °C 6,4 km/h (2 Bft)
30.06.2017 19:01 13,5 °C 13,6 °C 79 % 1006,4 hPa 0,0 mm 2,5 km/h (1 Bft) W-SW 257 ° 0 min 0,051 mm 0,6 UV-I 58 W/m² 9,9 °C 13,5 °C 4,8 km/h (1 Bft)
30.06.2017 19:02 13,6 °C 13,6 °C 77 % 1006,4 hPa 0,0 mm 1,9 km/h (1 Bft) W-SW 241 ° 0 min 0,000 mm 0,6 UV-I 58 W/m² 9,6 °C 13,6 °C 3,2 km/h (1 Bft)
30.06.2017 19:03 13,7 °C 13,7 °C 76 % 1006,4 hPa 0,0 mm 4,7 km/h (1 Bft) S-SW 193 ° 0 min 0,000 mm 0,6 UV-I 58 W/m² 9,5 °C 13,7 °C 9,7 km/h (2 Bft)
30.06.2017 19:04 13,8 °C 13,8 °C 74 % 1006,4 hPa 0,0 mm 3,4 km/h (1 Bft) S-SW 198 ° 0 min 0,000 mm 0,6 UV-I 58 W/m² 9,2 °C 13,8 °C 6,4 km/h (2 Bft)
30.06.2017 19:05 13,8 °C 13,8 °C 75 % 1006,4 hPa 0,0 mm 2,5 km/h (1 Bft) S-SW 194 ° 0 min 0,000 mm 0,6 UV-I 58 W/m² 9,4 °C 13,8 °C 4,8 km/h (1 Bft)
30.06.2017 19:06 13,9 °C 13,9 °C 74 % 1006,4 hPa 0,0 mm 4,1 km/h (1 Bft) S-SW 192 ° 0 min 0,000 mm 0,5 UV-I 58 W/m² 9,3 °C 13,9 °C 8,0 km/h (2 Bft)
30.06.2017 19:07 13,9 °C 13,9 °C 75 % 1006,4 hPa 0,0 mm 0,7 km/h (0 Bft) S-SW 192 ° 0 min 0,000 mm 0,5 UV-I 58 W/m² 9,5 °C 13,9 °C 3,2 km/h (1 Bft)
30.06.2017 19:08 14,0 °C 14,0 °C 74 % 1006,4 hPa 0,0 mm 0,4 km/h (0 Bft) S-SW 192 ° 0 min 0,000 mm 0,5 UV-I 58 W/m² 9,4 °C 14,0 °C 1,6 km/h (1 Bft)
30.06.2017 19:09 14,0 °C 14,0 °C 74 % 1006,4 hPa 0,0 mm 2,7 km/h (1 Bft) S-SW 198 ° 0 min 0,000 mm 0,5 UV-I 58 W/m² 9,4 °C 14,0 °C 6,4 km/h (2 Bft)
30.06.2017 19:10 14,0 °C 14,1 °C 74 % 1006,4 hPa 0,0 mm 0,7 km/h (0 Bft) S-SW 198 ° 0 min 0,000 mm 0,5 UV-I 56 W/m² 9,4 °C 14,0 °C 3,2 km/h (1 Bft)
30.06.2017 19:11 13,9 °C 14,0 °C 77 % 1006,4 hPa 0,0 mm 0,0 km/h (0 Bft) S-SW 198 ° 0 min 0,000 mm 0,5 UV-I 56 W/m² 9,9 °C 13,9 °C 0,0 km/h (0 Bft)
30.06.2017 19:12 13,8 °C 13,9 °C 74 % 1006,4 hPa 0,0 mm 2,0 km/h (1 Bft) S 175 ° 0 min 0,000 mm 0,5 UV-I 56 W/m² 9,2 °C 13,8 °C 4,8 km/h (1 Bft)
30.06.2017 19:13 13,9 °C 13,9 °C 73 % 1006,4 hPa 0,0 mm 0,3 km/h (0 Bft) S 175 ° 0 min 0,000 mm 0,5 UV-I 56 W/m² 9,1 °C 13,9 °C 1,6 km/h (1 Bft)
30.06.2017 19:14 13,9 °C 13,9 °C 76 % 1006,4 hPa 0,0 mm 2,1 km/h (1 Bft) SW 215 ° 0 min 0,000 mm 0,0 UV-I 54 W/m² 9,7 °C 13,9 °C 4,8 km/h (1 Bft)
30.06.2017 19:15 13,9 °C 13,9 °C 74 % 1006,4 hPa 0,0 mm 2,4 km/h (1 Bft) S-SW 211 ° 0 min 0,000 mm 0,0 UV-I 53 W/m² 9,3 °C 13,9 °C 4,8 km/h (1 Bft)
30.06.2017 19:16 13,9 °C 13,9 °C 75 % 1006,5 hPa 0,0 mm 1,9 km/h (1 Bft) S-SW 211 ° 0 min 0,000 mm 0,0 UV-I 51 W/m² 9,5 °C 13,9 °C 3,2 km/h (1 Bft)
30.06.2017 19:17 13,9 °C 13,9 °C 75 % 1006,6 hPa 0,0 mm 2,3 km/h (1 Bft) S-SW 201 ° 0 min 0,000 mm 0,0 UV-I 51 W/m² 9,5 °C 13,9 °C 3,2 km/h (1 Bft)
30.06.2017 19:18 13,9 °C 13,9 °C 73 % 1006,6 hPa 0,0 mm 0,6 km/h (0 Bft) S-SW 201 ° 0 min 0,000 mm 0,0 UV-I 49 W/m² 9,1 °C 13,9 °C 3,2 km/h (1 Bft)
30.06.2017 19:19 13,9 °C 13,9 °C 74 % 1006,6 hPa 0,0 mm 1,9 km/h (1 Bft) S-SW 201 ° 0 min 0,000 mm 0,0 UV-I 47 W/m² 9,3 °C 13,9 °C 3,2 km/h (1 Bft)
30.06.2017 19:20 14,0 °C 14,0 °C 74 % 1006,6 hPa 0,0 mm 2,5 km/h (1 Bft) S-SW 201 ° 0 min 0,000 mm 0,0 UV-I 44 W/m² 9,4 °C 14,0 °C 4,8 km/h (1 Bft)
30.06.2017 19:21 14,0 °C 14,0 °C 73 % 1006,7 hPa 0,0 mm 0,3 km/h (0 Bft) S-SW 201 ° 0 min 0,000 mm 0,0 UV-I 44 W/m² 9,2 °C 14,0 °C 3,2 km/h (1 Bft)
30.06.2017 19:22 14,1 °C 14,1 °C 73 % 1006,7 hPa 0,0 mm 2,9 km/h (1 Bft) SW 214 ° 0 min 0,000 mm 0,0 UV-I 42 W/m² 9,3 °C 14,1 °C 8,0 km/h (2 Bft)
30.06.2017 19:23 14,1 °C 14,1 °C 76 % 1006,8 hPa 0,0 mm 1,9 km/h (1 Bft) SW 214 ° 0 min 0,000 mm 0,0 UV-I 40 W/m² 9,9 °C 14,1 °C 3,2 km/h (1 Bft)
30.06.2017 19:24 13,9 °C 14,1 °C 78 % 1006,7 hPa 0,0 mm 0,0 km/h (0 Bft) SW 214 ° 0 min 0,000 mm 0,0 UV-I 40 W/m² 10,1 °C 13,9 °C 0,0 km/h (0 Bft)
30.06.2017 19:25 13,8 °C 13,9 °C 77 % 1006,7 hPa 0,0 mm 1,7 km/h (1 Bft) SW 214 ° 0 min 0,000 mm 0,0 UV-I 39 W/m² 9,8 °C 13,8 °C 3,2 km/h (1 Bft)
30.06.2017 19:26 13,7 °C 13,8 °C 75 % 1006,7 hPa 0,0 mm 0,0 km/h (0 Bft) SW 214 ° 0 min 0,000 mm 0,0 UV-I 37 W/m² 9,3 °C 13,7 °C 0,0 km/h (0 Bft)
30.06.2017 19:27 13,7 °C 13,8 °C 77 % 1006,7 hPa 0,0 mm 0,9 km/h (0 Bft) SW 214 ° 0 min 0,000 mm 0,0 UV-I 35 W/m² 9,7 °C 13,7 °C 3,2 km/h (1 Bft)
30.06.2017 19:28 13,7 °C 13,7 °C 81 % 1006,7 hPa 0,0 mm 0,8 km/h (0 Bft) SW 214 ° 0 min 0,000 mm 0,0 UV-I 35 W/m² 10,5 °C 13,7 °C 1,6 km/h (1 Bft)
30.06.2017 19:29 13,6 °C 13,7 °C 80 % 1006,7 hPa 0,0 mm 1,1 km/h (1 Bft) SW 214 ° 0 min 0,000 mm 0,0 UV-I 35 W/m² 10,2 °C 13,6 °C 3,2 km/h (1 Bft)
30.06.2017 19:30 13,5 °C 13,6 °C 79 % 1006,8 hPa 0,0 mm 0,1 km/h (0 Bft) SW 214 ° 0 min 0,000 mm 0,0 UV-I 33 W/m² 9,9 °C 13,5 °C 1,6 km/h (1 Bft)
30.06.2017 19:31 13,5 °C 13,5 °C 79 % 1006,8 hPa 0,0 mm 0,0 km/h (0 Bft) SW 214 ° 0 min 0,000 mm 0,0 UV-I 33 W/m² 9,9 °C 13,5 °C 0,0 km/h (0 Bft)
30.06.2017 19:32 13,4 °C 13,5 °C 80 % 1006,8 hPa 0,0 mm 1,1 km/h (1 Bft) SW 227 ° 0 min 0,000 mm 0,0 UV-I 33 W/m² 10,0 °C 13,4 °C 3,2 km/h (1 Bft)
30.06.2017 19:33 13,4 °C 13,5 °C 78 % 1006,8 hPa 0,0 mm 0,1 km/h (0 Bft) SW 227 ° 0 min 0,000 mm 0,0 UV-I 35 W/m² 9,6 °C 13,4 °C 1,6 km/h (1 Bft)
30.06.2017 19:34 13,5 °C 13,5 °C 78 % 1006,9 hPa 0,0 mm 0,0 km/h (0 Bft) SW 227 ° 0 min 0,000 mm 0,0 UV-I 33 W/m² 9,7 °C 13,5 °C 0,0 km/h (0 Bft)
30.06.2017 19:35 13,5 °C 13,5 °C 78 % 1006,9 hPa 0,0 mm 0,0 km/h (0 Bft) SW 227 ° 0 min 0,000 mm 0,0 UV-I 33 W/m² 9,7 °C 13,5 °C 0,0 km/h (0 Bft)
30.06.2017 19:36 13,4 °C 13,5 °C 82 % 1006,8 hPa 0,0 mm 0,0 km/h (0 Bft) SW 227 ° 0 min 0,000 mm 0,0 UV-I 33 W/m² 10,4 °C 13,4 °C 0,0 km/h (0 Bft)
30.06.2017 19:37 13,4 °C 13,4 °C 82 % 1006,9 hPa 0,0 mm 0,0 km/h (0 Bft) SW 227 ° 0 min 0,000 mm 0,0 UV-I 32 W/m² 10,4 °C 13,4 °C 0,0 km/h (0 Bft)
30.06.2017 19:38 13,3 °C 13,4 °C 83 % 1006,9 hPa 0,0 mm 0,1 km/h (0 Bft) SW 227 ° 0 min 0,000 mm 0,0 UV-I 32 W/m² 10,5 °C 13,3 °C 1,6 km/h (1 Bft)
30.06.2017 19:39 13,2 °C 13,3 °C 82 % 1006,9 hPa 0,0 mm 0,1 km/h (0 Bft) SW 227 ° 0 min 0,000 mm 0,0 UV-I 32 W/m² 10,2 °C 13,2 °C 1,6 km/h (1 Bft)
30.06.2017 19:40 13,2 °C 13,2 °C 81 % 1006,9 hPa 0,0 mm 1,2 km/h (1 Bft) SW 227 ° 0 min 0,000 mm 0,0 UV-I 32 W/m² 10,0 °C 13,2 °C 3,2 km/h (1 Bft)
30.06.2017 19:41 13,2 °C 13,2 °C 84 % 1006,9 hPa 0,0 mm 0,5 km/h (0 Bft) SW 227 ° 0 min 0,000 mm 0,0 UV-I 32 W/m² 10,6 °C 13,2 °C 1,6 km/h (1 Bft)
30.06.2017 19:42 13,1 °C 13,2 °C 85 % 1007,0 hPa 0,0 mm 0,9 km/h (0 Bft) SW 227 ° 0 min 0,000 mm 0,0 UV-I 32 W/m² 10,6 °C 13,1 °C 1,6 km/h (1 Bft)
30.06.2017 19:43 13,1 °C 13,1 °C 85 % 1007,0 hPa 0,0 mm 1,0 km/h (0 Bft) SW 227 ° 0 min 0,000 mm 0,0 UV-I 32 W/m² 10,6 °C 13,1 °C 3,2 km/h (1 Bft)
30.06.2017 19:44 13,1 °C 13,1 °C 86 % 1007,0 hPa 0,0 mm 0,0 km/h (0 Bft) SW 227 ° 0 min 0,000 mm 0,0 UV-I 30 W/m² 10,8 °C 13,1 °C 0,0 km/h (0 Bft)
30.06.2017 19:45 13,0 °C 13,1 °C 84 % 1007,0 hPa 0,0 mm 0,8 km/h (0 Bft) SW 227 ° 0 min 0,000 mm 0,0 UV-I 30 W/m² 10,4 °C 13,0 °C 3,2 km/h (1 Bft)
30.06.2017 19:46 13,0 °C 13,1 °C 84 % 1007,0 hPa 0,0 mm 1,4 km/h (1 Bft) SW 227 ° 0 min 0,000 mm 0,0 UV-I 30 W/m² 10,4 °C 13,0 °C 3,2 km/h (1 Bft)
30.06.2017 19:47 13,0 °C 13,0 °C 83 % 1007,0 hPa 0,0 mm 0,5 km/h (0 Bft) SW 227 ° 0 min 0,000 mm 0,0 UV-I 30 W/m² 10,2 °C 13,0 °C 3,2 km/h (1 Bft)
30.06.2017 19:48 13,0 °C 13,0 °C 84 % 1007,0 hPa 0,0 mm 0,0 km/h (0 Bft) SW 227 ° 0 min 0,000 mm 0,0 UV-I 32 W/m² 10,4 °C 13,0 °C 0,0 km/h (0 Bft)
30.06.2017 19:49 13,0 °C 13,0 °C 82 % 1007,0 hPa 0,0 mm 0,1 km/h (0 Bft) SW 227 ° 0 min 0,000 mm 0,0 UV-I 32 W/m² 10,0 °C 13,0 °C 1,6 km/h (1 Bft)
30.06.2017 19:50 13,1 °C 13,1 °C 82 % 1007,0 hPa 0,0 mm 0,8 km/h (0 Bft) SW 227 ° 0 min 0,000 mm 0,0 UV-I 32 W/m² 10,1 °C 13,1 °C 3,2 km/h (1 Bft)
30.06.2017 19:51 13,1 °C 13,1 °C 84 % 1007,0 hPa 0,0 mm 0,3 km/h (0 Bft) SW 227 ° 0 min 0,000 mm 0,0 UV-I 32 W/m² 10,5 °C 13,1 °C 1,6 km/h (1 Bft)
30.06.2017 19:52 13,1 °C 13,1 °C 84 % 1007,0 hPa 0,0 mm 0,1 km/h (0 Bft) SW 227 ° 0 min 0,000 mm 0,0 UV-I 32 W/m² 10,5 °C 13,1 °C 1,6 km/h (1 Bft)
30.06.2017 19:53 13,1 °C 13,1 °C 80 % 1007,0 hPa 0,0 mm 0,1 km/h (0 Bft) SW 227 ° 0 min 0,000 mm 0,0 UV-I 32 W/m² 9,7 °C 13,1 °C 1,6 km/h (1 Bft)
30.06.2017 19:54 13,1 °C 13,1 °C 83 % 1007,0 hPa 0,0 mm 0,3 km/h (0 Bft) SW 227 ° 0 min 0,000 mm 0,0 UV-I 32 W/m² 10,3 °C 13,1 °C 1,6 km/h (1 Bft)
30.06.2017 19:55 13,1 °C 13,1 °C 85 % 1007,0 hPa 0,0 mm 1,9 km/h (1 Bft) SW 227 ° 0 min 0,000 mm 0,0 UV-I 32 W/m² 10,6 °C 13,1 °C 3,2 km/h (1 Bft)
30.06.2017 19:56 13,1 °C 13,1 °C 84 % 1007,0 hPa 0,0 mm 0,1 km/h (0 Bft) SW 227 ° 0 min 0,000 mm 0,0 UV-I 32 W/m² 10,5 °C 13,1 °C 1,6 km/h (1 Bft)
30.06.2017 19:57 13,1 °C 13,1 °C 85 % 1007,0 hPa 0,0 mm 0,0 km/h (0 Bft) SW 227 ° 0 min 0,000 mm 0,0 UV-I 30 W/m² 10,6 °C 13,1 °C 0,0 km/h (0 Bft)
30.06.2017 19:58 13,1 °C 13,1 °C 85 % 1007,0 hPa 0,0 mm 0,1 km/h (0 Bft) SW 227 ° 0 min 0,000 mm 0,0 UV-I 30 W/m² 10,6 °C 13,1 °C 1,6 km/h (1 Bft)
30.06.2017 19:59 13,1 °C 13,1 °C 85 % 1007,0 hPa 0,0 mm 0,0 km/h (0 Bft) SW 227 ° 0 min 0,000 mm 0,0 UV-I 30 W/m² 10,6 °C 13,1 °C 0,0 km/h (0 Bft)
30.06.2017 20:00 12,9 °C 13,1 °C 83 % 1007,0 hPa 0,0 mm 0,0 km/h (0 Bft) SW 227 ° 0 min 0,000 mm 0,0 UV-I 30 W/m² 10,1 °C 12,9 °C 0,0 km/h (0 Bft)
30.06.2017 20:01 13,0 °C 13,1 °C 84 % 1007,0 hPa 0,0 mm 0,5 km/h (0 Bft) SW 227 ° 0 min 0,025 mm 0,0 UV-I 28 W/m² 10,4 °C 13,0 °C 1,6 km/h (1 Bft)
30.06.2017 20:02 13,0 °C 13,0 °C 82 % 1007,0 hPa 0,0 mm 1,3 km/h (1 Bft) SW 227 ° 0 min 0,000 mm 0,0 UV-I 26 W/m² 10,0 °C 13,0 °C 3,2 km/h (1 Bft)
30.06.2017 20:03 13,0 °C 13,1 °C 81 % 1007,0 hPa 0,0 mm 0,0 km/h (0 Bft) SW 227 ° 0 min 0,000 mm 0,0 UV-I 26 W/m² 9,8 °C 13,0 °C 0,0 km/h (0 Bft)
30.06.2017 20:04 13,1 °C 13,1 °C 84 % 1007,0 hPa 0,0 mm 0,0 km/h (0 Bft) SW 227 ° 0 min 0,000 mm 0,0 UV-I 26 W/m² 10,5 °C 13,1 °C 0,0 km/h (0 Bft)
30.06.2017 20:05 13,1 °C 13,1 °C 82 % 1007,0 hPa 0,0 mm 0,0 km/h (0 Bft) SW 227 ° 0 min 0,000 mm 0,0 UV-I 25 W/m² 10,1 °C 13,1 °C 0,0 km/h (0 Bft)
30.06.2017 20:06 13,1 °C 13,1 °C 83 % 1007,1 hPa 0,0 mm 0,0 km/h (0 Bft) SW 227 ° 0 min 0,000 mm 0,0 UV-I 25 W/m² 10,3 °C 13,1 °C 0,0 km/h (0 Bft)
30.06.2017 20:07 13,0 °C 13,1 °C 85 % 1007,0 hPa 0,0 mm 1,9 km/h (1 Bft) SW 227 ° 0 min 0,000 mm 0,0 UV-I 25 W/m² 10,5 °C 13,0 °C 3,2 km/h (1 Bft)
30.06.2017 20:08 13,0 °C 13,0 °C 84 % 1007,0 hPa 0,0 mm 0,5 km/h (0 Bft) SW 227 ° 0 min 0,000 mm 0,0 UV-I 23 W/m² 10,4 °C 13,0 °C 1,6 km/h (1 Bft)
30.06.2017 20:09 12,9 °C 13,0 °C 84 % 1007,0 hPa 0,0 mm 0,1 km/h (0 Bft) SW 227 ° 0 min 0,000 mm 0,0 UV-I 25 W/m² 10,3 °C 12,9 °C 1,6 km/h (1 Bft)
30.06.2017 20:10 12,9 °C 12,9 °C 82 % 1007,0 hPa 0,0 mm 0,0 km/h (0 Bft) SW 227 ° 0 min 0,000 mm 0,0 UV-I 33 W/m² 9,9 °C 12,9 °C 0,0 km/h (0 Bft)
30.06.2017 20:11 12,9 °C 12,9 °C 82 % 1007,0 hPa 0,0 mm 0,0 km/h (0 Bft) SW 227 ° 0 min 0,000 mm 0,0 UV-I 40 W/m² 9,9 °C 12,9 °C 0,0 km/h (0 Bft)
30.06.2017 20:12 12,9 °C 12,9 °C 83 % 1007,0 hPa 0,0 mm 0,0 km/h (0 Bft) SW 227 ° 0 min 0,000 mm 0,0 UV-I 21 W/m² 10,1 °C 12,9 °C 0,0 km/h (0 Bft)
30.06.2017 20:13 12,9 °C 12,9 °C 83 % 1007,0 hPa 0,0 mm 0,0 km/h (0 Bft) SW 227 ° 0 min 0,000 mm 0,0 UV-I 21 W/m² 10,1 °C 12,9 °C 0,0 km/h (0 Bft)
30.06.2017 20:14 12,9 °C 13,0 °C 83 % 1007,0 hPa 0,0 mm 0,0 km/h (0 Bft) SW 227 ° 0 min 0,000 mm 0,0 UV-I 21 W/m² 10,1 °C 12,9 °C 0,0 km/h (0 Bft)
30.06.2017 20:15 13,0 °C 13,0 °C 83 % 1007,1 hPa 0,0 mm 0,0 km/h (0 Bft) SW 227 ° 0 min 0,000 mm 0,0 UV-I 21 W/m² 10,2 °C 13,0 °C 0,0 km/h (0 Bft)
30.06.2017 20:16 13,0 °C 13,0 °C 84 % 1007,0 hPa 0,0 mm 0,5 km/h (0 Bft) N-NO 32 ° 0 min 0,000 mm 0,0 UV-I 19 W/m² 10,4 °C 13,0 °C 1,6 km/h (1 Bft)
30.06.2017 20:17 12,9 °C 13,0 °C 83 % 1007,0 hPa 0,0 mm 0,0 km/h (0 Bft) N-NO 32 ° 0 min 0,000 mm 0,0 UV-I 19 W/m² 10,1 °C 12,9 °C 0,0 km/h (0 Bft)
30.06.2017 20:18 13,0 °C 13,0 °C 83 % 1007,1 hPa 0,0 mm 1,0 km/h (0 Bft) N-NO 32 ° 0 min 0,000 mm 0,0 UV-I 21 W/m² 10,2 °C 13,0 °C 3,2 km/h (1 Bft)
30.06.2017 20:19 13,1 °C 13,1 °C 83 % 1007,2 hPa 0,0 mm 3,6 km/h (1 Bft) W-NW 298 ° 0 min 0,000 mm 0,0 UV-I 23 W/m² 10,3 °C 13,1 °C 6,4 km/h (2 Bft)
30.06.2017 20:20 13,1 °C 13,1 °C 80 % 1007,2 hPa 0,0 mm 2,9 km/h (1 Bft) W-NW 294 ° 0 min 0,000 mm 0,0 UV-I 26 W/m² 9,7 °C 13,1 °C 3,2 km/h (1 Bft)
30.06.2017 20:21 13,2 °C 13,2 °C 78 % 1007,2 hPa 0,0 mm 2,3 km/h (1 Bft) W-NW 291 ° 0 min 0,000 mm 0,0 UV-I 33 W/m² 9,4 °C 13,2 °C 4,8 km/h (1 Bft)
30.06.2017 20:22 13,2 °C 13,3 °C 78 % 1007,2 hPa 0,0 mm 0,4 km/h (0 Bft) W-NW 291 ° 0 min 0,000 mm 0,0 UV-I 42 W/m² 9,4 °C 13,2 °C 1,6 km/h (1 Bft)
30.06.2017 20:23 13,3 °C 13,3 °C 79 % 1007,2 hPa 0,0 mm 0,3 km/h (0 Bft) W-NW 291 ° 0 min 0,000 mm 0,0 UV-I 53 W/m² 9,7 °C 13,3 °C 3,2 km/h (1 Bft)
30.06.2017 20:24 13,3 °C 13,3 °C 81 % 1007,2 hPa 0,0 mm 0,0 km/h (0 Bft) W-NW 291 ° 0 min 0,000 mm 0,0 UV-I 53 W/m² 10,1 °C 13,3 °C 0,0 km/h (0 Bft)
30.06.2017 20:25 13,3 °C 13,3 °C 82 % 1007,1 hPa 0,0 mm 0,0 km/h (0 Bft) W-NW 291 ° 0 min 0,000 mm 0,0 UV-I 47 W/m² 10,3 °C 13,3 °C 0,0 km/h (0 Bft)
30.06.2017 20:26 13,2 °C 13,3 °C 83 % 1007,1 hPa 0,0 mm 0,0 km/h (0 Bft) W-NW 291 ° 0 min 0,000 mm 0,0 UV-I 49 W/m² 10,4 °C 13,2 °C 0,0 km/h (0 Bft)
30.06.2017 20:27 13,2 °C 13,2 °C 82 % 1007,1 hPa 0,0 mm 0,0 km/h (0 Bft) W-NW 291 ° 0 min 0,000 mm 0,0 UV-I 49 W/m² 10,2 °C 13,2 °C 0,0 km/h (0 Bft)
30.06.2017 20:28 13,2 °C 13,2 °C 79 % 1007,1 hPa 0,0 mm 2,4 km/h (1 Bft) W-NW 291 ° 0 min 0,000 mm 0,0 UV-I 53 W/m² 9,6 °C 13,2 °C 4,8 km/h (1 Bft)
30.06.2017 20:29 13,2 °C 13,2 °C 80 % 1007,0 hPa 0,0 mm 2,7 km/h (1 Bft) W-NW 292 ° 0 min 0,000 mm 0,0 UV-I 47 W/m² 9,8 °C 13,2 °C 3,2 km/h (1 Bft)
30.06.2017 20:30 13,3 °C 13,3 °C 79 % 1007,0 hPa 0,0 mm 3,0 km/h (1 Bft) O 90 ° 0 min 0,000 mm 0,0 UV-I 40 W/m² 9,7 °C 13,3 °C 4,8 km/h (1 Bft)
30.06.2017 20:31 13,3 °C 13,3 °C 80 % 1007,0 hPa 0,0 mm 0,1 km/h (0 Bft) O 90 ° 0 min 0,000 mm 0,0 UV-I 49 W/m² 9,9 °C 13,3 °C 1,6 km/h (1 Bft)
30.06.2017 20:32 13,3 °C 13,3 °C 81 % 1007,0 hPa 0,0 mm 0,0 km/h (0 Bft) O 90 ° 0 min 0,000 mm 0,0 UV-I 56 W/m² 10,1 °C 13,3 °C 0,0 km/h (0 Bft)
30.06.2017 20:33 13,3 °C 13,3 °C 82 % 1007,0 hPa 0,0 mm 0,0 km/h (0 Bft) O 90 ° 0 min 0,000 mm 0,0 UV-I 58 W/m² 10,3 °C 13,3 °C 0,0 km/h (0 Bft)
30.06.2017 20:34 13,3 °C 13,3 °C 81 % 1007,0 hPa 0,0 mm 2,3 km/h (1 Bft) O 90 ° 0 min 0,000 mm 0,0 UV-I 47 W/m² 10,1 °C 13,3 °C 4,8 km/h (1 Bft)
30.06.2017 20:35 13,4 °C 13,4 °C 79 % 1007,0 hPa 0,0 mm 0,0 km/h (0 Bft) O 90 ° 0 min 0,000 mm 0,0 UV-I 42 W/m² 9,8 °C 13,4 °C 0,0 km/h (0 Bft)
30.06.2017 20:36 13,4 °C 13,4 °C 80 % 1007,0 hPa 0,0 mm 1,5 km/h (1 Bft) N-NO 32 ° 0 min 0,000 mm 0,0 UV-I 40 W/m² 10,0 °C 13,4 °C 3,2 km/h (1 Bft)
30.06.2017 20:37 13,5 °C 13,5 °C 78 % 1007,0 hPa 0,0 mm 0,3 km/h (0 Bft) N-NO 32 ° 0 min 0,000 mm 0,0 UV-I 46 W/m² 9,7 °C 13,5 °C 1,6 km/h (1 Bft)
30.06.2017 20:38 13,6 °C 13,6 °C 79 % 1007,0 hPa 0,0 mm 1,9 km/h (1 Bft) O-SO 104 ° 0 min 0,000 mm 0,0 UV-I 47 W/m² 10,0 °C 13,6 °C 4,8 km/h (1 Bft)
30.06.2017 20:39 13,6 °C 13,6 °C 80 % 1007,0 hPa 0,0 mm 0,4 km/h (0 Bft) O-SO 104 ° 0 min 0,000 mm 0,0 UV-I 47 W/m² 10,2 °C 13,6 °C 1,6 km/h (1 Bft)
30.06.2017 20:40 13,6 °C 13,6 °C 80 % 1007,0 hPa 0,0 mm 0,4 km/h (0 Bft) O-SO 104 ° 0 min 0,000 mm 0,0 UV-I 46 W/m² 10,2 °C 13,6 °C 1,6 km/h (1 Bft)
30.06.2017 20:41 13,6 °C 13,6 °C 80 % 1007,0 hPa 0,0 mm 0,0 km/h (0 Bft) O-SO 104 ° 0 min 0,000 mm 0,0 UV-I 47 W/m² 10,2 °C 13,6 °C 0,0 km/h (0 Bft)
30.06.2017 20:42 13,6 °C 13,6 °C 79 % 1007,0 hPa 0,0 mm 2,8 km/h (1 Bft) N 360 ° 0 min 0,000 mm 0,0 UV-I 49 W/m² 10,0 °C 13,6 °C 4,8 km/h (1 Bft)
30.06.2017 20:43 13,7 °C 13,7 °C 79 % 1007,0 hPa 0,0 mm 1,9 km/h (1 Bft) O 93 ° 0 min 0,000 mm 0,0 UV-I 49 W/m² 10,1 °C 13,7 °C 3,2 km/h (1 Bft)
30.06.2017 20:44 13,7 °C 13,7 °C 79 % 1007,1 hPa 0,0 mm 3,1 km/h (1 Bft) W 271 ° 0 min 0,000 mm 0,0 UV-I 49 W/m² 10,1 °C 13,7 °C 4,8 km/h (1 Bft)
30.06.2017 20:45 13,7 °C 13,7 °C 78 % 1007,0 hPa 0,0 mm 1,1 km/h (1 Bft) W 271 ° 0 min 0,000 mm 0,0 UV-I 49 W/m² 9,9 °C 13,7 °C 4,8 km/h (1 Bft)
30.06.2017 20:46 13,8 °C 13,8 °C 77 % 1007,1 hPa 0,0 mm 0,1 km/h (0 Bft) W 271 ° 0 min 0,000 mm 0,0 UV-I 47 W/m² 9,8 °C 13,8 °C 1,6 km/h (1 Bft)
30.06.2017 20:47 13,8 °C 13,8 °C 75 % 1007,1 hPa 0,0 mm 1,3 km/h (1 Bft) W 271 ° 0 min 0,000 mm 0,0 UV-I 47 W/m² 9,4 °C 13,8 °C 1,6 km/h (1 Bft)
30.06.2017 20:48 13,9 °C 13,9 °C 77 % 1007,1 hPa 0,0 mm 0,9 km/h (0 Bft) W 271 ° 0 min 0,000 mm 0,0 UV-I 46 W/m² 9,9 °C 13,9 °C 3,2 km/h (1 Bft)
30.06.2017 20:49 14,0 °C 14,0 °C 78 % 1007,1 hPa 0,0 mm 2,0 km/h (1 Bft) W 271 ° 0 min 0,000 mm 0,0 UV-I 46 W/m² 10,2 °C 14,0 °C 3,2 km/h (1 Bft)
30.06.2017 20:50 14,1 °C 14,1 °C 77 % 1007,2 hPa 0,0 mm 3,1 km/h (1 Bft) W 265 ° 0 min 0,000 mm 0,0 UV-I 46 W/m² 10,1 °C 14,1 °C 4,8 km/h (1 Bft)
30.06.2017 20:51 14,1 °C 14,1 °C 74 % 1007,2 hPa 0,0 mm 2,5 km/h (1 Bft) W-SW 257 ° 0 min 0,000 mm 0,0 UV-I 46 W/m² 9,5 °C 14,1 °C 4,8 km/h (1 Bft)
30.06.2017 20:52 14,2 °C 14,2 °C 72 % 1007,2 hPa 0,0 mm 0,7 km/h (0 Bft) W-SW 248 ° 0 min 0,000 mm 0,0 UV-I 44 W/m² 9,2 °C 14,2 °C 3,2 km/h (1 Bft)
30.06.2017 20:53 14,2 °C 14,2 °C 74 % 1007,1 hPa 0,0 mm 0,9 km/h (0 Bft) W-SW 248 ° 0 min 0,000 mm 0,0 UV-I 46 W/m² 9,6 °C 14,2 °C 1,6 km/h (1 Bft)
30.06.2017 20:54 14,2 °C 14,2 °C 77 % 1007,1 hPa 0,0 mm 2,4 km/h (1 Bft) W-SW 242 ° 0 min 0,000 mm 0,0 UV-I 44 W/m² 10,2 °C 14,2 °C 3,2 km/h (1 Bft)
30.06.2017 20:55 14,1 °C 14,2 °C 76 % 1007,1 hPa 0,0 mm 2,5 km/h (1 Bft) S 183 ° 0 min 0,000 mm 0,0 UV-I 44 W/m² 9,9 °C 14,1 °C 4,8 km/h (1 Bft)
30.06.2017 20:56 14,0 °C 14,1 °C 77 % 1007,0 hPa 0,0 mm 1,2 km/h (1 Bft) S 183 ° 0 min 0,000 mm 0,0 UV-I 44 W/m² 10,0 °C 14,0 °C 1,6 km/h (1 Bft)
30.06.2017 20:57 13,9 °C 14,0 °C 79 % 1007,1 hPa 0,0 mm 1,8 km/h (1 Bft) S 183 ° 0 min 0,000 mm 0,0 UV-I 42 W/m² 10,3 °C 13,9 °C 3,2 km/h (1 Bft)
30.06.2017 20:58 13,8 °C 13,9 °C 79 % 1007,1 hPa 0,0 mm 1,0 km/h (0 Bft) S 183 ° 0 min 0,000 mm 0,0 UV-I 39 W/m² 10,2 °C 13,8 °C 1,6 km/h (1 Bft)
30.06.2017 20:59 13,8 °C 13,8 °C 79 % 1007,1 hPa 0,0 mm 0,5 km/h (0 Bft) S 183 ° 0 min 0,000 mm 0,0 UV-I 37 W/m² 10,2 °C 13,8 °C 1,6 km/h (1 Bft)
30.06.2017 21:00 13,7 °C 13,8 °C 80 % 1007,1 hPa 0,0 mm 0,5 km/h (0 Bft) S 183 ° 0 min 0,000 mm 0,0 UV-I 35 W/m² 10,3 °C 13,7 °C 1,6 km/h (1 Bft)
30.06.2017 21:01 13,6 °C 13,7 °C 80 % 1007,2 hPa 0,0 mm 0,2 km/h (0 Bft) S 183 ° 0 min 0,025 mm 0,0 UV-I 33 W/m² 10,2 °C 13,6 °C 1,6 km/h (1 Bft)
30.06.2017 21:02 13,6 °C 13,6 °C 81 % 1007,2 hPa 0,0 mm 0,0 km/h (0 Bft) S 183 ° 0 min 0,000 mm 0,0 UV-I 33 W/m² 10,4 °C 13,6 °C 0,0 km/h (0 Bft)
30.06.2017 21:03 13,6 °C 13,6 °C 81 % 1007,1 hPa 0,0 mm 0,0 km/h (0 Bft) S 183 ° 0 min 0,000 mm 0,0 UV-I 32 W/m² 10,4 °C 13,6 °C 0,0 km/h (0 Bft)
30.06.2017 21:04 13,5 °C 13,6 °C 81 % 1007,1 hPa 0,0 mm 0,0 km/h (0 Bft) S 183 ° 0 min 0,000 mm 0,0 UV-I 30 W/m² 10,3 °C 13,5 °C 0,0 km/h (0 Bft)
30.06.2017 21:05 13,4 °C 13,5 °C 81 % 1007,1 hPa 0,0 mm 0,0 km/h (0 Bft) S 183 ° 0 min 0,000 mm 0,0 UV-I 28 W/m² 10,2 °C 13,4 °C 0,0 km/h (0 Bft)
30.06.2017 21:06 13,4 °C 13,4 °C 82 % 1007,1 hPa 0,0 mm 0,0 km/h (0 Bft) S 183 ° 0 min 0,000 mm 0,0 UV-I 28 W/m² 10,4 °C 13,4 °C 0,0 km/h (0 Bft)
30.06.2017 21:07 13,3 °C 13,4 °C 81 % 1007,1 hPa 0,0 mm 0,0 km/h (0 Bft) S 183 ° 0 min 0,000 mm 0,0 UV-I 28 W/m² 10,1 °C 13,3 °C 0,0 km/h (0 Bft)
30.06.2017 21:08 13,3 °C 13,3 °C 81 % 1007,2 hPa 0,0 mm 0,0 km/h (0 Bft) S 183 ° 0 min 0,000 mm 0,0 UV-I 28 W/m² 10,1 °C 13,3 °C 0,0 km/h (0 Bft)
30.06.2017 21:09 13,2 °C 13,3 °C 82 % 1007,1 hPa 0,0 mm 0,0 km/h (0 Bft) S 183 ° 0 min 0,000 mm 0,0 UV-I 28 W/m² 10,2 °C 13,2 °C 0,0 km/h (0 Bft)
30.06.2017 21:10 13,2 °C 13,2 °C 80 % 1007,1 hPa 0,0 mm 0,0 km/h (0 Bft) S 183 ° 0 min 0,000 mm 0,0 UV-I 28 W/m² 9,8 °C 13,2 °C 0,0 km/h (0 Bft)
30.06.2017 21:11 13,2 °C 13,2 °C 80 % 1007,1 hPa 0,0 mm 0,0 km/h (0 Bft) S 183 ° 0 min 0,000 mm 0,0 UV-I 25 W/m² 9,8 °C 13,2 °C 0,0 km/h (0 Bft)
30.06.2017 21:12 13,2 °C 13,2 °C 80 % 1007,1 hPa 0,0 mm 0,0 km/h (0 Bft) S 183 ° 0 min 0,000 mm 0,0 UV-I 25 W/m² 9,8 °C 13,2 °C 0,0 km/h (0 Bft)
30.06.2017 21:13 13,2 °C 13,2 °C 80 % 1007,1 hPa 0,0 mm 0,0 km/h (0 Bft) S 183 ° 0 min 0,000 mm 0,0 UV-I 21 W/m² 9,8 °C 13,2 °C 0,0 km/h (0 Bft)
30.06.2017 21:14 13,2 °C 13,2 °C 80 % 1007,2 hPa 0,0 mm 0,0 km/h (0 Bft) S 183 ° 0 min 0,000 mm 0,0 UV-I 19 W/m² 9,8 °C 13,2 °C 0,0 km/h (0 Bft)
30.06.2017 21:15 13,2 °C 13,2 °C 82 % 1007,2 hPa 0,0 mm 0,0 km/h (0 Bft) S 183 ° 0 min 0,000 mm 0,0 UV-I 18 W/m² 10,2 °C 13,2 °C 0,0 km/h (0 Bft)
30.06.2017 21:16 13,1 °C 13,2 °C 83 % 1007,2 hPa 0,0 mm 0,0 km/h (0 Bft) S 183 ° 0 min 0,000 mm 0,0 UV-I 16 W/m² 10,3 °C 13,1 °C 0,0 km/h (0 Bft)
30.06.2017 21:17 13,0 °C 13,1 °C 83 % 1007,1 hPa 0,0 mm 0,0 km/h (0 Bft) S 183 ° 0 min 0,000 mm 0,0 UV-I 12 W/m² 10,2 °C 13,0 °C 0,0 km/h (0 Bft)
30.06.2017 21:18 12,9 °C 13,0 °C 83 % 1007,1 hPa 0,0 mm 0,0 km/h (0 Bft) S 183 ° 0 min 0,000 mm 0,0 UV-I 9 W/m² 10,1 °C 12,9 °C 0,0 km/h (0 Bft)
30.06.2017 21:19 12,8 °C 12,9 °C 82 % 1007,1 hPa 0,0 mm 0,0 km/h (0 Bft) S 183 ° 0 min 0,000 mm 0,0 UV-I 7 W/m² 9,8 °C 12,8 °C 0,0 km/h (0 Bft)
30.06.2017 21:20 12,8 °C 12,8 °C 81 % 1007,1 hPa 0,0 mm 0,3 km/h (0 Bft) S 183 ° 0 min 0,000 mm 0,0 UV-I 5 W/m² 9,6 °C 12,8 °C 1,6 km/h (1 Bft)
30.06.2017 21:21 12,8 °C 12,8 °C 82 % 1007,1 hPa 0,0 mm 0,0 km/h (0 Bft) S 183 ° 0 min 0,000 mm 0,0 UV-I 5 W/m² 9,8 °C 12,8 °C 0,0 km/h (0 Bft)
30.06.2017 21:22 12,8 °C 12,8 °C 83 % 1007,1 hPa 0,0 mm 0,0 km/h (0 Bft) S 183 ° 0 min 0,000 mm 0,0 UV-I 0 W/m² 10,0 °C 12,8 °C 0,0 km/h (0 Bft)
30.06.2017 21:23 12,8 °C 12,8 °C 83 % 1007,1 hPa 0,0 mm 0,9 km/h (0 Bft) S 183 ° 0 min 0,000 mm 0,0 UV-I 0 W/m² 10,0 °C 12,8 °C 1,6 km/h (1 Bft)
30.06.2017 21:24 12,7 °C 12,8 °C 82 % 1007,1 hPa 0,0 mm 0,0 km/h (0 Bft) S 183 ° 0 min 0,000 mm 0,0 UV-I 0 W/m² 9,7 °C 12,7 °C 0,0 km/h (0 Bft)
30.06.2017 21:25 12,7 °C 12,7 °C 82 % 1007,2 hPa 0,0 mm 0,0 km/h (0 Bft) S 183 ° 0 min 0,000 mm 0,0 UV-I 0 W/m² 9,7 °C 12,7 °C 0,0 km/h (0 Bft)
30.06.2017 21:26 12,7 °C 12,7 °C 80 % 1007,1 hPa 0,0 mm 0,0 km/h (0 Bft) S 183 ° 0 min 0,000 mm 0,0 UV-I 0 W/m² 9,3 °C 12,7 °C 0,0 km/h (0 Bft)
30.06.2017 21:27 12,7 °C 12,7 °C 80 % 1007,1 hPa 0,0 mm 0,0 km/h (0 Bft) S 183 ° 0 min 0,000 mm 0,0 UV-I 0 W/m² 9,3 °C 12,7 °C 0,0 km/h (0 Bft)
30.06.2017 21:28 12,7 °C 12,7 °C 80 % 1007,2 hPa 0,0 mm 0,0 km/h (0 Bft) S 183 ° 0 min 0,000 mm 0,0 UV-I 0 W/m² 9,3 °C 12,7 °C 0,0 km/h (0 Bft)
30.06.2017 21:29 12,7 °C 12,7 °C 78 % 1007,2 hPa 0,0 mm 0,0 km/h (0 Bft) S 183 ° 0 min 0,000 mm 0,0 UV-I 0 W/m² 9,0 °C 12,7 °C 0,0 km/h (0 Bft)
30.06.2017 21:30 12,8 °C 12,8 °C 78 % 1007,2 hPa 0,0 mm 0,0 km/h (0 Bft) S 183 ° 0 min 0,000 mm 0,0 UV-I 0 W/m² 9,1 °C 12,8 °C 0,0 km/h (0 Bft)
30.06.2017 21:31 12,8 °C 12,8 °C 78 % 1007,3 hPa 0,0 mm 0,3 km/h (0 Bft) S 183 ° 0 min 0,000 mm 0,0 UV-I 0 W/m² 9,1 °C 12,8 °C 1,6 km/h (1 Bft)
30.06.2017 21:32 12,8 °C 12,8 °C 78 % 1007,3 hPa 0,0 mm 0,0 km/h (0 Bft) S 183 ° 0 min 0,000 mm 0,0 UV-I 0 W/m² 9,1 °C 12,8 °C 0,0 km/h (0 Bft)
30.06.2017 21:33 12,8 °C 12,8 °C 80 % 1007,3 hPa 0,0 mm 0,0 km/h (0 Bft) S 183 ° 0 min 0,000 mm 0,0 UV-I 0 W/m² 9,4 °C 12,8 °C 0,0 km/h (0 Bft)
30.06.2017 21:34 12,8 °C 12,8 °C 81 % 1007,3 hPa 0,0 mm 0,0 km/h (0 Bft) S 183 ° 0 min 0,000 mm 0,0 UV-I 0 W/m² 9,6 °C 12,8 °C 0,0 km/h (0 Bft)
30.06.2017 21:35 12,8 °C 12,8 °C 81 % 1007,3 hPa 0,0 mm 0,0 km/h (0 Bft) S 183 ° 0 min 0,000 mm 0,0 UV-I 0 W/m² 9,6 °C 12,8 °C 0,0 km/h (0 Bft)
30.06.2017 21:36 12,7 °C 12,8 °C 81 % 1007,3 hPa 0,0 mm 0,0 km/h (0 Bft) S 183 ° 0 min 0,000 mm 0,0 UV-I 0 W/m² 9,5 °C 12,7 °C 0,0 km/h (0 Bft)
30.06.2017 21:37 12,7 °C 12,7 °C 81 % 1007,2 hPa 0,0 mm 0,0 km/h (0 Bft) S 183 ° 0 min 0,000 mm 0,0 UV-I 0 W/m² 9,5 °C 12,7 °C 0,0 km/h (0 Bft)
30.06.2017 21:38 12,6 °C 12,7 °C 82 % 1007,2 hPa 0,0 mm 0,0 km/h (0 Bft) S 183 ° 0 min 0,000 mm 0,0 UV-I 0 W/m² 9,6 °C 12,6 °C 0,0 km/h (0 Bft)
30.06.2017 21:39 12,6 °C 12,6 °C 81 % 1007,3 hPa 0,0 mm 0,0 km/h (0 Bft) S 183 ° 0 min 0,000 mm 0,0 UV-I 0 W/m² 9,4 °C 12,6 °C 0,0 km/h (0 Bft)
30.06.2017 21:40 12,6 °C 12,6 °C 81 % 1007,2 hPa 0,0 mm 0,0 km/h (0 Bft) S 183 ° 0 min 0,000 mm 0,0 UV-I 0 W/m² 9,4 °C 12,6 °C 0,0 km/h (0 Bft)
30.06.2017 21:41 12,6 °C 12,6 °C 81 % 1007,3 hPa 0,0 mm 0,0 km/h (0 Bft) S 183 ° 0 min 0,000 mm 0,0 UV-I 0 W/m² 9,4 °C 12,6 °C 0,0 km/h (0 Bft)
30.06.2017 21:42 12,6 °C 12,6 °C 80 % 1007,3 hPa 0,0 mm 0,0 km/h (0 Bft) S 183 ° 0 min 0,000 mm 0,0 UV-I 0 W/m² 9,2 °C 12,6 °C 0,0 km/h (0 Bft)
30.06.2017 21:43 12,6 °C 12,6 °C 81 % 1007,2 hPa 0,0 mm 0,0 km/h (0 Bft) S 183 ° 0 min 0,000 mm 0,0 UV-I 0 W/m² 9,4 °C 12,6 °C 0,0 km/h (0 Bft)
30.06.2017 21:44 12,6 °C 12,6 °C 81 % 1007,3 hPa 0,0 mm 0,2 km/h (0 Bft) S 183 ° 0 min 0,000 mm 0,0 UV-I 0 W/m² 9,4 °C 12,6 °C 1,6 km/h (1 Bft)
30.06.2017 21:45 12,5 °C 12,6 °C 81 % 1007,3 hPa 0,0 mm 0,0 km/h (0 Bft) S 183 ° 0 min 0,000 mm 0,0 UV-I 0 W/m² 9,3 °C 12,5 °C 0,0 km/h (0 Bft)
30.06.2017 21:46 12,5 °C 12,5 °C 80 % 1007,3 hPa 0,0 mm 0,0 km/h (0 Bft) S 183 ° 0 min 0,000 mm 0,0 UV-I 0 W/m² 9,1 °C 12,5 °C 0,0 km/h (0 Bft)
30.06.2017 21:47 12,5 °C 12,5 °C 81 % 1007,3 hPa 0,0 mm 0,0 km/h (0 Bft) S 183 ° 0 min 0,000 mm 0,0 UV-I 0 W/m² 9,3 °C 12,5 °C 0,0 km/h (0 Bft)
30.06.2017 21:48 12,4 °C 12,5 °C 82 % 1007,2 hPa 0,0 mm 0,0 km/h (0 Bft) S 183 ° 0 min 0,000 mm 0,0 UV-I 0 W/m² 9,4 °C 12,4 °C 0,0 km/h (0 Bft)
30.06.2017 21:49 12,4 °C 12,4 °C 82 % 1007,3 hPa 0,0 mm 0,0 km/h (0 Bft) S 183 ° 0 min 0,000 mm 0,0 UV-I 0 W/m² 9,4 °C 12,4 °C 0,0 km/h (0 Bft)
30.06.2017 21:50 12,3 °C 12,4 °C 83 % 1007,3 hPa 0,0 mm 0,0 km/h (0 Bft) S 183 ° 0 min 0,000 mm 0,0 UV-I 0 W/m² 9,5 °C 12,3 °C 0,0 km/h (0 Bft)
30.06.2017 21:51 12,2 °C 12,3 °C 83 % 1007,3 hPa 0,0 mm 0,0 km/h (0 Bft) S 183 ° 0 min 0,000 mm 0,0 UV-I 0 W/m² 9,4 °C 12,2 °C 0,0 km/h (0 Bft)
30.06.2017 21:52 12,2 °C 12,2 °C 83 % 1007,3 hPa 0,0 mm 0,1 km/h (0 Bft) S 183 ° 0 min 0,000 mm 0,0 UV-I 0 W/m² 9,4 °C 12,2 °C 1,6 km/h (1 Bft)
30.06.2017 21:53 12,2 °C 12,2 °C 82 % 1007,3 hPa 0,0 mm 0,0 km/h (0 Bft) S 183 ° 0 min 0,000 mm 0,0 UV-I 0 W/m² 9,2 °C 12,2 °C 0,0 km/h (0 Bft)
30.06.2017 21:54 12,2 °C 12,2 °C 82 % 1007,3 hPa 0,0 mm 0,5 km/h (0 Bft) S 183 ° 0 min 0,000 mm 0,0 UV-I 0 W/m² 9,2 °C 12,2 °C 1,6 km/h (1 Bft)
30.06.2017 21:55 12,2 °C 12,2 °C 82 % 1007,3 hPa 0,0 mm 0,3 km/h (0 Bft) S 183 ° 0 min 0,000 mm 0,0 UV-I 0 W/m² 9,2 °C 12,2 °C 1,6 km/h (1 Bft)
30.06.2017 21:56 12,2 °C 12,2 °C 81 % 1007,3 hPa 0,0 mm 0,3 km/h (0 Bft) S 183 ° 0 min 0,000 mm 0,0 UV-I 0 W/m² 9,0 °C 12,2 °C 1,6 km/h (1 Bft)
30.06.2017 21:57 12,4 °C 12,4 °C 80 % 1007,3 hPa 0,0 mm 3,1 km/h (1 Bft) W-SW 253 ° 0 min 0,000 mm 0,0 UV-I 0 W/m² 9,0 °C 12,4 °C 4,8 km/h (1 Bft)
30.06.2017 21:58 12,5 °C 12,5 °C 80 % 1007,3 hPa 0,0 mm 2,0 km/h (1 Bft) SW 218 ° 0 min 0,000 mm 0,0 UV-I 0 W/m² 9,1 °C 12,5 °C 3,2 km/h (1 Bft)
30.06.2017 21:59 12,6 °C 12,6 °C 79 % 1007,3 hPa 0,0 mm 1,4 km/h (1 Bft) S-SW 211 ° 0 min 0,000 mm 0,0 UV-I 0 W/m² 9,1 °C 12,6 °C 4,8 km/h (1 Bft)
30.06.2017 22:00 12,7 °C 12,7 °C 79 % 1007,3 hPa 0,0 mm 3,3 km/h (1 Bft) S-SW 211 ° 0 min 0,000 mm 0,0 UV-I 0 W/m² 9,2 °C 12,7 °C 4,8 km/h (1 Bft)
30.06.2017 22:01 12,7 °C 12,7 °C 80 % 1007,4 hPa 0,0 mm 0,7 km/h (0 Bft) S-SW 211 ° 0 min 0,000 mm 0,0 UV-I 0 W/m² 9,3 °C 12,7 °C 3,2 km/h (1 Bft)
30.06.2017 22:02 12,7 °C 12,7 °C 80 % 1007,4 hPa 0,0 mm 0,6 km/h (0 Bft) S-SW 211 ° 0 min 0,000 mm 0,0 UV-I 0 W/m² 9,3 °C 12,7 °C 3,2 km/h (1 Bft)
30.06.2017 22:03 12,6 °C 12,7 °C 80 % 1007,4 hPa 0,0 mm 0,3 km/h (0 Bft) S-SW 211 ° 0 min 0,000 mm 0,0 UV-I 0 W/m² 9,2 °C 12,6 °C 1,6 km/h (1 Bft)
30.06.2017 22:04 12,6 °C 12,6 °C 81 % 1007,3 hPa 0,0 mm 0,8 km/h (0 Bft) SW 215 ° 0 min 0,000 mm 0,0 UV-I 0 W/m² 9,4 °C 12,6 °C 1,6 km/h (1 Bft)
30.06.2017 22:05 12,5 °C 12,6 °C 81 % 1007,3 hPa 0,0 mm 1,2 km/h (1 Bft) SW 215 ° 0 min 0,000 mm 0,0 UV-I 0 W/m² 9,3 °C 12,5 °C 3,2 km/h (1 Bft)
30.06.2017 22:06 12,5 °C 12,5 °C 80 % 1007,3 hPa 0,0 mm 0,1 km/h (0 Bft) SW 215 ° 0 min 0,000 mm 0,0 UV-I 0 W/m² 9,1 °C 12,5 °C 1,6 km/h (1 Bft)
30.06.2017 22:07 12,4 °C 12,5 °C 82 % 1007,3 hPa 0,0 mm 0,0 km/h (0 Bft) SW 215 ° 0 min 0,000 mm 0,0 UV-I 0 W/m² 9,4 °C 12,4 °C 0,0 km/h (0 Bft)
30.06.2017 22:08 12,4 °C 12,5 °C 83 % 1007,3 hPa 0,0 mm 0,0 km/h (0 Bft) SW 215 ° 0 min 0,000 mm 0,0 UV-I 0 W/m² 9,6 °C 12,4 °C 0,0 km/h (0 Bft)
30.06.2017 22:09 12,4 °C 12,4 °C 82 % 1007,3 hPa 0,0 mm 0,0 km/h (0 Bft) SW 215 ° 0 min 0,000 mm 0,0 UV-I 0 W/m² 9,4 °C 12,4 °C 0,0 km/h (0 Bft)
30.06.2017 22:10 12,3 °C 12,4 °C 82 % 1007,3 hPa 0,0 mm 0,4 km/h (0 Bft) SW 216 ° 0 min 0,000 mm 0,0 UV-I 0 W/m² 9,3 °C 12,3 °C 1,6 km/h (1 Bft)
30.06.2017 22:11 12,3 °C 12,3 °C 82 % 1007,4 hPa 0,0 mm 0,0 km/h (0 Bft) SW 216 ° 0 min 0,000 mm 0,0 UV-I 0 W/m² 9,3 °C 12,3 °C 0,0 km/h (0 Bft)
30.06.2017 22:12 12,3 °C 12,3 °C 81 % 1007,4 hPa 0,0 mm 0,9 km/h (0 Bft) W-SW 255 ° 0 min 0,000 mm 0,0 UV-I 0 W/m² 9,1 °C 12,3 °C 3,2 km/h (1 Bft)
30.06.2017 22:14 12,4 °C 12,4 °C 80 % 1007,3 hPa 0,0 mm 1,9 km/h (1 Bft) S-SW 207 ° 0 min 0,000 mm 0,0 UV-I 0 W/m² 9,0 °C 12,4 °C 4,8 km/h (1 Bft)
30.06.2017 22:15 12,4 °C 12,4 °C 79 % 1007,3 hPa 0,0 mm 1,0 km/h (0 Bft) S-SW 207 ° 0 min 0,000 mm 0,0 UV-I 0 W/m² 8,9 °C 12,4 °C 4,8 km/h (1 Bft)
30.06.2017 22:16 12,5 °C 12,5 °C 79 % 1007,4 hPa 0,0 mm 2,2 km/h (1 Bft) S-SW 209 ° 0 min 0,000 mm 0,0 UV-I 0 W/m² 9,0 °C 12,5 °C 4,8 km/h (1 Bft)
30.06.2017 22:17 12,6 °C 12,6 °C 79 % 1007,4 hPa 0,0 mm 1,9 km/h (1 Bft) S-SW 204 ° 0 min 0,000 mm 0,0 UV-I 0 W/m² 9,1 °C 12,6 °C 4,8 km/h (1 Bft)
30.06.2017 22:18 12,6 °C 12,6 °C 79 % 1007,3 hPa 0,0 mm 0,7 km/h (0 Bft) S-SW 204 ° 0 min 0,000 mm 0,0 UV-I 0 W/m² 9,1 °C 12,6 °C 1,6 km/h (1 Bft)
30.06.2017 22:19 12,6 °C 12,6 °C 79 % 1007,3 hPa 0,0 mm 1,4 km/h (1 Bft) S-SW 205 ° 0 min 0,000 mm 0,0 UV-I 0 W/m² 9,1 °C 12,6 °C 3,2 km/h (1 Bft)
30.06.2017 22:20 12,5 °C 12,6 °C 80 % 1007,3 hPa 0,0 mm 0,9 km/h (0 Bft) S-SW 205 ° 0 min 0,000 mm 0,0 UV-I 0 W/m² 9,1 °C 12,5 °C 3,2 km/h (1 Bft)
30.06.2017 22:21 12,4 °C 12,5 °C 80 % 1007,4 hPa 0,0 mm 0,1 km/h (0 Bft) S-SW 205 ° 0 min 0,000 mm 0,0 UV-I 0 W/m² 9,0 °C 12,4 °C 1,6 km/h (1 Bft)
30.06.2017 22:22 12,4 °C 12,4 °C 80 % 1007,3 hPa 0,0 mm 0,0 km/h (0 Bft) S-SW 205 ° 0 min 0,000 mm 0,0 UV-I 0 W/m² 9,0 °C 12,4 °C 0,0 km/h (0 Bft)
30.06.2017 22:23 12,4 °C 12,4 °C 79 % 1007,3 hPa 0,0 mm 0,5 km/h (0 Bft) S-SW 205 ° 0 min 0,000 mm 0,0 UV-I 0 W/m² 8,9 °C 12,4 °C 1,6 km/h (1 Bft)
30.06.2017 22:24 12,4 °C 12,4 °C 80 % 1007,4 hPa 0,0 mm 0,1 km/h (0 Bft) S-SW 205 ° 0 min 0,000 mm 0,0 UV-I 0 W/m² 9,0 °C 12,4 °C 1,6 km/h (1 Bft)
30.06.2017 22:25 12,3 °C 12,4 °C 81 % 1007,3 hPa 0,0 mm 0,1 km/h (0 Bft) S-SW 205 ° 0 min 0,000 mm 0,0 UV-I 0 W/m² 9,1 °C 12,3 °C 1,6 km/h (1 Bft)
30.06.2017 22:26 12,3 °C 12,3 °C 81 % 1007,3 hPa 0,0 mm 0,0 km/h (0 Bft) S-SW 205 ° 0 min 0,000 mm 0,0 UV-I 0 W/m² 9,1 °C 12,3 °C 0,0 km/h (0 Bft)
30.06.2017 22:27 12,2 °C 12,3 °C 82 % 1007,3 hPa 0,0 mm 0,0 km/h (0 Bft) S-SW 205 ° 0 min 0,000 mm 0,0 UV-I 0 W/m² 9,2 °C 12,2 °C 0,0 km/h (0 Bft)
30.06.2017 22:28 12,2 °C 12,2 °C 81 % 1007,3 hPa 0,0 mm 0,0 km/h (0 Bft) S-SW 205 ° 0 min 0,000 mm 0,0 UV-I 0 W/m² 9,0 °C 12,2 °C 0,0 km/h (0 Bft)
30.06.2017 22:29 12,2 °C 12,2 °C 82 % 1007,4 hPa 0,0 mm 0,0 km/h (0 Bft) S-SW 205 ° 0 min 0,000 mm 0,0 UV-I 0 W/m² 9,2 °C 12,2 °C 0,0 km/h (0 Bft)
30.06.2017 22:30 12,1 °C 12,2 °C 82 % 1007,4 hPa 0,0 mm 0,0 km/h (0 Bft) S-SW 205 ° 0 min 0,000 mm 0,0 UV-I 0 W/m² 9,1 °C 12,1 °C 0,0 km/h (0 Bft)
30.06.2017 22:31 12,1 °C 12,1 °C 83 % 1007,3 hPa 0,0 mm 0,0 km/h (0 Bft) S-SW 205 ° 0 min 0,000 mm 0,0 UV-I 0 W/m² 9,3 °C 12,1 °C 0,0 km/h (0 Bft)
30.06.2017 22:32 12,0 °C 12,1 °C 83 % 1007,3 hPa 0,0 mm 0,0 km/h (0 Bft) S-SW 205 ° 0 min 0,000 mm 0,0 UV-I 0 W/m² 9,2 °C 12,0 °C 0,0 km/h (0 Bft)
30.06.2017 22:33 11,9 °C 12,0 °C 83 % 1007,4 hPa 0,0 mm 0,0 km/h (0 Bft) S-SW 205 ° 0 min 0,000 mm 0,0 UV-I 0 W/m² 9,1 °C 11,9 °C 0,0 km/h (0 Bft)
30.06.2017 22:34 11,9 °C 11,9 °C 83 % 1007,4 hPa 0,0 mm 0,0 km/h (0 Bft) S-SW 205 ° 0 min 0,000 mm 0,0 UV-I 0 W/m² 9,1 °C 11,9 °C 0,0 km/h (0 Bft)
30.06.2017 22:35 11,9 °C 11,9 °C 83 % 1007,3 hPa 0,0 mm 0,0 km/h (0 Bft) S-SW 205 ° 0 min 0,000 mm 0,0 UV-I 0 W/m² 9,1 °C 11,9 °C 0,0 km/h (0 Bft)
30.06.2017 22:36 11,9 °C 11,9 °C 83 % 1007,3 hPa 0,0 mm 0,0 km/h (0 Bft) S-SW 205 ° 0 min 0,000 mm 0,0 UV-I 0 W/m² 9,1 °C 11,9 °C 0,0 km/h (0 Bft)
30.06.2017 22:37 11,9 °C 11,9 °C 83 % 1007,3 hPa 0,0 mm 0,0 km/h (0 Bft) S-SW 205 ° 0 min 0,000 mm 0,0 UV-I 0 W/m² 9,1 °C 11,9 °C 0,0 km/h (0 Bft)
30.06.2017 22:38 11,9 °C 11,9 °C 83 % 1007,3 hPa 0,0 mm 0,0 km/h (0 Bft) S-SW 205 ° 0 min 0,000 mm 0,0 UV-I 0 W/m² 9,1 °C 11,9 °C 0,0 km/h (0 Bft)
30.06.2017 22:39 11,8 °C 11,9 °C 82 % 1007,3 hPa 0,0 mm 0,0 km/h (0 Bft) S-SW 205 ° 0 min 0,000 mm 0,0 UV-I 0 W/m² 8,8 °C 11,8 °C 0,0 km/h (0 Bft)
30.06.2017 22:40 11,8 °C 11,8 °C 83 % 1007,3 hPa 0,0 mm 0,0 km/h (0 Bft) S-SW 205 ° 0 min 0,000 mm 0,0 UV-I 0 W/m² 9,0 °C 11,8 °C 0,0 km/h (0 Bft)
30.06.2017 22:41 11,8 °C 11,8 °C 84 % 1007,4 hPa 0,0 mm 0,0 km/h (0 Bft) S-SW 205 ° 0 min 0,000 mm 0,0 UV-I 0 W/m² 9,2 °C 11,8 °C 0,0 km/h (0 Bft)
30.06.2017 22:42 11,7 °C 11,8 °C 84 % 1007,3 hPa 0,0 mm 0,0 km/h (0 Bft) S-SW 205 ° 0 min 0,000 mm 0,0 UV-I 0 W/m² 9,1 °C 11,7 °C 0,0 km/h (0 Bft)
30.06.2017 22:43 11,7 °C 11,7 °C 84 % 1007,4 hPa 0,0 mm 0,0 km/h (0 Bft) S-SW 205 ° 0 min 0,000 mm 0,0 UV-I 0 W/m² 9,1 °C 11,7 °C 0,0 km/h (0 Bft)
30.06.2017 22:44 11,7 °C 11,7 °C 84 % 1007,4 hPa 0,0 mm 0,0 km/h (0 Bft) S-SW 205 ° 0 min 0,000 mm 0,0 UV-I 0 W/m² 9,1 °C 11,7 °C 0,0 km/h (0 Bft)
30.06.2017 22:45 11,7 °C 11,7 °C 84 % 1007,4 hPa 0,0 mm 0,0 km/h (0 Bft) S-SW 205 ° 0 min 0,000 mm 0,0 UV-I 0 W/m² 9,1 °C 11,7 °C 0,0 km/h (0 Bft)
30.06.2017 22:46 11,7 °C 11,7 °C 84 % 1007,4 hPa 0,0 mm 0,0 km/h (0 Bft) S-SW 205 ° 0 min 0,000 mm 0,0 UV-I 0 W/m² 9,1 °C 11,7 °C 0,0 km/h (0 Bft)
30.06.2017 22:47 11,7 °C 11,7 °C 84 % 1007,4 hPa 0,0 mm 0,0 km/h (0 Bft) S-SW 205 ° 0 min 0,000 mm 0,0 UV-I 0 W/m² 9,1 °C 11,7 °C 0,0 km/h (0 Bft)
30.06.2017 22:48 11,7 °C 11,7 °C 84 % 1007,5 hPa 0,0 mm 0,0 km/h (0 Bft) S-SW 205 ° 0 min 0,000 mm 0,0 UV-I 0 W/m² 9,1 °C 11,7 °C 0,0 km/h (0 Bft)
30.06.2017 22:49 11,7 °C 11,7 °C 84 % 1007,4 hPa 0,0 mm 0,0 km/h (0 Bft) S-SW 205 ° 0 min 0,000 mm 0,0 UV-I 0 W/m² 9,1 °C 11,7 °C 0,0 km/h (0 Bft)
30.06.2017 22:50 11,7 °C 11,7 °C 84 % 1007,5 hPa 0,0 mm 0,0 km/h (0 Bft) S-SW 205 ° 0 min 0,000 mm 0,0 UV-I 0 W/m² 9,1 °C 11,7 °C 0,0 km/h (0 Bft)
30.06.2017 22:51 11,7 °C 11,7 °C 84 % 1007,5 hPa 0,0 mm 0,0 km/h (0 Bft) S-SW 205 ° 0 min 0,000 mm 0,0 UV-I 0 W/m² 9,1 °C 11,7 °C 0,0 km/h (0 Bft)
30.06.2017 22:52 11,7 °C 11,7 °C 84 % 1007,5 hPa 0,0 mm 0,0 km/h (0 Bft) S-SW 205 ° 0 min 0,000 mm 0,0 UV-I 0 W/m² 9,1 °C 11,7 °C 0,0 km/h (0 Bft)
30.06.2017 22:53 11,7 °C 11,7 °C 85 % 1007,5 hPa 0,0 mm 0,0 km/h (0 Bft) S-SW 205 ° 0 min 0,000 mm 0,0 UV-I 0 W/m² 9,3 °C 11,7 °C 0,0 km/h (0 Bft)
30.06.2017 22:54 11,6 °C 11,7 °C 85 % 1007,5 hPa 0,0 mm 0,0 km/h (0 Bft) S-SW 205 ° 0 min 0,000 mm 0,0 UV-I 0 W/m² 9,2 °C 11,6 °C 0,0 km/h (0 Bft)
30.06.2017 22:55 11,6 °C 11,6 °C 85 % 1007,6 hPa 0,0 mm 0,0 km/h (0 Bft) S-SW 205 ° 0 min 0,000 mm 0,0 UV-I 0 W/m² 9,2 °C 11,6 °C 0,0 km/h (0 Bft)
30.06.2017 22:56 11,6 °C 11,6 °C 84 % 1007,5 hPa 0,0 mm 0,0 km/h (0 Bft) S-SW 205 ° 0 min 0,000 mm 0,0 UV-I 0 W/m² 9,0 °C 11,6 °C 0,0 km/h (0 Bft)
30.06.2017 22:57 11,6 °C 11,6 °C 84 % 1007,6 hPa 0,0 mm 0,4 km/h (0 Bft) S-SW 205 ° 0 min 0,000 mm 0,0 UV-I 0 W/m² 9,0 °C 11,6 °C 1,6 km/h (1 Bft)
30.06.2017 22:58 11,6 °C 11,6 °C 84 % 1007,6 hPa 0,0 mm 0,0 km/h (0 Bft) S-SW 205 ° 0 min 0,000 mm 0,0 UV-I 0 W/m² 9,0 °C 11,6 °C 0,0 km/h (0 Bft)
30.06.2017 22:59 11,6 °C 11,6 °C 84 % 1007,6 hPa 0,0 mm 0,0 km/h (0 Bft) S-SW 205 ° 0 min 0,000 mm 0,0 UV-I 0 W/m² 9,0 °C 11,6 °C 0,0 km/h (0 Bft)
30.06.2017 23:00 11,7 °C 11,7 °C 82 % 1007,6 hPa 0,0 mm 0,0 km/h (0 Bft) S-SW 205 ° 0 min 0,026 mm 0,0 UV-I 0 W/m² 8,7 °C 11,7 °C 0,0 km/h (0 Bft)
30.06.2017 23:01 11,7 °C 11,7 °C 83 % 1007,6 hPa 0,0 mm 0,0 km/h (0 Bft) S-SW 205 ° 0 min 0,000 mm 0,0 UV-I 0 W/m² 8,9 °C 11,7 °C 0,0 km/h (0 Bft)
30.06.2017 23:02 11,7 °C 11,7 °C 83 % 1007,6 hPa 0,0 mm 0,0 km/h (0 Bft) S-SW 205 ° 0 min 0,000 mm 0,0 UV-I 0 W/m² 8,9 °C 11,7 °C 0,0 km/h (0 Bft)
30.06.2017 23:03 11,7 °C 11,7 °C 83 % 1007,6 hPa 0,0 mm 0,0 km/h (0 Bft) S-SW 205 ° 0 min 0,000 mm 0,0 UV-I 0 W/m² 8,9 °C 11,7 °C 0,0 km/h (0 Bft)
30.06.2017 23:04 11,7 °C 11,7 °C 83 % 1007,6 hPa 0,0 mm 0,4 km/h (0 Bft) S-SW 205 ° 0 min 0,000 mm 0,0 UV-I 0 W/m² 8,9 °C 11,7 °C 1,6 km/h (1 Bft)
30.06.2017 23:05 11,7 °C 11,7 °C 84 % 1007,7 hPa 0,0 mm 0,0 km/h (0 Bft) S-SW 205 ° 0 min 0,000 mm 0,0 UV-I 0 W/m² 9,1 °C 11,7 °C 0,0 km/h (0 Bft)
30.06.2017 23:06 11,7 °C 11,7 °C 84 % 1007,7 hPa 0,0 mm 0,0 km/h (0 Bft) S-SW 205 ° 0 min 0,000 mm 0,0 UV-I 0 W/m² 9,1 °C 11,7 °C 0,0 km/h (0 Bft)
30.06.2017 23:07 11,7 °C 11,7 °C 83 % 1007,7 hPa 0,0 mm 0,1 km/h (0 Bft) S-SW 205 ° 0 min 0,000 mm 0,0 UV-I 0 W/m² 8,9 °C 11,7 °C 1,6 km/h (1 Bft)
30.06.2017 23:08 11,7 °C 11,7 °C 83 % 1007,7 hPa 0,0 mm 0,0 km/h (0 Bft) S-SW 205 ° 0 min 0,000 mm 0,0 UV-I 0 W/m² 8,9 °C 11,7 °C 0,0 km/h (0 Bft)
30.06.2017 23:09 11,7 °C 11,8 °C 83 % 1007,7 hPa 0,0 mm 0,0 km/h (0 Bft) S-SW 205 ° 0 min 0,000 mm 0,0 UV-I 0 W/m² 8,9 °C 11,7 °C 0,0 km/h (0 Bft)
30.06.2017 23:10 11,7 °C 11,8 °C 83 % 1007,8 hPa 0,0 mm 0,3 km/h (0 Bft) S-SW 205 ° 0 min 0,000 mm 0,0 UV-I 0 W/m² 8,9 °C 11,7 °C 1,6 km/h (1 Bft)
30.06.2017 23:11 11,7 °C 11,8 °C 83 % 1007,7 hPa 0,0 mm 0,4 km/h (0 Bft) S-SW 205 ° 0 min 0,000 mm 0,0 UV-I 0 W/m² 8,9 °C 11,7 °C 1,6 km/h (1 Bft)
30.06.2017 23:12 11,8 °C 11,8 °C 83 % 1007,8 hPa 0,0 mm 0,1 km/h (0 Bft) S-SW 205 ° 0 min 0,000 mm 0,0 UV-I 0 W/m² 9,0 °C 11,8 °C 1,6 km/h (1 Bft)
30.06.2017 23:13 11,8 °C 11,8 °C 84 % 1007,7 hPa 0,0 mm 0,0 km/h (0 Bft) S-SW 205 ° 0 min 0,000 mm 0,0 UV-I 0 W/m² 9,2 °C 11,8 °C 0,0 km/h (0 Bft)
30.06.2017 23:14 11,7 °C 11,8 °C 84 % 1007,8 hPa 0,0 mm 0,0 km/h (0 Bft) S-SW 205 ° 0 min 0,000 mm 0,0 UV-I 0 W/m² 9,1 °C 11,7 °C 0,0 km/h (0 Bft)
30.06.2017 23:15 11,7 °C 11,8 °C 84 % 1007,8 hPa 0,0 mm 0,0 km/h (0 Bft) S-SW 205 ° 0 min 0,000 mm 0,0 UV-I 0 W/m² 9,1 °C 11,7 °C 0,0 km/h (0 Bft)
30.06.2017 23:16 11,7 °C 11,7 °C 84 % 1007,8 hPa 0,0 mm 0,0 km/h (0 Bft) S-SW 205 ° 0 min 0,000 mm 0,0 UV-I 0 W/m² 9,1 °C 11,7 °C 0,0 km/h (0 Bft)
30.06.2017 23:17 11,7 °C 11,7 °C 84 % 1007,8 hPa 0,0 mm 0,0 km/h (0 Bft) S-SW 205 ° 0 min 0,000 mm 0,0 UV-I 0 W/m² 9,1 °C 11,7 °C 0,0 km/h (0 Bft)
30.06.2017 23:18 11,7 °C 11,7 °C 83 % 1007,8 hPa 0,0 mm 0,0 km/h (0 Bft) S-SW 205 ° 0 min 0,000 mm 0,0 UV-I 0 W/m² 8,9 °C 11,7 °C 0,0 km/h (0 Bft)
30.06.2017 23:19 11,7 °C 11,7 °C 84 % 1007,8 hPa 0,0 mm 0,0 km/h (0 Bft) S-SW 205 ° 0 min 0,000 mm 0,0 UV-I 0 W/m² 9,1 °C 11,7 °C 0,0 km/h (0 Bft)
30.06.2017 23:20 11,7 °C 11,7 °C 83 % 1007,8 hPa 0,0 mm 0,0 km/h (0 Bft) S-SW 205 ° 0 min 0,000 mm 0,0 UV-I 0 W/m² 8,9 °C 11,7 °C 0,0 km/h (0 Bft)
30.06.2017 23:21 11,7 °C 11,7 °C 83 % 1007,9 hPa 0,0 mm 2,4 km/h (1 Bft) W 263 ° 0 min 0,000 mm 0,0 UV-I 0 W/m² 8,9 °C 11,7 °C 4,8 km/h (1 Bft)
30.06.2017 23:22 11,7 °C 11,7 °C 83 % 1007,9 hPa 0,0 mm 1,1 km/h (1 Bft) W 263 ° 0 min 0,000 mm 0,0 UV-I 0 W/m² 8,9 °C 11,7 °C 3,2 km/h (1 Bft)
30.06.2017 23:23 11,7 °C 11,7 °C 84 % 1007,9 hPa 0,0 mm 0,1 km/h (0 Bft) W 263 ° 0 min 0,000 mm 0,0 UV-I 0 W/m² 9,1 °C 11,7 °C 1,6 km/h (1 Bft)
30.06.2017 23:24 11,7 °C 11,7 °C 84 % 1007,9 hPa 0,0 mm 0,1 km/h (0 Bft) W 263 ° 0 min 0,000 mm 0,0 UV-I 0 W/m² 9,1 °C 11,7 °C 1,6 km/h (1 Bft)
30.06.2017 23:25 11,7 °C 11,7 °C 84 % 1007,9 hPa 0,0 mm 0,2 km/h (0 Bft) W 263 ° 0 min 0,000 mm 0,0 UV-I 0 W/m² 9,1 °C 11,7 °C 1,6 km/h (1 Bft)
30.06.2017 23:26 11,7 °C 11,7 °C 84 % 1007,9 hPa 0,0 mm 0,0 km/h (0 Bft) W 263 ° 0 min 0,000 mm 0,0 UV-I 0 W/m² 9,1 °C 11,7 °C 0,0 km/h (0 Bft)
30.06.2017 23:27 11,7 °C 11,7 °C 84 % 1007,9 hPa 0,0 mm 0,0 km/h (0 Bft) W 263 ° 0 min 0,000 mm 0,0 UV-I 0 W/m² 9,1 °C 11,7 °C 0,0 km/h (0 Bft)
30.06.2017 23:28 11,7 °C 11,7 °C 84 % 1007,9 hPa 0,0 mm 0,0 km/h (0 Bft) W 263 ° 0 min 0,000 mm 0,0 UV-I 0 W/m² 9,1 °C 11,7 °C 0,0 km/h (0 Bft)
30.06.2017 23:29 11,7 °C 11,7 °C 83 % 1007,9 hPa 0,0 mm 0,0 km/h (0 Bft) W 263 ° 0 min 0,000 mm 0,0 UV-I 0 W/m² 8,9 °C 11,7 °C 0,0 km/h (0 Bft)
30.06.2017 23:30 11,7 °C 11,7 °C 83 % 1007,9 hPa 0,0 mm 0,0 km/h (0 Bft) W 263 ° 0 min 0,000 mm 0,0 UV-I 0 W/m² 8,9 °C 11,7 °C 0,0 km/h (0 Bft)
30.06.2017 23:31 11,7 °C 11,7 °C 84 % 1007,9 hPa 0,0 mm 0,0 km/h (0 Bft) W 263 ° 0 min 0,000 mm 0,0 UV-I 0 W/m² 9,1 °C 11,7 °C 0,0 km/h (0 Bft)
30.06.2017 23:32 11,7 °C 11,8 °C 83 % 1008,0 hPa 0,0 mm 0,0 km/h (0 Bft) W 263 ° 0 min 0,000 mm 0,0 UV-I 0 W/m² 8,9 °C 11,7 °C 0,0 km/h (0 Bft)
30.06.2017 23:33 11,8 °C 11,8 °C 84 % 1008,0 hPa 0,0 mm 0,0 km/h (0 Bft) W 263 ° 0 min 0,000 mm 0,0 UV-I 0 W/m² 9,2 °C 11,8 °C 0,0 km/h (0 Bft)
30.06.2017 23:34 11,8 °C 11,8 °C 83 % 1008,0 hPa 0,0 mm 3,6 km/h (1 Bft) W-SW 238 ° 0 min 0,000 mm 0,0 UV-I 0 W/m² 9,0 °C 11,8 °C 4,8 km/h (1 Bft)
30.06.2017 23:35 11,8 °C 11,8 °C 83 % 1008,0 hPa 0,0 mm 0,9 km/h (0 Bft) W-SW 238 ° 0 min 0,000 mm 0,0 UV-I 0 W/m² 9,0 °C 11,8 °C 4,8 km/h (1 Bft)
30.06.2017 23:36 11,9 °C 11,9 °C 83 % 1008,0 hPa 0,0 mm 0,4 km/h (0 Bft) W-SW 238 ° 0 min 0,000 mm 0,0 UV-I 0 W/m² 9,1 °C 11,9 °C 3,2 km/h (1 Bft)
30.06.2017 23:37 11,9 °C 11,9 °C 83 % 1008,1 hPa 0,0 mm 2,7 km/h (1 Bft) W 262 ° 0 min 0,000 mm 0,0 UV-I 0 W/m² 9,1 °C 11,9 °C 4,8 km/h (1 Bft)
30.06.2017 23:38 11,9 °C 11,9 °C 83 % 1008,1 hPa 0,0 mm 0,7 km/h (0 Bft) W 261 ° 0 min 0,000 mm 0,0 UV-I 0 W/m² 9,1 °C 11,9 °C 1,6 km/h (1 Bft)
30.06.2017 23:39 11,9 °C 11,9 °C 83 % 1008,1 hPa 0,0 mm 0,3 km/h (0 Bft) W 261 ° 0 min 0,000 mm 0,0 UV-I 0 W/m² 9,1 °C 11,9 °C 1,6 km/h (1 Bft)
30.06.2017 23:40 11,9 °C 11,9 °C 84 % 1008,1 hPa 0,0 mm 0,0 km/h (0 Bft) W 261 ° 0 min 0,000 mm 0,0 UV-I 0 W/m² 9,3 °C 11,9 °C 0,0 km/h (0 Bft)
30.06.2017 23:41 11,9 °C 11,9 °C 84 % 1008,2 hPa 0,0 mm 1,7 km/h (1 Bft) W 261 ° 0 min 0,000 mm 0,0 UV-I 0 W/m² 9,3 °C 11,9 °C 3,2 km/h (1 Bft)
30.06.2017 23:42 11,9 °C 11,9 °C 84 % 1008,2 hPa 0,0 mm 2,7 km/h (1 Bft) W-NW 301 ° 0 min 0,000 mm 0,0 UV-I 0 W/m² 9,3 °C 11,9 °C 4,8 km/h (1 Bft)
30.06.2017 23:43 11,8 °C 11,9 °C 83 % 1008,2 hPa 0,0 mm 3,2 km/h (1 Bft) W-NW 282 ° 0 min 0,000 mm 0,0 UV-I 0 W/m² 9,0 °C 11,8 °C 4,8 km/h (1 Bft)
30.06.2017 23:44 11,8 °C 11,9 °C 83 % 1008,2 hPa 0,0 mm 2,3 km/h (1 Bft) W-NW 282 ° 0 min 0,000 mm 0,0 UV-I 0 W/m² 9,0 °C 11,8 °C 4,8 km/h (1 Bft)
30.06.2017 23:45 11,9 °C 11,9 °C 84 % 1008,1 hPa 0,0 mm 2,1 km/h (1 Bft) W-NW 283 ° 0 min 0,000 mm 0,0 UV-I 0 W/m² 9,3 °C 11,9 °C 4,8 km/h (1 Bft)
30.06.2017 23:46 11,9 °C 11,9 °C 84 % 1008,2 hPa 0,0 mm 3,2 km/h (1 Bft) W-NW 283 ° 0 min 0,000 mm 0,0 UV-I 0 W/m² 9,3 °C 11,9 °C 4,8 km/h (1 Bft)
30.06.2017 23:47 11,9 °C 11,9 °C 84 % 1008,2 hPa 0,0 mm 3,6 km/h (1 Bft) W 281 ° 0 min 0,000 mm 0,0 UV-I 0 W/m² 9,3 °C 11,9 °C 6,4 km/h (2 Bft)
30.06.2017 23:48 11,9 °C 11,9 °C 84 % 1008,2 hPa 0,0 mm 4,2 km/h (1 Bft) W-NW 282 ° 0 min 0,000 mm 0,0 UV-I 0 W/m² 9,3 °C 11,9 °C 4,8 km/h (1 Bft)
30.06.2017 23:49 11,9 °C 11,9 °C 83 % 1008,4 hPa 0,0 mm 6,6 km/h (2 Bft) W-NW 290 ° 0 min 0,000 mm 0,0 UV-I 0 W/m² 9,1 °C 11,9 °C 9,7 km/h (2 Bft)
30.06.2017 23:50 11,9 °C 11,9 °C 83 % 1008,5 hPa 0,0 mm 7,6 km/h (2 Bft) W 281 ° 0 min 0,000 mm 0,0 UV-I 0 W/m² 9,1 °C 11,9 °C 11,3 km/h (2 Bft)
30.06.2017 23:51 11,9 °C 11,9 °C 83 % 1008,5 hPa 0,0 mm 7,3 km/h (2 Bft) W 267 ° 0 min 0,000 mm 0,0 UV-I 0 W/m² 9,1 °C 11,9 °C 11,3 km/h (2 Bft)
30.06.2017 23:52 11,9 °C 11,9 °C 84 % 1008,5 hPa 0,0 mm 2,9 km/h (1 Bft) W-SW 257 ° 0 min 0,000 mm 0,0 UV-I 0 W/m² 9,3 °C 11,9 °C 4,8 km/h (1 Bft)
30.06.2017 23:53 11,8 °C 11,9 °C 83 % 1008,5 hPa 0,0 mm 3,8 km/h (1 Bft) SW 230 ° 0 min 0,000 mm 0,0 UV-I 0 W/m² 9,0 °C 11,8 °C 4,8 km/h (1 Bft)
30.06.2017 23:54 11,8 °C 11,9 °C 82 % 1008,6 hPa 0,0 mm 2,5 km/h (1 Bft) SW 230 ° 0 min 0,000 mm 0,0 UV-I 0 W/m² 8,8 °C 11,8 °C 4,8 km/h (1 Bft)
30.06.2017 23:55 11,9 °C 11,9 °C 81 % 1008,5 hPa 0,0 mm 2,7 km/h (1 Bft) S-SW 196 ° 0 min 0,000 mm 0,0 UV-I 0 W/m² 8,7 °C 11,9 °C 6,4 km/h (2 Bft)
30.06.2017 23:56 12,0 °C 12,0 °C 81 % 1008,5 hPa 0,0 mm 3,3 km/h (1 Bft) S-SW 196 ° 0 min 0,000 mm 0,0 UV-I 0 W/m² 8,8 °C 12,0 °C 4,8 km/h (1 Bft)
30.06.2017 23:57 12,1 °C 12,1 °C 80 % 1008,5 hPa 0,0 mm 1,7 km/h (1 Bft) S-SW 202 ° 0 min 0,000 mm 0,0 UV-I 0 W/m² 8,8 °C 12,1 °C 3,2 km/h (1 Bft)
30.06.2017 23:58 12,1 °C 12,1 °C 81 % 1008,6 hPa 0,0 mm 2,3 km/h (1 Bft) W-SW 248 ° 0 min 0,000 mm 0,0 UV-I 0 W/m² 8,9 °C 12,1 °C 4,8 km/h (1 Bft)
30.06.2017 23:59 12,2 °C 12,2 °C 80 % 1008,6 hPa 0,0 mm 2,8 km/h (1 Bft) W-SW 248 ° 0 min 0,000 mm 0,0 UV-I 0 W/m² 8,9 °C 12,2 °C 4,8 km/h (1 Bft)
_ Min-Zeit 06:13 05:35 17:22 00:00 - 23:40 - - - - - - 17:25 06:13 23:40
Minimum _ 8,9 °C 8,9 °C 56 % 1004,9 hPa - 0,0 km/h (0 Bft) - - - - - - 6,6 °C 8,9 °C 0,0 km/h (0 Bft)
_ Max-Zeit 13:57 13:58 06:47 23:59 17:33 00:13 - - 16:07 14:01 13:58 11:42 16:48 13:57 17:19
Maximum _ 19,3 °C 19,3 °C 95 % 1008,6 hPa 0,2 mm 15,2 km/h
SW (3 Bft)
- - 1 min 0,508 mm 8,3 UV-I 1204 W/m² 13,4 °C 19,3 °C 27,4 km/h
SW (4 Bft)
Durchschnitt _ 13,4 °C 13,4 °C 80 % 1006,6 hPa #2,2 mm 2,0 km/h (1 Bft) W - #6:17 h #2,972 mm 3,3 UV-I 218 W/m² 9,8 °C 13,4 °C 3,8 km/h (1 Bft)